<?xml version='1.0' encoding='UTF-8'?><gpx version="1.1" creator="JPX - https://github.com/jenetics/jpx" xmlns="http://www.topografix.com/GPX/1/1"><trk><trkseg><trkpt lat="44.507945" lon="7.75793"><ele>380.0</ele><time>2026-04-25T08:28:51.634Z</time></trkpt><trkpt lat="44.5079767" lon="7.75783"><ele>380.0</ele><time>2026-04-25T08:28:55.633Z</time></trkpt><trkpt lat="44.5077983" lon="7.757655"><ele>380.0</ele><time>2026-04-25T08:29:40.225Z</time></trkpt><trkpt lat="44.50793" lon="7.7577167"><ele>380.0</ele><time>2026-04-25T08:29:45.636Z</time></trkpt><trkpt lat="44.5079783" lon="7.7577883"><ele>380.0</ele><time>2026-04-25T08:29:51.635Z</time></trkpt><trkpt lat="44.507915" lon="7.7577483"><ele>380.0</ele><time>2026-04-25T08:31:00.633Z</time></trkpt><trkpt lat="44.5078467" lon="7.7577317"><ele>380.0</ele><time>2026-04-25T08:31:04.635Z</time></trkpt><trkpt lat="44.50777" lon="7.75775"><ele>380.0</ele><time>2026-04-25T08:31:09.635Z</time></trkpt><trkpt lat="44.507705" lon="7.7577633"><ele>380.0</ele><time>2026-04-25T08:31:15.634Z</time></trkpt><trkpt lat="44.50762" lon="7.7577917"><ele>380.0</ele><time>2026-04-25T08:31:19.633Z</time></trkpt><trkpt lat="44.5075567" lon="7.7578183"><ele>380.0</ele><time>2026-04-25T08:31:22.639Z</time></trkpt><trkpt lat="44.5074833" lon="7.7578167"><ele>379.5</ele><time>2026-04-25T08:31:28.634Z</time></trkpt><trkpt lat="44.507415" lon="7.7578333"><ele>379.0</ele><time>2026-04-25T08:31:32.635Z</time></trkpt><trkpt lat="44.507335" lon="7.7578567"><ele>378.5</ele><time>2026-04-25T08:31:39.636Z</time></trkpt><trkpt lat="44.5072717" lon="7.7578733"><ele>378.0</ele><time>2026-04-25T08:31:42.636Z</time></trkpt><trkpt lat="44.5071883" lon="7.757915"><ele>377.5</ele><time>2026-04-25T08:31:46.634Z</time></trkpt><trkpt lat="44.5072083" lon="7.7580233"><ele>377.0</ele><time>2026-04-25T08:31:52.636Z</time></trkpt><trkpt lat="44.507265" lon="7.75815"><ele>377.0</ele><time>2026-04-25T08:31:54.637Z</time></trkpt><trkpt lat="44.5072917" lon="7.7583183"><ele>377.0</ele><time>2026-04-25T08:31:56.636Z</time></trkpt><trkpt lat="44.507305" lon="7.758485"><ele>377.0</ele><time>2026-04-25T08:31:58.635Z</time></trkpt><trkpt lat="44.5072917" lon="7.7585917"><ele>377.0</ele><time>2026-04-25T08:31:59.635Z</time></trkpt><trkpt lat="44.5072767" lon="7.7587"><ele>377.0</ele><time>2026-04-25T08:32:00.636Z</time></trkpt><trkpt lat="44.5072683" lon="7.7588067"><ele>376.75</ele><time>2026-04-25T08:32:01.634Z</time></trkpt><trkpt lat="44.50728" lon="7.7589183"><ele>376.5</ele><time>2026-04-25T08:32:02.635Z</time></trkpt><trkpt lat="44.5072983" lon="7.759045"><ele>376.25</ele><time>2026-04-25T08:32:03.635Z</time></trkpt><trkpt lat="44.5073267" lon="7.75941"><ele>376.0</ele><time>2026-04-25T08:32:04.641Z</time></trkpt><trkpt lat="44.5073283" lon="7.759565"><ele>376.0</ele><time>2026-04-25T08:32:05.635Z</time></trkpt><trkpt lat="44.5073283" lon="7.7597283"><ele>376.0</ele><time>2026-04-25T08:32:06.636Z</time></trkpt><trkpt lat="44.5073283" lon="7.7598683"><ele>376.0</ele><time>2026-04-25T08:32:07.634Z</time></trkpt><trkpt lat="44.5073367" lon="7.7600383"><ele>376.0</ele><time>2026-04-25T08:32:08.636Z</time></trkpt><trkpt lat="44.5073367" lon="7.760165"><ele>376.0</ele><time>2026-04-25T08:32:09.637Z</time></trkpt><trkpt lat="44.5073383" lon="7.7602733"><ele>375.8333333333333</ele><time>2026-04-25T08:32:10.636Z</time></trkpt><trkpt lat="44.5073433" lon="7.7603833"><ele>375.66666666666663</ele><time>2026-04-25T08:32:11.635Z</time></trkpt><trkpt lat="44.5073417" lon="7.760485"><ele>375.5</ele><time>2026-04-25T08:32:12.635Z</time></trkpt><trkpt lat="44.5073367" lon="7.7605767"><ele>375.3333333333333</ele><time>2026-04-25T08:32:13.637Z</time></trkpt><trkpt lat="44.507325" lon="7.76068"><ele>375.1666666666667</ele><time>2026-04-25T08:32:14.636Z</time></trkpt><trkpt lat="44.5073117" lon="7.7607967"><ele>375.0</ele><time>2026-04-25T08:32:15.636Z</time></trkpt><trkpt lat="44.5073" lon="7.7609233"><ele>374.6666666666667</ele><time>2026-04-25T08:32:16.635Z</time></trkpt><trkpt lat="44.50729" lon="7.761055"><ele>374.3333333333333</ele><time>2026-04-25T08:32:17.636Z</time></trkpt><trkpt lat="44.5072783" lon="7.7611867"><ele>374.0</ele><time>2026-04-25T08:32:18.634Z</time></trkpt><trkpt lat="44.5072667" lon="7.7613083"><ele>373.66666666666663</ele><time>2026-04-25T08:32:19.636Z</time></trkpt><trkpt lat="44.507255" lon="7.7614183"><ele>373.3333333333333</ele><time>2026-04-25T08:32:20.637Z</time></trkpt><trkpt lat="44.50724" lon="7.761515"><ele>373.0</ele><time>2026-04-25T08:32:21.636Z</time></trkpt><trkpt lat="44.507225" lon="7.7616933"><ele>373.0</ele><time>2026-04-25T08:32:23.635Z</time></trkpt><trkpt lat="44.5072083" lon="7.7618667"><ele>373.0</ele><time>2026-04-25T08:32:25.634Z</time></trkpt><trkpt lat="44.5071983" lon="7.7619633"><ele>373.0</ele><time>2026-04-25T08:32:26.636Z</time></trkpt><trkpt lat="44.5071833" lon="7.7620633"><ele>373.0</ele><time>2026-04-25T08:32:27.635Z</time></trkpt><trkpt lat="44.5071617" lon="7.762175"><ele>373.0</ele><time>2026-04-25T08:32:28.636Z</time></trkpt><trkpt lat="44.5071367" lon="7.762295"><ele>373.0</ele><time>2026-04-25T08:32:29.635Z</time></trkpt><trkpt lat="44.5071083" lon="7.76243"><ele>373.0</ele><time>2026-04-25T08:32:30.636Z</time></trkpt><trkpt lat="44.5070783" lon="7.762575"><ele>373.0</ele><time>2026-04-25T08:32:31.633Z</time></trkpt><trkpt lat="44.5070483" lon="7.762725"><ele>373.0</ele><time>2026-04-25T08:32:32.636Z</time></trkpt><trkpt lat="44.5070167" lon="7.7628733"><ele>373.0</ele><time>2026-04-25T08:32:33.636Z</time></trkpt><trkpt lat="44.50699" lon="7.763025"><ele>373.0</ele><time>2026-04-25T08:32:34.635Z</time></trkpt><trkpt lat="44.5069667" lon="7.7631733"><ele>372.75</ele><time>2026-04-25T08:32:35.635Z</time></trkpt><trkpt lat="44.50694" lon="7.7633183"><ele>372.5</ele><time>2026-04-25T08:32:36.638Z</time></trkpt><trkpt lat="44.506915" lon="7.763475"><ele>372.25</ele><time>2026-04-25T08:32:37.636Z</time></trkpt><trkpt lat="44.5068883" lon="7.76364"><ele>372.0</ele><time>2026-04-25T08:32:38.636Z</time></trkpt><trkpt lat="44.5068633" lon="7.7638017"><ele>372.0</ele><time>2026-04-25T08:32:39.637Z</time></trkpt><trkpt lat="44.5068333" lon="7.7639733"><ele>372.0</ele><time>2026-04-25T08:32:40.633Z</time></trkpt><trkpt lat="44.5068017" lon="7.764135"><ele>372.0</ele><time>2026-04-25T08:32:41.643Z</time></trkpt><trkpt lat="44.506775" lon="7.7643"><ele>372.0</ele><time>2026-04-25T08:32:42.636Z</time></trkpt><trkpt lat="44.50675" lon="7.764465"><ele>372.0</ele><time>2026-04-25T08:32:43.636Z</time></trkpt><trkpt lat="44.506725" lon="7.76463"><ele>372.0</ele><time>2026-04-25T08:32:44.636Z</time></trkpt><trkpt lat="44.5066933" lon="7.764805"><ele>372.0</ele><time>2026-04-25T08:32:45.636Z</time></trkpt><trkpt lat="44.5066617" lon="7.764985"><ele>372.0</ele><time>2026-04-25T08:32:46.636Z</time></trkpt><trkpt lat="44.506625" lon="7.765165"><ele>372.0</ele><time>2026-04-25T08:32:47.639Z</time></trkpt><trkpt lat="44.5065933" lon="7.7653467"><ele>372.0</ele><time>2026-04-25T08:32:48.637Z</time></trkpt><trkpt lat="44.5065583" lon="7.7655367"><ele>372.0</ele><time>2026-04-25T08:32:49.637Z</time></trkpt><trkpt lat="44.506525" lon="7.7657233"><ele>372.0</ele><time>2026-04-25T08:32:50.641Z</time></trkpt><trkpt lat="44.5064883" lon="7.765905"><ele>371.75</ele><time>2026-04-25T08:32:51.636Z</time></trkpt><trkpt lat="44.506455" lon="7.7660933"><ele>371.5</ele><time>2026-04-25T08:32:52.636Z</time></trkpt><trkpt lat="44.5064233" lon="7.7662867"><ele>371.25</ele><time>2026-04-25T08:32:53.637Z</time></trkpt><trkpt lat="44.50639" lon="7.76648"><ele>371.0</ele><time>2026-04-25T08:32:54.636Z</time></trkpt><trkpt lat="44.5063567" lon="7.76667"><ele>371.0</ele><time>2026-04-25T08:32:55.639Z</time></trkpt><trkpt lat="44.5063217" lon="7.76686"><ele>371.0</ele><time>2026-04-25T08:32:56.636Z</time></trkpt><trkpt lat="44.5062817" lon="7.767055"><ele>371.0</ele><time>2026-04-25T08:32:57.636Z</time></trkpt><trkpt lat="44.50624" lon="7.7672433"><ele>371.0</ele><time>2026-04-25T08:32:58.636Z</time></trkpt><trkpt lat="44.5061967" lon="7.7674133"><ele>371.0</ele><time>2026-04-25T08:32:59.637Z</time></trkpt><trkpt lat="44.50616" lon="7.7675483"><ele>371.0</ele><time>2026-04-25T08:33:00.636Z</time></trkpt><trkpt lat="44.5061267" lon="7.7676733"><ele>371.0</ele><time>2026-04-25T08:33:01.637Z</time></trkpt><trkpt lat="44.5060933" lon="7.767795"><ele>371.0</ele><time>2026-04-25T08:33:02.637Z</time></trkpt><trkpt lat="44.50606" lon="7.76792"><ele>371.0</ele><time>2026-04-25T08:33:03.637Z</time></trkpt><trkpt lat="44.5060217" lon="7.76804"><ele>371.0</ele><time>2026-04-25T08:33:04.638Z</time></trkpt><trkpt lat="44.505985" lon="7.76816"><ele>371.0</ele><time>2026-04-25T08:33:05.637Z</time></trkpt><trkpt lat="44.5059467" lon="7.7682867"><ele>371.0</ele><time>2026-04-25T08:33:06.636Z</time></trkpt><trkpt lat="44.50591" lon="7.76841"><ele>371.0</ele><time>2026-04-25T08:33:07.637Z</time></trkpt><trkpt lat="44.5058683" lon="7.7685333"><ele>371.0</ele><time>2026-04-25T08:33:08.635Z</time></trkpt><trkpt lat="44.5058283" lon="7.76866"><ele>371.0</ele><time>2026-04-25T08:33:09.64Z</time></trkpt><trkpt lat="44.505785" lon="7.7687917"><ele>371.0</ele><time>2026-04-25T08:33:10.635Z</time></trkpt><trkpt lat="44.505735" lon="7.7689283"><ele>371.0</ele><time>2026-04-25T08:33:11.636Z</time></trkpt><trkpt lat="44.505685" lon="7.769065"><ele>371.0</ele><time>2026-04-25T08:33:12.636Z</time></trkpt><trkpt lat="44.50563" lon="7.7692033"><ele>371.0</ele><time>2026-04-25T08:33:13.636Z</time></trkpt><trkpt lat="44.5055733" lon="7.7693433"><ele>371.0</ele><time>2026-04-25T08:33:14.641Z</time></trkpt><trkpt lat="44.5055133" lon="7.76949"><ele>371.0</ele><time>2026-04-25T08:33:15.636Z</time></trkpt><trkpt lat="44.50545" lon="7.7696367"><ele>371.0</ele><time>2026-04-25T08:33:16.637Z</time></trkpt><trkpt lat="44.505385" lon="7.76979"><ele>371.0</ele><time>2026-04-25T08:33:17.636Z</time></trkpt><trkpt lat="44.505315" lon="7.76995"><ele>371.0</ele><time>2026-04-25T08:33:18.636Z</time></trkpt><trkpt lat="44.505235" lon="7.77012"><ele>371.0</ele><time>2026-04-25T08:33:19.636Z</time></trkpt><trkpt lat="44.50515" lon="7.7702983"><ele>371.0</ele><time>2026-04-25T08:33:20.638Z</time></trkpt><trkpt lat="44.50506" lon="7.7704817"><ele>371.0</ele><time>2026-04-25T08:33:21.636Z</time></trkpt><trkpt lat="44.50497" lon="7.7706583"><ele>371.0</ele><time>2026-04-25T08:33:22.637Z</time></trkpt><trkpt lat="44.5048833" lon="7.7708233"><ele>371.0</ele><time>2026-04-25T08:33:23.637Z</time></trkpt><trkpt lat="44.5048" lon="7.770975"><ele>371.0</ele><time>2026-04-25T08:33:24.638Z</time></trkpt><trkpt lat="44.50472" lon="7.771115"><ele>371.0</ele><time>2026-04-25T08:33:25.64Z</time></trkpt><trkpt lat="44.504645" lon="7.7712417"><ele>371.0</ele><time>2026-04-25T08:33:26.637Z</time></trkpt><trkpt lat="44.504575" lon="7.7713617"><ele>371.0</ele><time>2026-04-25T08:33:27.636Z</time></trkpt><trkpt lat="44.5045017" lon="7.7714833"><ele>371.0</ele><time>2026-04-25T08:33:28.636Z</time></trkpt><trkpt lat="44.5044317" lon="7.771605"><ele>371.4</ele><time>2026-04-25T08:33:29.637Z</time></trkpt><trkpt lat="44.5043633" lon="7.771725"><ele>371.8</ele><time>2026-04-25T08:33:30.636Z</time></trkpt><trkpt lat="44.5042933" lon="7.771845"><ele>372.2</ele><time>2026-04-25T08:33:31.637Z</time></trkpt><trkpt lat="44.5042267" lon="7.7719617"><ele>372.59999999999997</ele><time>2026-04-25T08:33:32.639Z</time></trkpt><trkpt lat="44.5041633" lon="7.7720717"><ele>373.0</ele><time>2026-04-25T08:33:33.64Z</time></trkpt><trkpt lat="44.5041033" lon="7.7721767"><ele>373.0</ele><time>2026-04-25T08:33:34.637Z</time></trkpt><trkpt lat="44.504045" lon="7.7722833"><ele>373.0</ele><time>2026-04-25T08:33:35.637Z</time></trkpt><trkpt lat="44.5039867" lon="7.772395"><ele>373.0</ele><time>2026-04-25T08:33:36.636Z</time></trkpt><trkpt lat="44.5039267" lon="7.7725217"><ele>373.0</ele><time>2026-04-25T08:33:37.636Z</time></trkpt><trkpt lat="44.5038633" lon="7.772665"><ele>373.0</ele><time>2026-04-25T08:33:38.637Z</time></trkpt><trkpt lat="44.503805" lon="7.7728117"><ele>373.0</ele><time>2026-04-25T08:33:39.638Z</time></trkpt><trkpt lat="44.503745" lon="7.7729617"><ele>373.0</ele><time>2026-04-25T08:33:40.638Z</time></trkpt><trkpt lat="44.5036817" lon="7.773115"><ele>373.0</ele><time>2026-04-25T08:33:41.639Z</time></trkpt><trkpt lat="44.5036217" lon="7.77327"><ele>373.0</ele><time>2026-04-25T08:33:42.635Z</time></trkpt><trkpt lat="44.5035667" lon="7.7734167"><ele>373.0</ele><time>2026-04-25T08:33:43.635Z</time></trkpt><trkpt lat="44.5035167" lon="7.7735583"><ele>373.0</ele><time>2026-04-25T08:33:44.636Z</time></trkpt><trkpt lat="44.5034683" lon="7.7736933"><ele>373.0</ele><time>2026-04-25T08:33:45.635Z</time></trkpt><trkpt lat="44.503425" lon="7.773815"><ele>373.0</ele><time>2026-04-25T08:33:46.637Z</time></trkpt><trkpt lat="44.50338" lon="7.7739367"><ele>373.0</ele><time>2026-04-25T08:33:47.637Z</time></trkpt><trkpt lat="44.5033333" lon="7.77406"><ele>373.0</ele><time>2026-04-25T08:33:48.637Z</time></trkpt><trkpt lat="44.5032883" lon="7.774175"><ele>373.0</ele><time>2026-04-25T08:33:49.636Z</time></trkpt><trkpt lat="44.503245" lon="7.77429"><ele>373.0</ele><time>2026-04-25T08:33:50.638Z</time></trkpt><trkpt lat="44.5032033" lon="7.7744017"><ele>373.0</ele><time>2026-04-25T08:33:51.636Z</time></trkpt><trkpt lat="44.5031633" lon="7.774515"><ele>373.0</ele><time>2026-04-25T08:33:52.634Z</time></trkpt><trkpt lat="44.5031233" lon="7.7746267"><ele>373.0</ele><time>2026-04-25T08:33:53.635Z</time></trkpt><trkpt lat="44.5030817" lon="7.7747417"><ele>373.0</ele><time>2026-04-25T08:33:54.634Z</time></trkpt><trkpt lat="44.5030383" lon="7.77486"><ele>373.0</ele><time>2026-04-25T08:33:55.634Z</time></trkpt><trkpt lat="44.5029933" lon="7.7749817"><ele>373.0</ele><time>2026-04-25T08:33:56.639Z</time></trkpt><trkpt lat="44.5029483" lon="7.7751067"><ele>373.0</ele><time>2026-04-25T08:33:57.635Z</time></trkpt><trkpt lat="44.5028983" lon="7.7752317"><ele>373.2</ele><time>2026-04-25T08:33:58.633Z</time></trkpt><trkpt lat="44.5028483" lon="7.7753617"><ele>373.4</ele><time>2026-04-25T08:33:59.634Z</time></trkpt><trkpt lat="44.5027967" lon="7.7754933"><ele>373.59999999999997</ele><time>2026-04-25T08:34:00.634Z</time></trkpt><trkpt lat="44.502745" lon="7.77563"><ele>373.79999999999995</ele><time>2026-04-25T08:34:01.635Z</time></trkpt><trkpt lat="44.502685" lon="7.7757733"><ele>374.0</ele><time>2026-04-25T08:34:02.638Z</time></trkpt><trkpt lat="44.5026283" lon="7.7759217"><ele>374.0</ele><time>2026-04-25T08:34:03.634Z</time></trkpt><trkpt lat="44.5025783" lon="7.7760667"><ele>374.0</ele><time>2026-04-25T08:34:04.636Z</time></trkpt><trkpt lat="44.50253" lon="7.7762183"><ele>374.0</ele><time>2026-04-25T08:34:05.637Z</time></trkpt><trkpt lat="44.50249" lon="7.7763567"><ele>374.0</ele><time>2026-04-25T08:34:06.635Z</time></trkpt><trkpt lat="44.5024567" lon="7.7764867"><ele>374.0</ele><time>2026-04-25T08:34:07.634Z</time></trkpt><trkpt lat="44.5024283" lon="7.7766083"><ele>374.0</ele><time>2026-04-25T08:34:08.636Z</time></trkpt><trkpt lat="44.5024" lon="7.7767267"><ele>374.0</ele><time>2026-04-25T08:34:09.634Z</time></trkpt><trkpt lat="44.502365" lon="7.7768533"><ele>374.0</ele><time>2026-04-25T08:34:10.634Z</time></trkpt><trkpt lat="44.502325" lon="7.7769767"><ele>374.0</ele><time>2026-04-25T08:34:11.634Z</time></trkpt><trkpt lat="44.50228" lon="7.7770967"><ele>374.0</ele><time>2026-04-25T08:34:12.634Z</time></trkpt><trkpt lat="44.5022183" lon="7.7772067"><ele>374.0</ele><time>2026-04-25T08:34:13.634Z</time></trkpt><trkpt lat="44.5021483" lon="7.7773167"><ele>374.0</ele><time>2026-04-25T08:34:14.637Z</time></trkpt><trkpt lat="44.50207" lon="7.77742"><ele>374.0</ele><time>2026-04-25T08:34:15.636Z</time></trkpt><trkpt lat="44.501995" lon="7.77752"><ele>374.0</ele><time>2026-04-25T08:34:16.634Z</time></trkpt><trkpt lat="44.50192" lon="7.7776183"><ele>374.0</ele><time>2026-04-25T08:34:17.638Z</time></trkpt><trkpt lat="44.501845" lon="7.7777133"><ele>374.2</ele><time>2026-04-25T08:34:18.633Z</time></trkpt><trkpt lat="44.501765" lon="7.777815"><ele>374.4</ele><time>2026-04-25T08:34:19.634Z</time></trkpt><trkpt lat="44.5016783" lon="7.77793"><ele>374.6</ele><time>2026-04-25T08:34:20.636Z</time></trkpt><trkpt lat="44.5016" lon="7.7780217"><ele>374.8</ele><time>2026-04-25T08:34:21.637Z</time></trkpt><trkpt lat="44.5015183" lon="7.7781267"><ele>375.0</ele><time>2026-04-25T08:34:22.633Z</time></trkpt><trkpt lat="44.5014333" lon="7.77824"><ele>375.0</ele><time>2026-04-25T08:34:23.634Z</time></trkpt><trkpt lat="44.50136" lon="7.77836"><ele>375.0</ele><time>2026-04-25T08:34:24.634Z</time></trkpt><trkpt lat="44.50129" lon="7.778495"><ele>375.0</ele><time>2026-04-25T08:34:25.635Z</time></trkpt><trkpt lat="44.501225" lon="7.7786317"><ele>375.0</ele><time>2026-04-25T08:34:26.633Z</time></trkpt><trkpt lat="44.5011633" lon="7.7787633"><ele>374.8</ele><time>2026-04-25T08:34:27.634Z</time></trkpt><trkpt lat="44.5011067" lon="7.7788933"><ele>374.6</ele><time>2026-04-25T08:34:28.634Z</time></trkpt><trkpt lat="44.501045" lon="7.77901"><ele>374.4</ele><time>2026-04-25T08:34:29.633Z</time></trkpt><trkpt lat="44.5009933" lon="7.7791233"><ele>374.2</ele><time>2026-04-25T08:34:30.634Z</time></trkpt><trkpt lat="44.5009383" lon="7.7792117"><ele>374.0</ele><time>2026-04-25T08:34:31.633Z</time></trkpt><trkpt lat="44.50089" lon="7.7793017"><ele>374.0</ele><time>2026-04-25T08:34:32.634Z</time></trkpt><trkpt lat="44.5008417" lon="7.7793867"><ele>374.0</ele><time>2026-04-25T08:34:33.636Z</time></trkpt><trkpt lat="44.500785" lon="7.7794517"><ele>374.0</ele><time>2026-04-25T08:34:34.634Z</time></trkpt><trkpt lat="44.500735" lon="7.77952"><ele>374.0</ele><time>2026-04-25T08:34:35.638Z</time></trkpt><trkpt lat="44.5006833" lon="7.7795933"><ele>374.0</ele><time>2026-04-25T08:34:36.636Z</time></trkpt><trkpt lat="44.50064" lon="7.7796617"><ele>374.0</ele><time>2026-04-25T08:34:37.634Z</time></trkpt><trkpt lat="44.5005917" lon="7.77973"><ele>374.0</ele><time>2026-04-25T08:34:38.634Z</time></trkpt><trkpt lat="44.5005467" lon="7.7798"><ele>374.0</ele><time>2026-04-25T08:34:39.634Z</time></trkpt><trkpt lat="44.5004833" lon="7.7798333"><ele>374.0</ele><time>2026-04-25T08:34:40.634Z</time></trkpt><trkpt lat="44.5004233" lon="7.7798633"><ele>374.0</ele><time>2026-04-25T08:34:41.635Z</time></trkpt><trkpt lat="44.5003633" lon="7.7798933"><ele>374.0</ele><time>2026-04-25T08:34:42.634Z</time></trkpt><trkpt lat="44.50031" lon="7.7800133"><ele>374.0</ele><time>2026-04-25T08:34:44.634Z</time></trkpt><trkpt lat="44.5003183" lon="7.7801533"><ele>374.0</ele><time>2026-04-25T08:34:46.633Z</time></trkpt><trkpt lat="44.500395" lon="7.7802583"><ele>373.6666666666667</ele><time>2026-04-25T08:34:48.634Z</time></trkpt><trkpt lat="44.5004533" lon="7.7802983"><ele>373.33333333333337</ele><time>2026-04-25T08:34:49.635Z</time></trkpt><trkpt lat="44.500525" lon="7.7803317"><ele>373.0</ele><time>2026-04-25T08:34:50.635Z</time></trkpt><trkpt lat="44.5006033" lon="7.78036"><ele>372.6666666666667</ele><time>2026-04-25T08:34:51.634Z</time></trkpt><trkpt lat="44.5006867" lon="7.7803933"><ele>372.3333333333333</ele><time>2026-04-25T08:34:52.634Z</time></trkpt><trkpt lat="44.50077" lon="7.7804567"><ele>372.0</ele><time>2026-04-25T08:34:53.636Z</time></trkpt><trkpt lat="44.500865" lon="7.7805617"><ele>372.0</ele><time>2026-04-25T08:34:54.636Z</time></trkpt><trkpt lat="44.5009567" lon="7.7806783"><ele>372.0</ele><time>2026-04-25T08:34:55.636Z</time></trkpt><trkpt lat="44.5010483" lon="7.7807983"><ele>372.0</ele><time>2026-04-25T08:34:56.637Z</time></trkpt><trkpt lat="44.5011483" lon="7.780925"><ele>372.0</ele><time>2026-04-25T08:34:57.635Z</time></trkpt><trkpt lat="44.501255" lon="7.7810583"><ele>372.0</ele><time>2026-04-25T08:34:58.633Z</time></trkpt><trkpt lat="44.50136" lon="7.781195"><ele>372.0</ele><time>2026-04-25T08:34:59.639Z</time></trkpt><trkpt lat="44.5014583" lon="7.7813267"><ele>372.0</ele><time>2026-04-25T08:35:00.634Z</time></trkpt><trkpt lat="44.5015517" lon="7.7814533"><ele>372.0</ele><time>2026-04-25T08:35:01.635Z</time></trkpt><trkpt lat="44.5016417" lon="7.7815783"><ele>372.0</ele><time>2026-04-25T08:35:02.636Z</time></trkpt><trkpt lat="44.5017367" lon="7.7817083"><ele>372.0</ele><time>2026-04-25T08:35:03.634Z</time></trkpt><trkpt lat="44.5018317" lon="7.7818333"><ele>372.0</ele><time>2026-04-25T08:35:04.633Z</time></trkpt><trkpt lat="44.5019217" lon="7.78195"><ele>372.0</ele><time>2026-04-25T08:35:05.634Z</time></trkpt><trkpt lat="44.5020033" lon="7.782055"><ele>372.0</ele><time>2026-04-25T08:35:06.636Z</time></trkpt><trkpt lat="44.50208" lon="7.7821567"><ele>372.0</ele><time>2026-04-25T08:35:07.634Z</time></trkpt><trkpt lat="44.5021533" lon="7.7822567"><ele>372.0</ele><time>2026-04-25T08:35:08.634Z</time></trkpt><trkpt lat="44.5022267" lon="7.7823567"><ele>372.0</ele><time>2026-04-25T08:35:09.639Z</time></trkpt><trkpt lat="44.5023017" lon="7.7824567"><ele>372.0</ele><time>2026-04-25T08:35:10.637Z</time></trkpt><trkpt lat="44.502385" lon="7.7825683"><ele>371.75</ele><time>2026-04-25T08:35:11.636Z</time></trkpt><trkpt lat="44.502475" lon="7.7826883"><ele>371.5</ele><time>2026-04-25T08:35:12.636Z</time></trkpt><trkpt lat="44.5025633" lon="7.7828067"><ele>371.25</ele><time>2026-04-25T08:35:13.636Z</time></trkpt><trkpt lat="44.5026517" lon="7.7829217"><ele>371.0</ele><time>2026-04-25T08:35:14.636Z</time></trkpt><trkpt lat="44.5027417" lon="7.78304"><ele>371.0</ele><time>2026-04-25T08:35:15.634Z</time></trkpt><trkpt lat="44.502835" lon="7.7831583"><ele>371.0</ele><time>2026-04-25T08:35:16.633Z</time></trkpt><trkpt lat="44.502935" lon="7.7832933"><ele>371.0</ele><time>2026-04-25T08:35:17.634Z</time></trkpt><trkpt lat="44.5030417" lon="7.7834367"><ele>371.0</ele><time>2026-04-25T08:35:18.638Z</time></trkpt><trkpt lat="44.5031583" lon="7.7835733"><ele>371.25</ele><time>2026-04-25T08:35:19.635Z</time></trkpt><trkpt lat="44.5032583" lon="7.783705"><ele>371.5</ele><time>2026-04-25T08:35:20.634Z</time></trkpt><trkpt lat="44.50336" lon="7.78384"><ele>371.75</ele><time>2026-04-25T08:35:21.633Z</time></trkpt><trkpt lat="44.5034667" lon="7.7839833"><ele>372.0</ele><time>2026-04-25T08:35:22.634Z</time></trkpt><trkpt lat="44.50358" lon="7.7841267"><ele>372.0</ele><time>2026-04-25T08:35:23.636Z</time></trkpt><trkpt lat="44.5036917" lon="7.7842667"><ele>372.0</ele><time>2026-04-25T08:35:24.635Z</time></trkpt><trkpt lat="44.5037967" lon="7.784395"><ele>372.0</ele><time>2026-04-25T08:35:25.639Z</time></trkpt><trkpt lat="44.5038983" lon="7.7845267"><ele>372.0</ele><time>2026-04-25T08:35:26.634Z</time></trkpt><trkpt lat="44.5040017" lon="7.7846633"><ele>371.5</ele><time>2026-04-25T08:35:27.634Z</time></trkpt><trkpt lat="44.5041" lon="7.7848067"><ele>371.0</ele><time>2026-04-25T08:35:28.636Z</time></trkpt><trkpt lat="44.504205" lon="7.784955"><ele>370.5</ele><time>2026-04-25T08:35:29.637Z</time></trkpt><trkpt lat="44.50431" lon="7.7851067"><ele>370.0</ele><time>2026-04-25T08:35:30.637Z</time></trkpt><trkpt lat="44.5044183" lon="7.7852633"><ele>370.0</ele><time>2026-04-25T08:35:31.633Z</time></trkpt><trkpt lat="44.5045383" lon="7.7854167"><ele>370.0</ele><time>2026-04-25T08:35:32.641Z</time></trkpt><trkpt lat="44.5046667" lon="7.7855817"><ele>370.0</ele><time>2026-04-25T08:35:33.635Z</time></trkpt><trkpt lat="44.5047983" lon="7.785755"><ele>370.0</ele><time>2026-04-25T08:35:34.633Z</time></trkpt><trkpt lat="44.5049367" lon="7.7859367"><ele>370.0</ele><time>2026-04-25T08:35:35.636Z</time></trkpt><trkpt lat="44.5050767" lon="7.7861217"><ele>370.0</ele><time>2026-04-25T08:35:36.635Z</time></trkpt><trkpt lat="44.50521" lon="7.786295"><ele>370.0</ele><time>2026-04-25T08:35:37.634Z</time></trkpt><trkpt lat="44.5053417" lon="7.7864667"><ele>370.0</ele><time>2026-04-25T08:35:38.639Z</time></trkpt><trkpt lat="44.505465" lon="7.7866283"><ele>370.0</ele><time>2026-04-25T08:35:39.635Z</time></trkpt><trkpt lat="44.505585" lon="7.7867867"><ele>370.0</ele><time>2026-04-25T08:35:40.635Z</time></trkpt><trkpt lat="44.5057" lon="7.7869417"><ele>370.0</ele><time>2026-04-25T08:35:41.634Z</time></trkpt><trkpt lat="44.50582" lon="7.7871017"><ele>370.0</ele><time>2026-04-25T08:35:42.634Z</time></trkpt><trkpt lat="44.5059433" lon="7.787265"><ele>370.0</ele><time>2026-04-25T08:35:43.635Z</time></trkpt><trkpt lat="44.5060717" lon="7.7874417"><ele>370.0</ele><time>2026-04-25T08:35:44.634Z</time></trkpt><trkpt lat="44.506205" lon="7.7876233"><ele>370.0</ele><time>2026-04-25T08:35:45.643Z</time></trkpt><trkpt lat="44.5063417" lon="7.787805"><ele>370.0</ele><time>2026-04-25T08:35:46.636Z</time></trkpt><trkpt lat="44.5064783" lon="7.7879933"><ele>370.0</ele><time>2026-04-25T08:35:47.637Z</time></trkpt><trkpt lat="44.5066067" lon="7.7881733"><ele>370.0</ele><time>2026-04-25T08:35:48.635Z</time></trkpt><trkpt lat="44.506725" lon="7.78834"><ele>370.0</ele><time>2026-04-25T08:35:49.636Z</time></trkpt><trkpt lat="44.506835" lon="7.7884867"><ele>370.0</ele><time>2026-04-25T08:35:50.635Z</time></trkpt><trkpt lat="44.5069183" lon="7.7885883"><ele>370.0</ele><time>2026-04-25T08:35:51.634Z</time></trkpt><trkpt lat="44.5069867" lon="7.7886917"><ele>370.0</ele><time>2026-04-25T08:35:52.633Z</time></trkpt><trkpt lat="44.507045" lon="7.78879"><ele>369.8</ele><time>2026-04-25T08:35:53.634Z</time></trkpt><trkpt lat="44.50711" lon="7.78888"><ele>369.6</ele><time>2026-04-25T08:35:54.639Z</time></trkpt><trkpt lat="44.507175" lon="7.7889717"><ele>369.4</ele><time>2026-04-25T08:35:55.633Z</time></trkpt><trkpt lat="44.5072417" lon="7.789065"><ele>369.2</ele><time>2026-04-25T08:35:56.638Z</time></trkpt><trkpt lat="44.507315" lon="7.7891617"><ele>369.0</ele><time>2026-04-25T08:35:57.635Z</time></trkpt><trkpt lat="44.507385" lon="7.789265"><ele>369.2</ele><time>2026-04-25T08:35:58.634Z</time></trkpt><trkpt lat="44.5074617" lon="7.78937"><ele>369.4</ele><time>2026-04-25T08:35:59.634Z</time></trkpt><trkpt lat="44.5075367" lon="7.7894767"><ele>369.6</ele><time>2026-04-25T08:36:00.637Z</time></trkpt><trkpt lat="44.507615" lon="7.7895833"><ele>369.8</ele><time>2026-04-25T08:36:01.636Z</time></trkpt><trkpt lat="44.5076983" lon="7.7896933"><ele>370.0</ele><time>2026-04-25T08:36:02.639Z</time></trkpt><trkpt lat="44.5077833" lon="7.7898117"><ele>370.0</ele><time>2026-04-25T08:36:03.635Z</time></trkpt><trkpt lat="44.5078767" lon="7.789935"><ele>370.0</ele><time>2026-04-25T08:36:04.633Z</time></trkpt><trkpt lat="44.5079733" lon="7.7900617"><ele>370.0</ele><time>2026-04-25T08:36:05.634Z</time></trkpt><trkpt lat="44.5080667" lon="7.7901883"><ele>370.0</ele><time>2026-04-25T08:36:06.633Z</time></trkpt><trkpt lat="44.5081633" lon="7.7903167"><ele>369.5</ele><time>2026-04-25T08:36:07.634Z</time></trkpt><trkpt lat="44.5082617" lon="7.7904467"><ele>369.0</ele><time>2026-04-25T08:36:08.634Z</time></trkpt><trkpt lat="44.50836" lon="7.7905767"><ele>368.5</ele><time>2026-04-25T08:36:09.638Z</time></trkpt><trkpt lat="44.5084567" lon="7.790705"><ele>368.0</ele><time>2026-04-25T08:36:10.634Z</time></trkpt><trkpt lat="44.5085533" lon="7.7908317"><ele>368.0</ele><time>2026-04-25T08:36:11.634Z</time></trkpt><trkpt lat="44.5086433" lon="7.7909517"><ele>368.0</ele><time>2026-04-25T08:36:12.634Z</time></trkpt><trkpt lat="44.5087367" lon="7.7910833"><ele>368.0</ele><time>2026-04-25T08:36:13.635Z</time></trkpt><trkpt lat="44.5088417" lon="7.7912267"><ele>368.0</ele><time>2026-04-25T08:36:14.639Z</time></trkpt><trkpt lat="44.5089533" lon="7.7913767"><ele>367.75</ele><time>2026-04-25T08:36:15.635Z</time></trkpt><trkpt lat="44.5090667" lon="7.7915283"><ele>367.5</ele><time>2026-04-25T08:36:16.633Z</time></trkpt><trkpt lat="44.5091733" lon="7.791675"><ele>367.25</ele><time>2026-04-25T08:36:17.636Z</time></trkpt><trkpt lat="44.509275" lon="7.7918117"><ele>367.0</ele><time>2026-04-25T08:36:18.636Z</time></trkpt><trkpt lat="44.509375" lon="7.7919467"><ele>366.75</ele><time>2026-04-25T08:36:19.639Z</time></trkpt><trkpt lat="44.5094783" lon="7.792085"><ele>366.5</ele><time>2026-04-25T08:36:20.635Z</time></trkpt><trkpt lat="44.509585" lon="7.7922283"><ele>366.25</ele><time>2026-04-25T08:36:21.633Z</time></trkpt><trkpt lat="44.5096933" lon="7.7923783"><ele>366.0</ele><time>2026-04-25T08:36:22.637Z</time></trkpt><trkpt lat="44.5098033" lon="7.7925267"><ele>366.0</ele><time>2026-04-25T08:36:23.638Z</time></trkpt><trkpt lat="44.50991" lon="7.79267"><ele>366.0</ele><time>2026-04-25T08:36:24.641Z</time></trkpt><trkpt lat="44.5100167" lon="7.792815"><ele>366.0</ele><time>2026-04-25T08:36:25.634Z</time></trkpt><trkpt lat="44.510125" lon="7.7929633"><ele>366.0</ele><time>2026-04-25T08:36:26.636Z</time></trkpt><trkpt lat="44.5102383" lon="7.79312"><ele>366.0</ele><time>2026-04-25T08:36:27.635Z</time></trkpt><trkpt lat="44.5103567" lon="7.79328"><ele>366.0</ele><time>2026-04-25T08:36:28.633Z</time></trkpt><trkpt lat="44.5104767" lon="7.7934467"><ele>366.0</ele><time>2026-04-25T08:36:29.638Z</time></trkpt><trkpt lat="44.5106017" lon="7.793615"><ele>366.0</ele><time>2026-04-25T08:36:30.634Z</time></trkpt><trkpt lat="44.5107283" lon="7.7937883"><ele>366.0</ele><time>2026-04-25T08:36:31.634Z</time></trkpt><trkpt lat="44.5108567" lon="7.79396"><ele>366.0</ele><time>2026-04-25T08:36:32.636Z</time></trkpt><trkpt lat="44.5109767" lon="7.7941267"><ele>366.0</ele><time>2026-04-25T08:36:33.637Z</time></trkpt><trkpt lat="44.5110917" lon="7.794285"><ele>366.0</ele><time>2026-04-25T08:36:34.635Z</time></trkpt><trkpt lat="44.5112033" lon="7.7944383"><ele>366.0</ele><time>2026-04-25T08:36:35.637Z</time></trkpt><trkpt lat="44.5113117" lon="7.7945867"><ele>366.6666666666667</ele><time>2026-04-25T08:36:36.636Z</time></trkpt><trkpt lat="44.5114183" lon="7.7947317"><ele>367.33333333333337</ele><time>2026-04-25T08:36:37.636Z</time></trkpt><trkpt lat="44.511525" lon="7.7948783"><ele>368.0</ele><time>2026-04-25T08:36:38.635Z</time></trkpt><trkpt lat="44.511635" lon="7.7950283"><ele>368.0</ele><time>2026-04-25T08:36:39.636Z</time></trkpt><trkpt lat="44.511745" lon="7.79518"><ele>368.0</ele><time>2026-04-25T08:36:40.639Z</time></trkpt><trkpt lat="44.511865" lon="7.7953367"><ele>368.0</ele><time>2026-04-25T08:36:41.635Z</time></trkpt><trkpt lat="44.51199" lon="7.7954983"><ele>367.33333333333337</ele><time>2026-04-25T08:36:42.633Z</time></trkpt><trkpt lat="44.5121217" lon="7.7956767"><ele>366.6666666666667</ele><time>2026-04-25T08:36:43.634Z</time></trkpt><trkpt lat="44.5122583" lon="7.7958633"><ele>366.0</ele><time>2026-04-25T08:36:44.634Z</time></trkpt><trkpt lat="44.512405" lon="7.796055"><ele>366.0</ele><time>2026-04-25T08:36:45.636Z</time></trkpt><trkpt lat="44.5125533" lon="7.79625"><ele>366.0</ele><time>2026-04-25T08:36:46.636Z</time></trkpt><trkpt lat="44.512705" lon="7.7964533"><ele>366.0</ele><time>2026-04-25T08:36:47.635Z</time></trkpt><trkpt lat="44.5128483" lon="7.7966583"><ele>365.3333333333333</ele><time>2026-04-25T08:36:48.638Z</time></trkpt><trkpt lat="44.5129817" lon="7.7968483"><ele>364.66666666666663</ele><time>2026-04-25T08:36:49.637Z</time></trkpt><trkpt lat="44.5131117" lon="7.7970117"><ele>364.0</ele><time>2026-04-25T08:36:50.636Z</time></trkpt><trkpt lat="44.5132483" lon="7.7971467"><ele>364.0</ele><time>2026-04-25T08:36:51.639Z</time></trkpt><trkpt lat="44.5133917" lon="7.7972633"><ele>364.0</ele><time>2026-04-25T08:36:52.638Z</time></trkpt><trkpt lat="44.5135367" lon="7.7973717"><ele>364.0</ele><time>2026-04-25T08:36:53.639Z</time></trkpt><trkpt lat="44.5136933" lon="7.7974617"><ele>364.3333333333333</ele><time>2026-04-25T08:36:54.637Z</time></trkpt><trkpt lat="44.5138683" lon="7.7975533"><ele>364.6666666666667</ele><time>2026-04-25T08:36:55.638Z</time></trkpt><trkpt lat="44.5140517" lon="7.79765"><ele>365.0</ele><time>2026-04-25T08:36:56.636Z</time></trkpt><trkpt lat="44.5142267" lon="7.7977467"><ele>365.0</ele><time>2026-04-25T08:36:57.636Z</time></trkpt><trkpt lat="44.5143867" lon="7.7978383"><ele>365.0</ele><time>2026-04-25T08:36:58.633Z</time></trkpt><trkpt lat="44.5145367" lon="7.7979217"><ele>365.0</ele><time>2026-04-25T08:36:59.634Z</time></trkpt><trkpt lat="44.5146833" lon="7.798"><ele>365.0</ele><time>2026-04-25T08:37:00.635Z</time></trkpt><trkpt lat="44.5148333" lon="7.7980833"><ele>365.0</ele><time>2026-04-25T08:37:01.635Z</time></trkpt><trkpt lat="44.5149917" lon="7.7981683"><ele>365.0</ele><time>2026-04-25T08:37:02.638Z</time></trkpt><trkpt lat="44.5151533" lon="7.7982533"><ele>365.0</ele><time>2026-04-25T08:37:03.635Z</time></trkpt><trkpt lat="44.51531" lon="7.7983383"><ele>365.0</ele><time>2026-04-25T08:37:04.634Z</time></trkpt><trkpt lat="44.5154617" lon="7.79842"><ele>365.0</ele><time>2026-04-25T08:37:05.633Z</time></trkpt><trkpt lat="44.5156133" lon="7.7985017"><ele>365.0</ele><time>2026-04-25T08:37:06.633Z</time></trkpt><trkpt lat="44.51576" lon="7.798585"><ele>365.0</ele><time>2026-04-25T08:37:07.635Z</time></trkpt><trkpt lat="44.5159067" lon="7.798665"><ele>365.0</ele><time>2026-04-25T08:37:08.634Z</time></trkpt><trkpt lat="44.516045" lon="7.7987417"><ele>365.0</ele><time>2026-04-25T08:37:09.633Z</time></trkpt><trkpt lat="44.5161767" lon="7.798815"><ele>365.0</ele><time>2026-04-25T08:37:10.634Z</time></trkpt><trkpt lat="44.5163033" lon="7.7988867"><ele>365.0</ele><time>2026-04-25T08:37:11.634Z</time></trkpt><trkpt lat="44.5164367" lon="7.7989633"><ele>365.0</ele><time>2026-04-25T08:37:12.633Z</time></trkpt><trkpt lat="44.5165717" lon="7.79904"><ele>364.75</ele><time>2026-04-25T08:37:13.637Z</time></trkpt><trkpt lat="44.5167017" lon="7.7991167"><ele>364.5</ele><time>2026-04-25T08:37:14.634Z</time></trkpt><trkpt lat="44.51683" lon="7.79919"><ele>364.25</ele><time>2026-04-25T08:37:15.635Z</time></trkpt><trkpt lat="44.5169567" lon="7.7992617"><ele>364.0</ele><time>2026-04-25T08:37:16.633Z</time></trkpt><trkpt lat="44.5170817" lon="7.7993317"><ele>364.25</ele><time>2026-04-25T08:37:17.635Z</time></trkpt><trkpt lat="44.5172033" lon="7.799405"><ele>364.5</ele><time>2026-04-25T08:37:18.634Z</time></trkpt><trkpt lat="44.5173217" lon="7.79948"><ele>364.75</ele><time>2026-04-25T08:37:19.636Z</time></trkpt><trkpt lat="44.5174417" lon="7.79955"><ele>365.0</ele><time>2026-04-25T08:37:20.637Z</time></trkpt><trkpt lat="44.5175483" lon="7.799615"><ele>365.0</ele><time>2026-04-25T08:37:21.635Z</time></trkpt><trkpt lat="44.5176533" lon="7.799675"><ele>365.0</ele><time>2026-04-25T08:37:22.636Z</time></trkpt><trkpt lat="44.5177567" lon="7.799735"><ele>365.0</ele><time>2026-04-25T08:37:23.643Z</time></trkpt><trkpt lat="44.5178633" lon="7.7998"><ele>365.0</ele><time>2026-04-25T08:37:24.635Z</time></trkpt><trkpt lat="44.5179717" lon="7.79987"><ele>364.75</ele><time>2026-04-25T08:37:25.637Z</time></trkpt><trkpt lat="44.518085" lon="7.79994"><ele>364.5</ele><time>2026-04-25T08:37:26.637Z</time></trkpt><trkpt lat="44.5182067" lon="7.800015"><ele>364.25</ele><time>2026-04-25T08:37:27.634Z</time></trkpt><trkpt lat="44.5183333" lon="7.8000983"><ele>364.0</ele><time>2026-04-25T08:37:28.633Z</time></trkpt><trkpt lat="44.5184617" lon="7.8001883"><ele>363.5</ele><time>2026-04-25T08:37:29.636Z</time></trkpt><trkpt lat="44.5185917" lon="7.80028"><ele>363.0</ele><time>2026-04-25T08:37:30.639Z</time></trkpt><trkpt lat="44.5187217" lon="7.8003683"><ele>362.5</ele><time>2026-04-25T08:37:31.634Z</time></trkpt><trkpt lat="44.5188467" lon="7.8004533"><ele>362.0</ele><time>2026-04-25T08:37:32.637Z</time></trkpt><trkpt lat="44.518965" lon="7.80054"><ele>362.0</ele><time>2026-04-25T08:37:33.635Z</time></trkpt><trkpt lat="44.5190733" lon="7.8006217"><ele>362.0</ele><time>2026-04-25T08:37:34.636Z</time></trkpt><trkpt lat="44.5191817" lon="7.8007033"><ele>362.0</ele><time>2026-04-25T08:37:35.636Z</time></trkpt><trkpt lat="44.519295" lon="7.8007817"><ele>362.0</ele><time>2026-04-25T08:37:36.635Z</time></trkpt><trkpt lat="44.5194183" lon="7.80087"><ele>362.0</ele><time>2026-04-25T08:37:37.635Z</time></trkpt><trkpt lat="44.5195517" lon="7.8009667"><ele>362.0</ele><time>2026-04-25T08:37:38.636Z</time></trkpt><trkpt lat="44.5197067" lon="7.8010717"><ele>362.0</ele><time>2026-04-25T08:37:39.635Z</time></trkpt><trkpt lat="44.5198717" lon="7.80118"><ele>362.0</ele><time>2026-04-25T08:37:40.634Z</time></trkpt><trkpt lat="44.5200333" lon="7.8012917"><ele>362.0</ele><time>2026-04-25T08:37:41.635Z</time></trkpt><trkpt lat="44.5201933" lon="7.8014067"><ele>362.0</ele><time>2026-04-25T08:37:42.634Z</time></trkpt><trkpt lat="44.5203517" lon="7.8015117"><ele>362.5</ele><time>2026-04-25T08:37:43.636Z</time></trkpt><trkpt lat="44.5204983" lon="7.8016033"><ele>363.0</ele><time>2026-04-25T08:37:44.634Z</time></trkpt><trkpt lat="44.52063" lon="7.8016783"><ele>363.5</ele><time>2026-04-25T08:37:45.636Z</time></trkpt><trkpt lat="44.5207583" lon="7.801755"><ele>364.0</ele><time>2026-04-25T08:37:46.635Z</time></trkpt><trkpt lat="44.5208917" lon="7.80183"><ele>363.66666666666663</ele><time>2026-04-25T08:37:47.635Z</time></trkpt><trkpt lat="44.5210333" lon="7.8019067"><ele>363.3333333333333</ele><time>2026-04-25T08:37:48.639Z</time></trkpt><trkpt lat="44.5211817" lon="7.80199"><ele>363.0</ele><time>2026-04-25T08:37:49.634Z</time></trkpt><trkpt lat="44.5213417" lon="7.80208"><ele>362.6666666666667</ele><time>2026-04-25T08:37:50.636Z</time></trkpt><trkpt lat="44.5215083" lon="7.8021817"><ele>362.33333333333337</ele><time>2026-04-25T08:37:51.635Z</time></trkpt><trkpt lat="44.5216783" lon="7.8022917"><ele>362.0</ele><time>2026-04-25T08:37:52.634Z</time></trkpt><trkpt lat="44.5218467" lon="7.8024017"><ele>362.0</ele><time>2026-04-25T08:37:53.64Z</time></trkpt><trkpt lat="44.522005" lon="7.8025017"><ele>362.0</ele><time>2026-04-25T08:37:54.635Z</time></trkpt><trkpt lat="44.522155" lon="7.802595"><ele>362.0</ele><time>2026-04-25T08:37:55.635Z</time></trkpt><trkpt lat="44.522295" lon="7.80268"><ele>361.75</ele><time>2026-04-25T08:37:56.636Z</time></trkpt><trkpt lat="44.5224283" lon="7.8027583"><ele>361.5</ele><time>2026-04-25T08:37:57.635Z</time></trkpt><trkpt lat="44.5225583" lon="7.8028467"><ele>361.25</ele><time>2026-04-25T08:37:58.637Z</time></trkpt><trkpt lat="44.5226917" lon="7.80293"><ele>361.0</ele><time>2026-04-25T08:37:59.635Z</time></trkpt><trkpt lat="44.522825" lon="7.80301"><ele>360.75</ele><time>2026-04-25T08:38:00.637Z</time></trkpt><trkpt lat="44.522955" lon="7.8030917"><ele>360.5</ele><time>2026-04-25T08:38:01.635Z</time></trkpt><trkpt lat="44.5230833" lon="7.8031717"><ele>360.25</ele><time>2026-04-25T08:38:02.636Z</time></trkpt><trkpt lat="44.5232133" lon="7.8032467"><ele>360.0</ele><time>2026-04-25T08:38:03.634Z</time></trkpt><trkpt lat="44.523345" lon="7.803325"><ele>360.0</ele><time>2026-04-25T08:38:04.637Z</time></trkpt><trkpt lat="44.5234783" lon="7.8034017"><ele>360.0</ele><time>2026-04-25T08:38:05.633Z</time></trkpt><trkpt lat="44.5236083" lon="7.8034817"><ele>360.0</ele><time>2026-04-25T08:38:06.638Z</time></trkpt><trkpt lat="44.5237383" lon="7.8035633"><ele>360.0</ele><time>2026-04-25T08:38:07.637Z</time></trkpt><trkpt lat="44.5238667" lon="7.8036467"><ele>360.0</ele><time>2026-04-25T08:38:08.636Z</time></trkpt><trkpt lat="44.5239933" lon="7.803725"><ele>360.0</ele><time>2026-04-25T08:38:09.635Z</time></trkpt><trkpt lat="44.5241167" lon="7.803805"><ele>360.0</ele><time>2026-04-25T08:38:10.635Z</time></trkpt><trkpt lat="44.5242417" lon="7.803885"><ele>360.0</ele><time>2026-04-25T08:38:11.635Z</time></trkpt><trkpt lat="44.52437" lon="7.8039617"><ele>360.0</ele><time>2026-04-25T08:38:12.634Z</time></trkpt><trkpt lat="44.5244983" lon="7.8040383"><ele>360.0</ele><time>2026-04-25T08:38:13.633Z</time></trkpt><trkpt lat="44.52463" lon="7.8041183"><ele>360.0</ele><time>2026-04-25T08:38:14.633Z</time></trkpt><trkpt lat="44.5247617" lon="7.8042"><ele>360.0</ele><time>2026-04-25T08:38:15.634Z</time></trkpt><trkpt lat="44.5248933" lon="7.8042817"><ele>360.25</ele><time>2026-04-25T08:38:16.636Z</time></trkpt><trkpt lat="44.5250233" lon="7.8043633"><ele>360.5</ele><time>2026-04-25T08:38:17.635Z</time></trkpt><trkpt lat="44.525155" lon="7.8044467"><ele>360.75</ele><time>2026-04-25T08:38:18.637Z</time></trkpt><trkpt lat="44.525285" lon="7.8045333"><ele>361.0</ele><time>2026-04-25T08:38:19.636Z</time></trkpt><trkpt lat="44.52542" lon="7.8046167"><ele>361.0</ele><time>2026-04-25T08:38:20.635Z</time></trkpt><trkpt lat="44.5255583" lon="7.8047033"><ele>361.0</ele><time>2026-04-25T08:38:21.636Z</time></trkpt><trkpt lat="44.5257017" lon="7.80479"><ele>361.0</ele><time>2026-04-25T08:38:22.634Z</time></trkpt><trkpt lat="44.525845" lon="7.8048817"><ele>361.0</ele><time>2026-04-25T08:38:23.643Z</time></trkpt><trkpt lat="44.5259917" lon="7.8049717"><ele>361.0</ele><time>2026-04-25T08:38:24.635Z</time></trkpt><trkpt lat="44.526135" lon="7.8050583"><ele>361.0</ele><time>2026-04-25T08:38:25.635Z</time></trkpt><trkpt lat="44.52628" lon="7.80515"><ele>360.0</ele><time>2026-04-25T08:38:26.635Z</time></trkpt><trkpt lat="44.5264283" lon="7.8052433"><ele>359.0</ele><time>2026-04-25T08:38:27.635Z</time></trkpt><trkpt lat="44.526565" lon="7.8053217"><ele>358.0</ele><time>2026-04-25T08:38:28.634Z</time></trkpt><trkpt lat="44.526695" lon="7.805405"><ele>358.0</ele><time>2026-04-25T08:38:29.633Z</time></trkpt><trkpt lat="44.52683" lon="7.8054883"><ele>358.0</ele><time>2026-04-25T08:38:30.635Z</time></trkpt><trkpt lat="44.52696" lon="7.8055683"><ele>358.0</ele><time>2026-04-25T08:38:31.634Z</time></trkpt><trkpt lat="44.5270917" lon="7.8056517"><ele>358.0</ele><time>2026-04-25T08:38:32.639Z</time></trkpt><trkpt lat="44.5272217" lon="7.805735"><ele>358.25</ele><time>2026-04-25T08:38:33.634Z</time></trkpt><trkpt lat="44.52735" lon="7.805815"><ele>358.5</ele><time>2026-04-25T08:38:34.634Z</time></trkpt><trkpt lat="44.5274817" lon="7.805895"><ele>358.75</ele><time>2026-04-25T08:38:35.634Z</time></trkpt><trkpt lat="44.5276217" lon="7.80598"><ele>359.0</ele><time>2026-04-25T08:38:36.633Z</time></trkpt><trkpt lat="44.52777" lon="7.8060683"><ele>359.33333333333337</ele><time>2026-04-25T08:38:37.638Z</time></trkpt><trkpt lat="44.5279183" lon="7.80616"><ele>359.6666666666667</ele><time>2026-04-25T08:38:38.635Z</time></trkpt><trkpt lat="44.5280683" lon="7.8062533"><ele>360.0</ele><time>2026-04-25T08:38:39.634Z</time></trkpt><trkpt lat="44.5282233" lon="7.80635"><ele>360.0</ele><time>2026-04-25T08:38:40.633Z</time></trkpt><trkpt lat="44.5283833" lon="7.8064483"><ele>360.0</ele><time>2026-04-25T08:38:41.634Z</time></trkpt><trkpt lat="44.5285467" lon="7.8065483"><ele>360.0</ele><time>2026-04-25T08:38:42.633Z</time></trkpt><trkpt lat="44.5287117" lon="7.8066483"><ele>359.0</ele><time>2026-04-25T08:38:43.634Z</time></trkpt><trkpt lat="44.528875" lon="7.8067433"><ele>358.0</ele><time>2026-04-25T08:38:44.636Z</time></trkpt><trkpt lat="44.5290383" lon="7.8068417"><ele>357.0</ele><time>2026-04-25T08:38:45.635Z</time></trkpt><trkpt lat="44.5292" lon="7.806935"><ele>357.0</ele><time>2026-04-25T08:38:46.635Z</time></trkpt><trkpt lat="44.529365" lon="7.807035"><ele>357.0</ele><time>2026-04-25T08:38:47.635Z</time></trkpt><trkpt lat="44.52953" lon="7.8071383"><ele>357.0</ele><time>2026-04-25T08:38:48.632Z</time></trkpt><trkpt lat="44.5297067" lon="7.807235"><ele>357.0</ele><time>2026-04-25T08:38:49.634Z</time></trkpt><trkpt lat="44.5298717" lon="7.8073233"><ele>357.0</ele><time>2026-04-25T08:38:50.639Z</time></trkpt><trkpt lat="44.5300233" lon="7.8074417"><ele>357.0</ele><time>2026-04-25T08:38:51.635Z</time></trkpt><trkpt lat="44.5301867" lon="7.8075417"><ele>357.0</ele><time>2026-04-25T08:38:52.634Z</time></trkpt><trkpt lat="44.5303433" lon="7.8076433"><ele>357.0</ele><time>2026-04-25T08:38:53.635Z</time></trkpt><trkpt lat="44.530505" lon="7.8077417"><ele>357.0</ele><time>2026-04-25T08:38:54.633Z</time></trkpt><trkpt lat="44.5306717" lon="7.8078433"><ele>356.6666666666667</ele><time>2026-04-25T08:38:55.64Z</time></trkpt><trkpt lat="44.5308367" lon="7.8079433"><ele>356.33333333333337</ele><time>2026-04-25T08:38:56.635Z</time></trkpt><trkpt lat="44.5309933" lon="7.8080467"><ele>356.0</ele><time>2026-04-25T08:38:57.634Z</time></trkpt><trkpt lat="44.531155" lon="7.80815"><ele>357.0</ele><time>2026-04-25T08:38:58.636Z</time></trkpt><trkpt lat="44.531315" lon="7.808265"><ele>358.0</ele><time>2026-04-25T08:38:59.634Z</time></trkpt><trkpt lat="44.5314683" lon="7.8083983"><ele>359.0</ele><time>2026-04-25T08:39:00.634Z</time></trkpt><trkpt lat="44.5316167" lon="7.8085467"><ele>359.0</ele><time>2026-04-25T08:39:01.634Z</time></trkpt><trkpt lat="44.5317533" lon="7.808715"><ele>359.0</ele><time>2026-04-25T08:39:02.643Z</time></trkpt><trkpt lat="44.5318817" lon="7.808895"><ele>359.0</ele><time>2026-04-25T08:39:03.636Z</time></trkpt><trkpt lat="44.5319983" lon="7.8090883"><ele>359.0</ele><time>2026-04-25T08:39:04.635Z</time></trkpt><trkpt lat="44.5321083" lon="7.80928"><ele>359.0</ele><time>2026-04-25T08:39:05.637Z</time></trkpt><trkpt lat="44.5322167" lon="7.8094733"><ele>359.0</ele><time>2026-04-25T08:39:06.64Z</time></trkpt><trkpt lat="44.5323267" lon="7.80966"><ele>359.33333333333337</ele><time>2026-04-25T08:39:07.638Z</time></trkpt><trkpt lat="44.532435" lon="7.8098433"><ele>359.6666666666667</ele><time>2026-04-25T08:39:08.637Z</time></trkpt><trkpt lat="44.5325483" lon="7.8100317"><ele>360.0</ele><time>2026-04-25T08:39:09.636Z</time></trkpt><trkpt lat="44.53266" lon="7.81022"><ele>359.3333333333333</ele><time>2026-04-25T08:39:10.634Z</time></trkpt><trkpt lat="44.5327717" lon="7.8104067"><ele>358.66666666666663</ele><time>2026-04-25T08:39:11.633Z</time></trkpt><trkpt lat="44.532885" lon="7.8105967"><ele>358.0</ele><time>2026-04-25T08:39:12.635Z</time></trkpt><trkpt lat="44.5329983" lon="7.810785"><ele>357.66666666666663</ele><time>2026-04-25T08:39:13.635Z</time></trkpt><trkpt lat="44.5331167" lon="7.81099"><ele>357.3333333333333</ele><time>2026-04-25T08:39:14.637Z</time></trkpt><trkpt lat="44.5332367" lon="7.8111883"><ele>357.0</ele><time>2026-04-25T08:39:15.634Z</time></trkpt><trkpt lat="44.533355" lon="7.811385"><ele>357.0</ele><time>2026-04-25T08:39:16.634Z</time></trkpt><trkpt lat="44.5334683" lon="7.8115767"><ele>357.0</ele><time>2026-04-25T08:39:17.638Z</time></trkpt><trkpt lat="44.5335833" lon="7.8117717"><ele>357.0</ele><time>2026-04-25T08:39:18.637Z</time></trkpt><trkpt lat="44.5336983" lon="7.8119667"><ele>356.6666666666667</ele><time>2026-04-25T08:39:19.636Z</time></trkpt><trkpt lat="44.533815" lon="7.8121633"><ele>356.33333333333337</ele><time>2026-04-25T08:39:20.636Z</time></trkpt><trkpt lat="44.5339317" lon="7.81236"><ele>356.0</ele><time>2026-04-25T08:39:21.634Z</time></trkpt><trkpt lat="44.53405" lon="7.8125617"><ele>356.0</ele><time>2026-04-25T08:39:22.64Z</time></trkpt><trkpt lat="44.534165" lon="7.8127567"><ele>356.0</ele><time>2026-04-25T08:39:23.635Z</time></trkpt><trkpt lat="44.5342783" lon="7.8129483"><ele>356.0</ele><time>2026-04-25T08:39:24.637Z</time></trkpt><trkpt lat="44.53439" lon="7.8131383"><ele>356.0</ele><time>2026-04-25T08:39:25.634Z</time></trkpt><trkpt lat="44.5345033" lon="7.8133267"><ele>356.0</ele><time>2026-04-25T08:39:26.634Z</time></trkpt><trkpt lat="44.5346133" lon="7.81351"><ele>356.0</ele><time>2026-04-25T08:39:27.634Z</time></trkpt><trkpt lat="44.5347233" lon="7.8136933"><ele>355.6666666666667</ele><time>2026-04-25T08:39:28.634Z</time></trkpt><trkpt lat="44.5348333" lon="7.8138767"><ele>355.3333333333333</ele><time>2026-04-25T08:39:29.637Z</time></trkpt><trkpt lat="44.5349467" lon="7.8140667"><ele>355.0</ele><time>2026-04-25T08:39:30.634Z</time></trkpt><trkpt lat="44.5350583" lon="7.81425"><ele>355.0</ele><time>2026-04-25T08:39:31.634Z</time></trkpt><trkpt lat="44.5351683" lon="7.8144367"><ele>355.0</ele><time>2026-04-25T08:39:32.635Z</time></trkpt><trkpt lat="44.53528" lon="7.8146267"><ele>355.0</ele><time>2026-04-25T08:39:33.634Z</time></trkpt><trkpt lat="44.53539" lon="7.814815"><ele>355.0</ele><time>2026-04-25T08:39:34.634Z</time></trkpt><trkpt lat="44.5355033" lon="7.8150083"><ele>355.0</ele><time>2026-04-25T08:39:35.636Z</time></trkpt><trkpt lat="44.5356167" lon="7.815195"><ele>355.0</ele><time>2026-04-25T08:39:36.635Z</time></trkpt><trkpt lat="44.5357283" lon="7.8153833"><ele>354.66666666666663</ele><time>2026-04-25T08:39:37.634Z</time></trkpt><trkpt lat="44.53584" lon="7.81557"><ele>354.3333333333333</ele><time>2026-04-25T08:39:38.636Z</time></trkpt><trkpt lat="44.5359517" lon="7.8157517"><ele>354.0</ele><time>2026-04-25T08:39:39.638Z</time></trkpt><trkpt lat="44.53606" lon="7.8159333"><ele>354.0</ele><time>2026-04-25T08:39:40.635Z</time></trkpt><trkpt lat="44.53617" lon="7.816115"><ele>354.0</ele><time>2026-04-25T08:39:41.637Z</time></trkpt><trkpt lat="44.53628" lon="7.8162983"><ele>354.0</ele><time>2026-04-25T08:39:42.635Z</time></trkpt><trkpt lat="44.5363917" lon="7.816485"><ele>354.0</ele><time>2026-04-25T08:39:43.636Z</time></trkpt><trkpt lat="44.536505" lon="7.8166767"><ele>354.0</ele><time>2026-04-25T08:39:44.635Z</time></trkpt><trkpt lat="44.5366283" lon="7.8168783"><ele>354.0</ele><time>2026-04-25T08:39:45.634Z</time></trkpt><trkpt lat="44.536755" lon="7.8170867"><ele>354.0</ele><time>2026-04-25T08:39:46.635Z</time></trkpt><trkpt lat="44.5368867" lon="7.8173033"><ele>354.0</ele><time>2026-04-25T08:39:47.633Z</time></trkpt><trkpt lat="44.53702" lon="7.8175233"><ele>354.0</ele><time>2026-04-25T08:39:48.64Z</time></trkpt><trkpt lat="44.53715" lon="7.81775"><ele>353.6666666666667</ele><time>2026-04-25T08:39:49.636Z</time></trkpt><trkpt lat="44.5372733" lon="7.817965"><ele>353.33333333333337</ele><time>2026-04-25T08:39:50.636Z</time></trkpt><trkpt lat="44.5373917" lon="7.8181633"><ele>353.0</ele><time>2026-04-25T08:39:51.636Z</time></trkpt><trkpt lat="44.5375" lon="7.8183433"><ele>353.25</ele><time>2026-04-25T08:39:52.635Z</time></trkpt><trkpt lat="44.5375967" lon="7.8184967"><ele>353.5</ele><time>2026-04-25T08:39:53.64Z</time></trkpt><trkpt lat="44.53768" lon="7.8186333"><ele>353.75</ele><time>2026-04-25T08:39:54.635Z</time></trkpt><trkpt lat="44.537755" lon="7.8187567"><ele>354.0</ele><time>2026-04-25T08:39:55.64Z</time></trkpt><trkpt lat="44.5378217" lon="7.8188717"><ele>354.0</ele><time>2026-04-25T08:39:56.636Z</time></trkpt><trkpt lat="44.53788" lon="7.8189733"><ele>354.0</ele><time>2026-04-25T08:39:57.637Z</time></trkpt><trkpt lat="44.537935" lon="7.819065"><ele>354.0</ele><time>2026-04-25T08:39:58.635Z</time></trkpt><trkpt lat="44.5379917" lon="7.8191533"><ele>354.0</ele><time>2026-04-25T08:39:59.634Z</time></trkpt><trkpt lat="44.5380467" lon="7.8192467"><ele>354.0</ele><time>2026-04-25T08:40:00.639Z</time></trkpt><trkpt lat="44.5381017" lon="7.8193417"><ele>354.0</ele><time>2026-04-25T08:40:01.637Z</time></trkpt><trkpt lat="44.5381567" lon="7.8194383"><ele>353.79999999999995</ele><time>2026-04-25T08:40:02.634Z</time></trkpt><trkpt lat="44.5382117" lon="7.819535"><ele>353.59999999999997</ele><time>2026-04-25T08:40:03.634Z</time></trkpt><trkpt lat="44.5382683" lon="7.8196333"><ele>353.4</ele><time>2026-04-25T08:40:04.635Z</time></trkpt><trkpt lat="44.5383267" lon="7.8197317"><ele>353.2</ele><time>2026-04-25T08:40:05.633Z</time></trkpt><trkpt lat="44.5383883" lon="7.8198383"><ele>353.0</ele><time>2026-04-25T08:40:06.633Z</time></trkpt><trkpt lat="44.5384467" lon="7.8199333"><ele>353.0</ele><time>2026-04-25T08:40:07.635Z</time></trkpt><trkpt lat="44.538515" lon="7.82005"><ele>353.0</ele><time>2026-04-25T08:40:08.637Z</time></trkpt><trkpt lat="44.5385883" lon="7.820175"><ele>353.0</ele><time>2026-04-25T08:40:09.636Z</time></trkpt><trkpt lat="44.53866" lon="7.8202967"><ele>353.0</ele><time>2026-04-25T08:40:10.638Z</time></trkpt><trkpt lat="44.538725" lon="7.820405"><ele>353.0</ele><time>2026-04-25T08:40:11.635Z</time></trkpt><trkpt lat="44.5387867" lon="7.8205017"><ele>353.2</ele><time>2026-04-25T08:40:12.638Z</time></trkpt><trkpt lat="44.5388567" lon="7.820605"><ele>353.4</ele><time>2026-04-25T08:40:13.634Z</time></trkpt><trkpt lat="44.5389267" lon="7.820715"><ele>353.59999999999997</ele><time>2026-04-25T08:40:14.635Z</time></trkpt><trkpt lat="44.5389967" lon="7.8208317"><ele>353.79999999999995</ele><time>2026-04-25T08:40:15.636Z</time></trkpt><trkpt lat="44.5390783" lon="7.8209617"><ele>354.0</ele><time>2026-04-25T08:40:16.634Z</time></trkpt><trkpt lat="44.5391583" lon="7.8210967"><ele>354.0</ele><time>2026-04-25T08:40:17.633Z</time></trkpt><trkpt lat="44.5392317" lon="7.8212267"><ele>354.0</ele><time>2026-04-25T08:40:18.637Z</time></trkpt><trkpt lat="44.5393033" lon="7.821355"><ele>354.0</ele><time>2026-04-25T08:40:19.635Z</time></trkpt><trkpt lat="44.5393733" lon="7.82148"><ele>354.0</ele><time>2026-04-25T08:40:20.638Z</time></trkpt><trkpt lat="44.539445" lon="7.821605"><ele>354.0</ele><time>2026-04-25T08:40:21.636Z</time></trkpt><trkpt lat="44.53952" lon="7.8217283"><ele>354.0</ele><time>2026-04-25T08:40:22.635Z</time></trkpt><trkpt lat="44.539595" lon="7.8218617"><ele>354.0</ele><time>2026-04-25T08:40:23.634Z</time></trkpt><trkpt lat="44.5396767" lon="7.822005"><ele>354.0</ele><time>2026-04-25T08:40:24.633Z</time></trkpt><trkpt lat="44.5397617" lon="7.8221467"><ele>353.75</ele><time>2026-04-25T08:40:25.633Z</time></trkpt><trkpt lat="44.5398467" lon="7.8222917"><ele>353.5</ele><time>2026-04-25T08:40:26.634Z</time></trkpt><trkpt lat="44.5399333" lon="7.822435"><ele>353.25</ele><time>2026-04-25T08:40:27.634Z</time></trkpt><trkpt lat="44.540025" lon="7.8225833"><ele>353.0</ele><time>2026-04-25T08:40:28.636Z</time></trkpt><trkpt lat="44.540115" lon="7.8227333"><ele>353.0</ele><time>2026-04-25T08:40:29.635Z</time></trkpt><trkpt lat="44.5402033" lon="7.822875"><ele>353.0</ele><time>2026-04-25T08:40:30.64Z</time></trkpt><trkpt lat="44.5402817" lon="7.8230083"><ele>353.0</ele><time>2026-04-25T08:40:31.635Z</time></trkpt><trkpt lat="44.540355" lon="7.8231367"><ele>353.0</ele><time>2026-04-25T08:40:32.635Z</time></trkpt><trkpt lat="44.5404283" lon="7.8232617"><ele>353.0</ele><time>2026-04-25T08:40:33.636Z</time></trkpt><trkpt lat="44.5405017" lon="7.8233867"><ele>353.0</ele><time>2026-04-25T08:40:34.634Z</time></trkpt><trkpt lat="44.5405767" lon="7.82351"><ele>353.0</ele><time>2026-04-25T08:40:35.638Z</time></trkpt><trkpt lat="44.5406533" lon="7.8236367"><ele>353.0</ele><time>2026-04-25T08:40:36.634Z</time></trkpt><trkpt lat="44.54073" lon="7.8237667"><ele>352.75</ele><time>2026-04-25T08:40:37.64Z</time></trkpt><trkpt lat="44.5408067" lon="7.8238967"><ele>352.5</ele><time>2026-04-25T08:40:38.637Z</time></trkpt><trkpt lat="44.5408833" lon="7.8240317"><ele>352.25</ele><time>2026-04-25T08:40:39.636Z</time></trkpt><trkpt lat="44.5409617" lon="7.82417"><ele>352.0</ele><time>2026-04-25T08:40:40.636Z</time></trkpt><trkpt lat="44.5410417" lon="7.8243033"><ele>352.25</ele><time>2026-04-25T08:40:41.634Z</time></trkpt><trkpt lat="44.5411217" lon="7.8244317"><ele>352.5</ele><time>2026-04-25T08:40:42.634Z</time></trkpt><trkpt lat="44.5412083" lon="7.82457"><ele>352.75</ele><time>2026-04-25T08:40:43.635Z</time></trkpt><trkpt lat="44.5412983" lon="7.8247217"><ele>353.0</ele><time>2026-04-25T08:40:44.636Z</time></trkpt><trkpt lat="44.54139" lon="7.8248767"><ele>353.0</ele><time>2026-04-25T08:40:45.634Z</time></trkpt><trkpt lat="44.5414767" lon="7.8250217"><ele>353.0</ele><time>2026-04-25T08:40:46.647Z</time></trkpt><trkpt lat="44.541555" lon="7.825155"><ele>353.0</ele><time>2026-04-25T08:40:47.636Z</time></trkpt><trkpt lat="44.5416283" lon="7.8252783"><ele>353.0</ele><time>2026-04-25T08:40:48.634Z</time></trkpt><trkpt lat="44.5416933" lon="7.8253883"><ele>353.2</ele><time>2026-04-25T08:40:49.635Z</time></trkpt><trkpt lat="44.5417533" lon="7.82549"><ele>353.4</ele><time>2026-04-25T08:40:50.634Z</time></trkpt><trkpt lat="44.541815" lon="7.8255933"><ele>353.59999999999997</ele><time>2026-04-25T08:40:51.635Z</time></trkpt><trkpt lat="44.541885" lon="7.82571"><ele>353.79999999999995</ele><time>2026-04-25T08:40:52.635Z</time></trkpt><trkpt lat="44.5419583" lon="7.825835"><ele>354.0</ele><time>2026-04-25T08:40:53.635Z</time></trkpt><trkpt lat="44.5420317" lon="7.8259483"><ele>353.5</ele><time>2026-04-25T08:40:54.637Z</time></trkpt><trkpt lat="44.542105" lon="7.826065"><ele>353.0</ele><time>2026-04-25T08:40:55.637Z</time></trkpt><trkpt lat="44.5421733" lon="7.82619"><ele>352.5</ele><time>2026-04-25T08:40:56.636Z</time></trkpt><trkpt lat="44.54225" lon="7.82632"><ele>352.0</ele><time>2026-04-25T08:40:57.637Z</time></trkpt><trkpt lat="44.542325" lon="7.82645"><ele>352.0</ele><time>2026-04-25T08:40:58.634Z</time></trkpt><trkpt lat="44.5423967" lon="7.8265683"><ele>352.0</ele><time>2026-04-25T08:40:59.636Z</time></trkpt><trkpt lat="44.5424583" lon="7.826675"><ele>352.0</ele><time>2026-04-25T08:41:00.635Z</time></trkpt><trkpt lat="44.5425067" lon="7.8267567"><ele>352.0</ele><time>2026-04-25T08:41:01.635Z</time></trkpt><trkpt lat="44.5425733" lon="7.826895"><ele>352.0</ele><time>2026-04-25T08:41:03.635Z</time></trkpt><trkpt lat="44.542585" lon="7.8270433"><ele>352.0</ele><time>2026-04-25T08:41:05.635Z</time></trkpt><trkpt lat="44.5425183" lon="7.8271783"><ele>352.0</ele><time>2026-04-25T08:41:07.634Z</time></trkpt><trkpt lat="44.5424517" lon="7.8272083"><ele>352.0</ele><time>2026-04-25T08:41:08.635Z</time></trkpt><trkpt lat="44.5423683" lon="7.8272"><ele>352.0</ele><time>2026-04-25T08:41:09.635Z</time></trkpt><trkpt lat="44.54227" lon="7.8271633"><ele>352.0</ele><time>2026-04-25T08:41:10.635Z</time></trkpt><trkpt lat="44.5421633" lon="7.8271217"><ele>352.0</ele><time>2026-04-25T08:41:11.634Z</time></trkpt><trkpt lat="44.5420517" lon="7.8270833"><ele>352.0</ele><time>2026-04-25T08:41:12.642Z</time></trkpt><trkpt lat="44.54194" lon="7.8270483"><ele>352.0</ele><time>2026-04-25T08:41:13.634Z</time></trkpt><trkpt lat="44.5418183" lon="7.8270133"><ele>352.0</ele><time>2026-04-25T08:41:14.634Z</time></trkpt><trkpt lat="44.541695" lon="7.8269817"><ele>352.0</ele><time>2026-04-25T08:41:15.634Z</time></trkpt><trkpt lat="44.54157" lon="7.8269483"><ele>352.0</ele><time>2026-04-25T08:41:16.634Z</time></trkpt><trkpt lat="44.5414517" lon="7.8269183"><ele>352.0</ele><time>2026-04-25T08:41:17.635Z</time></trkpt><trkpt lat="44.5413417" lon="7.82689"><ele>352.0</ele><time>2026-04-25T08:41:18.637Z</time></trkpt><trkpt lat="44.54124" lon="7.8268617"><ele>352.20000000000005</ele><time>2026-04-25T08:41:19.637Z</time></trkpt><trkpt lat="44.541145" lon="7.8268333"><ele>352.4</ele><time>2026-04-25T08:41:20.635Z</time></trkpt><trkpt lat="44.54106" lon="7.8268067"><ele>352.6</ele><time>2026-04-25T08:41:21.635Z</time></trkpt><trkpt lat="44.540975" lon="7.8267817"><ele>352.79999999999995</ele><time>2026-04-25T08:41:22.636Z</time></trkpt><trkpt lat="44.54089" lon="7.8267567"><ele>353.0</ele><time>2026-04-25T08:41:23.635Z</time></trkpt><trkpt lat="44.5408" lon="7.8267317"><ele>352.79999999999995</ele><time>2026-04-25T08:41:24.637Z</time></trkpt><trkpt lat="44.5407133" lon="7.8267083"><ele>352.6</ele><time>2026-04-25T08:41:25.634Z</time></trkpt><trkpt lat="44.5406183" lon="7.8266817"><ele>352.4</ele><time>2026-04-25T08:41:26.635Z</time></trkpt><trkpt lat="44.5405217" lon="7.826655"><ele>352.20000000000005</ele><time>2026-04-25T08:41:27.638Z</time></trkpt><trkpt lat="44.540425" lon="7.8266283"><ele>352.0</ele><time>2026-04-25T08:41:28.636Z</time></trkpt><trkpt lat="44.5403233" lon="7.8266"><ele>352.0</ele><time>2026-04-25T08:41:29.634Z</time></trkpt><trkpt lat="44.540215" lon="7.82657"><ele>352.0</ele><time>2026-04-25T08:41:30.634Z</time></trkpt><trkpt lat="44.5401033" lon="7.8265417"><ele>352.0</ele><time>2026-04-25T08:41:31.635Z</time></trkpt><trkpt lat="44.5399833" lon="7.8265117"><ele>352.0</ele><time>2026-04-25T08:41:32.64Z</time></trkpt><trkpt lat="44.5398617" lon="7.82648"><ele>352.0</ele><time>2026-04-25T08:41:33.638Z</time></trkpt><trkpt lat="44.53974" lon="7.8264467"><ele>352.0</ele><time>2026-04-25T08:41:34.639Z</time></trkpt><trkpt lat="44.5396117" lon="7.8264117"><ele>352.0</ele><time>2026-04-25T08:41:35.634Z</time></trkpt><trkpt lat="44.5394783" lon="7.8263733"><ele>352.0</ele><time>2026-04-25T08:41:36.635Z</time></trkpt><trkpt lat="44.5393367" lon="7.826335"><ele>351.66666666666663</ele><time>2026-04-25T08:41:37.636Z</time></trkpt><trkpt lat="44.53919" lon="7.826295"><ele>351.3333333333333</ele><time>2026-04-25T08:41:38.635Z</time></trkpt><trkpt lat="44.539035" lon="7.826255"><ele>351.0</ele><time>2026-04-25T08:41:39.635Z</time></trkpt><trkpt lat="44.5388667" lon="7.8262117"><ele>351.3333333333333</ele><time>2026-04-25T08:41:40.637Z</time></trkpt><trkpt lat="44.5386867" lon="7.826165"><ele>351.66666666666663</ele><time>2026-04-25T08:41:41.643Z</time></trkpt><trkpt lat="44.5385" lon="7.826115"><ele>352.0</ele><time>2026-04-25T08:41:42.638Z</time></trkpt><trkpt lat="44.5383033" lon="7.8260583"><ele>352.0</ele><time>2026-04-25T08:41:43.633Z</time></trkpt><trkpt lat="44.53811" lon="7.826"><ele>352.0</ele><time>2026-04-25T08:41:44.635Z</time></trkpt><trkpt lat="44.5379183" lon="7.825945"><ele>352.0</ele><time>2026-04-25T08:41:45.634Z</time></trkpt><trkpt lat="44.5377417" lon="7.8258917"><ele>351.66666666666663</ele><time>2026-04-25T08:41:46.638Z</time></trkpt><trkpt lat="44.5375767" lon="7.8258433"><ele>351.3333333333333</ele><time>2026-04-25T08:41:47.636Z</time></trkpt><trkpt lat="44.537415" lon="7.8257983"><ele>351.0</ele><time>2026-04-25T08:41:48.635Z</time></trkpt><trkpt lat="44.5372567" lon="7.825755"><ele>351.0</ele><time>2026-04-25T08:41:49.636Z</time></trkpt><trkpt lat="44.5370967" lon="7.8257117"><ele>351.0</ele><time>2026-04-25T08:41:50.634Z</time></trkpt><trkpt lat="44.5369333" lon="7.825665"><ele>351.0</ele><time>2026-04-25T08:41:51.637Z</time></trkpt><trkpt lat="44.53676" lon="7.825615"><ele>351.0</ele><time>2026-04-25T08:41:52.636Z</time></trkpt><trkpt lat="44.536575" lon="7.8255633"><ele>351.0</ele><time>2026-04-25T08:41:53.638Z</time></trkpt><trkpt lat="44.5363883" lon="7.82551"><ele>351.0</ele><time>2026-04-25T08:41:54.638Z</time></trkpt><trkpt lat="44.5361983" lon="7.8254567"><ele>351.0</ele><time>2026-04-25T08:41:55.642Z</time></trkpt><trkpt lat="44.5360067" lon="7.825405"><ele>351.0</ele><time>2026-04-25T08:41:56.639Z</time></trkpt><trkpt lat="44.5358117" lon="7.8253517"><ele>351.0</ele><time>2026-04-25T08:41:57.636Z</time></trkpt><trkpt lat="44.53562" lon="7.8253017"><ele>351.0</ele><time>2026-04-25T08:41:58.639Z</time></trkpt><trkpt lat="44.5354317" lon="7.82525"><ele>351.0</ele><time>2026-04-25T08:41:59.635Z</time></trkpt><trkpt lat="44.535245" lon="7.8252"><ele>351.0</ele><time>2026-04-25T08:42:00.636Z</time></trkpt><trkpt lat="44.5350583" lon="7.82515"><ele>351.0</ele><time>2026-04-25T08:42:01.644Z</time></trkpt><trkpt lat="44.5348683" lon="7.8250967"><ele>351.0</ele><time>2026-04-25T08:42:02.637Z</time></trkpt><trkpt lat="44.5346783" lon="7.8250467"><ele>351.0</ele><time>2026-04-25T08:42:03.636Z</time></trkpt><trkpt lat="44.5344883" lon="7.824995"><ele>351.0</ele><time>2026-04-25T08:42:04.637Z</time></trkpt><trkpt lat="44.5342967" lon="7.8249433"><ele>351.0</ele><time>2026-04-25T08:42:05.636Z</time></trkpt><trkpt lat="44.5341117" lon="7.8248917"><ele>351.0</ele><time>2026-04-25T08:42:06.644Z</time></trkpt><trkpt lat="44.53393" lon="7.8248383"><ele>351.0</ele><time>2026-04-25T08:42:07.637Z</time></trkpt><trkpt lat="44.5337583" lon="7.8247883"><ele>351.0</ele><time>2026-04-25T08:42:08.636Z</time></trkpt><trkpt lat="44.5335917" lon="7.8247417"><ele>351.0</ele><time>2026-04-25T08:42:09.637Z</time></trkpt><trkpt lat="44.5334217" lon="7.824695"><ele>351.0</ele><time>2026-04-25T08:42:10.635Z</time></trkpt><trkpt lat="44.5332533" lon="7.8246483"><ele>351.0</ele><time>2026-04-25T08:42:11.637Z</time></trkpt><trkpt lat="44.5330817" lon="7.8246017"><ele>351.0</ele><time>2026-04-25T08:42:12.638Z</time></trkpt><trkpt lat="44.5329067" lon="7.8245517"><ele>351.0</ele><time>2026-04-25T08:42:13.634Z</time></trkpt><trkpt lat="44.532725" lon="7.8244983"><ele>351.0</ele><time>2026-04-25T08:42:14.641Z</time></trkpt><trkpt lat="44.5325417" lon="7.824445"><ele>351.0</ele><time>2026-04-25T08:42:15.636Z</time></trkpt><trkpt lat="44.5323533" lon="7.8243933"><ele>351.0</ele><time>2026-04-25T08:42:16.636Z</time></trkpt><trkpt lat="44.532165" lon="7.8243433"><ele>351.0</ele><time>2026-04-25T08:42:17.636Z</time></trkpt><trkpt lat="44.5319733" lon="7.8242883"><ele>351.0</ele><time>2026-04-25T08:42:18.636Z</time></trkpt><trkpt lat="44.5317833" lon="7.8242383"><ele>351.0</ele><time>2026-04-25T08:42:19.634Z</time></trkpt><trkpt lat="44.5315983" lon="7.8241917"><ele>351.0</ele><time>2026-04-25T08:42:20.637Z</time></trkpt><trkpt lat="44.5314333" lon="7.8241433"><ele>351.0</ele><time>2026-04-25T08:42:21.636Z</time></trkpt><trkpt lat="44.5312883" lon="7.8240967"><ele>350.75</ele><time>2026-04-25T08:42:22.635Z</time></trkpt><trkpt lat="44.5311533" lon="7.82406"><ele>350.5</ele><time>2026-04-25T08:42:23.634Z</time></trkpt><trkpt lat="44.5310167" lon="7.82402"><ele>350.25</ele><time>2026-04-25T08:42:24.635Z</time></trkpt><trkpt lat="44.5308733" lon="7.823985"><ele>350.0</ele><time>2026-04-25T08:42:25.634Z</time></trkpt><trkpt lat="44.530735" lon="7.8239433"><ele>350.0</ele><time>2026-04-25T08:42:26.636Z</time></trkpt><trkpt lat="44.5305917" lon="7.823905"><ele>350.0</ele><time>2026-04-25T08:42:27.635Z</time></trkpt><trkpt lat="44.530445" lon="7.8238667"><ele>350.0</ele><time>2026-04-25T08:42:28.635Z</time></trkpt><trkpt lat="44.5302983" lon="7.8238283"><ele>350.0</ele><time>2026-04-25T08:42:29.634Z</time></trkpt><trkpt lat="44.5301467" lon="7.8237883"><ele>350.33333333333337</ele><time>2026-04-25T08:42:30.636Z</time></trkpt><trkpt lat="44.52999" lon="7.823745"><ele>350.6666666666667</ele><time>2026-04-25T08:42:31.636Z</time></trkpt><trkpt lat="44.52983" lon="7.823695"><ele>351.0</ele><time>2026-04-25T08:42:32.634Z</time></trkpt><trkpt lat="44.5296633" lon="7.8236467"><ele>350.6666666666667</ele><time>2026-04-25T08:42:33.634Z</time></trkpt><trkpt lat="44.5294983" lon="7.8236"><ele>350.33333333333337</ele><time>2026-04-25T08:42:34.638Z</time></trkpt><trkpt lat="44.5293317" lon="7.8235533"><ele>350.0</ele><time>2026-04-25T08:42:35.634Z</time></trkpt><trkpt lat="44.5291633" lon="7.8235067"><ele>350.33333333333337</ele><time>2026-04-25T08:42:36.634Z</time></trkpt><trkpt lat="44.528995" lon="7.82346"><ele>350.6666666666667</ele><time>2026-04-25T08:42:37.634Z</time></trkpt><trkpt lat="44.528825" lon="7.8234117"><ele>351.0</ele><time>2026-04-25T08:42:38.635Z</time></trkpt><trkpt lat="44.5286617" lon="7.8233633"><ele>350.0</ele><time>2026-04-25T08:42:39.634Z</time></trkpt><trkpt lat="44.52851" lon="7.8233233"><ele>349.0</ele><time>2026-04-25T08:42:40.637Z</time></trkpt><trkpt lat="44.528385" lon="7.8232933"><ele>348.0</ele><time>2026-04-25T08:42:41.634Z</time></trkpt><trkpt lat="44.52829" lon="7.82327"><ele>347.0</ele><time>2026-04-25T08:42:42.635Z</time></trkpt><trkpt lat="44.5282083" lon="7.8232467"><ele>347.0</ele><time>2026-04-25T08:42:43.635Z</time></trkpt><trkpt lat="44.5281333" lon="7.82323"><ele>347.0</ele><time>2026-04-25T08:42:44.637Z</time></trkpt><trkpt lat="44.5280633" lon="7.82321"><ele>347.0</ele><time>2026-04-25T08:42:45.637Z</time></trkpt><trkpt lat="44.528" lon="7.82319"><ele>347.0</ele><time>2026-04-25T08:42:46.634Z</time></trkpt><trkpt lat="44.5279367" lon="7.8231733"><ele>347.0</ele><time>2026-04-25T08:42:47.634Z</time></trkpt><trkpt lat="44.527875" lon="7.8231517"><ele>347.0</ele><time>2026-04-25T08:42:48.634Z</time></trkpt><trkpt lat="44.5278033" lon="7.8231317"><ele>347.0</ele><time>2026-04-25T08:42:49.636Z</time></trkpt><trkpt lat="44.52771" lon="7.823105"><ele>346.8</ele><time>2026-04-25T08:42:50.636Z</time></trkpt><trkpt lat="44.5276033" lon="7.823075"><ele>346.6</ele><time>2026-04-25T08:42:51.635Z</time></trkpt><trkpt lat="44.5274917" lon="7.823045"><ele>346.40000000000003</ele><time>2026-04-25T08:42:52.636Z</time></trkpt><trkpt lat="44.5273817" lon="7.8230133"><ele>346.20000000000005</ele><time>2026-04-25T08:42:53.636Z</time></trkpt><trkpt lat="44.5272767" lon="7.8229833"><ele>346.0</ele><time>2026-04-25T08:42:54.639Z</time></trkpt><trkpt lat="44.5271717" lon="7.822955"><ele>346.0</ele><time>2026-04-25T08:42:55.634Z</time></trkpt><trkpt lat="44.5270667" lon="7.8229283"><ele>346.0</ele><time>2026-04-25T08:42:56.634Z</time></trkpt><trkpt lat="44.5269633" lon="7.8228983"><ele>346.0</ele><time>2026-04-25T08:42:57.634Z</time></trkpt><trkpt lat="44.5268667" lon="7.8228667"><ele>346.0</ele><time>2026-04-25T08:42:58.634Z</time></trkpt><trkpt lat="44.5267683" lon="7.822835"><ele>346.0</ele><time>2026-04-25T08:42:59.634Z</time></trkpt><trkpt lat="44.5266717" lon="7.82281"><ele>346.4</ele><time>2026-04-25T08:43:00.635Z</time></trkpt><trkpt lat="44.5265733" lon="7.822785"><ele>346.8</ele><time>2026-04-25T08:43:01.637Z</time></trkpt><trkpt lat="44.526475" lon="7.8227567"><ele>347.2</ele><time>2026-04-25T08:43:02.635Z</time></trkpt><trkpt lat="44.5263717" lon="7.82272"><ele>347.59999999999997</ele><time>2026-04-25T08:43:03.636Z</time></trkpt><trkpt lat="44.5262567" lon="7.8226733"><ele>348.0</ele><time>2026-04-25T08:43:04.636Z</time></trkpt><trkpt lat="44.5261317" lon="7.8226117"><ele>350.0</ele><time>2026-04-25T08:43:05.635Z</time></trkpt><trkpt lat="44.5260017" lon="7.8225267"><ele>352.0</ele><time>2026-04-25T08:43:06.635Z</time></trkpt><trkpt lat="44.5258717" lon="7.822415"><ele>354.0</ele><time>2026-04-25T08:43:07.634Z</time></trkpt><trkpt lat="44.5257517" lon="7.822285"><ele>356.0</ele><time>2026-04-25T08:43:08.644Z</time></trkpt><trkpt lat="44.5256433" lon="7.82214"><ele>356.0</ele><time>2026-04-25T08:43:09.636Z</time></trkpt><trkpt lat="44.5255367" lon="7.82198"><ele>356.0</ele><time>2026-04-25T08:43:10.635Z</time></trkpt><trkpt lat="44.5254367" lon="7.8218167"><ele>356.0</ele><time>2026-04-25T08:43:11.635Z</time></trkpt><trkpt lat="44.5253433" lon="7.8216583"><ele>359.25</ele><time>2026-04-25T08:43:12.635Z</time></trkpt><trkpt lat="44.5252533" lon="7.82151"><ele>362.5</ele><time>2026-04-25T08:43:13.635Z</time></trkpt><trkpt lat="44.5251717" lon="7.821375"><ele>365.75</ele><time>2026-04-25T08:43:14.635Z</time></trkpt><trkpt lat="44.5250917" lon="7.8212517"><ele>369.0</ele><time>2026-04-25T08:43:15.642Z</time></trkpt><trkpt lat="44.525015" lon="7.8211367"><ele>369.0</ele><time>2026-04-25T08:43:16.634Z</time></trkpt><trkpt lat="44.5249433" lon="7.8210267"><ele>369.0</ele><time>2026-04-25T08:43:17.635Z</time></trkpt><trkpt lat="44.5248733" lon="7.8209133"><ele>369.0</ele><time>2026-04-25T08:43:18.634Z</time></trkpt><trkpt lat="44.5248017" lon="7.8208"><ele>369.0</ele><time>2026-04-25T08:43:19.635Z</time></trkpt><trkpt lat="44.5247333" lon="7.8206783"><ele>369.0</ele><time>2026-04-25T08:43:20.634Z</time></trkpt><trkpt lat="44.5246633" lon="7.82055"><ele>370.5</ele><time>2026-04-25T08:43:21.635Z</time></trkpt><trkpt lat="44.524585" lon="7.8204183"><ele>372.0</ele><time>2026-04-25T08:43:22.638Z</time></trkpt><trkpt lat="44.5245033" lon="7.82028"><ele>373.5</ele><time>2026-04-25T08:43:23.635Z</time></trkpt><trkpt lat="44.52442" lon="7.8201383"><ele>375.0</ele><time>2026-04-25T08:43:24.634Z</time></trkpt><trkpt lat="44.5243333" lon="7.8199933"><ele>375.0</ele><time>2026-04-25T08:43:25.635Z</time></trkpt><trkpt lat="44.5242467" lon="7.819865"><ele>375.0</ele><time>2026-04-25T08:43:26.636Z</time></trkpt><trkpt lat="44.52417" lon="7.8197483"><ele>375.0</ele><time>2026-04-25T08:43:27.634Z</time></trkpt><trkpt lat="44.5240967" lon="7.819635"><ele>375.0</ele><time>2026-04-25T08:43:28.636Z</time></trkpt><trkpt lat="44.52402" lon="7.81952"><ele>375.0</ele><time>2026-04-25T08:43:29.635Z</time></trkpt><trkpt lat="44.523935" lon="7.8193983"><ele>375.0</ele><time>2026-04-25T08:43:30.636Z</time></trkpt><trkpt lat="44.5238433" lon="7.81928"><ele>375.0</ele><time>2026-04-25T08:43:31.636Z</time></trkpt><trkpt lat="44.5237417" lon="7.8191733"><ele>375.0</ele><time>2026-04-25T08:43:32.637Z</time></trkpt><trkpt lat="44.5236333" lon="7.8190767"><ele>376.5</ele><time>2026-04-25T08:43:33.633Z</time></trkpt><trkpt lat="44.5235233" lon="7.8189967"><ele>378.0</ele><time>2026-04-25T08:43:34.638Z</time></trkpt><trkpt lat="44.52341" lon="7.8189467"><ele>379.5</ele><time>2026-04-25T08:43:35.635Z</time></trkpt><trkpt lat="44.5232933" lon="7.8189217"><ele>381.0</ele><time>2026-04-25T08:43:36.636Z</time></trkpt><trkpt lat="44.52317" lon="7.8189133"><ele>381.0</ele><time>2026-04-25T08:43:37.637Z</time></trkpt><trkpt lat="44.5230383" lon="7.818905"><ele>381.0</ele><time>2026-04-25T08:43:38.635Z</time></trkpt><trkpt lat="44.5229017" lon="7.818895"><ele>381.0</ele><time>2026-04-25T08:43:39.638Z</time></trkpt><trkpt lat="44.5227583" lon="7.8188867"><ele>381.0</ele><time>2026-04-25T08:43:40.635Z</time></trkpt><trkpt lat="44.52262" lon="7.8188783"><ele>382.0</ele><time>2026-04-25T08:43:41.636Z</time></trkpt><trkpt lat="44.5224783" lon="7.81887"><ele>383.0</ele><time>2026-04-25T08:43:42.637Z</time></trkpt><trkpt lat="44.5223383" lon="7.81886"><ele>384.0</ele><time>2026-04-25T08:43:43.633Z</time></trkpt><trkpt lat="44.522195" lon="7.8188517"><ele>385.0</ele><time>2026-04-25T08:43:44.634Z</time></trkpt><trkpt lat="44.52205" lon="7.818845"><ele>386.0</ele><time>2026-04-25T08:43:45.634Z</time></trkpt><trkpt lat="44.5219017" lon="7.8188383"><ele>387.0</ele><time>2026-04-25T08:43:46.637Z</time></trkpt><trkpt lat="44.5217533" lon="7.8188317"><ele>388.0</ele><time>2026-04-25T08:43:47.634Z</time></trkpt><trkpt lat="44.5216067" lon="7.8188233"><ele>389.0</ele><time>2026-04-25T08:43:48.637Z</time></trkpt><trkpt lat="44.5214733" lon="7.8188167"><ele>389.0</ele><time>2026-04-25T08:43:49.635Z</time></trkpt><trkpt lat="44.52135" lon="7.81881"><ele>389.0</ele><time>2026-04-25T08:43:50.636Z</time></trkpt><trkpt lat="44.5212367" lon="7.818805"><ele>389.0</ele><time>2026-04-25T08:43:51.635Z</time></trkpt><trkpt lat="44.521135" lon="7.8188017"><ele>389.0</ele><time>2026-04-25T08:43:52.639Z</time></trkpt><trkpt lat="44.5210383" lon="7.8187967"><ele>389.0</ele><time>2026-04-25T08:43:53.635Z</time></trkpt><trkpt lat="44.520945" lon="7.8187933"><ele>389.6</ele><time>2026-04-25T08:43:54.637Z</time></trkpt><trkpt lat="44.5208517" lon="7.8187883"><ele>390.2</ele><time>2026-04-25T08:43:55.635Z</time></trkpt><trkpt lat="44.5207583" lon="7.8187833"><ele>390.8</ele><time>2026-04-25T08:43:56.637Z</time></trkpt><trkpt lat="44.520665" lon="7.81878"><ele>391.40000000000003</ele><time>2026-04-25T08:43:57.636Z</time></trkpt><trkpt lat="44.5205717" lon="7.8187767"><ele>392.0</ele><time>2026-04-25T08:43:58.635Z</time></trkpt><trkpt lat="44.520485" lon="7.818785"><ele>392.0</ele><time>2026-04-25T08:43:59.634Z</time></trkpt><trkpt lat="44.520405" lon="7.8188217"><ele>392.0</ele><time>2026-04-25T08:44:00.634Z</time></trkpt><trkpt lat="44.5203283" lon="7.81889"><ele>392.0</ele><time>2026-04-25T08:44:01.634Z</time></trkpt><trkpt lat="44.5202583" lon="7.8189933"><ele>392.0</ele><time>2026-04-25T08:44:02.64Z</time></trkpt><trkpt lat="44.5201933" lon="7.8191267"><ele>392.0</ele><time>2026-04-25T08:44:03.636Z</time></trkpt><trkpt lat="44.5201267" lon="7.8192867"><ele>393.5</ele><time>2026-04-25T08:44:04.636Z</time></trkpt><trkpt lat="44.5200567" lon="7.8194633"><ele>395.0</ele><time>2026-04-25T08:44:05.635Z</time></trkpt><trkpt lat="44.519985" lon="7.8196483"><ele>396.5</ele><time>2026-04-25T08:44:06.639Z</time></trkpt><trkpt lat="44.51991" lon="7.8198383"><ele>398.0</ele><time>2026-04-25T08:44:07.636Z</time></trkpt><trkpt lat="44.5198283" lon="7.8200383"><ele>398.0</ele><time>2026-04-25T08:44:08.637Z</time></trkpt><trkpt lat="44.5197383" lon="7.82024"><ele>398.0</ele><time>2026-04-25T08:44:09.634Z</time></trkpt><trkpt lat="44.5196533" lon="7.8204317"><ele>398.0</ele><time>2026-04-25T08:44:10.636Z</time></trkpt><trkpt lat="44.5195767" lon="7.8206083"><ele>398.25</ele><time>2026-04-25T08:44:11.639Z</time></trkpt><trkpt lat="44.5195017" lon="7.8207717"><ele>398.5</ele><time>2026-04-25T08:44:12.633Z</time></trkpt><trkpt lat="44.51943" lon="7.8209383"><ele>398.75</ele><time>2026-04-25T08:44:13.633Z</time></trkpt><trkpt lat="44.5193583" lon="7.8211117"><ele>399.0</ele><time>2026-04-25T08:44:14.633Z</time></trkpt><trkpt lat="44.5192867" lon="7.82129"><ele>399.0</ele><time>2026-04-25T08:44:15.633Z</time></trkpt><trkpt lat="44.5192117" lon="7.8214783"><ele>399.0</ele><time>2026-04-25T08:44:16.636Z</time></trkpt><trkpt lat="44.5191267" lon="7.82167"><ele>399.0</ele><time>2026-04-25T08:44:17.633Z</time></trkpt><trkpt lat="44.51904" lon="7.8218667"><ele>398.0</ele><time>2026-04-25T08:44:18.636Z</time></trkpt><trkpt lat="44.51895" lon="7.8220733"><ele>397.0</ele><time>2026-04-25T08:44:19.633Z</time></trkpt><trkpt lat="44.51886" lon="7.8222867"><ele>396.0</ele><time>2026-04-25T08:44:20.64Z</time></trkpt><trkpt lat="44.5187683" lon="7.8225067"><ele>395.33333333333337</ele><time>2026-04-25T08:44:21.633Z</time></trkpt><trkpt lat="44.5186767" lon="7.8227283"><ele>394.6666666666667</ele><time>2026-04-25T08:44:22.634Z</time></trkpt><trkpt lat="44.5185817" lon="7.8229567"><ele>394.0</ele><time>2026-04-25T08:44:23.633Z</time></trkpt><trkpt lat="44.518485" lon="7.8231833"><ele>394.0</ele><time>2026-04-25T08:44:24.633Z</time></trkpt><trkpt lat="44.518395" lon="7.8233917"><ele>394.0</ele><time>2026-04-25T08:44:25.633Z</time></trkpt><trkpt lat="44.5183117" lon="7.8235883"><ele>394.0</ele><time>2026-04-25T08:44:26.634Z</time></trkpt><trkpt lat="44.5182317" lon="7.8237783"><ele>394.33333333333337</ele><time>2026-04-25T08:44:27.634Z</time></trkpt><trkpt lat="44.5181533" lon="7.8239667"><ele>394.66666666666663</ele><time>2026-04-25T08:44:28.638Z</time></trkpt><trkpt lat="44.5180683" lon="7.8241683"><ele>395.0</ele><time>2026-04-25T08:44:29.633Z</time></trkpt><trkpt lat="44.5179833" lon="7.824375"><ele>395.3333333333333</ele><time>2026-04-25T08:44:30.634Z</time></trkpt><trkpt lat="44.517895" lon="7.8245883"><ele>395.66666666666663</ele><time>2026-04-25T08:44:31.633Z</time></trkpt><trkpt lat="44.517805" lon="7.8248017"><ele>396.0</ele><time>2026-04-25T08:44:32.638Z</time></trkpt><trkpt lat="44.5177167" lon="7.8250133"><ele>396.33333333333337</ele><time>2026-04-25T08:44:33.633Z</time></trkpt><trkpt lat="44.51763" lon="7.82522"><ele>396.6666666666667</ele><time>2026-04-25T08:44:34.633Z</time></trkpt><trkpt lat="44.517545" lon="7.8254183"><ele>397.0</ele><time>2026-04-25T08:44:35.633Z</time></trkpt><trkpt lat="44.517465" lon="7.825605"><ele>397.0</ele><time>2026-04-25T08:44:36.633Z</time></trkpt><trkpt lat="44.5173867" lon="7.82579"><ele>397.0</ele><time>2026-04-25T08:44:37.633Z</time></trkpt><trkpt lat="44.5173117" lon="7.82597"><ele>397.0</ele><time>2026-04-25T08:44:38.634Z</time></trkpt><trkpt lat="44.5172367" lon="7.8261483"><ele>396.75</ele><time>2026-04-25T08:44:39.635Z</time></trkpt><trkpt lat="44.5171617" lon="7.8263267"><ele>396.5</ele><time>2026-04-25T08:44:40.633Z</time></trkpt><trkpt lat="44.517085" lon="7.8265083"><ele>396.25</ele><time>2026-04-25T08:44:41.638Z</time></trkpt><trkpt lat="44.5170083" lon="7.8266867"><ele>396.0</ele><time>2026-04-25T08:44:42.635Z</time></trkpt><trkpt lat="44.5169317" lon="7.8268633"><ele>397.0</ele><time>2026-04-25T08:44:43.633Z</time></trkpt><trkpt lat="44.5168567" lon="7.8270417"><ele>398.0</ele><time>2026-04-25T08:44:44.635Z</time></trkpt><trkpt lat="44.51678" lon="7.8272217"><ele>399.0</ele><time>2026-04-25T08:44:45.635Z</time></trkpt><trkpt lat="44.5167017" lon="7.827405"><ele>399.0</ele><time>2026-04-25T08:44:46.637Z</time></trkpt><trkpt lat="44.5166233" lon="7.8275933"><ele>399.0</ele><time>2026-04-25T08:44:47.636Z</time></trkpt><trkpt lat="44.51654" lon="7.8277867"><ele>399.0</ele><time>2026-04-25T08:44:48.635Z</time></trkpt><trkpt lat="44.5164567" lon="7.8279817"><ele>398.66666666666663</ele><time>2026-04-25T08:44:49.634Z</time></trkpt><trkpt lat="44.5163733" lon="7.828175"><ele>398.3333333333333</ele><time>2026-04-25T08:44:50.634Z</time></trkpt><trkpt lat="44.5162917" lon="7.828365"><ele>398.0</ele><time>2026-04-25T08:44:51.634Z</time></trkpt><trkpt lat="44.5162133" lon="7.8285517"><ele>399.0</ele><time>2026-04-25T08:44:52.633Z</time></trkpt><trkpt lat="44.516135" lon="7.82874"><ele>400.0</ele><time>2026-04-25T08:44:53.638Z</time></trkpt><trkpt lat="44.5160583" lon="7.8289233"><ele>401.0</ele><time>2026-04-25T08:44:54.632Z</time></trkpt><trkpt lat="44.5159817" lon="7.8291017"><ele>401.0</ele><time>2026-04-25T08:44:55.633Z</time></trkpt><trkpt lat="44.515905" lon="7.82928"><ele>401.0</ele><time>2026-04-25T08:44:56.634Z</time></trkpt><trkpt lat="44.5158267" lon="7.8294667"><ele>401.0</ele><time>2026-04-25T08:44:57.633Z</time></trkpt><trkpt lat="44.515745" lon="7.8296583"><ele>401.0</ele><time>2026-04-25T08:44:58.633Z</time></trkpt><trkpt lat="44.5156617" lon="7.8298517"><ele>401.0</ele><time>2026-04-25T08:44:59.638Z</time></trkpt><trkpt lat="44.51558" lon="7.8300467"><ele>401.0</ele><time>2026-04-25T08:45:00.633Z</time></trkpt><trkpt lat="44.515495" lon="7.8302483"><ele>401.0</ele><time>2026-04-25T08:45:01.636Z</time></trkpt><trkpt lat="44.5154083" lon="7.8304567"><ele>401.0</ele><time>2026-04-25T08:45:02.634Z</time></trkpt><trkpt lat="44.5153233" lon="7.8306617"><ele>401.0</ele><time>2026-04-25T08:45:03.635Z</time></trkpt><trkpt lat="44.5152417" lon="7.8308533"><ele>400.5</ele><time>2026-04-25T08:45:04.639Z</time></trkpt><trkpt lat="44.5151667" lon="7.8310333"><ele>400.0</ele><time>2026-04-25T08:45:05.637Z</time></trkpt><trkpt lat="44.5150967" lon="7.8312033"><ele>399.5</ele><time>2026-04-25T08:45:06.633Z</time></trkpt><trkpt lat="44.5150267" lon="7.8313683"><ele>399.0</ele><time>2026-04-25T08:45:07.634Z</time></trkpt><trkpt lat="44.5149567" lon="7.831535"><ele>399.0</ele><time>2026-04-25T08:45:08.636Z</time></trkpt><trkpt lat="44.5148833" lon="7.83171"><ele>399.0</ele><time>2026-04-25T08:45:09.634Z</time></trkpt><trkpt lat="44.5148067" lon="7.83189"><ele>399.0</ele><time>2026-04-25T08:45:10.633Z</time></trkpt><trkpt lat="44.5147267" lon="7.8320733"><ele>399.0</ele><time>2026-04-25T08:45:11.633Z</time></trkpt><trkpt lat="44.514635" lon="7.8322517"><ele>399.66666666666663</ele><time>2026-04-25T08:45:12.634Z</time></trkpt><trkpt lat="44.5145333" lon="7.8324167"><ele>400.3333333333333</ele><time>2026-04-25T08:45:13.633Z</time></trkpt><trkpt lat="44.5144267" lon="7.832575"><ele>401.0</ele><time>2026-04-25T08:45:14.636Z</time></trkpt><trkpt lat="44.514315" lon="7.8327267"><ele>401.66666666666663</ele><time>2026-04-25T08:45:15.634Z</time></trkpt><trkpt lat="44.5142033" lon="7.832875"><ele>402.33333333333337</ele><time>2026-04-25T08:45:16.633Z</time></trkpt><trkpt lat="44.5140883" lon="7.8330217"><ele>403.0</ele><time>2026-04-25T08:45:17.634Z</time></trkpt><trkpt lat="44.51397" lon="7.8331717"><ele>403.0</ele><time>2026-04-25T08:45:18.633Z</time></trkpt><trkpt lat="44.51385" lon="7.8333267"><ele>403.0</ele><time>2026-04-25T08:45:19.634Z</time></trkpt><trkpt lat="44.5137283" lon="7.8334817"><ele>403.0</ele><time>2026-04-25T08:45:20.635Z</time></trkpt><trkpt lat="44.5136033" lon="7.8336317"><ele>403.33333333333337</ele><time>2026-04-25T08:45:21.633Z</time></trkpt><trkpt lat="44.5134767" lon="7.8337767"><ele>403.66666666666663</ele><time>2026-04-25T08:45:22.633Z</time></trkpt><trkpt lat="44.5133483" lon="7.8339183"><ele>404.0</ele><time>2026-04-25T08:45:23.634Z</time></trkpt><trkpt lat="44.5132183" lon="7.83406"><ele>404.0</ele><time>2026-04-25T08:45:24.633Z</time></trkpt><trkpt lat="44.513085" lon="7.8342017"><ele>404.0</ele><time>2026-04-25T08:45:25.641Z</time></trkpt><trkpt lat="44.51295" lon="7.8343367"><ele>404.0</ele><time>2026-04-25T08:45:26.633Z</time></trkpt><trkpt lat="44.512815" lon="7.83446"><ele>404.3333333333333</ele><time>2026-04-25T08:45:27.635Z</time></trkpt><trkpt lat="44.5126733" lon="7.8345733"><ele>404.66666666666663</ele><time>2026-04-25T08:45:28.634Z</time></trkpt><trkpt lat="44.5125233" lon="7.834675"><ele>405.0</ele><time>2026-04-25T08:45:29.634Z</time></trkpt><trkpt lat="44.512365" lon="7.8347633"><ele>405.0</ele><time>2026-04-25T08:45:30.634Z</time></trkpt><trkpt lat="44.5122017" lon="7.8348517"><ele>405.0</ele><time>2026-04-25T08:45:31.636Z</time></trkpt><trkpt lat="44.5120367" lon="7.8349433"><ele>405.0</ele><time>2026-04-25T08:45:32.634Z</time></trkpt><trkpt lat="44.5118667" lon="7.8350533"><ele>404.66666666666663</ele><time>2026-04-25T08:45:33.634Z</time></trkpt><trkpt lat="44.511695" lon="7.8351833"><ele>404.3333333333333</ele><time>2026-04-25T08:45:34.635Z</time></trkpt><trkpt lat="44.5115233" lon="7.8353333"><ele>404.0</ele><time>2026-04-25T08:45:35.639Z</time></trkpt><trkpt lat="44.51135" lon="7.8354967"><ele>404.0</ele><time>2026-04-25T08:45:36.636Z</time></trkpt><trkpt lat="44.5111767" lon="7.8356667"><ele>404.0</ele><time>2026-04-25T08:45:37.635Z</time></trkpt><trkpt lat="44.5110083" lon="7.8358317"><ele>404.0</ele><time>2026-04-25T08:45:38.636Z</time></trkpt><trkpt lat="44.510845" lon="7.8359933"><ele>404.0</ele><time>2026-04-25T08:45:39.637Z</time></trkpt><trkpt lat="44.5106883" lon="7.8361467"><ele>404.0</ele><time>2026-04-25T08:45:40.634Z</time></trkpt><trkpt lat="44.5105317" lon="7.8363"><ele>404.0</ele><time>2026-04-25T08:45:41.634Z</time></trkpt><trkpt lat="44.5103767" lon="7.83645"><ele>404.0</ele><time>2026-04-25T08:45:42.64Z</time></trkpt><trkpt lat="44.5102217" lon="7.8366033"><ele>404.0</ele><time>2026-04-25T08:45:43.633Z</time></trkpt><trkpt lat="44.51007" lon="7.83675"><ele>404.0</ele><time>2026-04-25T08:45:44.634Z</time></trkpt><trkpt lat="44.5099183" lon="7.8368983"><ele>404.0</ele><time>2026-04-25T08:45:45.634Z</time></trkpt><trkpt lat="44.5097733" lon="7.8370567"><ele>404.0</ele><time>2026-04-25T08:45:46.636Z</time></trkpt><trkpt lat="44.5096367" lon="7.8372267"><ele>404.0</ele><time>2026-04-25T08:45:47.634Z</time></trkpt><trkpt lat="44.5095033" lon="7.8374033"><ele>404.0</ele><time>2026-04-25T08:45:48.635Z</time></trkpt><trkpt lat="44.5093683" lon="7.8375833"><ele>404.0</ele><time>2026-04-25T08:45:49.637Z</time></trkpt><trkpt lat="44.5092317" lon="7.837765"><ele>404.0</ele><time>2026-04-25T08:45:50.634Z</time></trkpt><trkpt lat="44.5090917" lon="7.8379467"><ele>404.0</ele><time>2026-04-25T08:45:51.635Z</time></trkpt><trkpt lat="44.5089517" lon="7.8381233"><ele>404.0</ele><time>2026-04-25T08:45:52.634Z</time></trkpt><trkpt lat="44.50882" lon="7.8383"><ele>404.0</ele><time>2026-04-25T08:45:53.634Z</time></trkpt><trkpt lat="44.5086917" lon="7.8384683"><ele>404.0</ele><time>2026-04-25T08:45:54.634Z</time></trkpt><trkpt lat="44.5085717" lon="7.8386317"><ele>404.0</ele><time>2026-04-25T08:45:55.635Z</time></trkpt><trkpt lat="44.5084583" lon="7.8387933"><ele>404.0</ele><time>2026-04-25T08:45:56.639Z</time></trkpt><trkpt lat="44.50835" lon="7.8389617"><ele>404.0</ele><time>2026-04-25T08:45:57.633Z</time></trkpt><trkpt lat="44.5082483" lon="7.839135"><ele>404.0</ele><time>2026-04-25T08:45:58.637Z</time></trkpt><trkpt lat="44.5081533" lon="7.83931"><ele>404.0</ele><time>2026-04-25T08:45:59.635Z</time></trkpt><trkpt lat="44.5080617" lon="7.8394817"><ele>403.5</ele><time>2026-04-25T08:46:00.634Z</time></trkpt><trkpt lat="44.5079733" lon="7.83965"><ele>403.0</ele><time>2026-04-25T08:46:01.636Z</time></trkpt><trkpt lat="44.5078883" lon="7.8398133"><ele>402.5</ele><time>2026-04-25T08:46:02.634Z</time></trkpt><trkpt lat="44.5078067" lon="7.8399667"><ele>402.0</ele><time>2026-04-25T08:46:03.635Z</time></trkpt><trkpt lat="44.5077283" lon="7.8401133"><ele>402.0</ele><time>2026-04-25T08:46:04.635Z</time></trkpt><trkpt lat="44.5076517" lon="7.8402533"><ele>402.0</ele><time>2026-04-25T08:46:05.635Z</time></trkpt><trkpt lat="44.507575" lon="7.840395"><ele>402.0</ele><time>2026-04-25T08:46:06.633Z</time></trkpt><trkpt lat="44.5074917" lon="7.84054"><ele>402.0</ele><time>2026-04-25T08:46:07.633Z</time></trkpt><trkpt lat="44.5074083" lon="7.8407"><ele>402.0</ele><time>2026-04-25T08:46:08.633Z</time></trkpt><trkpt lat="44.5073267" lon="7.840875"><ele>402.0</ele><time>2026-04-25T08:46:09.634Z</time></trkpt><trkpt lat="44.5072517" lon="7.841065"><ele>402.0</ele><time>2026-04-25T08:46:10.634Z</time></trkpt><trkpt lat="44.5071783" lon="7.8412667"><ele>402.66666666666663</ele><time>2026-04-25T08:46:11.637Z</time></trkpt><trkpt lat="44.507105" lon="7.8414783"><ele>403.3333333333333</ele><time>2026-04-25T08:46:12.637Z</time></trkpt><trkpt lat="44.5070333" lon="7.8416967"><ele>404.0</ele><time>2026-04-25T08:46:13.635Z</time></trkpt><trkpt lat="44.5069617" lon="7.841915"><ele>404.3333333333333</ele><time>2026-04-25T08:46:14.636Z</time></trkpt><trkpt lat="44.50689" lon="7.84213"><ele>404.66666666666663</ele><time>2026-04-25T08:46:15.633Z</time></trkpt><trkpt lat="44.506815" lon="7.8423483"><ele>405.0</ele><time>2026-04-25T08:46:16.633Z</time></trkpt><trkpt lat="44.5067383" lon="7.84256"><ele>405.33333333333337</ele><time>2026-04-25T08:46:17.635Z</time></trkpt><trkpt lat="44.5066617" lon="7.842775"><ele>405.6666666666667</ele><time>2026-04-25T08:46:18.633Z</time></trkpt><trkpt lat="44.50658" lon="7.84299"><ele>406.0</ele><time>2026-04-25T08:46:19.634Z</time></trkpt><trkpt lat="44.5064983" lon="7.843205"><ele>406.0</ele><time>2026-04-25T08:46:20.634Z</time></trkpt><trkpt lat="44.5064167" lon="7.8434183"><ele>406.0</ele><time>2026-04-25T08:46:21.633Z</time></trkpt><trkpt lat="44.506335" lon="7.8436383"><ele>406.0</ele><time>2026-04-25T08:46:22.634Z</time></trkpt><trkpt lat="44.5062533" lon="7.8438633"><ele>405.6666666666667</ele><time>2026-04-25T08:46:23.634Z</time></trkpt><trkpt lat="44.50617" lon="7.8440883"><ele>405.33333333333337</ele><time>2026-04-25T08:46:24.635Z</time></trkpt><trkpt lat="44.5060867" lon="7.8443167"><ele>405.0</ele><time>2026-04-25T08:46:25.633Z</time></trkpt><trkpt lat="44.5060017" lon="7.8445467"><ele>404.66666666666663</ele><time>2026-04-25T08:46:26.633Z</time></trkpt><trkpt lat="44.50591" lon="7.8447683"><ele>404.3333333333333</ele><time>2026-04-25T08:46:27.637Z</time></trkpt><trkpt lat="44.505805" lon="7.8449783"><ele>404.0</ele><time>2026-04-25T08:46:28.634Z</time></trkpt><trkpt lat="44.50568" lon="7.8451683"><ele>403.66666666666663</ele><time>2026-04-25T08:46:29.634Z</time></trkpt><trkpt lat="44.5055433" lon="7.845345"><ele>403.33333333333337</ele><time>2026-04-25T08:46:30.636Z</time></trkpt><trkpt lat="44.5054" lon="7.845515"><ele>403.0</ele><time>2026-04-25T08:46:31.637Z</time></trkpt><trkpt lat="44.5052533" lon="7.8456817"><ele>403.0</ele><time>2026-04-25T08:46:32.636Z</time></trkpt><trkpt lat="44.5051067" lon="7.84585"><ele>403.0</ele><time>2026-04-25T08:46:33.637Z</time></trkpt><trkpt lat="44.5049583" lon="7.8460167"><ele>403.0</ele><time>2026-04-25T08:46:34.637Z</time></trkpt><trkpt lat="44.5048117" lon="7.8461833"><ele>403.0</ele><time>2026-04-25T08:46:35.636Z</time></trkpt><trkpt lat="44.5046717" lon="7.8463417"><ele>403.0</ele><time>2026-04-25T08:46:36.636Z</time></trkpt><trkpt lat="44.50454" lon="7.8464933"><ele>403.0</ele><time>2026-04-25T08:46:37.638Z</time></trkpt><trkpt lat="44.5044133" lon="7.8466417"><ele>403.33333333333337</ele><time>2026-04-25T08:46:38.641Z</time></trkpt><trkpt lat="44.5042883" lon="7.84678"><ele>403.66666666666663</ele><time>2026-04-25T08:46:39.634Z</time></trkpt><trkpt lat="44.50416" lon="7.8469033"><ele>404.0</ele><time>2026-04-25T08:46:40.636Z</time></trkpt><trkpt lat="44.5040267" lon="7.8470117"><ele>404.0</ele><time>2026-04-25T08:46:41.638Z</time></trkpt><trkpt lat="44.5038783" lon="7.8470917"><ele>404.0</ele><time>2026-04-25T08:46:42.634Z</time></trkpt><trkpt lat="44.5037167" lon="7.847165"><ele>404.0</ele><time>2026-04-25T08:46:43.634Z</time></trkpt><trkpt lat="44.5035483" lon="7.847235"><ele>404.0</ele><time>2026-04-25T08:46:44.639Z</time></trkpt><trkpt lat="44.503385" lon="7.8473017"><ele>404.0</ele><time>2026-04-25T08:46:45.634Z</time></trkpt><trkpt lat="44.5032283" lon="7.847365"><ele>404.0</ele><time>2026-04-25T08:46:46.635Z</time></trkpt><trkpt lat="44.5030783" lon="7.84743"><ele>404.0</ele><time>2026-04-25T08:46:47.634Z</time></trkpt><trkpt lat="44.5029267" lon="7.8474967"><ele>404.0</ele><time>2026-04-25T08:46:48.637Z</time></trkpt><trkpt lat="44.5027767" lon="7.847565"><ele>404.0</ele><time>2026-04-25T08:46:49.638Z</time></trkpt><trkpt lat="44.502625" lon="7.84763"><ele>404.0</ele><time>2026-04-25T08:46:50.633Z</time></trkpt><trkpt lat="44.5024767" lon="7.8476967"><ele>404.0</ele><time>2026-04-25T08:46:51.636Z</time></trkpt><trkpt lat="44.5023317" lon="7.847765"><ele>404.0</ele><time>2026-04-25T08:46:52.632Z</time></trkpt><trkpt lat="44.5021883" lon="7.8478333"><ele>404.0</ele><time>2026-04-25T08:46:53.638Z</time></trkpt><trkpt lat="44.50204" lon="7.8479017"><ele>404.0</ele><time>2026-04-25T08:46:54.637Z</time></trkpt><trkpt lat="44.501885" lon="7.8479683"><ele>404.0</ele><time>2026-04-25T08:46:55.634Z</time></trkpt><trkpt lat="44.5017283" lon="7.84803"><ele>404.0</ele><time>2026-04-25T08:46:56.637Z</time></trkpt><trkpt lat="44.5015683" lon="7.8480883"><ele>404.0</ele><time>2026-04-25T08:46:57.633Z</time></trkpt><trkpt lat="44.5014133" lon="7.84815"><ele>404.0</ele><time>2026-04-25T08:46:58.633Z</time></trkpt><trkpt lat="44.50126" lon="7.848225"><ele>403.66666666666663</ele><time>2026-04-25T08:46:59.633Z</time></trkpt><trkpt lat="44.5011117" lon="7.84832"><ele>403.33333333333337</ele><time>2026-04-25T08:47:00.634Z</time></trkpt><trkpt lat="44.5009867" lon="7.848445"><ele>403.0</ele><time>2026-04-25T08:47:01.638Z</time></trkpt><trkpt lat="44.5008767" lon="7.8485917"><ele>403.0</ele><time>2026-04-25T08:47:02.635Z</time></trkpt><trkpt lat="44.5007817" lon="7.8487517"><ele>403.0</ele><time>2026-04-25T08:47:03.635Z</time></trkpt><trkpt lat="44.5006933" lon="7.8489183"><ele>403.0</ele><time>2026-04-25T08:47:04.635Z</time></trkpt><trkpt lat="44.5006067" lon="7.849085"><ele>403.0</ele><time>2026-04-25T08:47:05.634Z</time></trkpt><trkpt lat="44.5005183" lon="7.849255"><ele>403.5</ele><time>2026-04-25T08:47:06.635Z</time></trkpt><trkpt lat="44.5004333" lon="7.84942"><ele>404.0</ele><time>2026-04-25T08:47:07.636Z</time></trkpt><trkpt lat="44.500355" lon="7.8495767"><ele>404.5</ele><time>2026-04-25T08:47:08.636Z</time></trkpt><trkpt lat="44.50028" lon="7.849725"><ele>405.0</ele><time>2026-04-25T08:47:09.633Z</time></trkpt><trkpt lat="44.5002033" lon="7.8498717"><ele>405.25</ele><time>2026-04-25T08:47:10.636Z</time></trkpt><trkpt lat="44.5001217" lon="7.8500267"><ele>405.5</ele><time>2026-04-25T08:47:11.633Z</time></trkpt><trkpt lat="44.5000367" lon="7.85019"><ele>405.75</ele><time>2026-04-25T08:47:12.634Z</time></trkpt><trkpt lat="44.4999467" lon="7.8503617"><ele>406.0</ele><time>2026-04-25T08:47:13.634Z</time></trkpt><trkpt lat="44.499845" lon="7.8505483"><ele>406.0</ele><time>2026-04-25T08:47:14.633Z</time></trkpt><trkpt lat="44.4997433" lon="7.8507433"><ele>406.0</ele><time>2026-04-25T08:47:15.634Z</time></trkpt><trkpt lat="44.4996383" lon="7.8509467"><ele>406.0</ele><time>2026-04-25T08:47:16.633Z</time></trkpt><trkpt lat="44.4995317" lon="7.8511533"><ele>405.6666666666667</ele><time>2026-04-25T08:47:17.634Z</time></trkpt><trkpt lat="44.4994233" lon="7.8513617"><ele>405.33333333333337</ele><time>2026-04-25T08:47:18.635Z</time></trkpt><trkpt lat="44.499315" lon="7.8515617"><ele>405.0</ele><time>2026-04-25T08:47:19.635Z</time></trkpt><trkpt lat="44.4992083" lon="7.8517567"><ele>404.33333333333337</ele><time>2026-04-25T08:47:20.636Z</time></trkpt><trkpt lat="44.49911" lon="7.8519417"><ele>403.6666666666667</ele><time>2026-04-25T08:47:21.64Z</time></trkpt><trkpt lat="44.4990167" lon="7.852125"><ele>403.0</ele><time>2026-04-25T08:47:22.634Z</time></trkpt><trkpt lat="44.4989267" lon="7.8523067"><ele>403.0</ele><time>2026-04-25T08:47:23.639Z</time></trkpt><trkpt lat="44.498845" lon="7.852485"><ele>403.0</ele><time>2026-04-25T08:47:24.635Z</time></trkpt><trkpt lat="44.4987683" lon="7.8526617"><ele>403.0</ele><time>2026-04-25T08:47:25.635Z</time></trkpt><trkpt lat="44.4986967" lon="7.8528317"><ele>403.0</ele><time>2026-04-25T08:47:26.637Z</time></trkpt><trkpt lat="44.49863" lon="7.85299"><ele>402.75</ele><time>2026-04-25T08:47:27.636Z</time></trkpt><trkpt lat="44.4985633" lon="7.8531333"><ele>402.5</ele><time>2026-04-25T08:47:28.634Z</time></trkpt><trkpt lat="44.4985" lon="7.8532667"><ele>402.25</ele><time>2026-04-25T08:47:29.635Z</time></trkpt><trkpt lat="44.4984417" lon="7.853395"><ele>402.0</ele><time>2026-04-25T08:47:30.636Z</time></trkpt><trkpt lat="44.498385" lon="7.8535283"><ele>401.8</ele><time>2026-04-25T08:47:31.635Z</time></trkpt><trkpt lat="44.4983317" lon="7.85366"><ele>401.6</ele><time>2026-04-25T08:47:32.634Z</time></trkpt><trkpt lat="44.498275" lon="7.85379"><ele>401.40000000000003</ele><time>2026-04-25T08:47:33.633Z</time></trkpt><trkpt lat="44.4982117" lon="7.8539183"><ele>401.20000000000005</ele><time>2026-04-25T08:47:34.633Z</time></trkpt><trkpt lat="44.4981467" lon="7.8540467"><ele>401.0</ele><time>2026-04-25T08:47:35.638Z</time></trkpt><trkpt lat="44.4980733" lon="7.854165"><ele>401.0</ele><time>2026-04-25T08:47:36.635Z</time></trkpt><trkpt lat="44.497995" lon="7.85428"><ele>401.0</ele><time>2026-04-25T08:47:37.633Z</time></trkpt><trkpt lat="44.4979133" lon="7.8543867"><ele>401.0</ele><time>2026-04-25T08:47:38.634Z</time></trkpt><trkpt lat="44.4978267" lon="7.8544967"><ele>401.0</ele><time>2026-04-25T08:47:39.635Z</time></trkpt><trkpt lat="44.497735" lon="7.8546"><ele>401.25</ele><time>2026-04-25T08:47:40.635Z</time></trkpt><trkpt lat="44.4976433" lon="7.854705"><ele>401.5</ele><time>2026-04-25T08:47:41.634Z</time></trkpt><trkpt lat="44.4975417" lon="7.854815"><ele>401.75</ele><time>2026-04-25T08:47:42.637Z</time></trkpt><trkpt lat="44.497425" lon="7.854935"><ele>402.0</ele><time>2026-04-25T08:47:43.634Z</time></trkpt><trkpt lat="44.4973167" lon="7.8550583"><ele>402.0</ele><time>2026-04-25T08:47:44.638Z</time></trkpt><trkpt lat="44.4971983" lon="7.855185"><ele>402.0</ele><time>2026-04-25T08:47:45.636Z</time></trkpt><trkpt lat="44.4970817" lon="7.8553217"><ele>402.0</ele><time>2026-04-25T08:47:46.633Z</time></trkpt><trkpt lat="44.4969633" lon="7.855455"><ele>401.5</ele><time>2026-04-25T08:47:47.636Z</time></trkpt><trkpt lat="44.4968417" lon="7.8555683"><ele>401.0</ele><time>2026-04-25T08:47:48.635Z</time></trkpt><trkpt lat="44.4967117" lon="7.8556733"><ele>400.5</ele><time>2026-04-25T08:47:49.638Z</time></trkpt><trkpt lat="44.49658" lon="7.8557633"><ele>400.0</ele><time>2026-04-25T08:47:50.634Z</time></trkpt><trkpt lat="44.496455" lon="7.855855"><ele>400.0</ele><time>2026-04-25T08:47:51.633Z</time></trkpt><trkpt lat="44.496335" lon="7.8559617"><ele>400.0</ele><time>2026-04-25T08:47:52.633Z</time></trkpt><trkpt lat="44.49622" lon="7.856085"><ele>400.0</ele><time>2026-04-25T08:47:53.634Z</time></trkpt><trkpt lat="44.49611" lon="7.8562183"><ele>400.0</ele><time>2026-04-25T08:47:54.636Z</time></trkpt><trkpt lat="44.4960067" lon="7.8563517"><ele>400.25</ele><time>2026-04-25T08:47:55.636Z</time></trkpt><trkpt lat="44.4959083" lon="7.8564833"><ele>400.5</ele><time>2026-04-25T08:47:56.636Z</time></trkpt><trkpt lat="44.4958083" lon="7.8566167"><ele>400.75</ele><time>2026-04-25T08:47:57.636Z</time></trkpt><trkpt lat="44.4957117" lon="7.85675"><ele>401.0</ele><time>2026-04-25T08:47:58.635Z</time></trkpt><trkpt lat="44.495615" lon="7.85688"><ele>401.0</ele><time>2026-04-25T08:47:59.642Z</time></trkpt><trkpt lat="44.495525" lon="7.8570017"><ele>401.0</ele><time>2026-04-25T08:48:00.633Z</time></trkpt><trkpt lat="44.4954367" lon="7.8571183"><ele>401.0</ele><time>2026-04-25T08:48:01.636Z</time></trkpt><trkpt lat="44.495345" lon="7.8572333"><ele>401.0</ele><time>2026-04-25T08:48:02.635Z</time></trkpt><trkpt lat="44.4952467" lon="7.8573517"><ele>401.0</ele><time>2026-04-25T08:48:03.635Z</time></trkpt><trkpt lat="44.4951383" lon="7.8574717"><ele>401.0</ele><time>2026-04-25T08:48:04.645Z</time></trkpt><trkpt lat="44.49503" lon="7.8575917"><ele>401.0</ele><time>2026-04-25T08:48:05.635Z</time></trkpt><trkpt lat="44.4949283" lon="7.857695"><ele>401.0</ele><time>2026-04-25T08:48:06.635Z</time></trkpt><trkpt lat="44.4948367" lon="7.8577917"><ele>401.0</ele><time>2026-04-25T08:48:07.635Z</time></trkpt><trkpt lat="44.4947483" lon="7.857885"><ele>401.0</ele><time>2026-04-25T08:48:08.635Z</time></trkpt><trkpt lat="44.4946583" lon="7.8579767"><ele>401.0</ele><time>2026-04-25T08:48:09.635Z</time></trkpt><trkpt lat="44.4945683" lon="7.8580683"><ele>401.0</ele><time>2026-04-25T08:48:10.633Z</time></trkpt><trkpt lat="44.49448" lon="7.8581583"><ele>401.0</ele><time>2026-04-25T08:48:11.635Z</time></trkpt><trkpt lat="44.49439" lon="7.85824"><ele>400.0</ele><time>2026-04-25T08:48:12.638Z</time></trkpt><trkpt lat="44.4943" lon="7.8583367"><ele>399.0</ele><time>2026-04-25T08:48:13.636Z</time></trkpt><trkpt lat="44.494205" lon="7.8584333"><ele>398.0</ele><time>2026-04-25T08:48:14.636Z</time></trkpt><trkpt lat="44.4941117" lon="7.8585333"><ele>397.0</ele><time>2026-04-25T08:48:15.636Z</time></trkpt><trkpt lat="44.4940167" lon="7.858635"><ele>396.0</ele><time>2026-04-25T08:48:16.635Z</time></trkpt><trkpt lat="44.4939233" lon="7.8587383"><ele>395.0</ele><time>2026-04-25T08:48:17.636Z</time></trkpt><trkpt lat="44.4938233" lon="7.8588483"><ele>394.0</ele><time>2026-04-25T08:48:18.637Z</time></trkpt><trkpt lat="44.493735" lon="7.8589583"><ele>393.0</ele><time>2026-04-25T08:48:19.636Z</time></trkpt><trkpt lat="44.4936683" lon="7.8590517"><ele>392.00000000000006</ele><time>2026-04-25T08:48:20.635Z</time></trkpt><trkpt lat="44.49362" lon="7.85913"><ele>391.0</ele><time>2026-04-25T08:48:21.635Z</time></trkpt><trkpt lat="44.4935783" lon="7.8592117"><ele>390.0</ele><time>2026-04-25T08:48:22.635Z</time></trkpt><trkpt lat="44.4935383" lon="7.859295"><ele>389.0</ele><time>2026-04-25T08:48:23.636Z</time></trkpt><trkpt lat="44.4935133" lon="7.8593933"><ele>388.0</ele><time>2026-04-25T08:48:24.633Z</time></trkpt><trkpt lat="44.4935167" lon="7.859495"><ele>387.00000000000006</ele><time>2026-04-25T08:48:25.633Z</time></trkpt><trkpt lat="44.4935283" lon="7.859595"><ele>386.0</ele><time>2026-04-25T08:48:26.632Z</time></trkpt><trkpt lat="44.4935467" lon="7.85971"><ele>385.75</ele><time>2026-04-25T08:48:27.635Z</time></trkpt><trkpt lat="44.4935717" lon="7.8598467"><ele>385.5</ele><time>2026-04-25T08:48:28.636Z</time></trkpt><trkpt lat="44.4935983" lon="7.86"><ele>385.25</ele><time>2026-04-25T08:48:29.638Z</time></trkpt><trkpt lat="44.4936267" lon="7.8601617"><ele>385.0</ele><time>2026-04-25T08:48:30.634Z</time></trkpt><trkpt lat="44.4936583" lon="7.8603333"><ele>384.5</ele><time>2026-04-25T08:48:31.637Z</time></trkpt><trkpt lat="44.4936883" lon="7.8605"><ele>384.0</ele><time>2026-04-25T08:48:32.634Z</time></trkpt><trkpt lat="44.49372" lon="7.8606617"><ele>383.5</ele><time>2026-04-25T08:48:33.636Z</time></trkpt><trkpt lat="44.4937517" lon="7.8608183"><ele>383.0</ele><time>2026-04-25T08:48:34.634Z</time></trkpt><trkpt lat="44.49378" lon="7.86098"><ele>380.75</ele><time>2026-04-25T08:48:35.634Z</time></trkpt><trkpt lat="44.4937917" lon="7.861165"><ele>378.5</ele><time>2026-04-25T08:48:36.639Z</time></trkpt><trkpt lat="44.49384" lon="7.8613217"><ele>376.25</ele><time>2026-04-25T08:48:37.638Z</time></trkpt><trkpt lat="44.493905" lon="7.8614733"><ele>374.0</ele><time>2026-04-25T08:48:38.638Z</time></trkpt><trkpt lat="44.4939733" lon="7.8616367"><ele>373.75</ele><time>2026-04-25T08:48:39.634Z</time></trkpt><trkpt lat="44.49405" lon="7.8617967"><ele>373.5</ele><time>2026-04-25T08:48:40.634Z</time></trkpt><trkpt lat="44.4941367" lon="7.8619483"><ele>373.25</ele><time>2026-04-25T08:48:41.635Z</time></trkpt><trkpt lat="44.4942283" lon="7.8620917"><ele>373.0</ele><time>2026-04-25T08:48:42.634Z</time></trkpt><trkpt lat="44.4943233" lon="7.8622283"><ele>373.0</ele><time>2026-04-25T08:48:43.634Z</time></trkpt><trkpt lat="44.494425" lon="7.862365"><ele>373.0</ele><time>2026-04-25T08:48:44.634Z</time></trkpt><trkpt lat="44.4945233" lon="7.8624883"><ele>373.0</ele><time>2026-04-25T08:48:45.634Z</time></trkpt><trkpt lat="44.4946117" lon="7.862615"><ele>373.0</ele><time>2026-04-25T08:48:46.635Z</time></trkpt><trkpt lat="44.494695" lon="7.8627517"><ele>371.5</ele><time>2026-04-25T08:48:47.635Z</time></trkpt><trkpt lat="44.494765" lon="7.8628917"><ele>370.0</ele><time>2026-04-25T08:48:48.64Z</time></trkpt><trkpt lat="44.4948217" lon="7.8630383"><ele>368.5</ele><time>2026-04-25T08:48:49.635Z</time></trkpt><trkpt lat="44.49487" lon="7.8631967"><ele>367.0</ele><time>2026-04-25T08:48:50.636Z</time></trkpt><trkpt lat="44.4949133" lon="7.86336"><ele>367.25</ele><time>2026-04-25T08:48:51.637Z</time></trkpt><trkpt lat="44.4949533" lon="7.863525"><ele>367.5</ele><time>2026-04-25T08:48:52.634Z</time></trkpt><trkpt lat="44.4949933" lon="7.86368"><ele>367.75</ele><time>2026-04-25T08:48:53.634Z</time></trkpt><trkpt lat="44.4950333" lon="7.8638233"><ele>368.0</ele><time>2026-04-25T08:48:54.635Z</time></trkpt><trkpt lat="44.4950767" lon="7.8639667"><ele>368.0</ele><time>2026-04-25T08:48:55.633Z</time></trkpt><trkpt lat="44.4951233" lon="7.8641167"><ele>368.0</ele><time>2026-04-25T08:48:56.638Z</time></trkpt><trkpt lat="44.4951617" lon="7.8642867"><ele>368.0</ele><time>2026-04-25T08:48:57.634Z</time></trkpt><trkpt lat="44.4951783" lon="7.8644733"><ele>368.0</ele><time>2026-04-25T08:48:58.634Z</time></trkpt><trkpt lat="44.4951767" lon="7.8646617"><ele>368.0</ele><time>2026-04-25T08:48:59.637Z</time></trkpt><trkpt lat="44.4951517" lon="7.8648333"><ele>368.0</ele><time>2026-04-25T08:49:00.634Z</time></trkpt><trkpt lat="44.4951083" lon="7.86498"><ele>368.0</ele><time>2026-04-25T08:49:01.634Z</time></trkpt><trkpt lat="44.4950367" lon="7.8651"><ele>368.0</ele><time>2026-04-25T08:49:02.635Z</time></trkpt><trkpt lat="44.4949533" lon="7.8652083"><ele>367.5</ele><time>2026-04-25T08:49:03.634Z</time></trkpt><trkpt lat="44.4948533" lon="7.8653233"><ele>367.0</ele><time>2026-04-25T08:49:04.637Z</time></trkpt><trkpt lat="44.49475" lon="7.865435"><ele>366.5</ele><time>2026-04-25T08:49:05.635Z</time></trkpt><trkpt lat="44.4946567" lon="7.8655317"><ele>366.0</ele><time>2026-04-25T08:49:06.635Z</time></trkpt><trkpt lat="44.49457" lon="7.8656183"><ele>366.0</ele><time>2026-04-25T08:49:07.635Z</time></trkpt><trkpt lat="44.49449" lon="7.8656983"><ele>366.0</ele><time>2026-04-25T08:49:08.635Z</time></trkpt><trkpt lat="44.49441" lon="7.8657783"><ele>366.0</ele><time>2026-04-25T08:49:09.635Z</time></trkpt><trkpt lat="44.4943267" lon="7.8658667"><ele>366.0</ele><time>2026-04-25T08:49:10.633Z</time></trkpt><trkpt lat="44.49424" lon="7.8659667"><ele>366.0</ele><time>2026-04-25T08:49:11.635Z</time></trkpt><trkpt lat="44.4941483" lon="7.8660817"><ele>365.0</ele><time>2026-04-25T08:49:12.633Z</time></trkpt><trkpt lat="44.4940533" lon="7.866205"><ele>364.0</ele><time>2026-04-25T08:49:13.633Z</time></trkpt><trkpt lat="44.4939517" lon="7.8663417"><ele>363.0</ele><time>2026-04-25T08:49:14.633Z</time></trkpt><trkpt lat="44.4938517" lon="7.86648"><ele>362.0</ele><time>2026-04-25T08:49:15.633Z</time></trkpt><trkpt lat="44.4937617" lon="7.866615"><ele>362.0</ele><time>2026-04-25T08:49:16.635Z</time></trkpt><trkpt lat="44.493675" lon="7.866755"><ele>362.0</ele><time>2026-04-25T08:49:17.641Z</time></trkpt><trkpt lat="44.4935867" lon="7.8669083"><ele>362.0</ele><time>2026-04-25T08:49:18.637Z</time></trkpt><trkpt lat="44.4934917" lon="7.86707"><ele>362.0</ele><time>2026-04-25T08:49:19.635Z</time></trkpt><trkpt lat="44.4933983" lon="7.8672367"><ele>362.0</ele><time>2026-04-25T08:49:20.634Z</time></trkpt><trkpt lat="44.4933017" lon="7.8674"><ele>362.0</ele><time>2026-04-25T08:49:21.636Z</time></trkpt><trkpt lat="44.4932" lon="7.8675617"><ele>362.0</ele><time>2026-04-25T08:49:22.633Z</time></trkpt><trkpt lat="44.493095" lon="7.8677233"><ele>362.0</ele><time>2026-04-25T08:49:23.634Z</time></trkpt><trkpt lat="44.492985" lon="7.86788"><ele>362.0</ele><time>2026-04-25T08:49:24.635Z</time></trkpt><trkpt lat="44.4928683" lon="7.8680217"><ele>362.0</ele><time>2026-04-25T08:49:25.636Z</time></trkpt><trkpt lat="44.4927433" lon="7.8681417"><ele>362.0</ele><time>2026-04-25T08:49:26.634Z</time></trkpt><trkpt lat="44.4926183" lon="7.8682483"><ele>362.0</ele><time>2026-04-25T08:49:27.636Z</time></trkpt><trkpt lat="44.4924867" lon="7.868365"><ele>362.0</ele><time>2026-04-25T08:49:28.634Z</time></trkpt><trkpt lat="44.4923617" lon="7.86848"><ele>361.25</ele><time>2026-04-25T08:49:29.636Z</time></trkpt><trkpt lat="44.492235" lon="7.8685933"><ele>360.5</ele><time>2026-04-25T08:49:30.635Z</time></trkpt><trkpt lat="44.4921083" lon="7.8687017"><ele>359.75</ele><time>2026-04-25T08:49:31.636Z</time></trkpt><trkpt lat="44.4919867" lon="7.868805"><ele>359.0</ele><time>2026-04-25T08:49:32.637Z</time></trkpt><trkpt lat="44.4918717" lon="7.8689067"><ele>359.0</ele><time>2026-04-25T08:49:33.633Z</time></trkpt><trkpt lat="44.4917583" lon="7.8690033"><ele>359.0</ele><time>2026-04-25T08:49:34.634Z</time></trkpt><trkpt lat="44.491645" lon="7.869095"><ele>359.0</ele><time>2026-04-25T08:49:35.635Z</time></trkpt><trkpt lat="44.4915367" lon="7.8691817"><ele>359.0</ele><time>2026-04-25T08:49:36.634Z</time></trkpt><trkpt lat="44.4914333" lon="7.86927"><ele>358.6</ele><time>2026-04-25T08:49:37.634Z</time></trkpt><trkpt lat="44.4913383" lon="7.8693533"><ele>358.2</ele><time>2026-04-25T08:49:38.637Z</time></trkpt><trkpt lat="44.491245" lon="7.8694367"><ele>357.8</ele><time>2026-04-25T08:49:39.634Z</time></trkpt><trkpt lat="44.4911567" lon="7.869515"><ele>357.40000000000003</ele><time>2026-04-25T08:49:40.633Z</time></trkpt><trkpt lat="44.4910683" lon="7.8695917"><ele>357.0</ele><time>2026-04-25T08:49:41.634Z</time></trkpt><trkpt lat="44.4909817" lon="7.8696633"><ele>357.0</ele><time>2026-04-25T08:49:42.634Z</time></trkpt><trkpt lat="44.490895" lon="7.8697417"><ele>357.0</ele><time>2026-04-25T08:49:43.64Z</time></trkpt><trkpt lat="44.4908033" lon="7.8698217"><ele>357.0</ele><time>2026-04-25T08:49:44.634Z</time></trkpt><trkpt lat="44.4907033" lon="7.8699067"><ele>357.0</ele><time>2026-04-25T08:49:45.633Z</time></trkpt><trkpt lat="44.4906" lon="7.8700017"><ele>357.0</ele><time>2026-04-25T08:49:46.634Z</time></trkpt><trkpt lat="44.49049" lon="7.8700983"><ele>357.0</ele><time>2026-04-25T08:49:47.633Z</time></trkpt><trkpt lat="44.490375" lon="7.8702033"><ele>357.0</ele><time>2026-04-25T08:49:48.637Z</time></trkpt><trkpt lat="44.490255" lon="7.8703117"><ele>357.0</ele><time>2026-04-25T08:49:49.633Z</time></trkpt><trkpt lat="44.490135" lon="7.8704183"><ele>356.75</ele><time>2026-04-25T08:49:50.637Z</time></trkpt><trkpt lat="44.4900167" lon="7.8705217"><ele>356.5</ele><time>2026-04-25T08:49:51.633Z</time></trkpt><trkpt lat="44.4899017" lon="7.8706167"><ele>356.25</ele><time>2026-04-25T08:49:52.636Z</time></trkpt><trkpt lat="44.4897883" lon="7.8707033"><ele>356.0</ele><time>2026-04-25T08:49:53.634Z</time></trkpt><trkpt lat="44.4896767" lon="7.8707817"><ele>356.25</ele><time>2026-04-25T08:49:54.636Z</time></trkpt><trkpt lat="44.4895633" lon="7.8708533"><ele>356.5</ele><time>2026-04-25T08:49:55.641Z</time></trkpt><trkpt lat="44.48945" lon="7.8709233"><ele>356.75</ele><time>2026-04-25T08:49:56.635Z</time></trkpt><trkpt lat="44.4893383" lon="7.8709783"><ele>357.0</ele><time>2026-04-25T08:49:57.636Z</time></trkpt><trkpt lat="44.4892333" lon="7.8710283"><ele>357.40000000000003</ele><time>2026-04-25T08:49:58.634Z</time></trkpt><trkpt lat="44.4891267" lon="7.87107"><ele>357.8</ele><time>2026-04-25T08:49:59.635Z</time></trkpt><trkpt lat="44.4890433" lon="7.8710967"><ele>358.2</ele><time>2026-04-25T08:50:00.635Z</time></trkpt><trkpt lat="44.48896" lon="7.87112"><ele>358.6</ele><time>2026-04-25T08:50:01.637Z</time></trkpt><trkpt lat="44.4888767" lon="7.8711483"><ele>359.0</ele><time>2026-04-25T08:50:02.634Z</time></trkpt><trkpt lat="44.4887917" lon="7.8711683"><ele>358.79999999999995</ele><time>2026-04-25T08:50:03.639Z</time></trkpt><trkpt lat="44.4887067" lon="7.8711717"><ele>358.59999999999997</ele><time>2026-04-25T08:50:04.634Z</time></trkpt><trkpt lat="44.4886117" lon="7.87118"><ele>358.4</ele><time>2026-04-25T08:50:05.636Z</time></trkpt><trkpt lat="44.4884983" lon="7.8712"><ele>358.2</ele><time>2026-04-25T08:50:06.634Z</time></trkpt><trkpt lat="44.4883683" lon="7.8712283"><ele>358.0</ele><time>2026-04-25T08:50:07.636Z</time></trkpt><trkpt lat="44.48822" lon="7.87125"><ele>358.0</ele><time>2026-04-25T08:50:08.637Z</time></trkpt><trkpt lat="44.4880733" lon="7.871265"><ele>358.0</ele><time>2026-04-25T08:50:09.637Z</time></trkpt><trkpt lat="44.4879317" lon="7.8712817"><ele>358.0</ele><time>2026-04-25T08:50:10.636Z</time></trkpt><trkpt lat="44.4878033" lon="7.8712967"><ele>358.0</ele><time>2026-04-25T08:50:11.638Z</time></trkpt><trkpt lat="44.4876983" lon="7.871315"><ele>358.0</ele><time>2026-04-25T08:50:12.634Z</time></trkpt><trkpt lat="44.487615" lon="7.8713267"><ele>358.0</ele><time>2026-04-25T08:50:13.634Z</time></trkpt><trkpt lat="44.4875317" lon="7.8713383"><ele>358.0</ele><time>2026-04-25T08:50:14.633Z</time></trkpt><trkpt lat="44.4874467" lon="7.8713517"><ele>358.0</ele><time>2026-04-25T08:50:15.636Z</time></trkpt><trkpt lat="44.487345" lon="7.8713733"><ele>358.0</ele><time>2026-04-25T08:50:16.634Z</time></trkpt><trkpt lat="44.4872333" lon="7.8714"><ele>358.0</ele><time>2026-04-25T08:50:17.638Z</time></trkpt><trkpt lat="44.48711" lon="7.8714267"><ele>358.0</ele><time>2026-04-25T08:50:18.634Z</time></trkpt><trkpt lat="44.4869817" lon="7.8714517"><ele>358.0</ele><time>2026-04-25T08:50:19.634Z</time></trkpt><trkpt lat="44.4868533" lon="7.8714783"><ele>358.0</ele><time>2026-04-25T08:50:20.635Z</time></trkpt><trkpt lat="44.4867333" lon="7.8714983"><ele>358.25</ele><time>2026-04-25T08:50:21.634Z</time></trkpt><trkpt lat="44.4866267" lon="7.871515"><ele>358.5</ele><time>2026-04-25T08:50:22.637Z</time></trkpt><trkpt lat="44.48652" lon="7.8715283"><ele>358.75</ele><time>2026-04-25T08:50:23.634Z</time></trkpt><trkpt lat="44.4863983" lon="7.8715517"><ele>359.0</ele><time>2026-04-25T08:50:24.637Z</time></trkpt><trkpt lat="44.4862533" lon="7.87158"><ele>359.0</ele><time>2026-04-25T08:50:25.634Z</time></trkpt><trkpt lat="44.4860983" lon="7.8716083"><ele>359.0</ele><time>2026-04-25T08:50:26.636Z</time></trkpt><trkpt lat="44.485935" lon="7.8716467"><ele>359.0</ele><time>2026-04-25T08:50:27.638Z</time></trkpt><trkpt lat="44.4857633" lon="7.8716933"><ele>359.0</ele><time>2026-04-25T08:50:28.634Z</time></trkpt><trkpt lat="44.4855983" lon="7.8717483"><ele>359.0</ele><time>2026-04-25T08:50:29.638Z</time></trkpt><trkpt lat="44.48542" lon="7.8718083"><ele>359.0</ele><time>2026-04-25T08:50:30.636Z</time></trkpt><trkpt lat="44.485235" lon="7.8718667"><ele>359.33333333333337</ele><time>2026-04-25T08:50:31.636Z</time></trkpt><trkpt lat="44.4850483" lon="7.8719233"><ele>359.6666666666667</ele><time>2026-04-25T08:50:32.634Z</time></trkpt><trkpt lat="44.4848717" lon="7.8719717"><ele>360.0</ele><time>2026-04-25T08:50:33.633Z</time></trkpt><trkpt lat="44.4847017" lon="7.872015"><ele>359.6666666666667</ele><time>2026-04-25T08:50:34.634Z</time></trkpt><trkpt lat="44.4845283" lon="7.8720683"><ele>359.33333333333337</ele><time>2026-04-25T08:50:35.634Z</time></trkpt><trkpt lat="44.484355" lon="7.8721267"><ele>359.0</ele><time>2026-04-25T08:50:36.634Z</time></trkpt><trkpt lat="44.484185" lon="7.8721817"><ele>359.0</ele><time>2026-04-25T08:50:37.638Z</time></trkpt><trkpt lat="44.484025" lon="7.87224"><ele>359.0</ele><time>2026-04-25T08:50:38.635Z</time></trkpt><trkpt lat="44.4838683" lon="7.872305"><ele>359.0</ele><time>2026-04-25T08:50:39.635Z</time></trkpt><trkpt lat="44.483715" lon="7.8723767"><ele>359.25</ele><time>2026-04-25T08:50:40.634Z</time></trkpt><trkpt lat="44.4835833" lon="7.8724517"><ele>359.5</ele><time>2026-04-25T08:50:41.634Z</time></trkpt><trkpt lat="44.4834733" lon="7.8725283"><ele>359.75</ele><time>2026-04-25T08:50:42.635Z</time></trkpt><trkpt lat="44.483375" lon="7.8725967"><ele>360.0</ele><time>2026-04-25T08:50:43.634Z</time></trkpt><trkpt lat="44.483295" lon="7.872645"><ele>360.0</ele><time>2026-04-25T08:50:44.634Z</time></trkpt><trkpt lat="44.4832167" lon="7.8726917"><ele>360.0</ele><time>2026-04-25T08:50:45.634Z</time></trkpt><trkpt lat="44.48314" lon="7.8727417"><ele>360.0</ele><time>2026-04-25T08:50:46.634Z</time></trkpt><trkpt lat="44.4830667" lon="7.8727917"><ele>360.0</ele><time>2026-04-25T08:50:47.635Z</time></trkpt><trkpt lat="44.482995" lon="7.87283"><ele>360.0</ele><time>2026-04-25T08:50:48.633Z</time></trkpt><trkpt lat="44.48293" lon="7.87285"><ele>360.0</ele><time>2026-04-25T08:50:49.635Z</time></trkpt><trkpt lat="44.482825" lon="7.8729067"><ele>360.0</ele><time>2026-04-25T08:50:51.634Z</time></trkpt><trkpt lat="44.482755" lon="7.8730017"><ele>360.0</ele><time>2026-04-25T08:50:53.636Z</time></trkpt><trkpt lat="44.48279" lon="7.8731967"><ele>360.0</ele><time>2026-04-25T08:50:55.633Z</time></trkpt><trkpt lat="44.4828517" lon="7.8733133"><ele>360.0</ele><time>2026-04-25T08:50:56.634Z</time></trkpt><trkpt lat="44.4829317" lon="7.8734367"><ele>360.25</ele><time>2026-04-25T08:50:57.635Z</time></trkpt><trkpt lat="44.4830117" lon="7.8735633"><ele>360.5</ele><time>2026-04-25T08:50:58.636Z</time></trkpt><trkpt lat="44.4830967" lon="7.8737067"><ele>360.75</ele><time>2026-04-25T08:50:59.633Z</time></trkpt><trkpt lat="44.48319" lon="7.87386"><ele>361.0</ele><time>2026-04-25T08:51:00.633Z</time></trkpt><trkpt lat="44.4832933" lon="7.87403"><ele>361.0</ele><time>2026-04-25T08:51:01.634Z</time></trkpt><trkpt lat="44.483405" lon="7.87422"><ele>361.0</ele><time>2026-04-25T08:51:02.637Z</time></trkpt><trkpt lat="44.4835183" lon="7.8744217"><ele>361.0</ele><time>2026-04-25T08:51:03.634Z</time></trkpt><trkpt lat="44.4836317" lon="7.8746383"><ele>360.3333333333333</ele><time>2026-04-25T08:51:04.636Z</time></trkpt><trkpt lat="44.48374" lon="7.874865"><ele>359.6666666666667</ele><time>2026-04-25T08:51:05.635Z</time></trkpt><trkpt lat="44.4838383" lon="7.8750917"><ele>359.0</ele><time>2026-04-25T08:51:06.633Z</time></trkpt><trkpt lat="44.4839217" lon="7.8753083"><ele>359.0</ele><time>2026-04-25T08:51:07.633Z</time></trkpt><trkpt lat="44.4839983" lon="7.8755167"><ele>359.0</ele><time>2026-04-25T08:51:08.633Z</time></trkpt><trkpt lat="44.48406" lon="7.8757067"><ele>359.0</ele><time>2026-04-25T08:51:09.634Z</time></trkpt><trkpt lat="44.484105" lon="7.8758667"><ele>359.0</ele><time>2026-04-25T08:51:10.633Z</time></trkpt><trkpt lat="44.4841417" lon="7.876015"><ele>359.0</ele><time>2026-04-25T08:51:11.634Z</time></trkpt><trkpt lat="44.4841683" lon="7.87615"><ele>359.0</ele><time>2026-04-25T08:51:12.638Z</time></trkpt><trkpt lat="44.4841917" lon="7.8762767"><ele>359.0</ele><time>2026-04-25T08:51:13.634Z</time></trkpt><trkpt lat="44.48422" lon="7.8764033"><ele>359.0</ele><time>2026-04-25T08:51:14.634Z</time></trkpt><trkpt lat="44.4842483" lon="7.8765317"><ele>359.0</ele><time>2026-04-25T08:51:15.633Z</time></trkpt><trkpt lat="44.4842767" lon="7.8766583"><ele>358.79999999999995</ele><time>2026-04-25T08:51:16.635Z</time></trkpt><trkpt lat="44.4842917" lon="7.8767867"><ele>358.59999999999997</ele><time>2026-04-25T08:51:17.635Z</time></trkpt><trkpt lat="44.4842883" lon="7.876925"><ele>358.4</ele><time>2026-04-25T08:51:18.639Z</time></trkpt><trkpt lat="44.48428" lon="7.8770667"><ele>358.2</ele><time>2026-04-25T08:51:19.634Z</time></trkpt><trkpt lat="44.48429" lon="7.877215"><ele>358.0</ele><time>2026-04-25T08:51:20.635Z</time></trkpt><trkpt lat="44.4843267" lon="7.87738"><ele>358.0</ele><time>2026-04-25T08:51:21.635Z</time></trkpt><trkpt lat="44.4843733" lon="7.8775567"><ele>358.0</ele><time>2026-04-25T08:51:22.636Z</time></trkpt><trkpt lat="44.4844083" lon="7.8777583"><ele>358.0</ele><time>2026-04-25T08:51:23.635Z</time></trkpt><trkpt lat="44.48443" lon="7.8779817"><ele>358.0</ele><time>2026-04-25T08:51:24.636Z</time></trkpt><trkpt lat="44.48444" lon="7.878225"><ele>357.3333333333333</ele><time>2026-04-25T08:51:25.636Z</time></trkpt><trkpt lat="44.4844417" lon="7.878485"><ele>356.6666666666667</ele><time>2026-04-25T08:51:26.637Z</time></trkpt><trkpt lat="44.4844383" lon="7.878755"><ele>356.0</ele><time>2026-04-25T08:51:27.635Z</time></trkpt><trkpt lat="44.4844317" lon="7.8790333"><ele>356.0</ele><time>2026-04-25T08:51:28.635Z</time></trkpt><trkpt lat="44.4844183" lon="7.87932"><ele>356.0</ele><time>2026-04-25T08:51:29.633Z</time></trkpt><trkpt lat="44.484395" lon="7.8795917"><ele>356.0</ele><time>2026-04-25T08:51:30.636Z</time></trkpt><trkpt lat="44.48438" lon="7.8798783"><ele>355.6666666666667</ele><time>2026-04-25T08:51:31.633Z</time></trkpt><trkpt lat="44.4843667" lon="7.8801517"><ele>355.3333333333333</ele><time>2026-04-25T08:51:32.635Z</time></trkpt><trkpt lat="44.4843467" lon="7.8804333"><ele>355.0</ele><time>2026-04-25T08:51:33.636Z</time></trkpt><trkpt lat="44.484335" lon="7.8806817"><ele>355.0</ele><time>2026-04-25T08:51:34.636Z</time></trkpt><trkpt lat="44.484325" lon="7.8809167"><ele>355.0</ele><time>2026-04-25T08:51:35.637Z</time></trkpt><trkpt lat="44.4843133" lon="7.881145"><ele>355.0</ele><time>2026-04-25T08:51:36.636Z</time></trkpt><trkpt lat="44.4843017" lon="7.8813583"><ele>354.75</ele><time>2026-04-25T08:51:37.638Z</time></trkpt><trkpt lat="44.48429" lon="7.881565"><ele>354.5</ele><time>2026-04-25T08:51:38.636Z</time></trkpt><trkpt lat="44.48428" lon="7.8817667"><ele>354.25</ele><time>2026-04-25T08:51:39.634Z</time></trkpt><trkpt lat="44.4842717" lon="7.88196"><ele>354.0</ele><time>2026-04-25T08:51:40.634Z</time></trkpt><trkpt lat="44.4842617" lon="7.8821567"><ele>353.25</ele><time>2026-04-25T08:51:41.636Z</time></trkpt><trkpt lat="44.4842533" lon="7.8823533"><ele>352.5</ele><time>2026-04-25T08:51:42.636Z</time></trkpt><trkpt lat="44.4842433" lon="7.88255"><ele>351.75</ele><time>2026-04-25T08:51:43.637Z</time></trkpt><trkpt lat="44.48424" lon="7.88276"><ele>351.0</ele><time>2026-04-25T08:51:44.635Z</time></trkpt><trkpt lat="44.4842333" lon="7.8829983"><ele>350.0</ele><time>2026-04-25T08:51:45.634Z</time></trkpt><trkpt lat="44.4842217" lon="7.8832517"><ele>349.0</ele><time>2026-04-25T08:51:46.633Z</time></trkpt><trkpt lat="44.4842083" lon="7.8835117"><ele>348.0</ele><time>2026-04-25T08:51:47.634Z</time></trkpt><trkpt lat="44.484195" lon="7.88376"><ele>346.0</ele><time>2026-04-25T08:51:48.636Z</time></trkpt><trkpt lat="44.4841867" lon="7.884"><ele>344.0</ele><time>2026-04-25T08:51:49.634Z</time></trkpt><trkpt lat="44.48418" lon="7.8842417"><ele>342.0</ele><time>2026-04-25T08:51:50.634Z</time></trkpt><trkpt lat="44.4841683" lon="7.8844783"><ele>341.0</ele><time>2026-04-25T08:51:51.634Z</time></trkpt><trkpt lat="44.48416" lon="7.8847083"><ele>340.0</ele><time>2026-04-25T08:51:52.633Z</time></trkpt><trkpt lat="44.48415" lon="7.884925"><ele>339.0</ele><time>2026-04-25T08:51:53.635Z</time></trkpt><trkpt lat="44.4841383" lon="7.8851267"><ele>338.75</ele><time>2026-04-25T08:51:54.635Z</time></trkpt><trkpt lat="44.4841283" lon="7.8853183"><ele>338.5</ele><time>2026-04-25T08:51:55.636Z</time></trkpt><trkpt lat="44.4841183" lon="7.8854983"><ele>338.25</ele><time>2026-04-25T08:51:56.635Z</time></trkpt><trkpt lat="44.4841117" lon="7.8856717"><ele>338.0</ele><time>2026-04-25T08:51:57.637Z</time></trkpt><trkpt lat="44.4841017" lon="7.8858333"><ele>337.79999999999995</ele><time>2026-04-25T08:51:58.635Z</time></trkpt><trkpt lat="44.4840933" lon="7.8859933"><ele>337.6</ele><time>2026-04-25T08:51:59.639Z</time></trkpt><trkpt lat="44.48409" lon="7.88615"><ele>337.4</ele><time>2026-04-25T08:52:00.637Z</time></trkpt><trkpt lat="44.4840867" lon="7.8863017"><ele>337.20000000000005</ele><time>2026-04-25T08:52:01.635Z</time></trkpt><trkpt lat="44.4840883" lon="7.8864483"><ele>337.0</ele><time>2026-04-25T08:52:02.636Z</time></trkpt><trkpt lat="44.4840933" lon="7.8866"><ele>337.0</ele><time>2026-04-25T08:52:03.634Z</time></trkpt><trkpt lat="44.4841" lon="7.8867483"><ele>337.0</ele><time>2026-04-25T08:52:04.634Z</time></trkpt><trkpt lat="44.484105" lon="7.8868833"><ele>337.0</ele><time>2026-04-25T08:52:05.634Z</time></trkpt><trkpt lat="44.484105" lon="7.8870117"><ele>337.0</ele><time>2026-04-25T08:52:06.637Z</time></trkpt><trkpt lat="44.4841" lon="7.8871333"><ele>337.0</ele><time>2026-04-25T08:52:07.633Z</time></trkpt><trkpt lat="44.4840883" lon="7.8872517"><ele>337.20000000000005</ele><time>2026-04-25T08:52:08.642Z</time></trkpt><trkpt lat="44.4840667" lon="7.887355"><ele>337.4</ele><time>2026-04-25T08:52:09.633Z</time></trkpt><trkpt lat="44.4840433" lon="7.8874633"><ele>337.6</ele><time>2026-04-25T08:52:10.635Z</time></trkpt><trkpt lat="44.4840267" lon="7.887585"><ele>337.79999999999995</ele><time>2026-04-25T08:52:11.633Z</time></trkpt><trkpt lat="44.4840217" lon="7.8877267"><ele>338.0</ele><time>2026-04-25T08:52:12.636Z</time></trkpt><trkpt lat="44.4840217" lon="7.8878833"><ele>338.0</ele><time>2026-04-25T08:52:13.636Z</time></trkpt><trkpt lat="44.4840167" lon="7.888045"><ele>338.0</ele><time>2026-04-25T08:52:14.635Z</time></trkpt><trkpt lat="44.484005" lon="7.888215"><ele>338.0</ele><time>2026-04-25T08:52:15.636Z</time></trkpt><trkpt lat="44.4839933" lon="7.888395"><ele>338.0</ele><time>2026-04-25T08:52:16.636Z</time></trkpt><trkpt lat="44.48398" lon="7.8885767"><ele>337.75</ele><time>2026-04-25T08:52:17.636Z</time></trkpt><trkpt lat="44.48397" lon="7.8887683"><ele>337.5</ele><time>2026-04-25T08:52:18.638Z</time></trkpt><trkpt lat="44.4839633" lon="7.888955"><ele>337.25</ele><time>2026-04-25T08:52:19.637Z</time></trkpt><trkpt lat="44.483955" lon="7.8891383"><ele>337.0</ele><time>2026-04-25T08:52:20.636Z</time></trkpt><trkpt lat="44.4839467" lon="7.889315"><ele>337.0</ele><time>2026-04-25T08:52:21.635Z</time></trkpt><trkpt lat="44.4839383" lon="7.8894817"><ele>337.0</ele><time>2026-04-25T08:52:22.634Z</time></trkpt><trkpt lat="44.4839317" lon="7.8896517"><ele>337.0</ele><time>2026-04-25T08:52:23.635Z</time></trkpt><trkpt lat="44.4839233" lon="7.8898417"><ele>337.0</ele><time>2026-04-25T08:52:24.636Z</time></trkpt><trkpt lat="44.4839083" lon="7.8900483"><ele>336.66666666666663</ele><time>2026-04-25T08:52:25.636Z</time></trkpt><trkpt lat="44.483885" lon="7.8902733"><ele>336.3333333333333</ele><time>2026-04-25T08:52:26.637Z</time></trkpt><trkpt lat="44.4838583" lon="7.8905033"><ele>336.0</ele><time>2026-04-25T08:52:27.634Z</time></trkpt><trkpt lat="44.4838283" lon="7.8907233"><ele>336.0</ele><time>2026-04-25T08:52:28.633Z</time></trkpt><trkpt lat="44.4837967" lon="7.8909367"><ele>336.0</ele><time>2026-04-25T08:52:29.634Z</time></trkpt><trkpt lat="44.4837683" lon="7.8911467"><ele>336.0</ele><time>2026-04-25T08:52:30.634Z</time></trkpt><trkpt lat="44.4837383" lon="7.8913517"><ele>334.0</ele><time>2026-04-25T08:52:31.641Z</time></trkpt><trkpt lat="44.48371" lon="7.891555"><ele>332.0</ele><time>2026-04-25T08:52:32.635Z</time></trkpt><trkpt lat="44.4836883" lon="7.89176"><ele>330.0</ele><time>2026-04-25T08:52:33.634Z</time></trkpt><trkpt lat="44.4836717" lon="7.89194"><ele>328.0</ele><time>2026-04-25T08:52:34.635Z</time></trkpt><trkpt lat="44.48366" lon="7.8920983"><ele>326.5</ele><time>2026-04-25T08:52:35.634Z</time></trkpt><trkpt lat="44.4836533" lon="7.892255"><ele>325.0</ele><time>2026-04-25T08:52:36.639Z</time></trkpt><trkpt lat="44.4836517" lon="7.8924183"><ele>323.5</ele><time>2026-04-25T08:52:37.634Z</time></trkpt><trkpt lat="44.4836633" lon="7.8925917"><ele>322.0</ele><time>2026-04-25T08:52:38.635Z</time></trkpt><trkpt lat="44.483685" lon="7.89277"><ele>323.75</ele><time>2026-04-25T08:52:39.637Z</time></trkpt><trkpt lat="44.4837167" lon="7.89295"><ele>325.5</ele><time>2026-04-25T08:52:40.634Z</time></trkpt><trkpt lat="44.4837533" lon="7.8931267"><ele>327.25</ele><time>2026-04-25T08:52:41.633Z</time></trkpt><trkpt lat="44.4837867" lon="7.893295"><ele>329.0</ele><time>2026-04-25T08:52:42.637Z</time></trkpt><trkpt lat="44.4838167" lon="7.89346"><ele>329.0</ele><time>2026-04-25T08:52:43.635Z</time></trkpt><trkpt lat="44.4838467" lon="7.89363"><ele>329.0</ele><time>2026-04-25T08:52:44.634Z</time></trkpt><trkpt lat="44.48389" lon="7.893805"><ele>329.0</ele><time>2026-04-25T08:52:45.634Z</time></trkpt><trkpt lat="44.4839533" lon="7.8939717"><ele>329.0</ele><time>2026-04-25T08:52:46.637Z</time></trkpt><trkpt lat="44.4840317" lon="7.8941333"><ele>325.75</ele><time>2026-04-25T08:52:47.636Z</time></trkpt><trkpt lat="44.4841133" lon="7.8942883"><ele>322.5</ele><time>2026-04-25T08:52:48.638Z</time></trkpt><trkpt lat="44.4841967" lon="7.8944367"><ele>319.25</ele><time>2026-04-25T08:52:49.634Z</time></trkpt><trkpt lat="44.4842817" lon="7.8946"><ele>316.0</ele><time>2026-04-25T08:52:50.635Z</time></trkpt><trkpt lat="44.48437" lon="7.8947967"><ele>316.0</ele><time>2026-04-25T08:52:51.633Z</time></trkpt><trkpt lat="44.4844517" lon="7.895015"><ele>316.0</ele><time>2026-04-25T08:52:52.635Z</time></trkpt><trkpt lat="44.48452" lon="7.8952333"><ele>316.0</ele><time>2026-04-25T08:52:53.635Z</time></trkpt><trkpt lat="44.484575" lon="7.8954367"><ele>317.5</ele><time>2026-04-25T08:52:54.637Z</time></trkpt><trkpt lat="44.4846217" lon="7.8956267"><ele>319.0</ele><time>2026-04-25T08:52:55.635Z</time></trkpt><trkpt lat="44.48466" lon="7.8958033"><ele>320.5</ele><time>2026-04-25T08:52:56.635Z</time></trkpt><trkpt lat="44.4846917" lon="7.89598"><ele>322.0</ele><time>2026-04-25T08:52:57.635Z</time></trkpt><trkpt lat="44.4847183" lon="7.8961517"><ele>322.0</ele><time>2026-04-25T08:52:58.634Z</time></trkpt><trkpt lat="44.4847433" lon="7.8963183"><ele>322.0</ele><time>2026-04-25T08:52:59.635Z</time></trkpt><trkpt lat="44.4847683" lon="7.8964767"><ele>322.0</ele><time>2026-04-25T08:53:00.636Z</time></trkpt><trkpt lat="44.4847917" lon="7.8966283"><ele>322.0</ele><time>2026-04-25T08:53:01.637Z</time></trkpt><trkpt lat="44.484815" lon="7.8967733"><ele>318.0</ele><time>2026-04-25T08:53:02.635Z</time></trkpt><trkpt lat="44.4848433" lon="7.896915"><ele>314.0</ele><time>2026-04-25T08:53:03.634Z</time></trkpt><trkpt lat="44.48488" lon="7.8970483"><ele>310.0</ele><time>2026-04-25T08:53:04.634Z</time></trkpt><trkpt lat="44.4849267" lon="7.8971733"><ele>306.0</ele><time>2026-04-25T08:53:05.634Z</time></trkpt><trkpt lat="44.48499" lon="7.8973"><ele>302.0</ele><time>2026-04-25T08:53:06.634Z</time></trkpt><trkpt lat="44.4850817" lon="7.8974417"><ele>303.0</ele><time>2026-04-25T08:53:07.638Z</time></trkpt><trkpt lat="44.485205" lon="7.8975967"><ele>304.0</ele><time>2026-04-25T08:53:08.636Z</time></trkpt><trkpt lat="44.4853233" lon="7.89776"><ele>305.0</ele><time>2026-04-25T08:53:09.636Z</time></trkpt><trkpt lat="44.4854333" lon="7.89792"><ele>305.0</ele><time>2026-04-25T08:53:10.635Z</time></trkpt><trkpt lat="44.4855367" lon="7.89807"><ele>305.0</ele><time>2026-04-25T08:53:11.635Z</time></trkpt><trkpt lat="44.4856333" lon="7.8982067"><ele>305.0</ele><time>2026-04-25T08:53:12.633Z</time></trkpt><trkpt lat="44.4857217" lon="7.8983367"><ele>305.0</ele><time>2026-04-25T08:53:13.634Z</time></trkpt><trkpt lat="44.48581" lon="7.8984683"><ele>301.25</ele><time>2026-04-25T08:53:14.637Z</time></trkpt><trkpt lat="44.4858967" lon="7.8986083"><ele>297.5</ele><time>2026-04-25T08:53:15.633Z</time></trkpt><trkpt lat="44.4859867" lon="7.898755"><ele>293.75</ele><time>2026-04-25T08:53:16.633Z</time></trkpt><trkpt lat="44.4860733" lon="7.8989067"><ele>290.0</ele><time>2026-04-25T08:53:17.635Z</time></trkpt><trkpt lat="44.4861583" lon="7.8990517"><ele>290.0</ele><time>2026-04-25T08:53:18.636Z</time></trkpt><trkpt lat="44.4862333" lon="7.8991833"><ele>290.0</ele><time>2026-04-25T08:53:19.637Z</time></trkpt><trkpt lat="44.4863017" lon="7.8993067"><ele>290.0</ele><time>2026-04-25T08:53:20.637Z</time></trkpt><trkpt lat="44.48637" lon="7.8994267"><ele>290.0</ele><time>2026-04-25T08:53:21.635Z</time></trkpt><trkpt lat="44.486435" lon="7.89954"><ele>290.0</ele><time>2026-04-25T08:53:22.635Z</time></trkpt><trkpt lat="44.4864967" lon="7.8996433"><ele>290.8</ele><time>2026-04-25T08:53:23.635Z</time></trkpt><trkpt lat="44.48655" lon="7.8997367"><ele>291.6</ele><time>2026-04-25T08:53:24.633Z</time></trkpt><trkpt lat="44.486595" lon="7.89982"><ele>292.4</ele><time>2026-04-25T08:53:25.634Z</time></trkpt><trkpt lat="44.4866267" lon="7.8999017"><ele>293.2</ele><time>2026-04-25T08:53:26.633Z</time></trkpt><trkpt lat="44.4866383" lon="7.90006"><ele>294.0</ele><time>2026-04-25T08:53:28.634Z</time></trkpt><trkpt lat="44.4865817" lon="7.9002"><ele>292.85714285714283</ele><time>2026-04-25T08:53:30.633Z</time></trkpt><trkpt lat="44.4865267" lon="7.9002517"><ele>291.7142857142857</ele><time>2026-04-25T08:53:31.634Z</time></trkpt><trkpt lat="44.48646" lon="7.9002667"><ele>290.57142857142856</ele><time>2026-04-25T08:53:32.636Z</time></trkpt><trkpt lat="44.4863983" lon="7.9002467"><ele>289.42857142857144</ele><time>2026-04-25T08:53:33.634Z</time></trkpt><trkpt lat="44.4863417" lon="7.9002067"><ele>288.2857142857143</ele><time>2026-04-25T08:53:34.634Z</time></trkpt><trkpt lat="44.4862783" lon="7.9001567"><ele>287.1428571428571</ele><time>2026-04-25T08:53:35.636Z</time></trkpt><trkpt lat="44.486215" lon="7.9000983"><ele>286.0</ele><time>2026-04-25T08:53:36.634Z</time></trkpt><trkpt lat="44.4861467" lon="7.9000217"><ele>284.5</ele><time>2026-04-25T08:53:37.639Z</time></trkpt><trkpt lat="44.4860767" lon="7.899935"><ele>283.0</ele><time>2026-04-25T08:53:38.634Z</time></trkpt><trkpt lat="44.4859883" lon="7.8998283"><ele>281.5</ele><time>2026-04-25T08:53:39.633Z</time></trkpt><trkpt lat="44.4858917" lon="7.8997133"><ele>280.0</ele><time>2026-04-25T08:53:40.634Z</time></trkpt><trkpt lat="44.48579" lon="7.8995933"><ele>280.0</ele><time>2026-04-25T08:53:41.632Z</time></trkpt><trkpt lat="44.4856833" lon="7.8994633"><ele>280.0</ele><time>2026-04-25T08:53:42.635Z</time></trkpt><trkpt lat="44.4855683" lon="7.8993233"><ele>280.0</ele><time>2026-04-25T08:53:43.634Z</time></trkpt><trkpt lat="44.4854467" lon="7.8991783"><ele>279.66666666666663</ele><time>2026-04-25T08:53:44.634Z</time></trkpt><trkpt lat="44.485325" lon="7.89903"><ele>279.3333333333333</ele><time>2026-04-25T08:53:45.637Z</time></trkpt><trkpt lat="44.4852033" lon="7.8988917"><ele>279.0</ele><time>2026-04-25T08:53:46.635Z</time></trkpt><trkpt lat="44.485095" lon="7.8987617"><ele>279.0</ele><time>2026-04-25T08:53:47.634Z</time></trkpt><trkpt lat="44.4849833" lon="7.8986333"><ele>279.0</ele><time>2026-04-25T08:53:48.635Z</time></trkpt><trkpt lat="44.4848617" lon="7.8985017"><ele>279.0</ele><time>2026-04-25T08:53:49.637Z</time></trkpt><trkpt lat="44.4847433" lon="7.8983683"><ele>279.0</ele><time>2026-04-25T08:53:50.635Z</time></trkpt><trkpt lat="44.4846417" lon="7.8982367"><ele>279.0</ele><time>2026-04-25T08:53:51.635Z</time></trkpt><trkpt lat="44.4845467" lon="7.8981083"><ele>279.0</ele><time>2026-04-25T08:53:52.637Z</time></trkpt><trkpt lat="44.4844667" lon="7.8979917"><ele>279.0</ele><time>2026-04-25T08:53:53.634Z</time></trkpt><trkpt lat="44.4843983" lon="7.89789"><ele>279.0</ele><time>2026-04-25T08:53:54.636Z</time></trkpt><trkpt lat="44.48434" lon="7.8977967"><ele>279.0</ele><time>2026-04-25T08:53:55.634Z</time></trkpt><trkpt lat="44.48429" lon="7.8977133"><ele>279.0</ele><time>2026-04-25T08:53:56.635Z</time></trkpt><trkpt lat="44.4842417" lon="7.8976367"><ele>279.0</ele><time>2026-04-25T08:53:57.634Z</time></trkpt><trkpt lat="44.4842033" lon="7.8975617"><ele>279.0</ele><time>2026-04-25T08:53:58.634Z</time></trkpt><trkpt lat="44.4841283" lon="7.897445"><ele>279.0</ele><time>2026-04-25T08:54:00.634Z</time></trkpt><trkpt lat="44.484025" lon="7.8973717"><ele>279.0</ele><time>2026-04-25T08:54:02.634Z</time></trkpt><trkpt lat="44.483915" lon="7.8973917"><ele>279.0</ele><time>2026-04-25T08:54:04.637Z</time></trkpt><trkpt lat="44.4838283" lon="7.8974617"><ele>279.0</ele><time>2026-04-25T08:54:06.636Z</time></trkpt><trkpt lat="44.483765" lon="7.89752"><ele>279.0</ele><time>2026-04-25T08:54:08.635Z</time></trkpt><trkpt lat="44.4836883" lon="7.8975617"><ele>279.0</ele><time>2026-04-25T08:54:10.633Z</time></trkpt><trkpt lat="44.4835983" lon="7.8976117"><ele>279.0</ele><time>2026-04-25T08:54:12.633Z</time></trkpt><trkpt lat="44.483525" lon="7.89771"><ele>279.0</ele><time>2026-04-25T08:54:14.639Z</time></trkpt><trkpt lat="44.48352" lon="7.8978667"><ele>279.0</ele><time>2026-04-25T08:54:16.632Z</time></trkpt><trkpt lat="44.48356" lon="7.8979633"><ele>279.0</ele><time>2026-04-25T08:54:17.634Z</time></trkpt><trkpt lat="44.4836133" lon="7.898065"><ele>279.0</ele><time>2026-04-25T08:54:18.634Z</time></trkpt><trkpt lat="44.4836683" lon="7.8981767"><ele>279.0</ele><time>2026-04-25T08:54:19.634Z</time></trkpt><trkpt lat="44.4837083" lon="7.8983"><ele>279.0</ele><time>2026-04-25T08:54:20.636Z</time></trkpt><trkpt lat="44.4837333" lon="7.8984333"><ele>279.0</ele><time>2026-04-25T08:54:21.635Z</time></trkpt><trkpt lat="44.4837467" lon="7.8985583"><ele>279.0</ele><time>2026-04-25T08:54:22.641Z</time></trkpt><trkpt lat="44.4837417" lon="7.898685"><ele>279.0</ele><time>2026-04-25T08:54:23.633Z</time></trkpt><trkpt lat="44.48372" lon="7.89881"><ele>278.59999999999997</ele><time>2026-04-25T08:54:24.637Z</time></trkpt><trkpt lat="44.4836933" lon="7.8989317"><ele>278.2</ele><time>2026-04-25T08:54:25.633Z</time></trkpt><trkpt lat="44.4836633" lon="7.8990617"><ele>277.79999999999995</ele><time>2026-04-25T08:54:26.635Z</time></trkpt><trkpt lat="44.4836317" lon="7.8992083"><ele>277.4</ele><time>2026-04-25T08:54:27.633Z</time></trkpt><trkpt lat="44.4835983" lon="7.8993517"><ele>277.0</ele><time>2026-04-25T08:54:28.634Z</time></trkpt><trkpt lat="44.4835633" lon="7.8994967"><ele>276.75</ele><time>2026-04-25T08:54:29.638Z</time></trkpt><trkpt lat="44.4835317" lon="7.8996567"><ele>276.5</ele><time>2026-04-25T08:54:30.634Z</time></trkpt><trkpt lat="44.4835033" lon="7.8998233"><ele>276.25</ele><time>2026-04-25T08:54:31.634Z</time></trkpt><trkpt lat="44.4834783" lon="7.89999"><ele>276.0</ele><time>2026-04-25T08:54:32.635Z</time></trkpt><trkpt lat="44.4834583" lon="7.9001583"><ele>275.75</ele><time>2026-04-25T08:54:33.636Z</time></trkpt><trkpt lat="44.4834433" lon="7.9003233"><ele>275.5</ele><time>2026-04-25T08:54:34.637Z</time></trkpt><trkpt lat="44.4834317" lon="7.9004733"><ele>275.25</ele><time>2026-04-25T08:54:35.636Z</time></trkpt><trkpt lat="44.483425" lon="7.9006267"><ele>275.0</ele><time>2026-04-25T08:54:36.634Z</time></trkpt><trkpt lat="44.48343" lon="7.9007933"><ele>274.75</ele><time>2026-04-25T08:54:37.635Z</time></trkpt><trkpt lat="44.483435" lon="7.900975"><ele>274.5</ele><time>2026-04-25T08:54:38.635Z</time></trkpt><trkpt lat="44.4834433" lon="7.9011717"><ele>274.25</ele><time>2026-04-25T08:54:39.634Z</time></trkpt><trkpt lat="44.483445" lon="7.9013617"><ele>274.0</ele><time>2026-04-25T08:54:40.635Z</time></trkpt><trkpt lat="44.483445" lon="7.90154"><ele>274.0</ele><time>2026-04-25T08:54:41.635Z</time></trkpt><trkpt lat="44.4834467" lon="7.9017083"><ele>274.0</ele><time>2026-04-25T08:54:42.635Z</time></trkpt><trkpt lat="44.4834467" lon="7.9018733"><ele>274.0</ele><time>2026-04-25T08:54:43.639Z</time></trkpt><trkpt lat="44.4834517" lon="7.9020433"><ele>274.0</ele><time>2026-04-25T08:54:44.636Z</time></trkpt><trkpt lat="44.4834533" lon="7.9022217"><ele>273.8</ele><time>2026-04-25T08:54:45.635Z</time></trkpt><trkpt lat="44.4834583" lon="7.90239"><ele>273.59999999999997</ele><time>2026-04-25T08:54:46.638Z</time></trkpt><trkpt lat="44.48346" lon="7.9025483"><ele>273.4</ele><time>2026-04-25T08:54:47.635Z</time></trkpt><trkpt lat="44.4834583" lon="7.9027017"><ele>273.2</ele><time>2026-04-25T08:54:48.635Z</time></trkpt><trkpt lat="44.48346" lon="7.9028467"><ele>273.0</ele><time>2026-04-25T08:54:49.635Z</time></trkpt><trkpt lat="44.4834467" lon="7.902985"><ele>271.75</ele><time>2026-04-25T08:54:50.633Z</time></trkpt><trkpt lat="44.483425" lon="7.9031217"><ele>270.5</ele><time>2026-04-25T08:54:51.637Z</time></trkpt><trkpt lat="44.4833867" lon="7.9032633"><ele>269.25</ele><time>2026-04-25T08:54:52.633Z</time></trkpt><trkpt lat="44.4833367" lon="7.9034167"><ele>268.0</ele><time>2026-04-25T08:54:53.634Z</time></trkpt><trkpt lat="44.4832733" lon="7.903585"><ele>267.0</ele><time>2026-04-25T08:54:54.633Z</time></trkpt><trkpt lat="44.4831983" lon="7.9037583"><ele>266.0</ele><time>2026-04-25T08:54:55.633Z</time></trkpt><trkpt lat="44.4831233" lon="7.9039217"><ele>265.0</ele><time>2026-04-25T08:54:56.634Z</time></trkpt><trkpt lat="44.4830533" lon="7.904065"><ele>264.0</ele><time>2026-04-25T08:54:57.633Z</time></trkpt><trkpt lat="44.4829933" lon="7.9041817"><ele>264.0</ele><time>2026-04-25T08:54:58.634Z</time></trkpt><trkpt lat="44.4829417" lon="7.90429"><ele>264.0</ele><time>2026-04-25T08:54:59.635Z</time></trkpt><trkpt lat="44.482905" lon="7.9043983"><ele>264.0</ele><time>2026-04-25T08:55:00.634Z</time></trkpt><trkpt lat="44.482885" lon="7.9045117"><ele>264.0</ele><time>2026-04-25T08:55:01.634Z</time></trkpt><trkpt lat="44.482885" lon="7.9046417"><ele>264.0</ele><time>2026-04-25T08:55:02.636Z</time></trkpt><trkpt lat="44.4829033" lon="7.9047733"><ele>264.0</ele><time>2026-04-25T08:55:03.638Z</time></trkpt><trkpt lat="44.4829467" lon="7.9049183"><ele>264.0</ele><time>2026-04-25T08:55:04.739Z</time></trkpt><trkpt lat="44.4830633" lon="7.905255"><ele>264.0</ele><time>2026-04-25T08:55:06.633Z</time></trkpt><trkpt lat="44.48313" lon="7.90545"><ele>263.6666666666667</ele><time>2026-04-25T08:55:07.633Z</time></trkpt><trkpt lat="44.483205" lon="7.9056583"><ele>263.33333333333337</ele><time>2026-04-25T08:55:08.635Z</time></trkpt><trkpt lat="44.4832817" lon="7.905885"><ele>263.0</ele><time>2026-04-25T08:55:09.637Z</time></trkpt><trkpt lat="44.4833617" lon="7.9061267"><ele>263.0</ele><time>2026-04-25T08:55:10.635Z</time></trkpt><trkpt lat="44.4834433" lon="7.90637"><ele>263.0</ele><time>2026-04-25T08:55:11.634Z</time></trkpt><trkpt lat="44.4835267" lon="7.9066183"><ele>263.0</ele><time>2026-04-25T08:55:12.634Z</time></trkpt><trkpt lat="44.48361" lon="7.906865"><ele>262.0</ele><time>2026-04-25T08:55:13.634Z</time></trkpt><trkpt lat="44.483685" lon="7.9070967"><ele>261.0</ele><time>2026-04-25T08:55:14.637Z</time></trkpt><trkpt lat="44.48376" lon="7.9073133"><ele>260.0</ele><time>2026-04-25T08:55:15.633Z</time></trkpt><trkpt lat="44.4838233" lon="7.9075033"><ele>260.2</ele><time>2026-04-25T08:55:16.637Z</time></trkpt><trkpt lat="44.4838767" lon="7.9076633"><ele>260.4</ele><time>2026-04-25T08:55:17.633Z</time></trkpt><trkpt lat="44.4839217" lon="7.9078033"><ele>260.6</ele><time>2026-04-25T08:55:18.634Z</time></trkpt><trkpt lat="44.4839617" lon="7.9079333"><ele>260.8</ele><time>2026-04-25T08:55:19.634Z</time></trkpt><trkpt lat="44.4839983" lon="7.90806"><ele>261.0</ele><time>2026-04-25T08:55:20.633Z</time></trkpt><trkpt lat="44.4840383" lon="7.90819"><ele>261.0</ele><time>2026-04-25T08:55:21.635Z</time></trkpt><trkpt lat="44.4840817" lon="7.9083167"><ele>261.0</ele><time>2026-04-25T08:55:22.634Z</time></trkpt><trkpt lat="44.484125" lon="7.9084383"><ele>261.0</ele><time>2026-04-25T08:55:23.634Z</time></trkpt><trkpt lat="44.4841667" lon="7.9085633"><ele>261.0</ele><time>2026-04-25T08:55:24.637Z</time></trkpt><trkpt lat="44.4842117" lon="7.9086833"><ele>261.0</ele><time>2026-04-25T08:55:25.634Z</time></trkpt><trkpt lat="44.484255" lon="7.9088"><ele>262.0</ele><time>2026-04-25T08:55:26.634Z</time></trkpt><trkpt lat="44.4843017" lon="7.9089167"><ele>263.0</ele><time>2026-04-25T08:55:27.638Z</time></trkpt><trkpt lat="44.4843383" lon="7.90902"><ele>264.0</ele><time>2026-04-25T08:55:28.634Z</time></trkpt><trkpt lat="44.4843683" lon="7.90911"><ele>265.0</ele><time>2026-04-25T08:55:29.634Z</time></trkpt><trkpt lat="44.4843917" lon="7.9091983"><ele>266.0</ele><time>2026-04-25T08:55:30.633Z</time></trkpt><trkpt lat="44.4844067" lon="7.9092933"><ele>267.0</ele><time>2026-04-25T08:55:31.633Z</time></trkpt><trkpt lat="44.4844083" lon="7.909405"><ele>267.5</ele><time>2026-04-25T08:55:32.634Z</time></trkpt><trkpt lat="44.4843917" lon="7.90952"><ele>268.0</ele><time>2026-04-25T08:55:33.634Z</time></trkpt><trkpt lat="44.4843517" lon="7.9096133"><ele>268.5</ele><time>2026-04-25T08:55:34.633Z</time></trkpt><trkpt lat="44.484295" lon="7.9096817"><ele>269.0</ele><time>2026-04-25T08:55:35.634Z</time></trkpt><trkpt lat="44.4842317" lon="7.9097317"><ele>269.5</ele><time>2026-04-25T08:55:36.634Z</time></trkpt><trkpt lat="44.4841567" lon="7.909765"><ele>270.0</ele><time>2026-04-25T08:55:37.634Z</time></trkpt><trkpt lat="44.4840817" lon="7.9098"><ele>270.0</ele><time>2026-04-25T08:55:38.634Z</time></trkpt><trkpt lat="44.4840083" lon="7.9098467"><ele>270.0</ele><time>2026-04-25T08:55:39.634Z</time></trkpt><trkpt lat="44.48393" lon="7.9098983"><ele>270.0</ele><time>2026-04-25T08:55:40.638Z</time></trkpt><trkpt lat="44.4838567" lon="7.9099517"><ele>270.0</ele><time>2026-04-25T08:55:41.634Z</time></trkpt><trkpt lat="44.48379" lon="7.910005"><ele>270.0</ele><time>2026-04-25T08:55:42.639Z</time></trkpt><trkpt lat="44.4837317" lon="7.9100617"><ele>270.0</ele><time>2026-04-25T08:55:43.634Z</time></trkpt><trkpt lat="44.4836783" lon="7.9101333"><ele>273.5</ele><time>2026-04-25T08:55:44.633Z</time></trkpt><trkpt lat="44.4836317" lon="7.91021"><ele>277.0</ele><time>2026-04-25T08:55:45.633Z</time></trkpt><trkpt lat="44.4836" lon="7.9102983"><ele>280.5</ele><time>2026-04-25T08:55:46.633Z</time></trkpt><trkpt lat="44.483585" lon="7.9104017"><ele>284.0</ele><time>2026-04-25T08:55:47.633Z</time></trkpt><trkpt lat="44.48358" lon="7.9105117"><ele>287.5</ele><time>2026-04-25T08:55:48.634Z</time></trkpt><trkpt lat="44.4835733" lon="7.9106417"><ele>291.0</ele><time>2026-04-25T08:55:49.634Z</time></trkpt><trkpt lat="44.48356" lon="7.910785"><ele>292.0</ele><time>2026-04-25T08:55:50.635Z</time></trkpt><trkpt lat="44.4835333" lon="7.91093"><ele>293.0</ele><time>2026-04-25T08:55:51.634Z</time></trkpt><trkpt lat="44.4834917" lon="7.9110683"><ele>294.0</ele><time>2026-04-25T08:55:52.635Z</time></trkpt><trkpt lat="44.4834483" lon="7.9111883"><ele>295.0</ele><time>2026-04-25T08:55:53.635Z</time></trkpt><trkpt lat="44.4834083" lon="7.91129"><ele>296.0</ele><time>2026-04-25T08:55:54.637Z</time></trkpt><trkpt lat="44.4833717" lon="7.9113883"><ele>296.0</ele><time>2026-04-25T08:55:55.635Z</time></trkpt><trkpt lat="44.483375" lon="7.9115383"><ele>296.0</ele><time>2026-04-25T08:55:57.635Z</time></trkpt><trkpt lat="44.48346" lon="7.9116"><ele>296.0</ele><time>2026-04-25T08:55:59.633Z</time></trkpt><trkpt lat="44.483525" lon="7.9115333"><ele>296.0</ele><time>2026-04-25T08:56:00.633Z</time></trkpt><trkpt lat="44.4835983" lon="7.9114967"><ele>296.0</ele><time>2026-04-25T08:56:01.635Z</time></trkpt><trkpt lat="44.4836867" lon="7.9114333"><ele>296.0</ele><time>2026-04-25T08:56:02.634Z</time></trkpt><trkpt lat="44.4837583" lon="7.911445"><ele>296.0</ele><time>2026-04-25T08:56:03.634Z</time></trkpt><trkpt lat="44.4838233" lon="7.9114867"><ele>296.0</ele><time>2026-04-25T08:56:04.634Z</time></trkpt><trkpt lat="44.4839017" lon="7.9115617"><ele>296.0</ele><time>2026-04-25T08:56:06.634Z</time></trkpt><trkpt lat="44.4839467" lon="7.91163"><ele>296.0</ele><time>2026-04-25T08:56:08.635Z</time></trkpt><trkpt lat="44.483955" lon="7.9117483"><ele>296.0</ele><time>2026-04-25T08:56:10.634Z</time></trkpt><trkpt lat="44.4838833" lon="7.9118217"><ele>296.0</ele><time>2026-04-25T08:56:12.634Z</time></trkpt><trkpt lat="44.4837867" lon="7.91176"><ele>296.0</ele><time>2026-04-25T08:56:14.634Z</time></trkpt><trkpt lat="44.48372" lon="7.9117267"><ele>296.0</ele><time>2026-04-25T08:56:15.635Z</time></trkpt><trkpt lat="44.483655" lon="7.9117267"><ele>296.0</ele><time>2026-04-25T08:56:16.635Z</time></trkpt><trkpt lat="44.4835833" lon="7.9117633"><ele>296.0</ele><time>2026-04-25T08:56:17.637Z</time></trkpt><trkpt lat="44.483525" lon="7.9118183"><ele>296.0</ele><time>2026-04-25T08:56:18.634Z</time></trkpt><trkpt lat="44.48347" lon="7.9118817"><ele>297.40000000000003</ele><time>2026-04-25T08:56:19.635Z</time></trkpt><trkpt lat="44.4834117" lon="7.91196"><ele>298.8</ele><time>2026-04-25T08:56:20.637Z</time></trkpt><trkpt lat="44.4833467" lon="7.912045"><ele>300.20000000000005</ele><time>2026-04-25T08:56:21.632Z</time></trkpt><trkpt lat="44.4832733" lon="7.9121483"><ele>301.6</ele><time>2026-04-25T08:56:22.634Z</time></trkpt><trkpt lat="44.483195" lon="7.9122617"><ele>303.0</ele><time>2026-04-25T08:56:23.634Z</time></trkpt><trkpt lat="44.4831233" lon="7.9123717"><ele>303.0</ele><time>2026-04-25T08:56:24.637Z</time></trkpt><trkpt lat="44.483055" lon="7.9124683"><ele>303.0</ele><time>2026-04-25T08:56:25.635Z</time></trkpt><trkpt lat="44.4829983" lon="7.912565"><ele>303.0</ele><time>2026-04-25T08:56:26.637Z</time></trkpt><trkpt lat="44.4829533" lon="7.9126633"><ele>303.0</ele><time>2026-04-25T08:56:27.633Z</time></trkpt><trkpt lat="44.4829233" lon="7.91277"><ele>303.0</ele><time>2026-04-25T08:56:28.634Z</time></trkpt><trkpt lat="44.482905" lon="7.9128733"><ele>303.0</ele><time>2026-04-25T08:56:29.633Z</time></trkpt><trkpt lat="44.482895" lon="7.9129733"><ele>308.0</ele><time>2026-04-25T08:56:30.635Z</time></trkpt><trkpt lat="44.4828467" lon="7.9131033"><ele>313.0</ele><time>2026-04-25T08:56:32.634Z</time></trkpt><trkpt lat="44.4827517" lon="7.913135"><ele>318.0</ele><time>2026-04-25T08:56:34.633Z</time></trkpt><trkpt lat="44.482695" lon="7.91303"><ele>323.0</ele><time>2026-04-25T08:56:36.634Z</time></trkpt><trkpt lat="44.4826817" lon="7.9129333"><ele>328.0</ele><time>2026-04-25T08:56:37.639Z</time></trkpt><trkpt lat="44.4826783" lon="7.912815"><ele>328.0</ele><time>2026-04-25T08:56:38.635Z</time></trkpt><trkpt lat="44.48268" lon="7.9126733"><ele>328.0</ele><time>2026-04-25T08:56:39.635Z</time></trkpt><trkpt lat="44.482685" lon="7.9125333"><ele>328.0</ele><time>2026-04-25T08:56:40.636Z</time></trkpt><trkpt lat="44.4826917" lon="7.912405"><ele>328.0</ele><time>2026-04-25T08:56:41.636Z</time></trkpt><trkpt lat="44.4827" lon="7.9122817"><ele>328.0</ele><time>2026-04-25T08:56:42.638Z</time></trkpt><trkpt lat="44.4827083" lon="7.91217"><ele>327.3333333333333</ele><time>2026-04-25T08:56:43.635Z</time></trkpt><trkpt lat="44.4827167" lon="7.9120567"><ele>326.66666666666663</ele><time>2026-04-25T08:56:44.634Z</time></trkpt><trkpt lat="44.48272" lon="7.9119483"><ele>326.0</ele><time>2026-04-25T08:56:45.635Z</time></trkpt><trkpt lat="44.482725" lon="7.9118533"><ele>325.3333333333333</ele><time>2026-04-25T08:56:46.636Z</time></trkpt><trkpt lat="44.4827333" lon="7.9116967"><ele>324.6666666666667</ele><time>2026-04-25T08:56:48.636Z</time></trkpt><trkpt lat="44.4827217" lon="7.9115683"><ele>324.0</ele><time>2026-04-25T08:56:50.635Z</time></trkpt><trkpt lat="44.482715" lon="7.9114233"><ele>323.4</ele><time>2026-04-25T08:56:52.633Z</time></trkpt><trkpt lat="44.4827" lon="7.9112817"><ele>322.79999999999995</ele><time>2026-04-25T08:56:54.633Z</time></trkpt><trkpt lat="44.4826483" lon="7.911175"><ele>322.20000000000005</ele><time>2026-04-25T08:56:56.633Z</time></trkpt><trkpt lat="44.4825767" lon="7.9111567"><ele>321.6</ele><time>2026-04-25T08:56:58.634Z</time></trkpt><trkpt lat="44.4825333" lon="7.9112667"><ele>321.0</ele><time>2026-04-25T08:57:01.634Z</time></trkpt><trkpt lat="44.48257" lon="7.9114017"><ele>321.0</ele><time>2026-04-25T08:57:03.635Z</time></trkpt><trkpt lat="44.4825767" lon="7.911495"><ele>321.0</ele><time>2026-04-25T08:57:04.634Z</time></trkpt><trkpt lat="44.48258" lon="7.91159"><ele>321.0</ele><time>2026-04-25T08:57:05.634Z</time></trkpt><trkpt lat="44.4825783" lon="7.9116933"><ele>321.0</ele><time>2026-04-25T08:57:06.638Z</time></trkpt><trkpt lat="44.4825633" lon="7.9117917"><ele>321.0</ele><time>2026-04-25T08:57:07.636Z</time></trkpt><trkpt lat="44.48254" lon="7.91188"><ele>321.0</ele><time>2026-04-25T08:57:08.636Z</time></trkpt><trkpt lat="44.4824783" lon="7.9120383"><ele>321.5</ele><time>2026-04-25T08:57:10.635Z</time></trkpt><trkpt lat="44.4824217" lon="7.912105"><ele>322.0</ele><time>2026-04-25T08:57:11.638Z</time></trkpt><trkpt lat="44.4823567" lon="7.91215"><ele>322.5</ele><time>2026-04-25T08:57:12.635Z</time></trkpt><trkpt lat="44.4822933" lon="7.91219"><ele>323.0</ele><time>2026-04-25T08:57:13.635Z</time></trkpt><trkpt lat="44.4822267" lon="7.9122333"><ele>323.5</ele><time>2026-04-25T08:57:14.635Z</time></trkpt><trkpt lat="44.4821533" lon="7.9122783"><ele>324.0</ele><time>2026-04-25T08:57:15.636Z</time></trkpt><trkpt lat="44.4820683" lon="7.91234"><ele>327.1666666666667</ele><time>2026-04-25T08:57:16.634Z</time></trkpt><trkpt lat="44.4819867" lon="7.9123783"><ele>330.3333333333333</ele><time>2026-04-25T08:57:17.635Z</time></trkpt><trkpt lat="44.4818917" lon="7.9123883"><ele>333.5</ele><time>2026-04-25T08:57:18.634Z</time></trkpt><trkpt lat="44.48181" lon="7.9123533"><ele>336.66666666666663</ele><time>2026-04-25T08:57:19.637Z</time></trkpt><trkpt lat="44.4817367" lon="7.9122933"><ele>339.8333333333333</ele><time>2026-04-25T08:57:20.633Z</time></trkpt><trkpt lat="44.481675" lon="7.9122067"><ele>343.0</ele><time>2026-04-25T08:57:21.634Z</time></trkpt><trkpt lat="44.4816167" lon="7.912095"><ele>343.0</ele><time>2026-04-25T08:57:22.633Z</time></trkpt><trkpt lat="44.481565" lon="7.911985"><ele>343.0</ele><time>2026-04-25T08:57:23.633Z</time></trkpt><trkpt lat="44.48152" lon="7.91188"><ele>343.0</ele><time>2026-04-25T08:57:24.634Z</time></trkpt><trkpt lat="44.48148" lon="7.9117883"><ele>343.0</ele><time>2026-04-25T08:57:25.634Z</time></trkpt><trkpt lat="44.4814383" lon="7.91172"><ele>343.0</ele><time>2026-04-25T08:57:26.633Z</time></trkpt><trkpt lat="44.481335" lon="7.9116317"><ele>343.0</ele><time>2026-04-25T08:57:28.64Z</time></trkpt><trkpt lat="44.4812267" lon="7.9116483"><ele>343.0</ele><time>2026-04-25T08:57:30.633Z</time></trkpt><trkpt lat="44.48117" lon="7.91176"><ele>343.0</ele><time>2026-04-25T08:57:32.635Z</time></trkpt><trkpt lat="44.4812317" lon="7.91189"><ele>343.0</ele><time>2026-04-25T08:57:34.634Z</time></trkpt><trkpt lat="44.4812833" lon="7.911955"><ele>343.0</ele><time>2026-04-25T08:57:35.636Z</time></trkpt><trkpt lat="44.4813333" lon="7.912025"><ele>343.0</ele><time>2026-04-25T08:57:36.634Z</time></trkpt><trkpt lat="44.481405" lon="7.91214"><ele>343.0</ele><time>2026-04-25T08:57:38.634Z</time></trkpt><trkpt lat="44.4814517" lon="7.91225"><ele>343.0</ele><time>2026-04-25T08:57:40.634Z</time></trkpt><trkpt lat="44.4814983" lon="7.9123883"><ele>343.0</ele><time>2026-04-25T08:57:42.638Z</time></trkpt><trkpt lat="44.4814833" lon="7.9125083"><ele>343.0</ele><time>2026-04-25T08:57:44.634Z</time></trkpt><trkpt lat="44.4814017" lon="7.9124917"><ele>343.0</ele><time>2026-04-25T08:57:46.634Z</time></trkpt><trkpt lat="44.4813467" lon="7.9123433"><ele>343.0</ele><time>2026-04-25T08:57:48.634Z</time></trkpt><trkpt lat="44.4813317" lon="7.9122533"><ele>343.0</ele><time>2026-04-25T08:57:49.635Z</time></trkpt><trkpt lat="44.4813117" lon="7.9121617"><ele>343.0</ele><time>2026-04-25T08:57:50.634Z</time></trkpt><trkpt lat="44.4812683" lon="7.9120833"><ele>343.0</ele><time>2026-04-25T08:57:51.633Z</time></trkpt><trkpt lat="44.4812033" lon="7.9120417"><ele>343.0</ele><time>2026-04-25T08:57:52.637Z</time></trkpt><trkpt lat="44.4811367" lon="7.9120583"><ele>343.0</ele><time>2026-04-25T08:57:53.634Z</time></trkpt><trkpt lat="44.4810817" lon="7.912105"><ele>343.0</ele><time>2026-04-25T08:57:54.634Z</time></trkpt><trkpt lat="44.481045" lon="7.912265"><ele>344.0</ele><time>2026-04-25T08:57:56.64Z</time></trkpt><trkpt lat="44.4810717" lon="7.912365"><ele>345.0</ele><time>2026-04-25T08:57:57.634Z</time></trkpt><trkpt lat="44.4811067" lon="7.9124767"><ele>346.0</ele><time>2026-04-25T08:57:58.637Z</time></trkpt><trkpt lat="44.4811483" lon="7.9126"><ele>347.0</ele><time>2026-04-25T08:57:59.634Z</time></trkpt><trkpt lat="44.4811933" lon="7.91273"><ele>348.0</ele><time>2026-04-25T08:58:00.635Z</time></trkpt><trkpt lat="44.4812433" lon="7.91286"><ele>349.75</ele><time>2026-04-25T08:58:01.635Z</time></trkpt><trkpt lat="44.4812933" lon="7.9129917"><ele>351.5</ele><time>2026-04-25T08:58:02.634Z</time></trkpt><trkpt lat="44.4813483" lon="7.9131333"><ele>353.25</ele><time>2026-04-25T08:58:03.637Z</time></trkpt><trkpt lat="44.481405" lon="7.9132817"><ele>355.0</ele><time>2026-04-25T08:58:04.633Z</time></trkpt><trkpt lat="44.4814583" lon="7.9134517"><ele>358.5</ele><time>2026-04-25T08:58:05.643Z</time></trkpt><trkpt lat="44.48151" lon="7.9136167"><ele>362.0</ele><time>2026-04-25T08:58:06.634Z</time></trkpt><trkpt lat="44.481565" lon="7.9137867"><ele>365.5</ele><time>2026-04-25T08:58:07.635Z</time></trkpt><trkpt lat="44.4816117" lon="7.91398"><ele>369.0</ele><time>2026-04-25T08:58:08.634Z</time></trkpt><trkpt lat="44.4816283" lon="7.9141667"><ele>372.25</ele><time>2026-04-25T08:58:09.635Z</time></trkpt><trkpt lat="44.481655" lon="7.9143433"><ele>375.5</ele><time>2026-04-25T08:58:10.634Z</time></trkpt><trkpt lat="44.4817083" lon="7.9144933"><ele>378.75</ele><time>2026-04-25T08:58:11.635Z</time></trkpt><trkpt lat="44.481785" lon="7.9146267"><ele>382.0</ele><time>2026-04-25T08:58:12.634Z</time></trkpt><trkpt lat="44.4818783" lon="7.9147567"><ele>382.0</ele><time>2026-04-25T08:58:13.635Z</time></trkpt><trkpt lat="44.481975" lon="7.914875"><ele>382.0</ele><time>2026-04-25T08:58:14.636Z</time></trkpt><trkpt lat="44.4820567" lon="7.9150217"><ele>382.0</ele><time>2026-04-25T08:58:15.636Z</time></trkpt><trkpt lat="44.4821233" lon="7.9151717"><ele>382.0</ele><time>2026-04-25T08:58:16.633Z</time></trkpt><trkpt lat="44.48219" lon="7.915315"><ele>381.0</ele><time>2026-04-25T08:58:17.634Z</time></trkpt><trkpt lat="44.4822517" lon="7.9154467"><ele>380.0</ele><time>2026-04-25T08:58:18.634Z</time></trkpt><trkpt lat="44.4822983" lon="7.9155633"><ele>379.0</ele><time>2026-04-25T08:58:19.635Z</time></trkpt><trkpt lat="44.482325" lon="7.9156867"><ele>378.0</ele><time>2026-04-25T08:58:20.635Z</time></trkpt><trkpt lat="44.4823383" lon="7.9158333"><ele>377.0</ele><time>2026-04-25T08:58:21.633Z</time></trkpt><trkpt lat="44.4823417" lon="7.9159917"><ele>377.0</ele><time>2026-04-25T08:58:22.642Z</time></trkpt><trkpt lat="44.4823417" lon="7.91615"><ele>377.0</ele><time>2026-04-25T08:58:23.635Z</time></trkpt><trkpt lat="44.4823367" lon="7.91629"><ele>377.0</ele><time>2026-04-25T08:58:24.634Z</time></trkpt><trkpt lat="44.482335" lon="7.916415"><ele>377.0</ele><time>2026-04-25T08:58:25.636Z</time></trkpt><trkpt lat="44.482335" lon="7.91654"><ele>377.0</ele><time>2026-04-25T08:58:26.635Z</time></trkpt><trkpt lat="44.482335" lon="7.91666"><ele>378.33333333333337</ele><time>2026-04-25T08:58:27.638Z</time></trkpt><trkpt lat="44.48234" lon="7.9167767"><ele>379.6666666666667</ele><time>2026-04-25T08:58:28.635Z</time></trkpt><trkpt lat="44.4823383" lon="7.9169"><ele>381.0</ele><time>2026-04-25T08:58:29.635Z</time></trkpt><trkpt lat="44.482335" lon="7.917025"><ele>382.33333333333337</ele><time>2026-04-25T08:58:30.637Z</time></trkpt><trkpt lat="44.482335" lon="7.9171533"><ele>383.6666666666667</ele><time>2026-04-25T08:58:31.635Z</time></trkpt><trkpt lat="44.482335" lon="7.9172767"><ele>385.0</ele><time>2026-04-25T08:58:32.64Z</time></trkpt><trkpt lat="44.4823333" lon="7.9173967"><ele>385.0</ele><time>2026-04-25T08:58:33.634Z</time></trkpt><trkpt lat="44.4823233" lon="7.9174983"><ele>385.0</ele><time>2026-04-25T08:58:34.635Z</time></trkpt><trkpt lat="44.4822967" lon="7.91759"><ele>385.0</ele><time>2026-04-25T08:58:35.636Z</time></trkpt><trkpt lat="44.4822517" lon="7.9176567"><ele>385.0</ele><time>2026-04-25T08:58:36.638Z</time></trkpt><trkpt lat="44.4821933" lon="7.9177"><ele>385.0</ele><time>2026-04-25T08:58:37.637Z</time></trkpt><trkpt lat="44.482115" lon="7.917665"><ele>385.0</ele><time>2026-04-25T08:58:38.635Z</time></trkpt><trkpt lat="44.4820567" lon="7.91761"><ele>385.0</ele><time>2026-04-25T08:58:39.635Z</time></trkpt><trkpt lat="44.4820217" lon="7.9175283"><ele>387.8</ele><time>2026-04-25T08:58:40.634Z</time></trkpt><trkpt lat="44.48201" lon="7.917425"><ele>390.6</ele><time>2026-04-25T08:58:41.634Z</time></trkpt><trkpt lat="44.482" lon="7.9173083"><ele>393.4</ele><time>2026-04-25T08:58:42.638Z</time></trkpt><trkpt lat="44.4819683" lon="7.917185"><ele>396.2</ele><time>2026-04-25T08:58:43.634Z</time></trkpt><trkpt lat="44.481915" lon="7.9170633"><ele>399.0</ele><time>2026-04-25T08:58:44.634Z</time></trkpt><trkpt lat="44.48185" lon="7.91695"><ele>399.0</ele><time>2026-04-25T08:58:45.635Z</time></trkpt><trkpt lat="44.4817817" lon="7.91685"><ele>399.0</ele><time>2026-04-25T08:58:46.635Z</time></trkpt><trkpt lat="44.481705" lon="7.916755"><ele>399.0</ele><time>2026-04-25T08:58:47.638Z</time></trkpt><trkpt lat="44.4816183" lon="7.9166617"><ele>399.0</ele><time>2026-04-25T08:58:48.636Z</time></trkpt><trkpt lat="44.48153" lon="7.9165667"><ele>399.0</ele><time>2026-04-25T08:58:49.636Z</time></trkpt><trkpt lat="44.48144" lon="7.916465"><ele>398.0</ele><time>2026-04-25T08:58:50.635Z</time></trkpt><trkpt lat="44.481345" lon="7.9163617"><ele>397.0</ele><time>2026-04-25T08:58:51.639Z</time></trkpt><trkpt lat="44.4812367" lon="7.9162533"><ele>396.0</ele><time>2026-04-25T08:58:52.638Z</time></trkpt><trkpt lat="44.48112" lon="7.9161333"><ele>395.0</ele><time>2026-04-25T08:58:53.634Z</time></trkpt><trkpt lat="44.4810067" lon="7.916015"><ele>396.75</ele><time>2026-04-25T08:58:54.634Z</time></trkpt><trkpt lat="44.48089" lon="7.9158967"><ele>398.5</ele><time>2026-04-25T08:58:55.634Z</time></trkpt><trkpt lat="44.4807767" lon="7.915785"><ele>400.25</ele><time>2026-04-25T08:58:56.639Z</time></trkpt><trkpt lat="44.48066" lon="7.9156767"><ele>402.0</ele><time>2026-04-25T08:58:57.635Z</time></trkpt><trkpt lat="44.4805467" lon="7.9155667"><ele>402.0</ele><time>2026-04-25T08:58:58.634Z</time></trkpt><trkpt lat="44.480435" lon="7.9154617"><ele>402.0</ele><time>2026-04-25T08:58:59.634Z</time></trkpt><trkpt lat="44.4803267" lon="7.9153633"><ele>402.0</ele><time>2026-04-25T08:59:00.635Z</time></trkpt><trkpt lat="44.4802383" lon="7.91528"><ele>402.0</ele><time>2026-04-25T08:59:01.635Z</time></trkpt><trkpt lat="44.4801533" lon="7.9151983"><ele>402.8</ele><time>2026-04-25T08:59:02.634Z</time></trkpt><trkpt lat="44.4800667" lon="7.9151217"><ele>403.6</ele><time>2026-04-25T08:59:03.641Z</time></trkpt><trkpt lat="44.479975" lon="7.9150517"><ele>404.40000000000003</ele><time>2026-04-25T08:59:04.634Z</time></trkpt><trkpt lat="44.47988" lon="7.9149983"><ele>405.20000000000005</ele><time>2026-04-25T08:59:05.634Z</time></trkpt><trkpt lat="44.47978" lon="7.9149767"><ele>406.0</ele><time>2026-04-25T08:59:06.633Z</time></trkpt><trkpt lat="44.47968" lon="7.914985"><ele>406.1666666666667</ele><time>2026-04-25T08:59:07.635Z</time></trkpt><trkpt lat="44.479585" lon="7.91502"><ele>406.33333333333337</ele><time>2026-04-25T08:59:08.637Z</time></trkpt><trkpt lat="44.4795033" lon="7.915075"><ele>406.5</ele><time>2026-04-25T08:59:09.636Z</time></trkpt><trkpt lat="44.4794317" lon="7.915135"><ele>406.66666666666663</ele><time>2026-04-25T08:59:10.637Z</time></trkpt><trkpt lat="44.47937" lon="7.915195"><ele>406.8333333333333</ele><time>2026-04-25T08:59:11.636Z</time></trkpt><trkpt lat="44.4793233" lon="7.915255"><ele>407.0</ele><time>2026-04-25T08:59:12.636Z</time></trkpt><trkpt lat="44.4792467" lon="7.9153533"><ele>410.8</ele><time>2026-04-25T08:59:14.637Z</time></trkpt><trkpt lat="44.4791933" lon="7.9154583"><ele>414.6</ele><time>2026-04-25T08:59:16.633Z</time></trkpt><trkpt lat="44.479175" lon="7.9156017"><ele>418.40000000000003</ele><time>2026-04-25T08:59:18.635Z</time></trkpt><trkpt lat="44.4792117" lon="7.9157433"><ele>422.20000000000005</ele><time>2026-04-25T08:59:20.636Z</time></trkpt><trkpt lat="44.479275" lon="7.91582"><ele>426.0</ele><time>2026-04-25T08:59:21.635Z</time></trkpt><trkpt lat="44.4793533" lon="7.9159"><ele>428.20000000000005</ele><time>2026-04-25T08:59:22.635Z</time></trkpt><trkpt lat="44.4794233" lon="7.9159967"><ele>430.40000000000003</ele><time>2026-04-25T08:59:23.636Z</time></trkpt><trkpt lat="44.47947" lon="7.9161083"><ele>432.6</ele><time>2026-04-25T08:59:24.637Z</time></trkpt><trkpt lat="44.4794983" lon="7.9162417"><ele>434.8</ele><time>2026-04-25T08:59:25.64Z</time></trkpt><trkpt lat="44.4795183" lon="7.9163817"><ele>437.0</ele><time>2026-04-25T08:59:26.634Z</time></trkpt><trkpt lat="44.47953" lon="7.9165283"><ele>437.0</ele><time>2026-04-25T08:59:27.636Z</time></trkpt><trkpt lat="44.4795267" lon="7.9166817"><ele>437.00000000000006</ele><time>2026-04-25T08:59:28.635Z</time></trkpt><trkpt lat="44.479515" lon="7.9168333"><ele>437.00000000000006</ele><time>2026-04-25T08:59:29.637Z</time></trkpt><trkpt lat="44.4794933" lon="7.91699"><ele>437.0</ele><time>2026-04-25T08:59:30.637Z</time></trkpt><trkpt lat="44.47947" lon="7.91715"><ele>437.0</ele><time>2026-04-25T08:59:31.635Z</time></trkpt><trkpt lat="44.4794417" lon="7.91731"><ele>437.75</ele><time>2026-04-25T08:59:32.637Z</time></trkpt><trkpt lat="44.479415" lon="7.9174667"><ele>438.5</ele><time>2026-04-25T08:59:33.636Z</time></trkpt><trkpt lat="44.4793833" lon="7.9176183"><ele>439.25</ele><time>2026-04-25T08:59:34.635Z</time></trkpt><trkpt lat="44.479345" lon="7.9177667"><ele>440.0</ele><time>2026-04-25T08:59:35.641Z</time></trkpt><trkpt lat="44.4792983" lon="7.91791"><ele>440.0</ele><time>2026-04-25T08:59:36.635Z</time></trkpt><trkpt lat="44.4792467" lon="7.9180517"><ele>440.0</ele><time>2026-04-25T08:59:37.637Z</time></trkpt><trkpt lat="44.4791867" lon="7.9181933"><ele>440.0</ele><time>2026-04-25T08:59:38.635Z</time></trkpt><trkpt lat="44.47912" lon="7.918335"><ele>440.0</ele><time>2026-04-25T08:59:39.635Z</time></trkpt><trkpt lat="44.4790467" lon="7.9184783"><ele>440.25</ele><time>2026-04-25T08:59:40.637Z</time></trkpt><trkpt lat="44.4789817" lon="7.91863"><ele>440.5</ele><time>2026-04-25T08:59:41.637Z</time></trkpt><trkpt lat="44.4789283" lon="7.9187967"><ele>440.75</ele><time>2026-04-25T08:59:42.635Z</time></trkpt><trkpt lat="44.4788917" lon="7.9189783"><ele>441.0</ele><time>2026-04-25T08:59:43.644Z</time></trkpt><trkpt lat="44.478865" lon="7.9191683"><ele>442.0</ele><time>2026-04-25T08:59:44.635Z</time></trkpt><trkpt lat="44.4788467" lon="7.9193633"><ele>443.0</ele><time>2026-04-25T08:59:45.636Z</time></trkpt><trkpt lat="44.4788483" lon="7.9195633"><ele>444.0</ele><time>2026-04-25T08:59:46.634Z</time></trkpt><trkpt lat="44.47887" lon="7.919765"><ele>445.0</ele><time>2026-04-25T08:59:47.638Z</time></trkpt><trkpt lat="44.4788983" lon="7.919965"><ele>445.25</ele><time>2026-04-25T08:59:48.635Z</time></trkpt><trkpt lat="44.4789267" lon="7.9201617"><ele>445.5</ele><time>2026-04-25T08:59:49.634Z</time></trkpt><trkpt lat="44.4789533" lon="7.9203567"><ele>445.75</ele><time>2026-04-25T08:59:50.635Z</time></trkpt><trkpt lat="44.4789683" lon="7.92055"><ele>446.0</ele><time>2026-04-25T08:59:51.634Z</time></trkpt><trkpt lat="44.4789683" lon="7.9207433"><ele>448.5</ele><time>2026-04-25T08:59:52.64Z</time></trkpt><trkpt lat="44.47896" lon="7.9209433"><ele>451.0</ele><time>2026-04-25T08:59:53.638Z</time></trkpt><trkpt lat="44.478945" lon="7.9211417"><ele>453.5</ele><time>2026-04-25T08:59:54.634Z</time></trkpt><trkpt lat="44.478925" lon="7.92134"><ele>456.0</ele><time>2026-04-25T08:59:55.638Z</time></trkpt><trkpt lat="44.4789067" lon="7.9215417"><ele>456.0</ele><time>2026-04-25T08:59:56.636Z</time></trkpt><trkpt lat="44.4788867" lon="7.9217317"><ele>456.0</ele><time>2026-04-25T08:59:57.636Z</time></trkpt><trkpt lat="44.4788667" lon="7.9219183"><ele>456.0</ele><time>2026-04-25T08:59:58.636Z</time></trkpt><trkpt lat="44.478845" lon="7.9220983"><ele>456.0</ele><time>2026-04-25T08:59:59.636Z</time></trkpt><trkpt lat="44.4788217" lon="7.922265"><ele>458.0</ele><time>2026-04-25T09:00:00.636Z</time></trkpt><trkpt lat="44.4787967" lon="7.9224217"><ele>460.0</ele><time>2026-04-25T09:00:01.64Z</time></trkpt><trkpt lat="44.4787733" lon="7.9225667"><ele>462.0</ele><time>2026-04-25T09:00:02.635Z</time></trkpt><trkpt lat="44.4787433" lon="7.9227083"><ele>464.0</ele><time>2026-04-25T09:00:03.637Z</time></trkpt><trkpt lat="44.4786967" lon="7.92284"><ele>466.0</ele><time>2026-04-25T09:00:04.635Z</time></trkpt><trkpt lat="44.4786367" lon="7.9229517"><ele>466.00000000000006</ele><time>2026-04-25T09:00:05.637Z</time></trkpt><trkpt lat="44.4785683" lon="7.9230383"><ele>466.0</ele><time>2026-04-25T09:00:06.635Z</time></trkpt><trkpt lat="44.4785017" lon="7.923115"><ele>466.0</ele><time>2026-04-25T09:00:07.636Z</time></trkpt><trkpt lat="44.4784433" lon="7.9231883"><ele>466.0</ele><time>2026-04-25T09:00:08.636Z</time></trkpt><trkpt lat="44.478405" lon="7.9232717"><ele>466.00000000000006</ele><time>2026-04-25T09:00:09.637Z</time></trkpt><trkpt lat="44.478395" lon="7.923365"><ele>466.0</ele><time>2026-04-25T09:00:10.636Z</time></trkpt><trkpt lat="44.478415" lon="7.9234617"><ele>466.00000000000006</ele><time>2026-04-25T09:00:11.635Z</time></trkpt><trkpt lat="44.4784567" lon="7.9235383"><ele>466.0</ele><time>2026-04-25T09:00:12.633Z</time></trkpt><trkpt lat="44.4785233" lon="7.923585"><ele>466.0</ele><time>2026-04-25T09:00:13.634Z</time></trkpt><trkpt lat="44.478605" lon="7.923615"><ele>466.0</ele><time>2026-04-25T09:00:14.634Z</time></trkpt><trkpt lat="44.4786817" lon="7.9236467"><ele>466.00000000000006</ele><time>2026-04-25T09:00:15.635Z</time></trkpt><trkpt lat="44.4787517" lon="7.9236933"><ele>466.0</ele><time>2026-04-25T09:00:16.634Z</time></trkpt><trkpt lat="44.4788083" lon="7.923765"><ele>466.0</ele><time>2026-04-25T09:00:17.634Z</time></trkpt><trkpt lat="44.4788517" lon="7.9238633"><ele>466.0</ele><time>2026-04-25T09:00:18.637Z</time></trkpt><trkpt lat="44.4788767" lon="7.9239783"><ele>466.0</ele><time>2026-04-25T09:00:19.634Z</time></trkpt><trkpt lat="44.4788933" lon="7.9241117"><ele>466.0</ele><time>2026-04-25T09:00:20.636Z</time></trkpt><trkpt lat="44.4788917" lon="7.9242483"><ele>466.0</ele><time>2026-04-25T09:00:21.634Z</time></trkpt><trkpt lat="44.4789017" lon="7.924425"><ele>466.5</ele><time>2026-04-25T09:00:22.635Z</time></trkpt><trkpt lat="44.47892" lon="7.9245983"><ele>467.0</ele><time>2026-04-25T09:00:23.635Z</time></trkpt><trkpt lat="44.4789383" lon="7.92477"><ele>467.5</ele><time>2026-04-25T09:00:24.635Z</time></trkpt><trkpt lat="44.4789433" lon="7.92492"><ele>468.0</ele><time>2026-04-25T09:00:25.635Z</time></trkpt><trkpt lat="44.4789483" lon="7.9250633"><ele>467.2</ele><time>2026-04-25T09:00:26.634Z</time></trkpt><trkpt lat="44.4789517" lon="7.9251967"><ele>466.4</ele><time>2026-04-25T09:00:27.634Z</time></trkpt><trkpt lat="44.4789217" lon="7.9253367"><ele>465.59999999999997</ele><time>2026-04-25T09:00:28.637Z</time></trkpt><trkpt lat="44.4788733" lon="7.92547"><ele>464.79999999999995</ele><time>2026-04-25T09:00:29.636Z</time></trkpt><trkpt lat="44.4788167" lon="7.9256033"><ele>464.0</ele><time>2026-04-25T09:00:30.635Z</time></trkpt><trkpt lat="44.478745" lon="7.9257467"><ele>469.0</ele><time>2026-04-25T09:00:31.635Z</time></trkpt><trkpt lat="44.47868" lon="7.92589"><ele>474.0</ele><time>2026-04-25T09:00:32.637Z</time></trkpt><trkpt lat="44.4786317" lon="7.9260267"><ele>479.0</ele><time>2026-04-25T09:00:33.635Z</time></trkpt><trkpt lat="44.478605" lon="7.926175"><ele>484.0</ele><time>2026-04-25T09:00:34.635Z</time></trkpt><trkpt lat="44.4785983" lon="7.9263233"><ele>489.0</ele><time>2026-04-25T09:00:35.635Z</time></trkpt><trkpt lat="44.4786" lon="7.9264733"><ele>489.0</ele><time>2026-04-25T09:00:36.635Z</time></trkpt><trkpt lat="44.478615" lon="7.92663"><ele>489.0</ele><time>2026-04-25T09:00:37.636Z</time></trkpt><trkpt lat="44.4786367" lon="7.9267833"><ele>489.0</ele><time>2026-04-25T09:00:38.635Z</time></trkpt><trkpt lat="44.4786583" lon="7.9269283"><ele>489.0</ele><time>2026-04-25T09:00:39.635Z</time></trkpt><trkpt lat="44.4786733" lon="7.927075"><ele>489.0</ele><time>2026-04-25T09:00:40.638Z</time></trkpt><trkpt lat="44.47869" lon="7.9272233"><ele>489.2</ele><time>2026-04-25T09:00:41.635Z</time></trkpt><trkpt lat="44.4787167" lon="7.9273717"><ele>489.4</ele><time>2026-04-25T09:00:42.636Z</time></trkpt><trkpt lat="44.4787633" lon="7.9275083"><ele>489.6</ele><time>2026-04-25T09:00:43.637Z</time></trkpt><trkpt lat="44.4788317" lon="7.9276367"><ele>489.8</ele><time>2026-04-25T09:00:44.638Z</time></trkpt><trkpt lat="44.478915" lon="7.9277517"><ele>490.0</ele><time>2026-04-25T09:00:45.634Z</time></trkpt><trkpt lat="44.4790033" lon="7.92786"><ele>490.0</ele><time>2026-04-25T09:00:46.636Z</time></trkpt><trkpt lat="44.4790917" lon="7.9279667"><ele>490.0</ele><time>2026-04-25T09:00:47.635Z</time></trkpt><trkpt lat="44.479185" lon="7.9280733"><ele>490.0</ele><time>2026-04-25T09:00:48.636Z</time></trkpt><trkpt lat="44.4792783" lon="7.928185"><ele>490.0</ele><time>2026-04-25T09:00:49.639Z</time></trkpt><trkpt lat="44.47937" lon="7.9282967"><ele>490.4</ele><time>2026-04-25T09:00:50.636Z</time></trkpt><trkpt lat="44.4794583" lon="7.9284067"><ele>490.8</ele><time>2026-04-25T09:00:51.636Z</time></trkpt><trkpt lat="44.4795433" lon="7.9285133"><ele>491.20000000000005</ele><time>2026-04-25T09:00:52.635Z</time></trkpt><trkpt lat="44.479625" lon="7.92861"><ele>491.6</ele><time>2026-04-25T09:00:53.635Z</time></trkpt><trkpt lat="44.4796983" lon="7.9287017"><ele>492.0</ele><time>2026-04-25T09:00:54.634Z</time></trkpt><trkpt lat="44.4797683" lon="7.9287833"><ele>492.40000000000003</ele><time>2026-04-25T09:00:55.635Z</time></trkpt><trkpt lat="44.4798367" lon="7.9288667"><ele>492.80000000000007</ele><time>2026-04-25T09:00:56.634Z</time></trkpt><trkpt lat="44.47991" lon="7.9289533"><ele>493.2</ele><time>2026-04-25T09:00:57.64Z</time></trkpt><trkpt lat="44.4799817" lon="7.9290433"><ele>493.6</ele><time>2026-04-25T09:00:58.636Z</time></trkpt><trkpt lat="44.4800583" lon="7.9291417"><ele>494.0</ele><time>2026-04-25T09:00:59.636Z</time></trkpt><trkpt lat="44.4801367" lon="7.9292467"><ele>494.6</ele><time>2026-04-25T09:01:00.637Z</time></trkpt><trkpt lat="44.4802183" lon="7.9293533"><ele>495.2</ele><time>2026-04-25T09:01:01.635Z</time></trkpt><trkpt lat="44.4803" lon="7.9294633"><ele>495.80000000000007</ele><time>2026-04-25T09:01:02.635Z</time></trkpt><trkpt lat="44.4803833" lon="7.9295783"><ele>496.40000000000003</ele><time>2026-04-25T09:01:03.636Z</time></trkpt><trkpt lat="44.4804567" lon="7.9296883"><ele>497.0</ele><time>2026-04-25T09:01:04.641Z</time></trkpt><trkpt lat="44.4805133" lon="7.9297833"><ele>496.99999999999994</ele><time>2026-04-25T09:01:05.636Z</time></trkpt><trkpt lat="44.480565" lon="7.92987"><ele>497.0</ele><time>2026-04-25T09:01:06.635Z</time></trkpt><trkpt lat="44.4806117" lon="7.9299433"><ele>497.0</ele><time>2026-04-25T09:01:07.637Z</time></trkpt><trkpt lat="44.4806533" lon="7.930015"><ele>497.0</ele><time>2026-04-25T09:01:08.636Z</time></trkpt><trkpt lat="44.4806983" lon="7.9300917"><ele>496.99999999999994</ele><time>2026-04-25T09:01:09.635Z</time></trkpt><trkpt lat="44.4807483" lon="7.9301867"><ele>497.0</ele><time>2026-04-25T09:01:10.634Z</time></trkpt><trkpt lat="44.480805" lon="7.9302917"><ele>497.0</ele><time>2026-04-25T09:01:11.635Z</time></trkpt><trkpt lat="44.4808733" lon="7.93041"><ele>497.0</ele><time>2026-04-25T09:01:12.645Z</time></trkpt><trkpt lat="44.48095" lon="7.9305333"><ele>497.0</ele><time>2026-04-25T09:01:13.636Z</time></trkpt><trkpt lat="44.481025" lon="7.9306567"><ele>497.0</ele><time>2026-04-25T09:01:14.636Z</time></trkpt><trkpt lat="44.4810967" lon="7.9307767"><ele>496.99999999999994</ele><time>2026-04-25T09:01:15.634Z</time></trkpt><trkpt lat="44.48116" lon="7.9308783"><ele>497.0</ele><time>2026-04-25T09:01:16.634Z</time></trkpt><trkpt lat="44.4812217" lon="7.930975"><ele>497.0</ele><time>2026-04-25T09:01:17.634Z</time></trkpt><trkpt lat="44.48128" lon="7.93107"><ele>497.0</ele><time>2026-04-25T09:01:18.635Z</time></trkpt><trkpt lat="44.481335" lon="7.9311583"><ele>496.99999999999994</ele><time>2026-04-25T09:01:19.636Z</time></trkpt><trkpt lat="44.4813867" lon="7.9312467"><ele>497.0</ele><time>2026-04-25T09:01:20.634Z</time></trkpt><trkpt lat="44.481435" lon="7.9313283"><ele>497.1428571428571</ele><time>2026-04-25T09:01:21.635Z</time></trkpt><trkpt lat="44.4814817" lon="7.9314017"><ele>497.2857142857143</ele><time>2026-04-25T09:01:22.634Z</time></trkpt><trkpt lat="44.4815233" lon="7.9314717"><ele>497.42857142857144</ele><time>2026-04-25T09:01:23.636Z</time></trkpt><trkpt lat="44.4815667" lon="7.93154"><ele>497.57142857142856</ele><time>2026-04-25T09:01:24.635Z</time></trkpt><trkpt lat="44.4816167" lon="7.9316117"><ele>497.71428571428567</ele><time>2026-04-25T09:01:25.635Z</time></trkpt><trkpt lat="44.4816717" lon="7.93169"><ele>497.85714285714283</ele><time>2026-04-25T09:01:26.635Z</time></trkpt><trkpt lat="44.4817283" lon="7.9317733"><ele>498.0</ele><time>2026-04-25T09:01:27.636Z</time></trkpt><trkpt lat="44.481785" lon="7.9318667"><ele>498.0</ele><time>2026-04-25T09:01:28.639Z</time></trkpt><trkpt lat="44.4818417" lon="7.931965"><ele>497.99999999999994</ele><time>2026-04-25T09:01:29.636Z</time></trkpt><trkpt lat="44.4818933" lon="7.932075"><ele>497.99999999999994</ele><time>2026-04-25T09:01:30.636Z</time></trkpt><trkpt lat="44.481945" lon="7.9321933"><ele>498.0</ele><time>2026-04-25T09:01:31.635Z</time></trkpt><trkpt lat="44.4819967" lon="7.9323167"><ele>498.0</ele><time>2026-04-25T09:01:32.636Z</time></trkpt><trkpt lat="44.482045" lon="7.93245"><ele>497.59999999999997</ele><time>2026-04-25T09:01:33.637Z</time></trkpt><trkpt lat="44.4820933" lon="7.9325883"><ele>497.19999999999993</ele><time>2026-04-25T09:01:34.637Z</time></trkpt><trkpt lat="44.4821417" lon="7.9327283"><ele>496.8</ele><time>2026-04-25T09:01:35.635Z</time></trkpt><trkpt lat="44.482185" lon="7.9328667"><ele>496.4</ele><time>2026-04-25T09:01:36.636Z</time></trkpt><trkpt lat="44.4822283" lon="7.933005"><ele>496.0</ele><time>2026-04-25T09:01:37.636Z</time></trkpt><trkpt lat="44.4822717" lon="7.9331433"><ele>496.0</ele><time>2026-04-25T09:01:38.641Z</time></trkpt><trkpt lat="44.48232" lon="7.933295"><ele>496.0</ele><time>2026-04-25T09:01:39.635Z</time></trkpt><trkpt lat="44.4823483" lon="7.9334667"><ele>496.0</ele><time>2026-04-25T09:01:40.634Z</time></trkpt><trkpt lat="44.482385" lon="7.9336317"><ele>496.0</ele><time>2026-04-25T09:01:41.634Z</time></trkpt><trkpt lat="44.4824217" lon="7.93378"><ele>496.0</ele><time>2026-04-25T09:01:42.634Z</time></trkpt><trkpt lat="44.482465" lon="7.93392"><ele>496.0</ele><time>2026-04-25T09:01:43.638Z</time></trkpt><trkpt lat="44.4825117" lon="7.934045"><ele>496.0</ele><time>2026-04-25T09:01:44.634Z</time></trkpt><trkpt lat="44.4825583" lon="7.9341617"><ele>496.0</ele><time>2026-04-25T09:01:45.635Z</time></trkpt><trkpt lat="44.48259" lon="7.9342767"><ele>496.0</ele><time>2026-04-25T09:01:46.636Z</time></trkpt><trkpt lat="44.4826117" lon="7.9343967"><ele>496.50000000000006</ele><time>2026-04-25T09:01:47.634Z</time></trkpt><trkpt lat="44.4826217" lon="7.93451"><ele>497.0</ele><time>2026-04-25T09:01:48.636Z</time></trkpt><trkpt lat="44.4826183" lon="7.9346167"><ele>497.5</ele><time>2026-04-25T09:01:49.634Z</time></trkpt><trkpt lat="44.4826133" lon="7.934735"><ele>498.0</ele><time>2026-04-25T09:01:50.635Z</time></trkpt><trkpt lat="44.4826133" lon="7.9348583"><ele>498.50000000000006</ele><time>2026-04-25T09:01:51.634Z</time></trkpt><trkpt lat="44.482615" lon="7.9349783"><ele>499.0</ele><time>2026-04-25T09:01:52.635Z</time></trkpt><trkpt lat="44.482615" lon="7.9350833"><ele>499.2</ele><time>2026-04-25T09:01:53.633Z</time></trkpt><trkpt lat="44.4826133" lon="7.9352517"><ele>499.4</ele><time>2026-04-25T09:01:55.638Z</time></trkpt><trkpt lat="44.4826267" lon="7.9353467"><ele>499.6</ele><time>2026-04-25T09:01:56.636Z</time></trkpt><trkpt lat="44.482655" lon="7.93546"><ele>499.8</ele><time>2026-04-25T09:01:57.636Z</time></trkpt><trkpt lat="44.4827" lon="7.9355917"><ele>500.0</ele><time>2026-04-25T09:01:58.634Z</time></trkpt><trkpt lat="44.4827533" lon="7.93572"><ele>500.0</ele><time>2026-04-25T09:01:59.636Z</time></trkpt><trkpt lat="44.4828167" lon="7.9358367"><ele>500.0</ele><time>2026-04-25T09:02:00.633Z</time></trkpt><trkpt lat="44.4828817" lon="7.9359567"><ele>500.0</ele><time>2026-04-25T09:02:01.635Z</time></trkpt><trkpt lat="44.4829483" lon="7.936085"><ele>500.0</ele><time>2026-04-25T09:02:02.636Z</time></trkpt><trkpt lat="44.4830233" lon="7.93621"><ele>500.0</ele><time>2026-04-25T09:02:03.635Z</time></trkpt><trkpt lat="44.4831017" lon="7.9363267"><ele>500.75</ele><time>2026-04-25T09:02:04.635Z</time></trkpt><trkpt lat="44.4831833" lon="7.93644"><ele>501.5</ele><time>2026-04-25T09:02:05.635Z</time></trkpt><trkpt lat="44.4832733" lon="7.9365633"><ele>502.25</ele><time>2026-04-25T09:02:06.637Z</time></trkpt><trkpt lat="44.4833633" lon="7.9366967"><ele>503.0</ele><time>2026-04-25T09:02:07.635Z</time></trkpt><trkpt lat="44.4834533" lon="7.9368433"><ele>502.0</ele><time>2026-04-25T09:02:08.636Z</time></trkpt><trkpt lat="44.4835367" lon="7.937"><ele>501.0</ele><time>2026-04-25T09:02:09.635Z</time></trkpt><trkpt lat="44.4836183" lon="7.9371667"><ele>500.0</ele><time>2026-04-25T09:02:10.633Z</time></trkpt><trkpt lat="44.4836967" lon="7.9373333"><ele>499.0</ele><time>2026-04-25T09:02:11.634Z</time></trkpt><trkpt lat="44.4837733" lon="7.9374983"><ele>500.0</ele><time>2026-04-25T09:02:12.635Z</time></trkpt><trkpt lat="44.48385" lon="7.9376617"><ele>501.0</ele><time>2026-04-25T09:02:13.634Z</time></trkpt><trkpt lat="44.4839267" lon="7.9378333"><ele>502.0</ele><time>2026-04-25T09:02:14.634Z</time></trkpt><trkpt lat="44.4840083" lon="7.9380083"><ele>503.0</ele><time>2026-04-25T09:02:15.634Z</time></trkpt><trkpt lat="44.4840933" lon="7.9381933"><ele>503.0</ele><time>2026-04-25T09:02:16.634Z</time></trkpt><trkpt lat="44.48418" lon="7.9383833"><ele>503.0</ele><time>2026-04-25T09:02:17.633Z</time></trkpt><trkpt lat="44.48427" lon="7.938585"><ele>503.0</ele><time>2026-04-25T09:02:18.637Z</time></trkpt><trkpt lat="44.484355" lon="7.9387967"><ele>502.0</ele><time>2026-04-25T09:02:19.635Z</time></trkpt><trkpt lat="44.4844333" lon="7.93902"><ele>501.0</ele><time>2026-04-25T09:02:20.636Z</time></trkpt><trkpt lat="44.4844967" lon="7.9392533"><ele>500.0</ele><time>2026-04-25T09:02:21.634Z</time></trkpt><trkpt lat="44.484545" lon="7.9394933"><ele>497.66666666666663</ele><time>2026-04-25T09:02:22.634Z</time></trkpt><trkpt lat="44.4845867" lon="7.9397367"><ele>495.33333333333337</ele><time>2026-04-25T09:02:23.636Z</time></trkpt><trkpt lat="44.484625" lon="7.9399783"><ele>493.0</ele><time>2026-04-25T09:02:24.636Z</time></trkpt><trkpt lat="44.48466" lon="7.940215"><ele>501.6666666666667</ele><time>2026-04-25T09:02:25.633Z</time></trkpt><trkpt lat="44.4846967" lon="7.9404467"><ele>510.33333333333337</ele><time>2026-04-25T09:02:26.64Z</time></trkpt><trkpt lat="44.4847317" lon="7.9406717"><ele>519.0</ele><time>2026-04-25T09:02:27.635Z</time></trkpt><trkpt lat="44.4847633" lon="7.940885"><ele>519.25</ele><time>2026-04-25T09:02:28.634Z</time></trkpt><trkpt lat="44.48479" lon="7.94109"><ele>519.5</ele><time>2026-04-25T09:02:29.634Z</time></trkpt><trkpt lat="44.4848167" lon="7.94129"><ele>519.75</ele><time>2026-04-25T09:02:30.636Z</time></trkpt><trkpt lat="44.4848483" lon="7.94149"><ele>520.0</ele><time>2026-04-25T09:02:31.638Z</time></trkpt><trkpt lat="44.4848767" lon="7.9416917"><ele>521.0</ele><time>2026-04-25T09:02:32.636Z</time></trkpt><trkpt lat="44.4848967" lon="7.94189"><ele>522.0</ele><time>2026-04-25T09:02:33.635Z</time></trkpt><trkpt lat="44.4849017" lon="7.9420767"><ele>523.0</ele><time>2026-04-25T09:02:34.634Z</time></trkpt><trkpt lat="44.48489" lon="7.9422633"><ele>524.0</ele><time>2026-04-25T09:02:35.635Z</time></trkpt><trkpt lat="44.4848683" lon="7.9424567"><ele>524.6666666666666</ele><time>2026-04-25T09:02:36.635Z</time></trkpt><trkpt lat="44.4848433" lon="7.942665"><ele>525.3333333333334</ele><time>2026-04-25T09:02:37.635Z</time></trkpt><trkpt lat="44.4848167" lon="7.9428867"><ele>526.0</ele><time>2026-04-25T09:02:38.637Z</time></trkpt><trkpt lat="44.4847883" lon="7.9431133"><ele>526.0</ele><time>2026-04-25T09:02:39.633Z</time></trkpt><trkpt lat="44.4847617" lon="7.9433417"><ele>526.0</ele><time>2026-04-25T09:02:40.634Z</time></trkpt><trkpt lat="44.48474" lon="7.943575"><ele>526.0</ele><time>2026-04-25T09:02:41.636Z</time></trkpt><trkpt lat="44.4847183" lon="7.943815"><ele>525.0</ele><time>2026-04-25T09:02:42.634Z</time></trkpt><trkpt lat="44.4846967" lon="7.9440417"><ele>524.0</ele><time>2026-04-25T09:02:43.634Z</time></trkpt><trkpt lat="44.484675" lon="7.9442433"><ele>523.0</ele><time>2026-04-25T09:02:44.633Z</time></trkpt><trkpt lat="44.4846617" lon="7.9444133"><ele>522.0</ele><time>2026-04-25T09:02:45.633Z</time></trkpt><trkpt lat="44.48465" lon="7.944575"><ele>520.6</ele><time>2026-04-25T09:02:46.634Z</time></trkpt><trkpt lat="44.4846317" lon="7.9447183"><ele>519.2</ele><time>2026-04-25T09:02:47.635Z</time></trkpt><trkpt lat="44.48459" lon="7.9448567"><ele>517.8</ele><time>2026-04-25T09:02:48.635Z</time></trkpt><trkpt lat="44.48452" lon="7.9449667"><ele>516.4</ele><time>2026-04-25T09:02:49.635Z</time></trkpt><trkpt lat="44.48443" lon="7.9450483"><ele>515.0</ele><time>2026-04-25T09:02:50.634Z</time></trkpt><trkpt lat="44.484325" lon="7.9450967"><ele>519.2</ele><time>2026-04-25T09:02:51.634Z</time></trkpt><trkpt lat="44.4842133" lon="7.94509"><ele>523.4</ele><time>2026-04-25T09:02:52.633Z</time></trkpt><trkpt lat="44.4841217" lon="7.9450883"><ele>527.6</ele><time>2026-04-25T09:02:53.638Z</time></trkpt><trkpt lat="44.4840367" lon="7.9451"><ele>531.8</ele><time>2026-04-25T09:02:54.635Z</time></trkpt><trkpt lat="44.48394" lon="7.9451267"><ele>536.0</ele><time>2026-04-25T09:02:55.633Z</time></trkpt><trkpt lat="44.4838317" lon="7.945165"><ele>536.2</ele><time>2026-04-25T09:02:56.638Z</time></trkpt><trkpt lat="44.4837217" lon="7.9451933"><ele>536.4000000000001</ele><time>2026-04-25T09:02:57.635Z</time></trkpt><trkpt lat="44.4836117" lon="7.94519"><ele>536.6</ele><time>2026-04-25T09:02:58.636Z</time></trkpt><trkpt lat="44.4835033" lon="7.9451467"><ele>536.8000000000001</ele><time>2026-04-25T09:02:59.636Z</time></trkpt><trkpt lat="44.483405" lon="7.94508"><ele>537.0</ele><time>2026-04-25T09:03:00.634Z</time></trkpt><trkpt lat="44.4833067" lon="7.9450133"><ele>537.0</ele><time>2026-04-25T09:03:01.635Z</time></trkpt><trkpt lat="44.4832017" lon="7.9449317"><ele>537.0</ele><time>2026-04-25T09:03:02.634Z</time></trkpt><trkpt lat="44.4831017" lon="7.944855"><ele>537.0</ele><time>2026-04-25T09:03:03.635Z</time></trkpt><trkpt lat="44.4830017" lon="7.9447883"><ele>537.0</ele><time>2026-04-25T09:03:04.634Z</time></trkpt><trkpt lat="44.4829033" lon="7.9447417"><ele>537.0</ele><time>2026-04-25T09:03:05.635Z</time></trkpt><trkpt lat="44.4828083" lon="7.9447283"><ele>537.0</ele><time>2026-04-25T09:03:06.635Z</time></trkpt><trkpt lat="44.482725" lon="7.94474"><ele>537.0</ele><time>2026-04-25T09:03:07.636Z</time></trkpt><trkpt lat="44.482655" lon="7.9447917"><ele>537.0</ele><time>2026-04-25T09:03:08.639Z</time></trkpt><trkpt lat="44.4826167" lon="7.9448783"><ele>537.0</ele><time>2026-04-25T09:03:09.635Z</time></trkpt><trkpt lat="44.4825983" lon="7.9449817"><ele>537.0</ele><time>2026-04-25T09:03:10.635Z</time></trkpt><trkpt lat="44.4825917" lon="7.94508"><ele>537.0</ele><time>2026-04-25T09:03:11.636Z</time></trkpt><trkpt lat="44.482595" lon="7.94518"><ele>537.6</ele><time>2026-04-25T09:03:12.635Z</time></trkpt><trkpt lat="44.4826167" lon="7.94529"><ele>538.2</ele><time>2026-04-25T09:03:13.636Z</time></trkpt><trkpt lat="44.4826417" lon="7.94541"><ele>538.8</ele><time>2026-04-25T09:03:14.636Z</time></trkpt><trkpt lat="44.4826617" lon="7.94554"><ele>539.4</ele><time>2026-04-25T09:03:15.635Z</time></trkpt><trkpt lat="44.4826917" lon="7.9456733"><ele>540.0</ele><time>2026-04-25T09:03:16.635Z</time></trkpt><trkpt lat="44.4827217" lon="7.9458083"><ele>539.0</ele><time>2026-04-25T09:03:17.635Z</time></trkpt><trkpt lat="44.4827633" lon="7.9459467"><ele>538.0</ele><time>2026-04-25T09:03:18.636Z</time></trkpt><trkpt lat="44.482815" lon="7.946075"><ele>537.0</ele><time>2026-04-25T09:03:19.634Z</time></trkpt><trkpt lat="44.4828733" lon="7.9461917"><ele>536.0</ele><time>2026-04-25T09:03:20.637Z</time></trkpt><trkpt lat="44.4829367" lon="7.9463117"><ele>535.0</ele><time>2026-04-25T09:03:21.635Z</time></trkpt><trkpt lat="44.4830017" lon="7.9464333"><ele>537.8</ele><time>2026-04-25T09:03:22.635Z</time></trkpt><trkpt lat="44.48307" lon="7.94656"><ele>540.6</ele><time>2026-04-25T09:03:23.635Z</time></trkpt><trkpt lat="44.483135" lon="7.9466783"><ele>543.4</ele><time>2026-04-25T09:03:24.637Z</time></trkpt><trkpt lat="44.4832" lon="7.94679"><ele>546.2</ele><time>2026-04-25T09:03:25.636Z</time></trkpt><trkpt lat="44.483265" lon="7.9469"><ele>549.0</ele><time>2026-04-25T09:03:26.635Z</time></trkpt><trkpt lat="44.48333" lon="7.9470167"><ele>549.6</ele><time>2026-04-25T09:03:27.64Z</time></trkpt><trkpt lat="44.48339" lon="7.9471433"><ele>550.2</ele><time>2026-04-25T09:03:28.634Z</time></trkpt><trkpt lat="44.4834433" lon="7.9472717"><ele>550.8000000000001</ele><time>2026-04-25T09:03:29.635Z</time></trkpt><trkpt lat="44.4834967" lon="7.9473867"><ele>551.4</ele><time>2026-04-25T09:03:30.635Z</time></trkpt><trkpt lat="44.48355" lon="7.9474933"><ele>552.0</ele><time>2026-04-25T09:03:31.635Z</time></trkpt><trkpt lat="44.4836033" lon="7.9475933"><ele>552.5</ele><time>2026-04-25T09:03:32.635Z</time></trkpt><trkpt lat="44.4836583" lon="7.9476883"><ele>553.0</ele><time>2026-04-25T09:03:33.636Z</time></trkpt><trkpt lat="44.4837167" lon="7.9477783"><ele>553.5</ele><time>2026-04-25T09:03:34.636Z</time></trkpt><trkpt lat="44.4837767" lon="7.9478617"><ele>554.0</ele><time>2026-04-25T09:03:35.638Z</time></trkpt><trkpt lat="44.4838417" lon="7.9479467"><ele>554.5</ele><time>2026-04-25T09:03:36.635Z</time></trkpt><trkpt lat="44.4839117" lon="7.9480317"><ele>555.0</ele><time>2026-04-25T09:03:37.636Z</time></trkpt><trkpt lat="44.4839883" lon="7.9481233"><ele>556.4</ele><time>2026-04-25T09:03:38.635Z</time></trkpt><trkpt lat="44.4840667" lon="7.9482283"><ele>557.8</ele><time>2026-04-25T09:03:39.635Z</time></trkpt><trkpt lat="44.48414" lon="7.9483467"><ele>559.2</ele><time>2026-04-25T09:03:40.636Z</time></trkpt><trkpt lat="44.4841917" lon="7.9484767"><ele>560.6</ele><time>2026-04-25T09:03:41.634Z</time></trkpt><trkpt lat="44.4842167" lon="7.94861"><ele>562.0</ele><time>2026-04-25T09:03:42.635Z</time></trkpt><trkpt lat="44.484215" lon="7.9487417"><ele>562.2</ele><time>2026-04-25T09:03:43.635Z</time></trkpt><trkpt lat="44.4841917" lon="7.9488733"><ele>562.4000000000001</ele><time>2026-04-25T09:03:44.637Z</time></trkpt><trkpt lat="44.4841467" lon="7.9490067"><ele>562.5999999999999</ele><time>2026-04-25T09:03:45.635Z</time></trkpt><trkpt lat="44.4840833" lon="7.94915"><ele>562.8</ele><time>2026-04-25T09:03:46.635Z</time></trkpt><trkpt lat="44.48401" lon="7.9492933"><ele>563.0</ele><time>2026-04-25T09:03:47.633Z</time></trkpt><trkpt lat="44.48393" lon="7.949445"><ele>563.0</ele><time>2026-04-25T09:03:48.635Z</time></trkpt><trkpt lat="44.483855" lon="7.94961"><ele>563.0</ele><time>2026-04-25T09:03:49.635Z</time></trkpt><trkpt lat="44.483785" lon="7.94977"><ele>563.0</ele><time>2026-04-25T09:03:50.634Z</time></trkpt><trkpt lat="44.483725" lon="7.9499283"><ele>563.0</ele><time>2026-04-25T09:03:51.635Z</time></trkpt><trkpt lat="44.4836683" lon="7.9500867"><ele>564.25</ele><time>2026-04-25T09:03:52.635Z</time></trkpt><trkpt lat="44.4836033" lon="7.9502433"><ele>565.5</ele><time>2026-04-25T09:03:53.641Z</time></trkpt><trkpt lat="44.4835267" lon="7.950395"><ele>566.75</ele><time>2026-04-25T09:03:54.637Z</time></trkpt><trkpt lat="44.4834267" lon="7.9505317"><ele>568.0</ele><time>2026-04-25T09:03:55.635Z</time></trkpt><trkpt lat="44.483305" lon="7.9506517"><ele>568.0</ele><time>2026-04-25T09:03:56.635Z</time></trkpt><trkpt lat="44.4831683" lon="7.9507533"><ele>568.0</ele><time>2026-04-25T09:03:57.634Z</time></trkpt><trkpt lat="44.4830183" lon="7.9508417"><ele>568.0</ele><time>2026-04-25T09:03:58.636Z</time></trkpt><trkpt lat="44.4828633" lon="7.95091"><ele>568.0</ele><time>2026-04-25T09:03:59.636Z</time></trkpt><trkpt lat="44.4826983" lon="7.9509467"><ele>568.0</ele><time>2026-04-25T09:04:00.635Z</time></trkpt><trkpt lat="44.4825267" lon="7.9509633"><ele>568.0</ele><time>2026-04-25T09:04:01.639Z</time></trkpt><trkpt lat="44.48235" lon="7.9509583"><ele>568.0</ele><time>2026-04-25T09:04:02.635Z</time></trkpt><trkpt lat="44.482165" lon="7.9509333"><ele>568.0</ele><time>2026-04-25T09:04:03.634Z</time></trkpt><trkpt lat="44.4819833" lon="7.9508917"><ele>568.0</ele><time>2026-04-25T09:04:04.637Z</time></trkpt><trkpt lat="44.4818133" lon="7.9508517"><ele>571.0</ele><time>2026-04-25T09:04:05.635Z</time></trkpt><trkpt lat="44.4816533" lon="7.9508367"><ele>574.0</ele><time>2026-04-25T09:04:06.633Z</time></trkpt><trkpt lat="44.4815033" lon="7.9508417"><ele>577.0</ele><time>2026-04-25T09:04:07.635Z</time></trkpt><trkpt lat="44.4813717" lon="7.9508683"><ele>580.0</ele><time>2026-04-25T09:04:08.637Z</time></trkpt><trkpt lat="44.48125" lon="7.95091"><ele>581.0</ele><time>2026-04-25T09:04:09.633Z</time></trkpt><trkpt lat="44.4811317" lon="7.9509683"><ele>582.0</ele><time>2026-04-25T09:04:10.633Z</time></trkpt><trkpt lat="44.48103" lon="7.9510467"><ele>583.0</ele><time>2026-04-25T09:04:11.635Z</time></trkpt><trkpt lat="44.4809383" lon="7.951145"><ele>584.0</ele><time>2026-04-25T09:04:12.634Z</time></trkpt><trkpt lat="44.4808533" lon="7.9512533"><ele>584.0</ele><time>2026-04-25T09:04:13.634Z</time></trkpt><trkpt lat="44.4807667" lon="7.9513717"><ele>584.0</ele><time>2026-04-25T09:04:14.634Z</time></trkpt><trkpt lat="44.4806783" lon="7.95149"><ele>584.0</ele><time>2026-04-25T09:04:15.634Z</time></trkpt><trkpt lat="44.4805917" lon="7.9516133"><ele>584.0</ele><time>2026-04-25T09:04:16.634Z</time></trkpt><trkpt lat="44.4805017" lon="7.951745"><ele>583.75</ele><time>2026-04-25T09:04:17.634Z</time></trkpt><trkpt lat="44.4804083" lon="7.9518733"><ele>583.5</ele><time>2026-04-25T09:04:18.635Z</time></trkpt><trkpt lat="44.4803067" lon="7.95199"><ele>583.25</ele><time>2026-04-25T09:04:19.634Z</time></trkpt><trkpt lat="44.4801967" lon="7.9520867"><ele>583.0</ele><time>2026-04-25T09:04:20.634Z</time></trkpt><trkpt lat="44.4800717" lon="7.952155"><ele>583.0</ele><time>2026-04-25T09:04:21.634Z</time></trkpt><trkpt lat="44.4799417" lon="7.9521917"><ele>583.0</ele><time>2026-04-25T09:04:22.636Z</time></trkpt><trkpt lat="44.4798133" lon="7.9522167"><ele>583.0</ele><time>2026-04-25T09:04:23.634Z</time></trkpt><trkpt lat="44.4796933" lon="7.9522517"><ele>583.0</ele><time>2026-04-25T09:04:24.637Z</time></trkpt><trkpt lat="44.479585" lon="7.9523033"><ele>584.8</ele><time>2026-04-25T09:04:25.636Z</time></trkpt><trkpt lat="44.4794833" lon="7.95236"><ele>586.5999999999999</ele><time>2026-04-25T09:04:26.643Z</time></trkpt><trkpt lat="44.4793883" lon="7.9524183"><ele>588.4000000000001</ele><time>2026-04-25T09:04:27.634Z</time></trkpt><trkpt lat="44.4792967" lon="7.952475"><ele>590.2</ele><time>2026-04-25T09:04:28.633Z</time></trkpt><trkpt lat="44.4792083" lon="7.95253"><ele>592.0</ele><time>2026-04-25T09:04:29.635Z</time></trkpt><trkpt lat="44.479125" lon="7.95258"><ele>589.8333333333334</ele><time>2026-04-25T09:04:30.636Z</time></trkpt><trkpt lat="44.4790467" lon="7.9526167"><ele>587.6666666666667</ele><time>2026-04-25T09:04:31.634Z</time></trkpt><trkpt lat="44.47897" lon="7.9526417"><ele>585.5</ele><time>2026-04-25T09:04:32.637Z</time></trkpt><trkpt lat="44.4788983" lon="7.9526483"><ele>583.3333333333334</ele><time>2026-04-25T09:04:33.636Z</time></trkpt><trkpt lat="44.4788317" lon="7.95264"><ele>581.1666666666666</ele><time>2026-04-25T09:04:34.635Z</time></trkpt><trkpt lat="44.4787167" lon="7.952595"><ele>579.0</ele><time>2026-04-25T09:04:36.636Z</time></trkpt><trkpt lat="44.47865" lon="7.9525583"><ele>581.6</ele><time>2026-04-25T09:04:37.634Z</time></trkpt><trkpt lat="44.478575" lon="7.95252"><ele>584.2</ele><time>2026-04-25T09:04:38.636Z</time></trkpt><trkpt lat="44.4784933" lon="7.9525"><ele>586.8000000000001</ele><time>2026-04-25T09:04:39.635Z</time></trkpt><trkpt lat="44.4784033" lon="7.9524933"><ele>589.4</ele><time>2026-04-25T09:04:40.636Z</time></trkpt><trkpt lat="44.4783033" lon="7.952495"><ele>592.0</ele><time>2026-04-25T09:04:41.634Z</time></trkpt><trkpt lat="44.4781967" lon="7.95251"><ele>592.0</ele><time>2026-04-25T09:04:42.635Z</time></trkpt><trkpt lat="44.4780967" lon="7.9525367"><ele>592.0</ele><time>2026-04-25T09:04:43.634Z</time></trkpt><trkpt lat="44.4780017" lon="7.95257"><ele>592.0</ele><time>2026-04-25T09:04:44.635Z</time></trkpt><trkpt lat="44.4779033" lon="7.95261"><ele>592.0</ele><time>2026-04-25T09:04:45.636Z</time></trkpt><trkpt lat="44.4778067" lon="7.9526517"><ele>592.0</ele><time>2026-04-25T09:04:46.633Z</time></trkpt><trkpt lat="44.477715" lon="7.95269"><ele>591.2</ele><time>2026-04-25T09:04:47.638Z</time></trkpt><trkpt lat="44.477625" lon="7.95273"><ele>590.4000000000001</ele><time>2026-04-25T09:04:48.639Z</time></trkpt><trkpt lat="44.477535" lon="7.952775"><ele>589.5999999999999</ele><time>2026-04-25T09:04:49.634Z</time></trkpt><trkpt lat="44.4774433" lon="7.9528217"><ele>588.8</ele><time>2026-04-25T09:04:50.635Z</time></trkpt><trkpt lat="44.47735" lon="7.9528783"><ele>588.0</ele><time>2026-04-25T09:04:51.632Z</time></trkpt><trkpt lat="44.4772517" lon="7.95294"><ele>588.0</ele><time>2026-04-25T09:04:52.635Z</time></trkpt><trkpt lat="44.4771533" lon="7.95301"><ele>588.0</ele><time>2026-04-25T09:04:53.639Z</time></trkpt><trkpt lat="44.4770517" lon="7.9530867"><ele>588.0</ele><time>2026-04-25T09:04:54.637Z</time></trkpt><trkpt lat="44.4769517" lon="7.9531667"><ele>588.0</ele><time>2026-04-25T09:04:55.635Z</time></trkpt><trkpt lat="44.4768467" lon="7.953245"><ele>588.5</ele><time>2026-04-25T09:04:56.636Z</time></trkpt><trkpt lat="44.476745" lon="7.95332"><ele>589.0</ele><time>2026-04-25T09:04:57.635Z</time></trkpt><trkpt lat="44.47664" lon="7.9534033"><ele>589.5</ele><time>2026-04-25T09:04:58.639Z</time></trkpt><trkpt lat="44.476535" lon="7.9534933"><ele>590.0</ele><time>2026-04-25T09:04:59.634Z</time></trkpt><trkpt lat="44.4764317" lon="7.953585"><ele>590.0</ele><time>2026-04-25T09:05:00.635Z</time></trkpt><trkpt lat="44.4763267" lon="7.9536767"><ele>590.0</ele><time>2026-04-25T09:05:01.636Z</time></trkpt><trkpt lat="44.4762183" lon="7.953765"><ele>590.0</ele><time>2026-04-25T09:05:02.633Z</time></trkpt><trkpt lat="44.4761067" lon="7.9538467"><ele>590.0</ele><time>2026-04-25T09:05:03.635Z</time></trkpt><trkpt lat="44.4759917" lon="7.95392"><ele>594.75</ele><time>2026-04-25T09:05:04.634Z</time></trkpt><trkpt lat="44.4758733" lon="7.953975"><ele>599.5</ele><time>2026-04-25T09:05:05.637Z</time></trkpt><trkpt lat="44.4757517" lon="7.95399"><ele>604.25</ele><time>2026-04-25T09:05:06.635Z</time></trkpt><trkpt lat="44.4756417" lon="7.9539667"><ele>609.0</ele><time>2026-04-25T09:05:07.634Z</time></trkpt><trkpt lat="44.4755483" lon="7.953905"><ele>609.0</ele><time>2026-04-25T09:05:08.634Z</time></trkpt><trkpt lat="44.4754583" lon="7.95381"><ele>609.0</ele><time>2026-04-25T09:05:09.635Z</time></trkpt><trkpt lat="44.4753767" lon="7.9536917"><ele>609.0</ele><time>2026-04-25T09:05:10.64Z</time></trkpt><trkpt lat="44.4752933" lon="7.9535583"><ele>609.0</ele><time>2026-04-25T09:05:11.634Z</time></trkpt><trkpt lat="44.4752083" lon="7.9534117"><ele>608.0</ele><time>2026-04-25T09:05:12.633Z</time></trkpt><trkpt lat="44.4751217" lon="7.953255"><ele>607.0</ele><time>2026-04-25T09:05:13.634Z</time></trkpt><trkpt lat="44.475035" lon="7.9530917"><ele>606.0</ele><time>2026-04-25T09:05:14.635Z</time></trkpt><trkpt lat="44.4749483" lon="7.9529267"><ele>605.0</ele><time>2026-04-25T09:05:15.636Z</time></trkpt><trkpt lat="44.4748583" lon="7.9527617"><ele>605.0</ele><time>2026-04-25T09:05:16.635Z</time></trkpt><trkpt lat="44.474765" lon="7.9526133"><ele>605.0</ele><time>2026-04-25T09:05:17.634Z</time></trkpt><trkpt lat="44.474665" lon="7.9524783"><ele>605.0</ele><time>2026-04-25T09:05:18.635Z</time></trkpt><trkpt lat="44.4745583" lon="7.9523567"><ele>605.0</ele><time>2026-04-25T09:05:19.634Z</time></trkpt><trkpt lat="44.4744483" lon="7.9522433"><ele>602.25</ele><time>2026-04-25T09:05:20.642Z</time></trkpt><trkpt lat="44.4743317" lon="7.9521333"><ele>599.5</ele><time>2026-04-25T09:05:21.638Z</time></trkpt><trkpt lat="44.4742133" lon="7.9520217"><ele>596.75</ele><time>2026-04-25T09:05:22.634Z</time></trkpt><trkpt lat="44.4740967" lon="7.951915"><ele>594.0</ele><time>2026-04-25T09:05:23.635Z</time></trkpt><trkpt lat="44.473975" lon="7.951815"><ele>594.0</ele><time>2026-04-25T09:05:24.634Z</time></trkpt><trkpt lat="44.47386" lon="7.9517133"><ele>594.0</ele><time>2026-04-25T09:05:25.637Z</time></trkpt><trkpt lat="44.473745" lon="7.951605"><ele>594.0</ele><time>2026-04-25T09:05:26.635Z</time></trkpt><trkpt lat="44.47363" lon="7.951505"><ele>594.0</ele><time>2026-04-25T09:05:27.634Z</time></trkpt><trkpt lat="44.47351" lon="7.9514167"><ele>593.75</ele><time>2026-04-25T09:05:28.636Z</time></trkpt><trkpt lat="44.4733833" lon="7.9513383"><ele>593.5</ele><time>2026-04-25T09:05:29.633Z</time></trkpt><trkpt lat="44.4732467" lon="7.9512833"><ele>593.25</ele><time>2026-04-25T09:05:30.635Z</time></trkpt><trkpt lat="44.473105" lon="7.9512383"><ele>593.0</ele><time>2026-04-25T09:05:31.635Z</time></trkpt><trkpt lat="44.4729617" lon="7.951205"><ele>590.25</ele><time>2026-04-25T09:05:32.634Z</time></trkpt><trkpt lat="44.4728183" lon="7.9511733"><ele>587.5</ele><time>2026-04-25T09:05:33.638Z</time></trkpt><trkpt lat="44.4726783" lon="7.9511433"><ele>584.75</ele><time>2026-04-25T09:05:34.633Z</time></trkpt><trkpt lat="44.47254" lon="7.9511167"><ele>582.0</ele><time>2026-04-25T09:05:35.636Z</time></trkpt><trkpt lat="44.4724033" lon="7.9510883"><ele>582.0</ele><time>2026-04-25T09:05:36.635Z</time></trkpt><trkpt lat="44.4722633" lon="7.9510633"><ele>582.0</ele><time>2026-04-25T09:05:37.635Z</time></trkpt><trkpt lat="44.47212" lon="7.9510383"><ele>582.0</ele><time>2026-04-25T09:05:38.639Z</time></trkpt><trkpt lat="44.47198" lon="7.951015"><ele>582.0</ele><time>2026-04-25T09:05:39.634Z</time></trkpt><trkpt lat="44.4718317" lon="7.950995"><ele>580.3333333333334</ele><time>2026-04-25T09:05:40.634Z</time></trkpt><trkpt lat="44.4716767" lon="7.9509683"><ele>578.6666666666667</ele><time>2026-04-25T09:05:41.634Z</time></trkpt><trkpt lat="44.4715167" lon="7.950935"><ele>577.0</ele><time>2026-04-25T09:05:42.634Z</time></trkpt><trkpt lat="44.4713483" lon="7.9509"><ele>578.3333333333334</ele><time>2026-04-25T09:05:43.634Z</time></trkpt><trkpt lat="44.471185" lon="7.950865"><ele>579.6666666666666</ele><time>2026-04-25T09:05:44.637Z</time></trkpt><trkpt lat="44.47102" lon="7.9508317"><ele>581.0</ele><time>2026-04-25T09:05:45.639Z</time></trkpt><trkpt lat="44.4708517" lon="7.9507867"><ele>581.0</ele><time>2026-04-25T09:05:46.634Z</time></trkpt><trkpt lat="44.4706817" lon="7.9507167"><ele>581.0</ele><time>2026-04-25T09:05:47.634Z</time></trkpt><trkpt lat="44.4705183" lon="7.9506133"><ele>581.0</ele><time>2026-04-25T09:05:48.636Z</time></trkpt><trkpt lat="44.47037" lon="7.9504883"><ele>580.75</ele><time>2026-04-25T09:05:49.634Z</time></trkpt><trkpt lat="44.4702383" lon="7.950355"><ele>580.5</ele><time>2026-04-25T09:05:50.634Z</time></trkpt><trkpt lat="44.4701333" lon="7.9502367"><ele>580.25</ele><time>2026-04-25T09:05:51.637Z</time></trkpt><trkpt lat="44.4700317" lon="7.9501417"><ele>580.0</ele><time>2026-04-25T09:05:52.635Z</time></trkpt><trkpt lat="44.4699267" lon="7.950065"><ele>582.2</ele><time>2026-04-25T09:05:53.634Z</time></trkpt><trkpt lat="44.46982" lon="7.9500167"><ele>584.4</ele><time>2026-04-25T09:05:54.634Z</time></trkpt><trkpt lat="44.46971" lon="7.9499817"><ele>586.6</ele><time>2026-04-25T09:05:55.634Z</time></trkpt><trkpt lat="44.4696" lon="7.9499617"><ele>588.8</ele><time>2026-04-25T09:05:56.636Z</time></trkpt><trkpt lat="44.469495" lon="7.9499567"><ele>591.0</ele><time>2026-04-25T09:05:57.638Z</time></trkpt><trkpt lat="44.469395" lon="7.9499633"><ele>591.0</ele><time>2026-04-25T09:05:58.634Z</time></trkpt><trkpt lat="44.4693017" lon="7.9499767"><ele>591.0</ele><time>2026-04-25T09:05:59.633Z</time></trkpt><trkpt lat="44.469215" lon="7.94999"><ele>591.0</ele><time>2026-04-25T09:06:00.634Z</time></trkpt><trkpt lat="44.469135" lon="7.9500067"><ele>591.0</ele><time>2026-04-25T09:06:01.638Z</time></trkpt><trkpt lat="44.4690583" lon="7.95003"><ele>591.0</ele><time>2026-04-25T09:06:02.634Z</time></trkpt><trkpt lat="44.468985" lon="7.950065"><ele>591.0</ele><time>2026-04-25T09:06:03.638Z</time></trkpt><trkpt lat="44.4689183" lon="7.9501017"><ele>589.0</ele><time>2026-04-25T09:06:04.634Z</time></trkpt><trkpt lat="44.4688567" lon="7.95014"><ele>587.0</ele><time>2026-04-25T09:06:05.633Z</time></trkpt><trkpt lat="44.46879" lon="7.95017"><ele>585.0</ele><time>2026-04-25T09:06:06.634Z</time></trkpt><trkpt lat="44.4687167" lon="7.9502083"><ele>583.0</ele><time>2026-04-25T09:06:07.636Z</time></trkpt><trkpt lat="44.4686233" lon="7.9502567"><ele>581.0</ele><time>2026-04-25T09:06:08.637Z</time></trkpt><trkpt lat="44.4685133" lon="7.9503167"><ele>579.0</ele><time>2026-04-25T09:06:09.633Z</time></trkpt><trkpt lat="44.4683933" lon="7.95038"><ele>579.0</ele><time>2026-04-25T09:06:10.642Z</time></trkpt><trkpt lat="44.4682533" lon="7.9504567"><ele>579.0</ele><time>2026-04-25T09:06:11.634Z</time></trkpt><trkpt lat="44.4681" lon="7.950545"><ele>579.0</ele><time>2026-04-25T09:06:12.634Z</time></trkpt><trkpt lat="44.4679367" lon="7.9506433"><ele>578.3333333333334</ele><time>2026-04-25T09:06:13.633Z</time></trkpt><trkpt lat="44.467775" lon="7.9507617"><ele>577.6666666666667</ele><time>2026-04-25T09:06:14.634Z</time></trkpt><trkpt lat="44.4676167" lon="7.9508933"><ele>577.0</ele><time>2026-04-25T09:06:15.632Z</time></trkpt><trkpt lat="44.4674567" lon="7.9510433"><ele>577.0</ele><time>2026-04-25T09:06:16.637Z</time></trkpt><trkpt lat="44.4672967" lon="7.9512017"><ele>577.0</ele><time>2026-04-25T09:06:17.633Z</time></trkpt><trkpt lat="44.4671467" lon="7.9513483"><ele>577.0</ele><time>2026-04-25T09:06:18.634Z</time></trkpt><trkpt lat="44.4670133" lon="7.9514783"><ele>576.0</ele><time>2026-04-25T09:06:19.636Z</time></trkpt><trkpt lat="44.46688" lon="7.9516033"><ele>575.0</ele><time>2026-04-25T09:06:20.634Z</time></trkpt><trkpt lat="44.4667367" lon="7.951715"><ele>574.0</ele><time>2026-04-25T09:06:21.634Z</time></trkpt><trkpt lat="44.4665983" lon="7.9518"><ele>574.0</ele><time>2026-04-25T09:06:22.632Z</time></trkpt><trkpt lat="44.4664683" lon="7.9518633"><ele>574.0</ele><time>2026-04-25T09:06:23.634Z</time></trkpt><trkpt lat="44.466345" lon="7.95189"><ele>574.0</ele><time>2026-04-25T09:06:24.634Z</time></trkpt><trkpt lat="44.4662233" lon="7.9518783"><ele>574.0</ele><time>2026-04-25T09:06:25.634Z</time></trkpt><trkpt lat="44.4661083" lon="7.9518317"><ele>573.75</ele><time>2026-04-25T09:06:26.633Z</time></trkpt><trkpt lat="44.466" lon="7.9517617"><ele>573.5</ele><time>2026-04-25T09:06:27.634Z</time></trkpt><trkpt lat="44.4658983" lon="7.9516683"><ele>573.25</ele><time>2026-04-25T09:06:28.638Z</time></trkpt><trkpt lat="44.4658017" lon="7.9515417"><ele>573.0</ele><time>2026-04-25T09:06:29.637Z</time></trkpt><trkpt lat="44.4657083" lon="7.9513917"><ele>577.3333333333334</ele><time>2026-04-25T09:06:30.633Z</time></trkpt><trkpt lat="44.4656133" lon="7.9512183"><ele>581.6666666666667</ele><time>2026-04-25T09:06:31.633Z</time></trkpt><trkpt lat="44.4655217" lon="7.95104"><ele>586.0</ele><time>2026-04-25T09:06:32.636Z</time></trkpt><trkpt lat="44.465435" lon="7.950865"><ele>587.75</ele><time>2026-04-25T09:06:33.633Z</time></trkpt><trkpt lat="44.46535" lon="7.9507"><ele>589.5</ele><time>2026-04-25T09:06:34.634Z</time></trkpt><trkpt lat="44.4652567" lon="7.95054"><ele>591.25</ele><time>2026-04-25T09:06:35.634Z</time></trkpt><trkpt lat="44.4651467" lon="7.9503883"><ele>593.0</ele><time>2026-04-25T09:06:36.637Z</time></trkpt><trkpt lat="44.4650183" lon="7.9502483"><ele>593.0</ele><time>2026-04-25T09:06:37.635Z</time></trkpt><trkpt lat="44.4648817" lon="7.9501267"><ele>593.0</ele><time>2026-04-25T09:06:38.635Z</time></trkpt><trkpt lat="44.4647433" lon="7.9500133"><ele>593.0</ele><time>2026-04-25T09:06:39.635Z</time></trkpt><trkpt lat="44.4646017" lon="7.9499"><ele>591.6666666666666</ele><time>2026-04-25T09:06:40.636Z</time></trkpt><trkpt lat="44.4644533" lon="7.9497833"><ele>590.3333333333334</ele><time>2026-04-25T09:06:41.638Z</time></trkpt><trkpt lat="44.4643017" lon="7.9496617"><ele>589.0</ele><time>2026-04-25T09:06:42.637Z</time></trkpt><trkpt lat="44.4641467" lon="7.9495317"><ele>589.0</ele><time>2026-04-25T09:06:43.634Z</time></trkpt><trkpt lat="44.4639933" lon="7.949395"><ele>589.0</ele><time>2026-04-25T09:06:44.637Z</time></trkpt><trkpt lat="44.4638483" lon="7.9492633"><ele>589.0</ele><time>2026-04-25T09:06:45.636Z</time></trkpt><trkpt lat="44.4637183" lon="7.9491383"><ele>588.0</ele><time>2026-04-25T09:06:46.638Z</time></trkpt><trkpt lat="44.463605" lon="7.9490167"><ele>587.0</ele><time>2026-04-25T09:06:47.635Z</time></trkpt><trkpt lat="44.4635017" lon="7.94889"><ele>586.0</ele><time>2026-04-25T09:06:48.636Z</time></trkpt><trkpt lat="44.4634033" lon="7.9487567"><ele>585.0</ele><time>2026-04-25T09:06:49.633Z</time></trkpt><trkpt lat="44.46329" lon="7.948615"><ele>585.0</ele><time>2026-04-25T09:06:50.634Z</time></trkpt><trkpt lat="44.4631567" lon="7.9484733"><ele>585.0</ele><time>2026-04-25T09:06:51.634Z</time></trkpt><trkpt lat="44.4630083" lon="7.9483333"><ele>585.0</ele><time>2026-04-25T09:06:52.633Z</time></trkpt><trkpt lat="44.4628483" lon="7.9481867"><ele>583.0</ele><time>2026-04-25T09:06:53.632Z</time></trkpt><trkpt lat="44.4626933" lon="7.9480533"><ele>581.0</ele><time>2026-04-25T09:06:54.633Z</time></trkpt><trkpt lat="44.4625533" lon="7.9479433"><ele>579.0</ele><time>2026-04-25T09:06:55.634Z</time></trkpt><trkpt lat="44.46242" lon="7.9478383"><ele>579.0</ele><time>2026-04-25T09:06:56.634Z</time></trkpt><trkpt lat="44.462295" lon="7.94774"><ele>579.0</ele><time>2026-04-25T09:06:57.633Z</time></trkpt><trkpt lat="44.462175" lon="7.9476467"><ele>579.0</ele><time>2026-04-25T09:06:58.634Z</time></trkpt><trkpt lat="44.4620517" lon="7.9475583"><ele>579.0</ele><time>2026-04-25T09:06:59.635Z</time></trkpt><trkpt lat="44.4619267" lon="7.9474667"><ele>580.25</ele><time>2026-04-25T09:07:00.637Z</time></trkpt><trkpt lat="44.4618033" lon="7.947375"><ele>581.5</ele><time>2026-04-25T09:07:01.635Z</time></trkpt><trkpt lat="44.4616833" lon="7.9472833"><ele>582.75</ele><time>2026-04-25T09:07:02.64Z</time></trkpt><trkpt lat="44.4615633" lon="7.94719"><ele>584.0</ele><time>2026-04-25T09:07:03.639Z</time></trkpt><trkpt lat="44.4614367" lon="7.9470933"><ele>584.0</ele><time>2026-04-25T09:07:04.634Z</time></trkpt><trkpt lat="44.46131" lon="7.947005"><ele>584.0</ele><time>2026-04-25T09:07:05.635Z</time></trkpt><trkpt lat="44.46118" lon="7.946935"><ele>584.0</ele><time>2026-04-25T09:07:06.636Z</time></trkpt><trkpt lat="44.461045" lon="7.94689"><ele>584.0</ele><time>2026-04-25T09:07:07.634Z</time></trkpt><trkpt lat="44.46091" lon="7.94687"><ele>581.75</ele><time>2026-04-25T09:07:08.635Z</time></trkpt><trkpt lat="44.460775" lon="7.94686"><ele>579.5</ele><time>2026-04-25T09:07:09.635Z</time></trkpt><trkpt lat="44.4606517" lon="7.946855"><ele>577.25</ele><time>2026-04-25T09:07:10.635Z</time></trkpt><trkpt lat="44.460535" lon="7.946855"><ele>575.0</ele><time>2026-04-25T09:07:11.638Z</time></trkpt><trkpt lat="44.4604217" lon="7.9468533"><ele>573.5</ele><time>2026-04-25T09:07:12.638Z</time></trkpt><trkpt lat="44.4603017" lon="7.9468467"><ele>572.0</ele><time>2026-04-25T09:07:13.636Z</time></trkpt><trkpt lat="44.4601767" lon="7.9468433"><ele>570.5</ele><time>2026-04-25T09:07:14.634Z</time></trkpt><trkpt lat="44.460045" lon="7.9468567"><ele>569.0</ele><time>2026-04-25T09:07:15.633Z</time></trkpt><trkpt lat="44.45991" lon="7.9468933"><ele>569.0</ele><time>2026-04-25T09:07:16.633Z</time></trkpt><trkpt lat="44.459775" lon="7.9469533"><ele>569.0</ele><time>2026-04-25T09:07:17.634Z</time></trkpt><trkpt lat="44.459655" lon="7.9470283"><ele>569.0</ele><time>2026-04-25T09:07:18.634Z</time></trkpt><trkpt lat="44.4595333" lon="7.947115"><ele>569.0</ele><time>2026-04-25T09:07:19.634Z</time></trkpt><trkpt lat="44.4594167" lon="7.9472083"><ele>570.5</ele><time>2026-04-25T09:07:20.639Z</time></trkpt><trkpt lat="44.4592933" lon="7.9472833"><ele>572.0</ele><time>2026-04-25T09:07:21.636Z</time></trkpt><trkpt lat="44.4591633" lon="7.9473283"><ele>573.5</ele><time>2026-04-25T09:07:22.635Z</time></trkpt><trkpt lat="44.4590267" lon="7.9473467"><ele>575.0</ele><time>2026-04-25T09:07:23.633Z</time></trkpt><trkpt lat="44.4588767" lon="7.9473467"><ele>576.0</ele><time>2026-04-25T09:07:24.633Z</time></trkpt><trkpt lat="44.4587183" lon="7.9473217"><ele>577.0</ele><time>2026-04-25T09:07:25.634Z</time></trkpt><trkpt lat="44.4585467" lon="7.947285"><ele>578.0</ele><time>2026-04-25T09:07:26.635Z</time></trkpt><trkpt lat="44.45837" lon="7.9472567"><ele>578.0</ele><time>2026-04-25T09:07:27.633Z</time></trkpt><trkpt lat="44.45819" lon="7.947225"><ele>578.0</ele><time>2026-04-25T09:07:28.634Z</time></trkpt><trkpt lat="44.45801" lon="7.9471883"><ele>578.0</ele><time>2026-04-25T09:07:29.634Z</time></trkpt><trkpt lat="44.45783" lon="7.947155"><ele>579.6666666666666</ele><time>2026-04-25T09:07:30.635Z</time></trkpt><trkpt lat="44.4576517" lon="7.9471167"><ele>581.3333333333334</ele><time>2026-04-25T09:07:31.637Z</time></trkpt><trkpt lat="44.457485" lon="7.9470717"><ele>583.0</ele><time>2026-04-25T09:07:32.635Z</time></trkpt><trkpt lat="44.4573317" lon="7.94704"><ele>583.0</ele><time>2026-04-25T09:07:33.634Z</time></trkpt><trkpt lat="44.45719" lon="7.9470133"><ele>583.0</ele><time>2026-04-25T09:07:34.633Z</time></trkpt><trkpt lat="44.4570583" lon="7.9469767"><ele>583.0</ele><time>2026-04-25T09:07:35.634Z</time></trkpt><trkpt lat="44.45694" lon="7.946935"><ele>583.0</ele><time>2026-04-25T09:07:36.639Z</time></trkpt><trkpt lat="44.4568383" lon="7.9468983"><ele>582.6666666666667</ele><time>2026-04-25T09:07:37.636Z</time></trkpt><trkpt lat="44.4567483" lon="7.9468667"><ele>582.3333333333334</ele><time>2026-04-25T09:07:38.635Z</time></trkpt><trkpt lat="44.4566633" lon="7.9468467"><ele>582.0</ele><time>2026-04-25T09:07:39.635Z</time></trkpt><trkpt lat="44.45659" lon="7.946855"><ele>581.6666666666666</ele><time>2026-04-25T09:07:40.633Z</time></trkpt><trkpt lat="44.4565283" lon="7.9469133"><ele>581.3333333333333</ele><time>2026-04-25T09:07:41.637Z</time></trkpt><trkpt lat="44.45647" lon="7.9470183"><ele>581.0</ele><time>2026-04-25T09:07:42.635Z</time></trkpt><trkpt lat="44.4564117" lon="7.9471433"><ele>581.0</ele><time>2026-04-25T09:07:43.634Z</time></trkpt><trkpt lat="44.4563483" lon="7.94729"><ele>581.0</ele><time>2026-04-25T09:07:44.635Z</time></trkpt><trkpt lat="44.456285" lon="7.9474417"><ele>581.0</ele><time>2026-04-25T09:07:45.633Z</time></trkpt><trkpt lat="44.4562233" lon="7.9475933"><ele>581.0</ele><time>2026-04-25T09:07:46.634Z</time></trkpt><trkpt lat="44.4561617" lon="7.9477417"><ele>580.25</ele><time>2026-04-25T09:07:47.635Z</time></trkpt><trkpt lat="44.456095" lon="7.9478817"><ele>579.5</ele><time>2026-04-25T09:07:48.633Z</time></trkpt><trkpt lat="44.4560233" lon="7.9480117"><ele>578.75</ele><time>2026-04-25T09:07:49.634Z</time></trkpt><trkpt lat="44.4559333" lon="7.9481417"><ele>578.0</ele><time>2026-04-25T09:07:50.634Z</time></trkpt><trkpt lat="44.455825" lon="7.948255"><ele>578.0</ele><time>2026-04-25T09:07:51.633Z</time></trkpt><trkpt lat="44.45571" lon="7.9483417"><ele>578.0</ele><time>2026-04-25T09:07:52.633Z</time></trkpt><trkpt lat="44.4556017" lon="7.94841"><ele>578.0</ele><time>2026-04-25T09:07:53.633Z</time></trkpt><trkpt lat="44.4554967" lon="7.9484667"><ele>578.0</ele><time>2026-04-25T09:07:54.635Z</time></trkpt><trkpt lat="44.4554017" lon="7.94852"><ele>577.6</ele><time>2026-04-25T09:07:55.633Z</time></trkpt><trkpt lat="44.4553133" lon="7.94857"><ele>577.1999999999999</ele><time>2026-04-25T09:07:56.636Z</time></trkpt><trkpt lat="44.45523" lon="7.9486183"><ele>576.8</ele><time>2026-04-25T09:07:57.634Z</time></trkpt><trkpt lat="44.45514" lon="7.9486717"><ele>576.4</ele><time>2026-04-25T09:07:58.636Z</time></trkpt><trkpt lat="44.4550483" lon="7.94872"><ele>576.0</ele><time>2026-04-25T09:07:59.634Z</time></trkpt><trkpt lat="44.4549567" lon="7.94876"><ele>576.0</ele><time>2026-04-25T09:08:00.638Z</time></trkpt><trkpt lat="44.454865" lon="7.9487983"><ele>576.0</ele><time>2026-04-25T09:08:01.634Z</time></trkpt><trkpt lat="44.454775" lon="7.9488233"><ele>576.0</ele><time>2026-04-25T09:08:02.636Z</time></trkpt><trkpt lat="44.4546867" lon="7.9488367"><ele>576.0</ele><time>2026-04-25T09:08:03.633Z</time></trkpt><trkpt lat="44.4546" lon="7.9488367"><ele>576.0</ele><time>2026-04-25T09:08:04.634Z</time></trkpt><trkpt lat="44.4545117" lon="7.9488283"><ele>575.5</ele><time>2026-04-25T09:08:05.633Z</time></trkpt><trkpt lat="44.4544167" lon="7.94882"><ele>575.0</ele><time>2026-04-25T09:08:06.635Z</time></trkpt><trkpt lat="44.4543117" lon="7.94881"><ele>574.5</ele><time>2026-04-25T09:08:07.634Z</time></trkpt><trkpt lat="44.4541967" lon="7.948795"><ele>574.0</ele><time>2026-04-25T09:08:08.641Z</time></trkpt><trkpt lat="44.4540617" lon="7.9487883"><ele>574.0</ele><time>2026-04-25T09:08:09.637Z</time></trkpt><trkpt lat="44.453925" lon="7.9487633"><ele>574.0</ele><time>2026-04-25T09:08:10.633Z</time></trkpt><trkpt lat="44.453785" lon="7.9487383"><ele>574.0</ele><time>2026-04-25T09:08:11.634Z</time></trkpt><trkpt lat="44.4536467" lon="7.948715"><ele>574.0</ele><time>2026-04-25T09:08:12.633Z</time></trkpt><trkpt lat="44.4535" lon="7.9486917"><ele>574.0</ele><time>2026-04-25T09:08:13.634Z</time></trkpt><trkpt lat="44.45335" lon="7.9486717"><ele>574.0</ele><time>2026-04-25T09:08:14.636Z</time></trkpt><trkpt lat="44.4532067" lon="7.9486583"><ele>574.0</ele><time>2026-04-25T09:08:15.635Z</time></trkpt><trkpt lat="44.4530733" lon="7.9486717"><ele>574.0</ele><time>2026-04-25T09:08:16.633Z</time></trkpt><trkpt lat="44.45295" lon="7.9487217"><ele>574.0</ele><time>2026-04-25T09:08:17.634Z</time></trkpt><trkpt lat="44.4528333" lon="7.94881"><ele>574.0</ele><time>2026-04-25T09:08:18.633Z</time></trkpt><trkpt lat="44.45272" lon="7.9489383"><ele>574.0</ele><time>2026-04-25T09:08:19.638Z</time></trkpt><trkpt lat="44.45262" lon="7.9490967"><ele>574.0</ele><time>2026-04-25T09:08:20.634Z</time></trkpt><trkpt lat="44.4525233" lon="7.94927"><ele>573.0</ele><time>2026-04-25T09:08:21.633Z</time></trkpt><trkpt lat="44.45242" lon="7.94946"><ele>572.0</ele><time>2026-04-25T09:08:22.637Z</time></trkpt><trkpt lat="44.4523517" lon="7.9496567"><ele>571.0</ele><time>2026-04-25T09:08:23.638Z</time></trkpt><trkpt lat="44.4522917" lon="7.94987"><ele>572.0</ele><time>2026-04-25T09:08:24.635Z</time></trkpt><trkpt lat="44.452235" lon="7.9500867"><ele>573.0</ele><time>2026-04-25T09:08:25.636Z</time></trkpt><trkpt lat="44.4521733" lon="7.950295"><ele>574.0</ele><time>2026-04-25T09:08:26.634Z</time></trkpt><trkpt lat="44.4520883" lon="7.9504767"><ele>574.0</ele><time>2026-04-25T09:08:27.633Z</time></trkpt><trkpt lat="44.4519667" lon="7.950615"><ele>574.0</ele><time>2026-04-25T09:08:28.633Z</time></trkpt><trkpt lat="44.451825" lon="7.9507017"><ele>574.0</ele><time>2026-04-25T09:08:29.634Z</time></trkpt><trkpt lat="44.4516533" lon="7.9507467"><ele>574.0</ele><time>2026-04-25T09:08:30.633Z</time></trkpt><trkpt lat="44.45148" lon="7.9507617"><ele>574.0</ele><time>2026-04-25T09:08:31.635Z</time></trkpt><trkpt lat="44.4513133" lon="7.9507567"><ele>574.0</ele><time>2026-04-25T09:08:32.643Z</time></trkpt><trkpt lat="44.4511517" lon="7.950745"><ele>575.0</ele><time>2026-04-25T09:08:33.635Z</time></trkpt><trkpt lat="44.4509967" lon="7.9507233"><ele>576.0</ele><time>2026-04-25T09:08:34.635Z</time></trkpt><trkpt lat="44.4508467" lon="7.95069"><ele>577.0</ele><time>2026-04-25T09:08:35.635Z</time></trkpt><trkpt lat="44.4506967" lon="7.9506517"><ele>577.0</ele><time>2026-04-25T09:08:36.636Z</time></trkpt><trkpt lat="44.45055" lon="7.9506183"><ele>577.0</ele><time>2026-04-25T09:08:37.639Z</time></trkpt><trkpt lat="44.4504067" lon="7.9505967"><ele>577.0</ele><time>2026-04-25T09:08:38.635Z</time></trkpt><trkpt lat="44.4502667" lon="7.95059"><ele>577.0</ele><time>2026-04-25T09:08:39.635Z</time></trkpt><trkpt lat="44.4501333" lon="7.9505917"><ele>577.5</ele><time>2026-04-25T09:08:40.634Z</time></trkpt><trkpt lat="44.4500083" lon="7.9505967"><ele>578.0</ele><time>2026-04-25T09:08:41.637Z</time></trkpt><trkpt lat="44.4498883" lon="7.9505967"><ele>578.5</ele><time>2026-04-25T09:08:42.636Z</time></trkpt><trkpt lat="44.449775" lon="7.9505633"><ele>579.0</ele><time>2026-04-25T09:08:43.634Z</time></trkpt><trkpt lat="44.4496717" lon="7.9505017"><ele>577.4</ele><time>2026-04-25T09:08:44.634Z</time></trkpt><trkpt lat="44.4495733" lon="7.9504267"><ele>575.8</ele><time>2026-04-25T09:08:45.633Z</time></trkpt><trkpt lat="44.449475" lon="7.9503683"><ele>574.2</ele><time>2026-04-25T09:08:46.634Z</time></trkpt><trkpt lat="44.4493783" lon="7.9503233"><ele>572.6</ele><time>2026-04-25T09:08:47.634Z</time></trkpt><trkpt lat="44.4492817" lon="7.9502967"><ele>571.0</ele><time>2026-04-25T09:08:48.635Z</time></trkpt><trkpt lat="44.4491817" lon="7.9502883"><ele>571.0</ele><time>2026-04-25T09:08:49.638Z</time></trkpt><trkpt lat="44.4490783" lon="7.950295"><ele>571.0</ele><time>2026-04-25T09:08:50.635Z</time></trkpt><trkpt lat="44.4489817" lon="7.9503167"><ele>571.0</ele><time>2026-04-25T09:08:51.637Z</time></trkpt><trkpt lat="44.4488833" lon="7.9503483"><ele>571.0</ele><time>2026-04-25T09:08:52.633Z</time></trkpt><trkpt lat="44.4487867" lon="7.950385"><ele>571.0</ele><time>2026-04-25T09:08:53.635Z</time></trkpt><trkpt lat="44.4486933" lon="7.9504267"><ele>570.6</ele><time>2026-04-25T09:08:54.635Z</time></trkpt><trkpt lat="44.4486017" lon="7.9504683"><ele>570.2</ele><time>2026-04-25T09:08:55.635Z</time></trkpt><trkpt lat="44.4485083" lon="7.9505"><ele>569.8</ele><time>2026-04-25T09:08:56.637Z</time></trkpt><trkpt lat="44.448415" lon="7.9505183"><ele>569.4</ele><time>2026-04-25T09:08:57.633Z</time></trkpt><trkpt lat="44.4483267" lon="7.9505233"><ele>569.0</ele><time>2026-04-25T09:08:58.634Z</time></trkpt><trkpt lat="44.4482383" lon="7.9505217"><ele>569.0</ele><time>2026-04-25T09:08:59.634Z</time></trkpt><trkpt lat="44.4481517" lon="7.9505217"><ele>569.0</ele><time>2026-04-25T09:09:00.633Z</time></trkpt><trkpt lat="44.4480683" lon="7.950515"><ele>569.0</ele><time>2026-04-25T09:09:01.635Z</time></trkpt><trkpt lat="44.447985" lon="7.95051"><ele>569.0</ele><time>2026-04-25T09:09:02.637Z</time></trkpt><trkpt lat="44.4479033" lon="7.9505133"><ele>569.0</ele><time>2026-04-25T09:09:03.633Z</time></trkpt><trkpt lat="44.4478217" lon="7.9505167"><ele>569.0</ele><time>2026-04-25T09:09:04.633Z</time></trkpt><trkpt lat="44.447745" lon="7.9505033"><ele>568.6</ele><time>2026-04-25T09:09:05.635Z</time></trkpt><trkpt lat="44.4476633" lon="7.9504883"><ele>568.2</ele><time>2026-04-25T09:09:06.634Z</time></trkpt><trkpt lat="44.4475783" lon="7.9504733"><ele>567.8000000000001</ele><time>2026-04-25T09:09:07.637Z</time></trkpt><trkpt lat="44.4474867" lon="7.95046"><ele>567.4</ele><time>2026-04-25T09:09:08.636Z</time></trkpt><trkpt lat="44.4473933" lon="7.9504433"><ele>567.0</ele><time>2026-04-25T09:09:09.634Z</time></trkpt><trkpt lat="44.447295" lon="7.9504283"><ele>567.0</ele><time>2026-04-25T09:09:10.633Z</time></trkpt><trkpt lat="44.447195" lon="7.9504233"><ele>567.0</ele><time>2026-04-25T09:09:11.633Z</time></trkpt><trkpt lat="44.4470933" lon="7.9504217"><ele>567.0</ele><time>2026-04-25T09:09:12.635Z</time></trkpt><trkpt lat="44.4469867" lon="7.95043"><ele>567.0</ele><time>2026-04-25T09:09:13.635Z</time></trkpt><trkpt lat="44.4468867" lon="7.950445"><ele>567.0</ele><time>2026-04-25T09:09:14.635Z</time></trkpt><trkpt lat="44.4467883" lon="7.950475"><ele>568.0</ele><time>2026-04-25T09:09:15.632Z</time></trkpt><trkpt lat="44.446695" lon="7.95051"><ele>569.0</ele><time>2026-04-25T09:09:16.64Z</time></trkpt><trkpt lat="44.4466033" lon="7.9505417"><ele>570.0</ele><time>2026-04-25T09:09:17.635Z</time></trkpt><trkpt lat="44.446515" lon="7.950575"><ele>571.0</ele><time>2026-04-25T09:09:18.634Z</time></trkpt><trkpt lat="44.446425" lon="7.9506133"><ele>572.0</ele><time>2026-04-25T09:09:19.633Z</time></trkpt><trkpt lat="44.4463333" lon="7.95065"><ele>574.0</ele><time>2026-04-25T09:09:20.634Z</time></trkpt><trkpt lat="44.4462367" lon="7.9506883"><ele>576.0</ele><time>2026-04-25T09:09:21.636Z</time></trkpt><trkpt lat="44.446145" lon="7.9507267"><ele>578.0</ele><time>2026-04-25T09:09:22.634Z</time></trkpt><trkpt lat="44.446055" lon="7.9507617"><ele>580.0</ele><time>2026-04-25T09:09:23.635Z</time></trkpt><trkpt lat="44.445975" lon="7.9507983"><ele>582.0</ele><time>2026-04-25T09:09:24.634Z</time></trkpt><trkpt lat="44.4458933" lon="7.9508333"><ele>582.0</ele><time>2026-04-25T09:09:25.638Z</time></trkpt><trkpt lat="44.4458133" lon="7.9508617"><ele>582.0</ele><time>2026-04-25T09:09:26.634Z</time></trkpt><trkpt lat="44.4457317" lon="7.9508917"><ele>582.0</ele><time>2026-04-25T09:09:27.633Z</time></trkpt><trkpt lat="44.44565" lon="7.9509217"><ele>582.0</ele><time>2026-04-25T09:09:28.634Z</time></trkpt><trkpt lat="44.4455767" lon="7.9509517"><ele>582.0</ele><time>2026-04-25T09:09:29.634Z</time></trkpt><trkpt lat="44.445495" lon="7.9509783"><ele>582.0</ele><time>2026-04-25T09:09:30.633Z</time></trkpt><trkpt lat="44.445415" lon="7.9509917"><ele>581.6666666666666</ele><time>2026-04-25T09:09:31.635Z</time></trkpt><trkpt lat="44.4453367" lon="7.9510017"><ele>581.3333333333334</ele><time>2026-04-25T09:09:32.635Z</time></trkpt><trkpt lat="44.445255" lon="7.9510067"><ele>581.0</ele><time>2026-04-25T09:09:33.632Z</time></trkpt><trkpt lat="44.4451733" lon="7.951015"><ele>580.6666666666667</ele><time>2026-04-25T09:09:34.634Z</time></trkpt><trkpt lat="44.4450933" lon="7.9510267"><ele>580.3333333333334</ele><time>2026-04-25T09:09:35.635Z</time></trkpt><trkpt lat="44.4450183" lon="7.9510317"><ele>580.0</ele><time>2026-04-25T09:09:36.635Z</time></trkpt><trkpt lat="44.4449367" lon="7.9510267"><ele>580.0</ele><time>2026-04-25T09:09:37.635Z</time></trkpt><trkpt lat="44.4448633" lon="7.95103"><ele>580.0</ele><time>2026-04-25T09:09:38.638Z</time></trkpt><trkpt lat="44.4447633" lon="7.950995"><ele>580.0</ele><time>2026-04-25T09:09:40.635Z</time></trkpt><trkpt lat="44.44474" lon="7.9508367"><ele>580.0</ele><time>2026-04-25T09:09:57.635Z</time></trkpt><trkpt lat="44.4445983" lon="7.9506967"><ele>582.1428571428571</ele><time>2026-04-25T09:10:00.633Z</time></trkpt><trkpt lat="44.444535" lon="7.950665"><ele>584.2857142857143</ele><time>2026-04-25T09:10:01.636Z</time></trkpt><trkpt lat="44.4444717" lon="7.9506433"><ele>586.4285714285714</ele><time>2026-04-25T09:10:02.635Z</time></trkpt><trkpt lat="44.4444067" lon="7.9506333"><ele>588.5714285714286</ele><time>2026-04-25T09:10:03.634Z</time></trkpt><trkpt lat="44.4443417" lon="7.9506367"><ele>590.7142857142858</ele><time>2026-04-25T09:10:04.633Z</time></trkpt><trkpt lat="44.444275" lon="7.9506467"><ele>592.8571428571429</ele><time>2026-04-25T09:10:05.636Z</time></trkpt><trkpt lat="44.4441983" lon="7.9506717"><ele>595.0</ele><time>2026-04-25T09:10:06.633Z</time></trkpt><trkpt lat="44.4441067" lon="7.9507"><ele>595.0</ele><time>2026-04-25T09:10:07.637Z</time></trkpt><trkpt lat="44.4439883" lon="7.950715"><ele>595.0</ele><time>2026-04-25T09:10:08.636Z</time></trkpt><trkpt lat="44.4438617" lon="7.950725"><ele>595.0</ele><time>2026-04-25T09:10:09.636Z</time></trkpt><trkpt lat="44.4437283" lon="7.95072"><ele>595.0</ele><time>2026-04-25T09:10:10.635Z</time></trkpt><trkpt lat="44.443605" lon="7.950695"><ele>593.4</ele><time>2026-04-25T09:10:11.633Z</time></trkpt><trkpt lat="44.443495" lon="7.9506617"><ele>591.8</ele><time>2026-04-25T09:10:12.634Z</time></trkpt><trkpt lat="44.4433967" lon="7.950625"><ele>590.2</ele><time>2026-04-25T09:10:13.634Z</time></trkpt><trkpt lat="44.443305" lon="7.9505883"><ele>588.6</ele><time>2026-04-25T09:10:14.633Z</time></trkpt><trkpt lat="44.4432133" lon="7.9505517"><ele>587.0</ele><time>2026-04-25T09:10:15.633Z</time></trkpt><trkpt lat="44.443125" lon="7.95053"><ele>587.0</ele><time>2026-04-25T09:10:16.635Z</time></trkpt><trkpt lat="44.443035" lon="7.95053"><ele>587.0</ele><time>2026-04-25T09:10:17.635Z</time></trkpt><trkpt lat="44.4429333" lon="7.950565"><ele>587.0</ele><time>2026-04-25T09:10:18.635Z</time></trkpt><trkpt lat="44.4428217" lon="7.9506283"><ele>587.0</ele><time>2026-04-25T09:10:19.637Z</time></trkpt><trkpt lat="44.4427067" lon="7.9506983"><ele>587.0</ele><time>2026-04-25T09:10:20.635Z</time></trkpt><trkpt lat="44.4425883" lon="7.950765"><ele>584.5</ele><time>2026-04-25T09:10:21.634Z</time></trkpt><trkpt lat="44.4424683" lon="7.95083"><ele>582.0</ele><time>2026-04-25T09:10:22.633Z</time></trkpt><trkpt lat="44.4423333" lon="7.9508917"><ele>579.5</ele><time>2026-04-25T09:10:23.634Z</time></trkpt><trkpt lat="44.4421883" lon="7.9509183"><ele>577.0</ele><time>2026-04-25T09:10:24.637Z</time></trkpt><trkpt lat="44.4420283" lon="7.950915"><ele>573.5</ele><time>2026-04-25T09:10:25.633Z</time></trkpt><trkpt lat="44.4418767" lon="7.9509067"><ele>570.0</ele><time>2026-04-25T09:10:26.633Z</time></trkpt><trkpt lat="44.4417417" lon="7.95091"><ele>566.5</ele><time>2026-04-25T09:10:27.633Z</time></trkpt><trkpt lat="44.4416217" lon="7.9509383"><ele>563.0</ele><time>2026-04-25T09:10:28.635Z</time></trkpt><trkpt lat="44.4415367" lon="7.9510033"><ele>563.0</ele><time>2026-04-25T09:10:29.634Z</time></trkpt><trkpt lat="44.4414767" lon="7.9510983"><ele>563.0</ele><time>2026-04-25T09:10:30.639Z</time></trkpt><trkpt lat="44.4414483" lon="7.9512117"><ele>563.0</ele><time>2026-04-25T09:10:31.634Z</time></trkpt><trkpt lat="44.4414733" lon="7.9513267"><ele>563.0</ele><time>2026-04-25T09:10:32.635Z</time></trkpt><trkpt lat="44.441525" lon="7.9514233"><ele>563.0</ele><time>2026-04-25T09:10:33.635Z</time></trkpt><trkpt lat="44.44162" lon="7.9514433"><ele>563.0</ele><time>2026-04-25T09:10:34.633Z</time></trkpt><trkpt lat="44.4417117" lon="7.951445"><ele>563.0</ele><time>2026-04-25T09:10:35.633Z</time></trkpt><trkpt lat="44.4418033" lon="7.9514267"><ele>563.0</ele><time>2026-04-25T09:10:36.642Z</time></trkpt><trkpt lat="44.4418883" lon="7.9514133"><ele>563.0</ele><time>2026-04-25T09:10:37.634Z</time></trkpt><trkpt lat="44.4419583" lon="7.9514167"><ele>563.0</ele><time>2026-04-25T09:10:38.634Z</time></trkpt><trkpt lat="44.44196" lon="7.9515483"><ele>563.0</ele><time>2026-04-25T09:10:40.636Z</time></trkpt><trkpt lat="44.441835" lon="7.9516317"><ele>563.0</ele><time>2026-04-25T09:10:42.635Z</time></trkpt><trkpt lat="44.4417433" lon="7.9516617"><ele>563.0</ele><time>2026-04-25T09:10:43.633Z</time></trkpt><trkpt lat="44.4416217" lon="7.951705"><ele>563.0</ele><time>2026-04-25T09:10:44.634Z</time></trkpt><trkpt lat="44.4414967" lon="7.951755"><ele>563.0</ele><time>2026-04-25T09:10:45.634Z</time></trkpt><trkpt lat="44.4413633" lon="7.9518183"><ele>561.0</ele><time>2026-04-25T09:10:46.634Z</time></trkpt><trkpt lat="44.4412333" lon="7.95189"><ele>559.0</ele><time>2026-04-25T09:10:47.635Z</time></trkpt><trkpt lat="44.441105" lon="7.9519633"><ele>557.0</ele><time>2026-04-25T09:10:48.634Z</time></trkpt><trkpt lat="44.4409817" lon="7.9520333"><ele>555.0</ele><time>2026-04-25T09:10:49.634Z</time></trkpt><trkpt lat="44.44086" lon="7.9520933"><ele>555.0</ele><time>2026-04-25T09:10:50.635Z</time></trkpt><trkpt lat="44.4407367" lon="7.95214"><ele>555.0</ele><time>2026-04-25T09:10:51.64Z</time></trkpt><trkpt lat="44.4406083" lon="7.9521683"><ele>555.0</ele><time>2026-04-25T09:10:52.637Z</time></trkpt><trkpt lat="44.44048" lon="7.9521867"><ele>555.0</ele><time>2026-04-25T09:10:53.634Z</time></trkpt><trkpt lat="44.4403567" lon="7.9522"><ele>555.0</ele><time>2026-04-25T09:10:54.634Z</time></trkpt><trkpt lat="44.44023" lon="7.9522033"><ele>555.0</ele><time>2026-04-25T09:10:55.635Z</time></trkpt><trkpt lat="44.4401" lon="7.9522117"><ele>555.0</ele><time>2026-04-25T09:10:56.641Z</time></trkpt><trkpt lat="44.4399767" lon="7.9522383"><ele>555.0</ele><time>2026-04-25T09:10:57.633Z</time></trkpt><trkpt lat="44.4398533" lon="7.9522867"><ele>555.0</ele><time>2026-04-25T09:10:58.636Z</time></trkpt><trkpt lat="44.43973" lon="7.952355"><ele>555.0</ele><time>2026-04-25T09:10:59.634Z</time></trkpt><trkpt lat="44.4396017" lon="7.9524233"><ele>555.0</ele><time>2026-04-25T09:11:00.634Z</time></trkpt><trkpt lat="44.43947" lon="7.95249"><ele>555.0</ele><time>2026-04-25T09:11:01.634Z</time></trkpt><trkpt lat="44.4393333" lon="7.9525617"><ele>558.75</ele><time>2026-04-25T09:11:02.635Z</time></trkpt><trkpt lat="44.4391983" lon="7.9526233"><ele>562.5</ele><time>2026-04-25T09:11:03.634Z</time></trkpt><trkpt lat="44.4390717" lon="7.9526583"><ele>566.25</ele><time>2026-04-25T09:11:04.633Z</time></trkpt><trkpt lat="44.4389533" lon="7.9526567"><ele>570.0</ele><time>2026-04-25T09:11:05.637Z</time></trkpt><trkpt lat="44.438835" lon="7.9526133"><ele>566.25</ele><time>2026-04-25T09:11:06.636Z</time></trkpt><trkpt lat="44.4387183" lon="7.952525"><ele>562.5</ele><time>2026-04-25T09:11:07.636Z</time></trkpt><trkpt lat="44.4386117" lon="7.952405"><ele>558.75</ele><time>2026-04-25T09:11:08.634Z</time></trkpt><trkpt lat="44.438525" lon="7.9522483"><ele>555.0</ele><time>2026-04-25T09:11:09.633Z</time></trkpt><trkpt lat="44.4384517" lon="7.9520817"><ele>555.0</ele><time>2026-04-25T09:11:10.632Z</time></trkpt><trkpt lat="44.438365" lon="7.9519217"><ele>555.0</ele><time>2026-04-25T09:11:11.635Z</time></trkpt><trkpt lat="44.4382633" lon="7.9517717"><ele>555.0</ele><time>2026-04-25T09:11:12.633Z</time></trkpt><trkpt lat="44.43816" lon="7.951625"><ele>555.0</ele><time>2026-04-25T09:11:13.634Z</time></trkpt><trkpt lat="44.43806" lon="7.9514817"><ele>552.5</ele><time>2026-04-25T09:11:14.633Z</time></trkpt><trkpt lat="44.43796" lon="7.9513417"><ele>550.0</ele><time>2026-04-25T09:11:15.634Z</time></trkpt><trkpt lat="44.4378567" lon="7.9512067"><ele>547.5</ele><time>2026-04-25T09:11:16.633Z</time></trkpt><trkpt lat="44.4377567" lon="7.9510667"><ele>545.0</ele><time>2026-04-25T09:11:17.636Z</time></trkpt><trkpt lat="44.4376567" lon="7.9509267"><ele>542.75</ele><time>2026-04-25T09:11:18.634Z</time></trkpt><trkpt lat="44.4375633" lon="7.9507867"><ele>540.5</ele><time>2026-04-25T09:11:19.635Z</time></trkpt><trkpt lat="44.4374683" lon="7.95065"><ele>538.25</ele><time>2026-04-25T09:11:20.636Z</time></trkpt><trkpt lat="44.437375" lon="7.9505183"><ele>536.0</ele><time>2026-04-25T09:11:21.636Z</time></trkpt><trkpt lat="44.4372867" lon="7.9503917"><ele>536.0</ele><time>2026-04-25T09:11:22.635Z</time></trkpt><trkpt lat="44.4372033" lon="7.9502683"><ele>536.0</ele><time>2026-04-25T09:11:23.639Z</time></trkpt><trkpt lat="44.437125" lon="7.9501433"><ele>536.0</ele><time>2026-04-25T09:11:24.638Z</time></trkpt><trkpt lat="44.4370633" lon="7.9500117"><ele>536.0</ele><time>2026-04-25T09:11:25.634Z</time></trkpt><trkpt lat="44.437015" lon="7.9498667"><ele>532.5</ele><time>2026-04-25T09:11:26.636Z</time></trkpt><trkpt lat="44.4369967" lon="7.949705"><ele>529.0</ele><time>2026-04-25T09:11:27.635Z</time></trkpt><trkpt lat="44.4369833" lon="7.9495417"><ele>525.5</ele><time>2026-04-25T09:11:28.635Z</time></trkpt><trkpt lat="44.43696" lon="7.949385"><ele>522.0</ele><time>2026-04-25T09:11:29.635Z</time></trkpt><trkpt lat="44.4369067" lon="7.94924"><ele>522.75</ele><time>2026-04-25T09:11:30.636Z</time></trkpt><trkpt lat="44.4368267" lon="7.949115"><ele>523.5</ele><time>2026-04-25T09:11:31.633Z</time></trkpt><trkpt lat="44.43673" lon="7.949005"><ele>524.25</ele><time>2026-04-25T09:11:32.634Z</time></trkpt><trkpt lat="44.4366183" lon="7.9489133"><ele>525.0</ele><time>2026-04-25T09:11:33.633Z</time></trkpt><trkpt lat="44.4364983" lon="7.94884"><ele>525.0</ele><time>2026-04-25T09:11:34.632Z</time></trkpt><trkpt lat="44.4363817" lon="7.9487683"><ele>525.0</ele><time>2026-04-25T09:11:35.636Z</time></trkpt><trkpt lat="44.4362717" lon="7.9487067"><ele>525.0</ele><time>2026-04-25T09:11:36.634Z</time></trkpt><trkpt lat="44.43617" lon="7.948655"><ele>525.0</ele><time>2026-04-25T09:11:37.636Z</time></trkpt><trkpt lat="44.4360717" lon="7.94862"><ele>525.2</ele><time>2026-04-25T09:11:38.638Z</time></trkpt><trkpt lat="44.4359817" lon="7.94858"><ele>525.4</ele><time>2026-04-25T09:11:39.632Z</time></trkpt><trkpt lat="44.4358967" lon="7.9485317"><ele>525.6</ele><time>2026-04-25T09:11:40.634Z</time></trkpt><trkpt lat="44.4358133" lon="7.9484717"><ele>525.8</ele><time>2026-04-25T09:11:41.633Z</time></trkpt><trkpt lat="44.4357333" lon="7.9483917"><ele>526.0</ele><time>2026-04-25T09:11:42.634Z</time></trkpt><trkpt lat="44.435655" lon="7.9482883"><ele>526.0</ele><time>2026-04-25T09:11:43.635Z</time></trkpt><trkpt lat="44.435575" lon="7.9481783"><ele>526.0</ele><time>2026-04-25T09:11:44.64Z</time></trkpt><trkpt lat="44.4354833" lon="7.9480733"><ele>526.0</ele><time>2026-04-25T09:11:45.633Z</time></trkpt><trkpt lat="44.4353917" lon="7.947975"><ele>526.0</ele><time>2026-04-25T09:11:46.633Z</time></trkpt><trkpt lat="44.4352933" lon="7.9478817"><ele>523.25</ele><time>2026-04-25T09:11:47.634Z</time></trkpt><trkpt lat="44.4351867" lon="7.9478383"><ele>520.5</ele><time>2026-04-25T09:11:48.634Z</time></trkpt><trkpt lat="44.4350567" lon="7.9478083"><ele>517.75</ele><time>2026-04-25T09:11:49.635Z</time></trkpt><trkpt lat="44.43492" lon="7.9477717"><ele>515.0</ele><time>2026-04-25T09:11:50.634Z</time></trkpt><trkpt lat="44.4347733" lon="7.9477483"><ele>512.6666666666666</ele><time>2026-04-25T09:11:51.634Z</time></trkpt><trkpt lat="44.4346133" lon="7.947715"><ele>510.33333333333337</ele><time>2026-04-25T09:11:52.634Z</time></trkpt><trkpt lat="44.4344533" lon="7.9476817"><ele>508.0</ele><time>2026-04-25T09:11:53.635Z</time></trkpt><trkpt lat="44.4343" lon="7.94765"><ele>508.0</ele><time>2026-04-25T09:11:54.633Z</time></trkpt><trkpt lat="44.43414" lon="7.94762"><ele>508.0</ele><time>2026-04-25T09:11:55.635Z</time></trkpt><trkpt lat="44.43398" lon="7.94759"><ele>508.0</ele><time>2026-04-25T09:11:56.634Z</time></trkpt><trkpt lat="44.4338217" lon="7.947575"><ele>507.25</ele><time>2026-04-25T09:11:57.634Z</time></trkpt><trkpt lat="44.4336783" lon="7.94757"><ele>506.5</ele><time>2026-04-25T09:11:58.633Z</time></trkpt><trkpt lat="44.4335517" lon="7.947575"><ele>505.75</ele><time>2026-04-25T09:11:59.634Z</time></trkpt><trkpt lat="44.43344" lon="7.94759"><ele>505.0</ele><time>2026-04-25T09:12:00.635Z</time></trkpt><trkpt lat="44.43334" lon="7.9476317"><ele>505.0</ele><time>2026-04-25T09:12:01.633Z</time></trkpt><trkpt lat="44.4332533" lon="7.9477217"><ele>505.0</ele><time>2026-04-25T09:12:02.634Z</time></trkpt><trkpt lat="44.4331533" lon="7.94784"><ele>505.0</ele><time>2026-04-25T09:12:03.635Z</time></trkpt><trkpt lat="44.43303" lon="7.9479217"><ele>505.0</ele><time>2026-04-25T09:12:04.633Z</time></trkpt><trkpt lat="44.432885" lon="7.9479533"><ele>504.25</ele><time>2026-04-25T09:12:05.633Z</time></trkpt><trkpt lat="44.4327433" lon="7.948005"><ele>503.5</ele><time>2026-04-25T09:12:06.633Z</time></trkpt><trkpt lat="44.4326117" lon="7.948095"><ele>502.75</ele><time>2026-04-25T09:12:07.633Z</time></trkpt><trkpt lat="44.4324767" lon="7.9481917"><ele>502.0</ele><time>2026-04-25T09:12:08.634Z</time></trkpt><trkpt lat="44.4323483" lon="7.9482883"><ele>499.75</ele><time>2026-04-25T09:12:09.636Z</time></trkpt><trkpt lat="44.4322233" lon="7.94838"><ele>497.5</ele><time>2026-04-25T09:12:10.635Z</time></trkpt><trkpt lat="44.4321" lon="7.9484683"><ele>495.25</ele><time>2026-04-25T09:12:11.637Z</time></trkpt><trkpt lat="44.4319817" lon="7.948555"><ele>493.0</ele><time>2026-04-25T09:12:12.636Z</time></trkpt><trkpt lat="44.431865" lon="7.94864"><ele>493.0</ele><time>2026-04-25T09:12:13.635Z</time></trkpt><trkpt lat="44.431755" lon="7.9487033"><ele>492.99999999999994</ele><time>2026-04-25T09:12:14.634Z</time></trkpt><trkpt lat="44.4316517" lon="7.948765"><ele>492.99999999999994</ele><time>2026-04-25T09:12:15.634Z</time></trkpt><trkpt lat="44.4315517" lon="7.9488033"><ele>493.0</ele><time>2026-04-25T09:12:16.634Z</time></trkpt><trkpt lat="44.431445" lon="7.9488533"><ele>493.0</ele><time>2026-04-25T09:12:17.634Z</time></trkpt><trkpt lat="44.4313517" lon="7.9489033"><ele>492.79999999999995</ele><time>2026-04-25T09:12:18.634Z</time></trkpt><trkpt lat="44.431275" lon="7.9489917"><ele>492.59999999999997</ele><time>2026-04-25T09:12:19.632Z</time></trkpt><trkpt lat="44.4312017" lon="7.949105"><ele>492.40000000000003</ele><time>2026-04-25T09:12:20.635Z</time></trkpt><trkpt lat="44.4311333" lon="7.949235"><ele>492.20000000000005</ele><time>2026-04-25T09:12:21.634Z</time></trkpt><trkpt lat="44.4310617" lon="7.9493767"><ele>492.0</ele><time>2026-04-25T09:12:22.634Z</time></trkpt><trkpt lat="44.4309967" lon="7.949505"><ele>491.6</ele><time>2026-04-25T09:12:23.633Z</time></trkpt><trkpt lat="44.43093" lon="7.94964"><ele>491.20000000000005</ele><time>2026-04-25T09:12:24.634Z</time></trkpt><trkpt lat="44.43086" lon="7.9497717"><ele>490.8</ele><time>2026-04-25T09:12:25.635Z</time></trkpt><trkpt lat="44.4307867" lon="7.9498667"><ele>490.4</ele><time>2026-04-25T09:12:26.636Z</time></trkpt><trkpt lat="44.4306917" lon="7.9499367"><ele>490.0</ele><time>2026-04-25T09:12:27.639Z</time></trkpt><trkpt lat="44.4305817" lon="7.9499883"><ele>490.00000000000006</ele><time>2026-04-25T09:12:28.638Z</time></trkpt><trkpt lat="44.4304833" lon="7.950015"><ele>490.0</ele><time>2026-04-25T09:12:29.634Z</time></trkpt><trkpt lat="44.430415" lon="7.9500033"><ele>490.0</ele><time>2026-04-25T09:12:30.634Z</time></trkpt><trkpt lat="44.4303133" lon="7.95"><ele>490.0</ele><time>2026-04-25T09:12:32.636Z</time></trkpt><trkpt lat="44.4302617" lon="7.9500817"><ele>490.00000000000006</ele><time>2026-04-25T09:12:34.634Z</time></trkpt><trkpt lat="44.4303233" lon="7.9501733"><ele>490.0</ele><time>2026-04-25T09:12:36.723Z</time></trkpt><trkpt lat="44.430415" lon="7.950185"><ele>486.6</ele><time>2026-04-25T09:12:38.635Z</time></trkpt><trkpt lat="44.4305117" lon="7.950165"><ele>483.2</ele><time>2026-04-25T09:12:40.634Z</time></trkpt><trkpt lat="44.4306233" lon="7.950145"><ele>479.79999999999995</ele><time>2026-04-25T09:12:42.637Z</time></trkpt><trkpt lat="44.4307383" lon="7.9501283"><ele>476.4</ele><time>2026-04-25T09:12:44.636Z</time></trkpt><trkpt lat="44.43084" lon="7.9501033"><ele>473.0</ele><time>2026-04-25T09:12:46.633Z</time></trkpt><trkpt lat="44.4309517" lon="7.9500617"><ele>473.28571428571433</ele><time>2026-04-25T09:12:48.634Z</time></trkpt><trkpt lat="44.4310133" lon="7.9500233"><ele>473.57142857142856</ele><time>2026-04-25T09:12:49.635Z</time></trkpt><trkpt lat="44.4310733" lon="7.949975"><ele>473.8571428571429</ele><time>2026-04-25T09:12:50.634Z</time></trkpt><trkpt lat="44.4311283" lon="7.94992"><ele>474.14285714285717</ele><time>2026-04-25T09:12:51.634Z</time></trkpt><trkpt lat="44.4311867" lon="7.9498567"><ele>474.42857142857144</ele><time>2026-04-25T09:12:52.635Z</time></trkpt><trkpt lat="44.4312467" lon="7.9497833"><ele>474.7142857142857</ele><time>2026-04-25T09:12:53.633Z</time></trkpt><trkpt lat="44.4313" lon="7.9497167"><ele>475.0</ele><time>2026-04-25T09:12:54.64Z</time></trkpt><trkpt lat="44.4313567" lon="7.9496583"><ele>475.00000000000006</ele><time>2026-04-25T09:12:55.634Z</time></trkpt><trkpt lat="44.4314317" lon="7.949675"><ele>475.0</ele><time>2026-04-25T09:12:57.635Z</time></trkpt><trkpt lat="44.43143" lon="7.94983"><ele>475.0</ele><time>2026-04-25T09:12:59.635Z</time></trkpt><trkpt lat="44.431385" lon="7.9499033"><ele>475.0</ele><time>2026-04-25T09:13:00.634Z</time></trkpt><trkpt lat="44.4313217" lon="7.9499733"><ele>475.00000000000006</ele><time>2026-04-25T09:13:01.638Z</time></trkpt><trkpt lat="44.431235" lon="7.9500567"><ele>475.0</ele><time>2026-04-25T09:13:02.634Z</time></trkpt><trkpt lat="44.4311333" lon="7.95016"><ele>474.5</ele><time>2026-04-25T09:13:03.633Z</time></trkpt><trkpt lat="44.4310367" lon="7.9502567"><ele>474.0</ele><time>2026-04-25T09:13:04.634Z</time></trkpt><trkpt lat="44.43094" lon="7.9503517"><ele>473.5</ele><time>2026-04-25T09:13:05.635Z</time></trkpt><trkpt lat="44.4308483" lon="7.9504483"><ele>473.0</ele><time>2026-04-25T09:13:06.637Z</time></trkpt><trkpt lat="44.43076" lon="7.9505517"><ele>473.0</ele><time>2026-04-25T09:13:07.637Z</time></trkpt><trkpt lat="44.430685" lon="7.9506617"><ele>473.0</ele><time>2026-04-25T09:13:08.639Z</time></trkpt><trkpt lat="44.430615" lon="7.9507783"><ele>473.0</ele><time>2026-04-25T09:13:09.635Z</time></trkpt><trkpt lat="44.4305417" lon="7.9509067"><ele>473.0</ele><time>2026-04-25T09:13:10.635Z</time></trkpt><trkpt lat="44.4304617" lon="7.9510267"><ele>470.5</ele><time>2026-04-25T09:13:11.635Z</time></trkpt><trkpt lat="44.4303633" lon="7.95114"><ele>468.0</ele><time>2026-04-25T09:13:12.636Z</time></trkpt><trkpt lat="44.4302517" lon="7.9512517"><ele>465.5</ele><time>2026-04-25T09:13:13.634Z</time></trkpt><trkpt lat="44.4301367" lon="7.9513667"><ele>463.0</ele><time>2026-04-25T09:13:14.635Z</time></trkpt><trkpt lat="44.4300317" lon="7.95147"><ele>463.0</ele><time>2026-04-25T09:13:15.636Z</time></trkpt><trkpt lat="44.42993" lon="7.9515817"><ele>463.0</ele><time>2026-04-25T09:13:16.634Z</time></trkpt><trkpt lat="44.42983" lon="7.951705"><ele>463.0</ele><time>2026-04-25T09:13:17.639Z</time></trkpt><trkpt lat="44.429735" lon="7.9518533"><ele>463.0</ele><time>2026-04-25T09:13:18.637Z</time></trkpt><trkpt lat="44.4296433" lon="7.9520133"><ele>460.0</ele><time>2026-04-25T09:13:19.635Z</time></trkpt><trkpt lat="44.4295617" lon="7.9521667"><ele>457.0</ele><time>2026-04-25T09:13:20.635Z</time></trkpt><trkpt lat="44.4294833" lon="7.9523067"><ele>454.0</ele><time>2026-04-25T09:13:21.636Z</time></trkpt><trkpt lat="44.4294133" lon="7.952435"><ele>451.0</ele><time>2026-04-25T09:13:22.637Z</time></trkpt><trkpt lat="44.4293517" lon="7.952545"><ele>451.00000000000006</ele><time>2026-04-25T09:13:23.635Z</time></trkpt><trkpt lat="44.4292933" lon="7.9526267"><ele>451.0</ele><time>2026-04-25T09:13:24.641Z</time></trkpt><trkpt lat="44.4292333" lon="7.9527083"><ele>451.0</ele><time>2026-04-25T09:13:25.635Z</time></trkpt><trkpt lat="44.42917" lon="7.95271"><ele>451.0</ele><time>2026-04-25T09:13:26.634Z</time></trkpt><trkpt lat="44.4291033" lon="7.95257"><ele>451.00000000000006</ele><time>2026-04-25T09:13:28.634Z</time></trkpt><trkpt lat="44.429105" lon="7.9524583"><ele>451.0</ele><time>2026-04-25T09:13:29.634Z</time></trkpt><trkpt lat="44.4291333" lon="7.95232"><ele>451.0</ele><time>2026-04-25T09:13:30.634Z</time></trkpt><trkpt lat="44.429185" lon="7.9521517"><ele>451.0</ele><time>2026-04-25T09:13:31.636Z</time></trkpt><trkpt lat="44.42924" lon="7.9519683"><ele>451.0</ele><time>2026-04-25T09:13:32.636Z</time></trkpt><trkpt lat="44.4292917" lon="7.9517883"><ele>451.0</ele><time>2026-04-25T09:13:33.634Z</time></trkpt><trkpt lat="44.42934" lon="7.9516033"><ele>450.0</ele><time>2026-04-25T09:13:34.634Z</time></trkpt><trkpt lat="44.4293933" lon="7.9514167"><ele>449.0</ele><time>2026-04-25T09:13:35.634Z</time></trkpt><trkpt lat="44.429445" lon="7.951225"><ele>448.0</ele><time>2026-04-25T09:13:36.633Z</time></trkpt><trkpt lat="44.42949" lon="7.9510267"><ele>447.0</ele><time>2026-04-25T09:13:37.634Z</time></trkpt><trkpt lat="44.4295233" lon="7.950825"><ele>444.0</ele><time>2026-04-25T09:13:38.635Z</time></trkpt><trkpt lat="44.4295467" lon="7.950625"><ele>441.0</ele><time>2026-04-25T09:13:39.634Z</time></trkpt><trkpt lat="44.4295517" lon="7.950425"><ele>438.0</ele><time>2026-04-25T09:13:40.634Z</time></trkpt><trkpt lat="44.4295333" lon="7.9502167"><ele>435.0</ele><time>2026-04-25T09:13:41.633Z</time></trkpt><trkpt lat="44.4295033" lon="7.9500033"><ele>433.6</ele><time>2026-04-25T09:13:42.634Z</time></trkpt><trkpt lat="44.4294833" lon="7.9498067"><ele>432.2</ele><time>2026-04-25T09:13:43.634Z</time></trkpt><trkpt lat="44.42949" lon="7.94965"><ele>430.79999999999995</ele><time>2026-04-25T09:13:44.635Z</time></trkpt><trkpt lat="44.4295233" lon="7.9495333"><ele>429.4</ele><time>2026-04-25T09:13:45.634Z</time></trkpt><trkpt lat="44.4295517" lon="7.949445"><ele>428.0</ele><time>2026-04-25T09:13:46.634Z</time></trkpt><trkpt lat="44.42954" lon="7.9493333"><ele>427.99999999999994</ele><time>2026-04-25T09:13:48.635Z</time></trkpt><trkpt lat="44.4294717" lon="7.9493383"><ele>428.0</ele><time>2026-04-25T09:13:50.635Z</time></trkpt><trkpt lat="44.429425" lon="7.9494"><ele>428.0</ele><time>2026-04-25T09:14:20.634Z</time></trkpt><trkpt lat="44.429395" lon="7.9494967"><ele>428.0</ele><time>2026-04-25T09:14:22.634Z</time></trkpt><trkpt lat="44.4293783" lon="7.9496"><ele>427.99999999999994</ele><time>2026-04-25T09:14:24.633Z</time></trkpt><trkpt lat="44.42937" lon="7.9497717"><ele>428.0</ele><time>2026-04-25T09:14:26.634Z</time></trkpt><trkpt lat="44.4293633" lon="7.9498767"><ele>428.0</ele><time>2026-04-25T09:14:27.633Z</time></trkpt><trkpt lat="44.42936" lon="7.9499883"><ele>427.99999999999994</ele><time>2026-04-25T09:14:28.634Z</time></trkpt><trkpt lat="44.4293567" lon="7.9501083"><ele>427.99999999999994</ele><time>2026-04-25T09:14:29.637Z</time></trkpt><trkpt lat="44.42935" lon="7.95024"><ele>428.0</ele><time>2026-04-25T09:14:30.638Z</time></trkpt><trkpt lat="44.4293383" lon="7.95038"><ele>428.0</ele><time>2026-04-25T09:14:31.635Z</time></trkpt><trkpt lat="44.4292983" lon="7.950535"><ele>429.75</ele><time>2026-04-25T09:14:32.636Z</time></trkpt><trkpt lat="44.42924" lon="7.9506967"><ele>431.5</ele><time>2026-04-25T09:14:33.633Z</time></trkpt><trkpt lat="44.42916" lon="7.9508733"><ele>433.25</ele><time>2026-04-25T09:14:34.637Z</time></trkpt><trkpt lat="44.4290717" lon="7.9510667"><ele>435.0</ele><time>2026-04-25T09:14:35.635Z</time></trkpt><trkpt lat="44.42898" lon="7.9512733"><ele>439.0</ele><time>2026-04-25T09:14:36.634Z</time></trkpt><trkpt lat="44.428885" lon="7.95148"><ele>443.0</ele><time>2026-04-25T09:14:37.635Z</time></trkpt><trkpt lat="44.4287917" lon="7.9516967"><ele>447.0</ele><time>2026-04-25T09:14:38.635Z</time></trkpt><trkpt lat="44.4287083" lon="7.9519217"><ele>436.66666666666663</ele><time>2026-04-25T09:14:39.633Z</time></trkpt><trkpt lat="44.4286383" lon="7.95215"><ele>426.3333333333333</ele><time>2026-04-25T09:14:40.634Z</time></trkpt><trkpt lat="44.4285783" lon="7.9523917"><ele>416.0</ele><time>2026-04-25T09:14:41.633Z</time></trkpt><trkpt lat="44.4285233" lon="7.9526383"><ele>416.0</ele><time>2026-04-25T09:14:42.634Z</time></trkpt><trkpt lat="44.4284733" lon="7.9528683"><ele>416.0</ele><time>2026-04-25T09:14:43.633Z</time></trkpt><trkpt lat="44.4284317" lon="7.9530733"><ele>416.0</ele><time>2026-04-25T09:14:44.634Z</time></trkpt><trkpt lat="44.4284" lon="7.9532533"><ele>414.0</ele><time>2026-04-25T09:14:45.636Z</time></trkpt><trkpt lat="44.4283833" lon="7.9534183"><ele>412.0</ele><time>2026-04-25T09:14:46.636Z</time></trkpt><trkpt lat="44.4283867" lon="7.953565"><ele>410.0</ele><time>2026-04-25T09:14:47.635Z</time></trkpt><trkpt lat="44.42841" lon="7.9536767"><ele>408.0</ele><time>2026-04-25T09:14:48.634Z</time></trkpt><trkpt lat="44.4284233" lon="7.95377"><ele>406.0</ele><time>2026-04-25T09:14:49.636Z</time></trkpt><trkpt lat="44.428355" lon="7.9538417"><ele>406.0</ele><time>2026-04-25T09:14:51.635Z</time></trkpt><trkpt lat="44.4282833" lon="7.9537"><ele>406.0</ele><time>2026-04-25T09:14:53.634Z</time></trkpt><trkpt lat="44.4282733" lon="7.9535583"><ele>406.0</ele><time>2026-04-25T09:14:54.634Z</time></trkpt><trkpt lat="44.4282683" lon="7.9533983"><ele>406.0</ele><time>2026-04-25T09:14:55.634Z</time></trkpt><trkpt lat="44.42827" lon="7.9532083"><ele>408.25</ele><time>2026-04-25T09:14:56.635Z</time></trkpt><trkpt lat="44.4282783" lon="7.9530033"><ele>410.5</ele><time>2026-04-25T09:14:57.634Z</time></trkpt><trkpt lat="44.42829" lon="7.9527933"><ele>412.75</ele><time>2026-04-25T09:14:58.632Z</time></trkpt><trkpt lat="44.4283" lon="7.9525917"><ele>415.0</ele><time>2026-04-25T09:14:59.638Z</time></trkpt><trkpt lat="44.4283117" lon="7.9524067"><ele>415.0</ele><time>2026-04-25T09:15:00.633Z</time></trkpt><trkpt lat="44.42832" lon="7.9522283"><ele>415.0</ele><time>2026-04-25T09:15:01.634Z</time></trkpt><trkpt lat="44.4283317" lon="7.9520517"><ele>415.0</ele><time>2026-04-25T09:15:02.633Z</time></trkpt><trkpt lat="44.428355" lon="7.9518583"><ele>415.0</ele><time>2026-04-25T09:15:03.634Z</time></trkpt><trkpt lat="44.4283867" lon="7.9516483"><ele>412.33333333333337</ele><time>2026-04-25T09:15:04.633Z</time></trkpt><trkpt lat="44.4284267" lon="7.9514267"><ele>409.66666666666663</ele><time>2026-04-25T09:15:05.633Z</time></trkpt><trkpt lat="44.4284633" lon="7.951215"><ele>407.0</ele><time>2026-04-25T09:15:06.634Z</time></trkpt><trkpt lat="44.4285017" lon="7.951025"><ele>405.40000000000003</ele><time>2026-04-25T09:15:07.634Z</time></trkpt><trkpt lat="44.4285367" lon="7.9508583"><ele>403.8</ele><time>2026-04-25T09:15:08.645Z</time></trkpt><trkpt lat="44.4285667" lon="7.9507133"><ele>402.2</ele><time>2026-04-25T09:15:09.634Z</time></trkpt><trkpt lat="44.428595" lon="7.950575"><ele>400.6</ele><time>2026-04-25T09:15:10.638Z</time></trkpt><trkpt lat="44.428625" lon="7.9504367"><ele>399.0</ele><time>2026-04-25T09:15:11.635Z</time></trkpt><trkpt lat="44.4286533" lon="7.95029"><ele>399.0</ele><time>2026-04-25T09:15:12.636Z</time></trkpt><trkpt lat="44.428675" lon="7.950115"><ele>399.0</ele><time>2026-04-25T09:15:13.634Z</time></trkpt><trkpt lat="44.4286833" lon="7.9499167"><ele>399.0</ele><time>2026-04-25T09:15:14.636Z</time></trkpt><trkpt lat="44.4286783" lon="7.9496967"><ele>399.0</ele><time>2026-04-25T09:15:15.633Z</time></trkpt><trkpt lat="44.4286883" lon="7.9494683"><ele>398.2</ele><time>2026-04-25T09:15:16.633Z</time></trkpt><trkpt lat="44.4287067" lon="7.94927"><ele>397.4</ele><time>2026-04-25T09:15:17.635Z</time></trkpt><trkpt lat="44.4287333" lon="7.9491117"><ele>396.6</ele><time>2026-04-25T09:15:18.635Z</time></trkpt><trkpt lat="44.4287633" lon="7.9489917"><ele>395.8</ele><time>2026-04-25T09:15:19.638Z</time></trkpt><trkpt lat="44.428785" lon="7.9489033"><ele>395.0</ele><time>2026-04-25T09:15:20.635Z</time></trkpt><trkpt lat="44.4287783" lon="7.948775"><ele>395.0</ele><time>2026-04-25T09:15:22.635Z</time></trkpt><trkpt lat="44.4286917" lon="7.9488083"><ele>395.0</ele><time>2026-04-25T09:15:24.634Z</time></trkpt><trkpt lat="44.42863" lon="7.9490067"><ele>395.0</ele><time>2026-04-25T09:15:26.634Z</time></trkpt><trkpt lat="44.42859" lon="7.9491467"><ele>395.0</ele><time>2026-04-25T09:15:27.634Z</time></trkpt><trkpt lat="44.4285483" lon="7.9493133"><ele>395.0</ele><time>2026-04-25T09:15:28.636Z</time></trkpt><trkpt lat="44.428495" lon="7.9495017"><ele>395.0</ele><time>2026-04-25T09:15:29.636Z</time></trkpt><trkpt lat="44.4284383" lon="7.9497117"><ele>395.0</ele><time>2026-04-25T09:15:30.635Z</time></trkpt><trkpt lat="44.4283683" lon="7.9499433"><ele>396.3333333333333</ele><time>2026-04-25T09:15:31.633Z</time></trkpt><trkpt lat="44.4282867" lon="7.950185"><ele>397.66666666666663</ele><time>2026-04-25T09:15:32.635Z</time></trkpt><trkpt lat="44.4282" lon="7.9504383"><ele>399.0</ele><time>2026-04-25T09:15:33.634Z</time></trkpt><trkpt lat="44.4281083" lon="7.9507033"><ele>401.66666666666663</ele><time>2026-04-25T09:15:34.635Z</time></trkpt><trkpt lat="44.4280117" lon="7.950975"><ele>404.3333333333333</ele><time>2026-04-25T09:15:35.634Z</time></trkpt><trkpt lat="44.4279183" lon="7.9512683"><ele>407.0</ele><time>2026-04-25T09:15:36.635Z</time></trkpt><trkpt lat="44.4278367" lon="7.951575"><ele>393.0</ele><time>2026-04-25T09:15:37.635Z</time></trkpt><trkpt lat="44.4277617" lon="7.9518917"><ele>379.0</ele><time>2026-04-25T09:15:38.635Z</time></trkpt><trkpt lat="44.4276883" lon="7.9521817"><ele>379.0</ele><time>2026-04-25T09:15:39.636Z</time></trkpt><trkpt lat="44.4276183" lon="7.9524367"><ele>379.0</ele><time>2026-04-25T09:15:40.634Z</time></trkpt><trkpt lat="44.427555" lon="7.9526567"><ele>379.0</ele><time>2026-04-25T09:15:41.633Z</time></trkpt><trkpt lat="44.4274983" lon="7.9528417"><ele>378.75</ele><time>2026-04-25T09:15:42.639Z</time></trkpt><trkpt lat="44.4274567" lon="7.9530083"><ele>378.5</ele><time>2026-04-25T09:15:43.633Z</time></trkpt><trkpt lat="44.4274417" lon="7.9531833"><ele>378.25</ele><time>2026-04-25T09:15:44.634Z</time></trkpt><trkpt lat="44.4274517" lon="7.9533783"><ele>378.0</ele><time>2026-04-25T09:15:45.634Z</time></trkpt><trkpt lat="44.4274933" lon="7.9535983"><ele>374.6666666666667</ele><time>2026-04-25T09:15:46.635Z</time></trkpt><trkpt lat="44.42755" lon="7.95383"><ele>371.33333333333337</ele><time>2026-04-25T09:15:47.635Z</time></trkpt><trkpt lat="44.4276067" lon="7.954055"><ele>368.0</ele><time>2026-04-25T09:15:48.633Z</time></trkpt><trkpt lat="44.4276533" lon="7.954255"><ele>365.0</ele><time>2026-04-25T09:15:49.638Z</time></trkpt><trkpt lat="44.4277" lon="7.9544233"><ele>362.0</ele><time>2026-04-25T09:15:50.634Z</time></trkpt><trkpt lat="44.4277483" lon="7.954565"><ele>359.0</ele><time>2026-04-25T09:15:51.636Z</time></trkpt><trkpt lat="44.4277967" lon="7.9547033"><ele>356.0</ele><time>2026-04-25T09:15:52.634Z</time></trkpt><trkpt lat="44.4278433" lon="7.95482"><ele>353.0</ele><time>2026-04-25T09:15:53.635Z</time></trkpt><trkpt lat="44.42788" lon="7.9548967"><ele>353.0</ele><time>2026-04-25T09:15:54.635Z</time></trkpt><trkpt lat="44.4278117" lon="7.9549767"><ele>353.0</ele><time>2026-04-25T09:15:56.635Z</time></trkpt><trkpt lat="44.427715" lon="7.954855"><ele>353.0</ele><time>2026-04-25T09:15:58.637Z</time></trkpt><trkpt lat="44.4276617" lon="7.954735"><ele>353.0</ele><time>2026-04-25T09:15:59.634Z</time></trkpt><trkpt lat="44.4276033" lon="7.9545733"><ele>353.0</ele><time>2026-04-25T09:16:00.636Z</time></trkpt><trkpt lat="44.427535" lon="7.9543933"><ele>353.0</ele><time>2026-04-25T09:16:01.637Z</time></trkpt><trkpt lat="44.4274533" lon="7.9542067"><ele>353.0</ele><time>2026-04-25T09:16:02.637Z</time></trkpt><trkpt lat="44.42737" lon="7.9539983"><ele>353.0</ele><time>2026-04-25T09:16:03.635Z</time></trkpt><trkpt lat="44.427275" lon="7.953785"><ele>351.0</ele><time>2026-04-25T09:16:04.634Z</time></trkpt><trkpt lat="44.4271583" lon="7.9535783"><ele>349.0</ele><time>2026-04-25T09:16:05.635Z</time></trkpt><trkpt lat="44.4270333" lon="7.9533617"><ele>347.0</ele><time>2026-04-25T09:16:06.635Z</time></trkpt><trkpt lat="44.4269067" lon="7.9531267"><ele>347.0</ele><time>2026-04-25T09:16:07.637Z</time></trkpt><trkpt lat="44.4267933" lon="7.95286"><ele>347.0</ele><time>2026-04-25T09:16:08.634Z</time></trkpt><trkpt lat="44.4267" lon="7.9526"><ele>347.0</ele><time>2026-04-25T09:16:09.633Z</time></trkpt><trkpt lat="44.426615" lon="7.952375"><ele>348.5</ele><time>2026-04-25T09:16:10.634Z</time></trkpt><trkpt lat="44.426525" lon="7.9521867"><ele>350.0</ele><time>2026-04-25T09:16:11.635Z</time></trkpt><trkpt lat="44.4264317" lon="7.9520467"><ele>351.5</ele><time>2026-04-25T09:16:12.634Z</time></trkpt><trkpt lat="44.4263383" lon="7.951925"><ele>353.0</ele><time>2026-04-25T09:16:13.634Z</time></trkpt><trkpt lat="44.4262467" lon="7.9518033"><ele>350.5</ele><time>2026-04-25T09:16:14.635Z</time></trkpt><trkpt lat="44.4261583" lon="7.951665"><ele>348.0</ele><time>2026-04-25T09:16:15.634Z</time></trkpt><trkpt lat="44.42608" lon="7.951505"><ele>345.5</ele><time>2026-04-25T09:16:16.637Z</time></trkpt><trkpt lat="44.4260017" lon="7.9513233"><ele>343.0</ele><time>2026-04-25T09:16:17.635Z</time></trkpt><trkpt lat="44.4259183" lon="7.9511333"><ele>343.0</ele><time>2026-04-25T09:16:18.636Z</time></trkpt><trkpt lat="44.4258333" lon="7.9509483"><ele>343.0</ele><time>2026-04-25T09:16:19.636Z</time></trkpt><trkpt lat="44.4257583" lon="7.95078"><ele>343.0</ele><time>2026-04-25T09:16:20.637Z</time></trkpt><trkpt lat="44.425705" lon="7.9506367"><ele>343.0</ele><time>2026-04-25T09:16:21.634Z</time></trkpt><trkpt lat="44.4256733" lon="7.9505467"><ele>342.66666666666663</ele><time>2026-04-25T09:16:22.633Z</time></trkpt><trkpt lat="44.4255917" lon="7.950585"><ele>342.3333333333333</ele><time>2026-04-25T09:16:35.633Z</time></trkpt><trkpt lat="44.4254867" lon="7.9506117"><ele>342.0</ele><time>2026-04-25T09:16:37.638Z</time></trkpt><trkpt lat="44.42541" lon="7.950605"><ele>341.6666666666667</ele><time>2026-04-25T09:16:39.635Z</time></trkpt><trkpt lat="44.425315" lon="7.950565"><ele>341.33333333333337</ele><time>2026-04-25T09:16:41.634Z</time></trkpt><trkpt lat="44.4252533" lon="7.9505317"><ele>341.0</ele><time>2026-04-25T09:16:42.638Z</time></trkpt><trkpt lat="44.42514" lon="7.950455"><ele>341.0</ele><time>2026-04-25T09:16:44.636Z</time></trkpt><trkpt lat="44.4250767" lon="7.9504117"><ele>341.0</ele><time>2026-04-25T09:16:45.635Z</time></trkpt><trkpt lat="44.425005" lon="7.95036"><ele>341.0</ele><time>2026-04-25T09:16:46.634Z</time></trkpt><trkpt lat="44.4249267" lon="7.9503"><ele>341.0</ele><time>2026-04-25T09:16:47.636Z</time></trkpt><trkpt lat="44.4248467" lon="7.950235"><ele>341.0</ele><time>2026-04-25T09:16:48.635Z</time></trkpt><trkpt lat="44.4247683" lon="7.9501717"><ele>341.0</ele><time>2026-04-25T09:16:49.634Z</time></trkpt><trkpt lat="44.4247017" lon="7.9501117"><ele>341.0</ele><time>2026-04-25T09:16:50.637Z</time></trkpt><trkpt lat="44.4246333" lon="7.9500483"><ele>341.0</ele><time>2026-04-25T09:16:52.634Z</time></trkpt><trkpt lat="44.42458" lon="7.9499583"><ele>341.0</ele><time>2026-04-25T09:17:07.634Z</time></trkpt><trkpt lat="44.424615" lon="7.9500417"><ele>341.0</ele><time>2026-04-25T09:17:14.636Z</time></trkpt><trkpt lat="44.4246817" lon="7.950105"><ele>341.0</ele><time>2026-04-25T09:17:15.635Z</time></trkpt><trkpt lat="44.4247667" lon="7.9501783"><ele>341.0</ele><time>2026-04-25T09:17:16.635Z</time></trkpt><trkpt lat="44.4248617" lon="7.9502517"><ele>341.0</ele><time>2026-04-25T09:17:17.643Z</time></trkpt><trkpt lat="44.424955" lon="7.95033"><ele>341.0</ele><time>2026-04-25T09:17:18.637Z</time></trkpt><trkpt lat="44.425045" lon="7.9503967"><ele>341.0</ele><time>2026-04-25T09:17:19.637Z</time></trkpt><trkpt lat="44.4251333" lon="7.9504567"><ele>341.0</ele><time>2026-04-25T09:17:20.634Z</time></trkpt><trkpt lat="44.42522" lon="7.9505133"><ele>341.0</ele><time>2026-04-25T09:17:21.635Z</time></trkpt><trkpt lat="44.425295" lon="7.9505633"><ele>341.0</ele><time>2026-04-25T09:17:22.634Z</time></trkpt><trkpt lat="44.425365" lon="7.9505967"><ele>341.0</ele><time>2026-04-25T09:17:23.635Z</time></trkpt><trkpt lat="44.4254383" lon="7.9506167"><ele>341.0</ele><time>2026-04-25T09:17:24.635Z</time></trkpt><trkpt lat="44.4255033" lon="7.9506217"><ele>341.0</ele><time>2026-04-25T09:17:25.647Z</time></trkpt><trkpt lat="44.4256017" lon="7.9505967"><ele>341.0</ele><time>2026-04-25T09:17:27.634Z</time></trkpt><trkpt lat="44.4256817" lon="7.9505717"><ele>341.0</ele><time>2026-04-25T09:17:34.634Z</time></trkpt><trkpt lat="44.4257167" lon="7.95066"><ele>341.5</ele><time>2026-04-25T09:17:35.634Z</time></trkpt><trkpt lat="44.4257717" lon="7.9508017"><ele>342.0</ele><time>2026-04-25T09:17:36.634Z</time></trkpt><trkpt lat="44.4258433" lon="7.9509667"><ele>342.5</ele><time>2026-04-25T09:17:37.636Z</time></trkpt><trkpt lat="44.4259033" lon="7.9511167"><ele>343.0</ele><time>2026-04-25T09:17:38.634Z</time></trkpt><trkpt lat="44.4259517" lon="7.9512417"><ele>343.0</ele><time>2026-04-25T09:17:39.633Z</time></trkpt><trkpt lat="44.4259983" lon="7.95135"><ele>343.0</ele><time>2026-04-25T09:17:40.634Z</time></trkpt><trkpt lat="44.4260317" lon="7.9514417"><ele>343.0</ele><time>2026-04-25T09:17:41.634Z</time></trkpt><trkpt lat="44.4260767" lon="7.9515683"><ele>343.0</ele><time>2026-04-25T09:17:43.634Z</time></trkpt><trkpt lat="44.426105" lon="7.95167"><ele>343.0</ele><time>2026-04-25T09:17:46.635Z</time></trkpt><trkpt lat="44.4261417" lon="7.951775"><ele>343.0</ele><time>2026-04-25T09:17:54.633Z</time></trkpt><trkpt lat="44.4261317" lon="7.951865"><ele>342.3333333333333</ele><time>2026-04-25T09:17:55.634Z</time></trkpt><trkpt lat="44.4261333" lon="7.9519567"><ele>341.66666666666663</ele><time>2026-04-25T09:17:56.636Z</time></trkpt><trkpt lat="44.4261617" lon="7.9520667"><ele>341.0</ele><time>2026-04-25T09:17:57.635Z</time></trkpt><trkpt lat="44.4261967" lon="7.95218"><ele>340.3333333333333</ele><time>2026-04-25T09:17:58.634Z</time></trkpt><trkpt lat="44.42622" lon="7.9523067"><ele>339.6666666666667</ele><time>2026-04-25T09:17:59.634Z</time></trkpt><trkpt lat="44.4262317" lon="7.9524367"><ele>339.0</ele><time>2026-04-25T09:18:00.634Z</time></trkpt><trkpt lat="44.4262233" lon="7.9525767"><ele>338.4</ele><time>2026-04-25T09:18:01.635Z</time></trkpt><trkpt lat="44.4262117" lon="7.9527167"><ele>337.79999999999995</ele><time>2026-04-25T09:18:02.635Z</time></trkpt><trkpt lat="44.4262183" lon="7.95286"><ele>337.20000000000005</ele><time>2026-04-25T09:18:03.634Z</time></trkpt><trkpt lat="44.4262533" lon="7.9530167"><ele>336.6</ele><time>2026-04-25T09:18:04.638Z</time></trkpt><trkpt lat="44.426305" lon="7.9531783"><ele>336.0</ele><time>2026-04-25T09:18:05.634Z</time></trkpt><trkpt lat="44.426365" lon="7.9533517"><ele>337.3333333333333</ele><time>2026-04-25T09:18:06.635Z</time></trkpt><trkpt lat="44.42643" lon="7.9535417"><ele>338.66666666666663</ele><time>2026-04-25T09:18:07.634Z</time></trkpt><trkpt lat="44.4265017" lon="7.9537483"><ele>340.0</ele><time>2026-04-25T09:18:08.634Z</time></trkpt><trkpt lat="44.4265833" lon="7.9539583"><ele>340.0</ele><time>2026-04-25T09:18:09.638Z</time></trkpt><trkpt lat="44.426675" lon="7.95418"><ele>340.0</ele><time>2026-04-25T09:18:10.634Z</time></trkpt><trkpt lat="44.4267733" lon="7.9544133"><ele>340.0</ele><time>2026-04-25T09:18:11.637Z</time></trkpt><trkpt lat="44.426875" lon="7.9546567"><ele>339.66666666666663</ele><time>2026-04-25T09:18:12.634Z</time></trkpt><trkpt lat="44.4269817" lon="7.9549133"><ele>339.3333333333333</ele><time>2026-04-25T09:18:13.637Z</time></trkpt><trkpt lat="44.4270917" lon="7.9551817"><ele>339.0</ele><time>2026-04-25T09:18:14.638Z</time></trkpt><trkpt lat="44.4272067" lon="7.9554517"><ele>339.0</ele><time>2026-04-25T09:18:15.635Z</time></trkpt><trkpt lat="44.4273267" lon="7.955725"><ele>339.0</ele><time>2026-04-25T09:18:16.634Z</time></trkpt><trkpt lat="44.4274517" lon="7.956005"><ele>336.5</ele><time>2026-04-25T09:18:17.634Z</time></trkpt><trkpt lat="44.427575" lon="7.95629"><ele>334.0</ele><time>2026-04-25T09:18:18.637Z</time></trkpt><trkpt lat="44.42769" lon="7.9565767"><ele>331.5</ele><time>2026-04-25T09:18:19.634Z</time></trkpt><trkpt lat="44.4278" lon="7.9568733"><ele>329.0</ele><time>2026-04-25T09:18:20.635Z</time></trkpt><trkpt lat="44.4279133" lon="7.95717"><ele>333.5</ele><time>2026-04-25T09:18:21.635Z</time></trkpt><trkpt lat="44.4280233" lon="7.9574583"><ele>338.0</ele><time>2026-04-25T09:18:22.635Z</time></trkpt><trkpt lat="44.4281233" lon="7.9577267"><ele>338.0</ele><time>2026-04-25T09:18:23.636Z</time></trkpt><trkpt lat="44.4282183" lon="7.9579833"><ele>338.0</ele><time>2026-04-25T09:18:24.636Z</time></trkpt><trkpt lat="44.42832" lon="7.9582367"><ele>338.0</ele><time>2026-04-25T09:18:25.634Z</time></trkpt><trkpt lat="44.4284267" lon="7.9584983"><ele>336.0</ele><time>2026-04-25T09:18:26.635Z</time></trkpt><trkpt lat="44.4285383" lon="7.9587683"><ele>334.0</ele><time>2026-04-25T09:18:27.634Z</time></trkpt><trkpt lat="44.42865" lon="7.9590333"><ele>332.0</ele><time>2026-04-25T09:18:28.634Z</time></trkpt><trkpt lat="44.428755" lon="7.9592833"><ele>335.0</ele><time>2026-04-25T09:18:29.634Z</time></trkpt><trkpt lat="44.4288517" lon="7.9595083"><ele>338.0</ele><time>2026-04-25T09:18:30.634Z</time></trkpt><trkpt lat="44.4289367" lon="7.9597233"><ele>341.0</ele><time>2026-04-25T09:18:31.633Z</time></trkpt><trkpt lat="44.4290117" lon="7.9599283"><ele>339.25</ele><time>2026-04-25T09:18:32.635Z</time></trkpt><trkpt lat="44.429085" lon="7.9601167"><ele>337.5</ele><time>2026-04-25T09:18:33.635Z</time></trkpt><trkpt lat="44.4291633" lon="7.9602767"><ele>335.75</ele><time>2026-04-25T09:18:34.635Z</time></trkpt><trkpt lat="44.4292417" lon="7.9604117"><ele>334.0</ele><time>2026-04-25T09:18:35.635Z</time></trkpt><trkpt lat="44.429325" lon="7.9605317"><ele>334.0</ele><time>2026-04-25T09:18:36.636Z</time></trkpt><trkpt lat="44.4294133" lon="7.96064"><ele>334.0</ele><time>2026-04-25T09:18:37.633Z</time></trkpt><trkpt lat="44.4295067" lon="7.9607383"><ele>334.0</ele><time>2026-04-25T09:18:38.633Z</time></trkpt><trkpt lat="44.429605" lon="7.960825"><ele>334.0</ele><time>2026-04-25T09:18:39.634Z</time></trkpt><trkpt lat="44.4297017" lon="7.9609"><ele>334.4</ele><time>2026-04-25T09:18:40.634Z</time></trkpt><trkpt lat="44.4297917" lon="7.960975"><ele>334.79999999999995</ele><time>2026-04-25T09:18:41.633Z</time></trkpt><trkpt lat="44.42988" lon="7.9610467"><ele>335.20000000000005</ele><time>2026-04-25T09:18:42.634Z</time></trkpt><trkpt lat="44.429975" lon="7.9611233"><ele>335.6</ele><time>2026-04-25T09:18:43.638Z</time></trkpt><trkpt lat="44.4300783" lon="7.961205"><ele>336.0</ele><time>2026-04-25T09:18:44.636Z</time></trkpt><trkpt lat="44.4301933" lon="7.9612933"><ele>336.0</ele><time>2026-04-25T09:18:45.634Z</time></trkpt><trkpt lat="44.4303067" lon="7.96138"><ele>336.0</ele><time>2026-04-25T09:18:46.634Z</time></trkpt><trkpt lat="44.430415" lon="7.961465"><ele>336.0</ele><time>2026-04-25T09:18:47.636Z</time></trkpt><trkpt lat="44.43052" lon="7.9615517"><ele>336.0</ele><time>2026-04-25T09:18:48.637Z</time></trkpt><trkpt lat="44.4306267" lon="7.9616467"><ele>336.5</ele><time>2026-04-25T09:18:49.637Z</time></trkpt><trkpt lat="44.43074" lon="7.96175"><ele>337.0</ele><time>2026-04-25T09:18:50.641Z</time></trkpt><trkpt lat="44.4308583" lon="7.9618633"><ele>337.5</ele><time>2026-04-25T09:18:51.637Z</time></trkpt><trkpt lat="44.4309817" lon="7.9619917"><ele>338.0</ele><time>2026-04-25T09:18:52.635Z</time></trkpt><trkpt lat="44.4310983" lon="7.96214"><ele>338.0</ele><time>2026-04-25T09:18:53.634Z</time></trkpt><trkpt lat="44.4312" lon="7.9623017"><ele>338.0</ele><time>2026-04-25T09:18:54.634Z</time></trkpt><trkpt lat="44.4312883" lon="7.962465"><ele>338.0</ele><time>2026-04-25T09:18:55.634Z</time></trkpt><trkpt lat="44.4313717" lon="7.9626267"><ele>338.0</ele><time>2026-04-25T09:18:56.634Z</time></trkpt><trkpt lat="44.4314633" lon="7.9627983"><ele>340.6666666666667</ele><time>2026-04-25T09:18:57.636Z</time></trkpt><trkpt lat="44.431565" lon="7.9629817"><ele>343.3333333333333</ele><time>2026-04-25T09:18:58.633Z</time></trkpt><trkpt lat="44.43167" lon="7.9631783"><ele>346.0</ele><time>2026-04-25T09:18:59.636Z</time></trkpt><trkpt lat="44.4317717" lon="7.9633833"><ele>346.0</ele><time>2026-04-25T09:19:00.634Z</time></trkpt><trkpt lat="44.43187" lon="7.96359"><ele>346.0</ele><time>2026-04-25T09:19:01.635Z</time></trkpt><trkpt lat="44.4319667" lon="7.9637967"><ele>346.0</ele><time>2026-04-25T09:19:02.635Z</time></trkpt><trkpt lat="44.4320567" lon="7.9639867"><ele>347.66666666666663</ele><time>2026-04-25T09:19:03.633Z</time></trkpt><trkpt lat="44.43214" lon="7.9641667"><ele>349.3333333333333</ele><time>2026-04-25T09:19:04.638Z</time></trkpt><trkpt lat="44.4322267" lon="7.96434"><ele>351.0</ele><time>2026-04-25T09:19:05.635Z</time></trkpt><trkpt lat="44.4323167" lon="7.9645017"><ele>351.0</ele><time>2026-04-25T09:19:06.635Z</time></trkpt><trkpt lat="44.4324133" lon="7.9646467"><ele>351.0</ele><time>2026-04-25T09:19:07.634Z</time></trkpt><trkpt lat="44.4325183" lon="7.9647783"><ele>351.0</ele><time>2026-04-25T09:19:08.634Z</time></trkpt><trkpt lat="44.432635" lon="7.9648867"><ele>351.0</ele><time>2026-04-25T09:19:09.636Z</time></trkpt><trkpt lat="44.4327717" lon="7.9649633"><ele>351.0</ele><time>2026-04-25T09:19:10.634Z</time></trkpt><trkpt lat="44.4329217" lon="7.965015"><ele>351.0</ele><time>2026-04-25T09:19:11.635Z</time></trkpt><trkpt lat="44.4330883" lon="7.9650383"><ele>351.0</ele><time>2026-04-25T09:19:12.634Z</time></trkpt><trkpt lat="44.433265" lon="7.9650533"><ele>352.0</ele><time>2026-04-25T09:19:13.635Z</time></trkpt><trkpt lat="44.433445" lon="7.9650717"><ele>353.0</ele><time>2026-04-25T09:19:14.636Z</time></trkpt><trkpt lat="44.433635" lon="7.9650917"><ele>354.0</ele><time>2026-04-25T09:19:15.634Z</time></trkpt><trkpt lat="44.4338233" lon="7.9651117"><ele>355.0</ele><time>2026-04-25T09:19:16.639Z</time></trkpt><trkpt lat="44.434" lon="7.9651467"><ele>356.0</ele><time>2026-04-25T09:19:17.634Z</time></trkpt><trkpt lat="44.43416" lon="7.9652"><ele>357.0</ele><time>2026-04-25T09:19:18.637Z</time></trkpt><trkpt lat="44.434305" lon="7.965285"><ele>357.0</ele><time>2026-04-25T09:19:19.633Z</time></trkpt><trkpt lat="44.4344383" lon="7.965415"><ele>357.0</ele><time>2026-04-25T09:19:20.636Z</time></trkpt><trkpt lat="44.4345483" lon="7.9655867"><ele>357.0</ele><time>2026-04-25T09:19:21.635Z</time></trkpt><trkpt lat="44.4346467" lon="7.9657783"><ele>356.3333333333333</ele><time>2026-04-25T09:19:22.634Z</time></trkpt><trkpt lat="44.4347417" lon="7.965985"><ele>355.66666666666663</ele><time>2026-04-25T09:19:23.636Z</time></trkpt><trkpt lat="44.434835" lon="7.966195"><ele>355.0</ele><time>2026-04-25T09:19:24.634Z</time></trkpt><trkpt lat="44.4349283" lon="7.9664083"><ele>355.0</ele><time>2026-04-25T09:19:25.634Z</time></trkpt><trkpt lat="44.4350067" lon="7.9666117"><ele>355.0</ele><time>2026-04-25T09:19:26.634Z</time></trkpt><trkpt lat="44.4350633" lon="7.96681"><ele>355.0</ele><time>2026-04-25T09:19:27.634Z</time></trkpt><trkpt lat="44.4350817" lon="7.9670117"><ele>355.75</ele><time>2026-04-25T09:19:28.639Z</time></trkpt><trkpt lat="44.4350717" lon="7.967215"><ele>356.5</ele><time>2026-04-25T09:19:29.635Z</time></trkpt><trkpt lat="44.4350483" lon="7.967395"><ele>357.25</ele><time>2026-04-25T09:19:30.639Z</time></trkpt><trkpt lat="44.435035" lon="7.9675533"><ele>358.0</ele><time>2026-04-25T09:19:31.637Z</time></trkpt><trkpt lat="44.43504" lon="7.9677017"><ele>359.0</ele><time>2026-04-25T09:19:32.634Z</time></trkpt><trkpt lat="44.4350617" lon="7.96784"><ele>360.0</ele><time>2026-04-25T09:19:33.635Z</time></trkpt><trkpt lat="44.43511" lon="7.967975"><ele>361.0</ele><time>2026-04-25T09:19:34.635Z</time></trkpt><trkpt lat="44.4351833" lon="7.9680933"><ele>362.0</ele><time>2026-04-25T09:19:35.637Z</time></trkpt><trkpt lat="44.435275" lon="7.968195"><ele>363.0</ele><time>2026-04-25T09:19:36.634Z</time></trkpt><trkpt lat="44.43537" lon="7.9682867"><ele>363.0</ele><time>2026-04-25T09:19:37.64Z</time></trkpt><trkpt lat="44.435465" lon="7.968355"><ele>363.0</ele><time>2026-04-25T09:19:38.638Z</time></trkpt><trkpt lat="44.4355683" lon="7.96839"><ele>363.0</ele><time>2026-04-25T09:19:39.635Z</time></trkpt><trkpt lat="44.4356833" lon="7.9683917"><ele>363.0</ele><time>2026-04-25T09:19:40.635Z</time></trkpt><trkpt lat="44.43581" lon="7.9683767"><ele>364.5</ele><time>2026-04-25T09:19:41.638Z</time></trkpt><trkpt lat="44.4359417" lon="7.9683583"><ele>366.0</ele><time>2026-04-25T09:19:42.638Z</time></trkpt><trkpt lat="44.4360783" lon="7.9683417"><ele>367.5</ele><time>2026-04-25T09:19:43.636Z</time></trkpt><trkpt lat="44.436225" lon="7.96834"><ele>369.0</ele><time>2026-04-25T09:19:44.635Z</time></trkpt><trkpt lat="44.4363717" lon="7.96838"><ele>372.0</ele><time>2026-04-25T09:19:45.635Z</time></trkpt><trkpt lat="44.4365133" lon="7.96846"><ele>375.0</ele><time>2026-04-25T09:19:46.639Z</time></trkpt><trkpt lat="44.4366467" lon="7.9685733"><ele>378.0</ele><time>2026-04-25T09:19:47.634Z</time></trkpt><trkpt lat="44.43677" lon="7.9687183"><ele>378.0</ele><time>2026-04-25T09:19:48.633Z</time></trkpt><trkpt lat="44.4368767" lon="7.968895"><ele>378.0</ele><time>2026-04-25T09:19:49.635Z</time></trkpt><trkpt lat="44.4369667" lon="7.9690967"><ele>378.0</ele><time>2026-04-25T09:19:50.635Z</time></trkpt><trkpt lat="44.4370467" lon="7.9693133"><ele>376.0</ele><time>2026-04-25T09:19:51.634Z</time></trkpt><trkpt lat="44.4371317" lon="7.9695333"><ele>374.0</ele><time>2026-04-25T09:19:52.635Z</time></trkpt><trkpt lat="44.4372167" lon="7.9697517"><ele>372.0</ele><time>2026-04-25T09:19:53.638Z</time></trkpt><trkpt lat="44.43729" lon="7.9699617"><ele>378.75</ele><time>2026-04-25T09:19:54.635Z</time></trkpt><trkpt lat="44.4373517" lon="7.9701517"><ele>385.5</ele><time>2026-04-25T09:19:55.634Z</time></trkpt><trkpt lat="44.4374033" lon="7.970325"><ele>392.25</ele><time>2026-04-25T09:19:56.637Z</time></trkpt><trkpt lat="44.43743" lon="7.970485"><ele>399.0</ele><time>2026-04-25T09:19:57.634Z</time></trkpt><trkpt lat="44.4374383" lon="7.970645"><ele>399.0</ele><time>2026-04-25T09:19:58.634Z</time></trkpt><trkpt lat="44.4374367" lon="7.9708017"><ele>399.0</ele><time>2026-04-25T09:19:59.638Z</time></trkpt><trkpt lat="44.4374433" lon="7.970945"><ele>399.0</ele><time>2026-04-25T09:20:00.635Z</time></trkpt><trkpt lat="44.4374717" lon="7.9710917"><ele>399.0</ele><time>2026-04-25T09:20:01.635Z</time></trkpt><trkpt lat="44.437515" lon="7.9712333"><ele>399.0</ele><time>2026-04-25T09:20:02.636Z</time></trkpt><trkpt lat="44.4375733" lon="7.971385"><ele>397.0</ele><time>2026-04-25T09:20:03.637Z</time></trkpt><trkpt lat="44.4376333" lon="7.971535"><ele>395.0</ele><time>2026-04-25T09:20:04.637Z</time></trkpt><trkpt lat="44.43769" lon="7.9716717"><ele>393.0</ele><time>2026-04-25T09:20:05.636Z</time></trkpt><trkpt lat="44.437735" lon="7.9717833"><ele>391.0</ele><time>2026-04-25T09:20:06.634Z</time></trkpt><trkpt lat="44.4377733" lon="7.971875"><ele>389.0</ele><time>2026-04-25T09:20:07.634Z</time></trkpt><trkpt lat="44.4378117" lon="7.97195"><ele>389.0</ele><time>2026-04-25T09:20:08.636Z</time></trkpt><trkpt lat="44.4379067" lon="7.9720283"><ele>389.0</ele><time>2026-04-25T09:20:10.635Z</time></trkpt><trkpt lat="44.4379933" lon="7.971935"><ele>389.0</ele><time>2026-04-25T09:20:12.636Z</time></trkpt><trkpt lat="44.4379983" lon="7.97184"><ele>389.0</ele><time>2026-04-25T09:20:13.635Z</time></trkpt><trkpt lat="44.437955" lon="7.9717217"><ele>389.0</ele><time>2026-04-25T09:20:14.635Z</time></trkpt><trkpt lat="44.4379" lon="7.9715983"><ele>389.0</ele><time>2026-04-25T09:20:15.639Z</time></trkpt><trkpt lat="44.43783" lon="7.9714567"><ele>389.0</ele><time>2026-04-25T09:20:16.637Z</time></trkpt><trkpt lat="44.4377633" lon="7.9712983"><ele>389.0</ele><time>2026-04-25T09:20:17.634Z</time></trkpt><trkpt lat="44.437705" lon="7.97114"><ele>389.0</ele><time>2026-04-25T09:20:18.636Z</time></trkpt><trkpt lat="44.4376567" lon="7.97098"><ele>391.5</ele><time>2026-04-25T09:20:19.635Z</time></trkpt><trkpt lat="44.43762" lon="7.9708033"><ele>394.0</ele><time>2026-04-25T09:20:20.636Z</time></trkpt><trkpt lat="44.4376" lon="7.9706167"><ele>396.5</ele><time>2026-04-25T09:20:21.636Z</time></trkpt><trkpt lat="44.4375883" lon="7.97042"><ele>399.0</ele><time>2026-04-25T09:20:22.635Z</time></trkpt><trkpt lat="44.43758" lon="7.9702117"><ele>402.33333333333337</ele><time>2026-04-25T09:20:23.638Z</time></trkpt><trkpt lat="44.4375683" lon="7.9699983"><ele>405.6666666666667</ele><time>2026-04-25T09:20:24.635Z</time></trkpt><trkpt lat="44.4375583" lon="7.96978"><ele>409.0</ele><time>2026-04-25T09:20:25.634Z</time></trkpt><trkpt lat="44.4375483" lon="7.9695717"><ele>409.0</ele><time>2026-04-25T09:20:26.634Z</time></trkpt><trkpt lat="44.4375333" lon="7.96938"><ele>409.0</ele><time>2026-04-25T09:20:27.636Z</time></trkpt><trkpt lat="44.4375067" lon="7.9692067"><ele>409.0</ele><time>2026-04-25T09:20:28.635Z</time></trkpt><trkpt lat="44.4374583" lon="7.9690533"><ele>409.0</ele><time>2026-04-25T09:20:29.634Z</time></trkpt><trkpt lat="44.4374" lon="7.9689167"><ele>411.2</ele><time>2026-04-25T09:20:30.634Z</time></trkpt><trkpt lat="44.4373467" lon="7.96879"><ele>413.4</ele><time>2026-04-25T09:20:31.634Z</time></trkpt><trkpt lat="44.437315" lon="7.96867"><ele>415.6</ele><time>2026-04-25T09:20:32.638Z</time></trkpt><trkpt lat="44.437295" lon="7.9685567"><ele>417.8</ele><time>2026-04-25T09:20:33.635Z</time></trkpt><trkpt lat="44.4373383" lon="7.9683933"><ele>420.0</ele><time>2026-04-25T09:20:35.634Z</time></trkpt><trkpt lat="44.4374083" lon="7.9683133"><ele>420.75</ele><time>2026-04-25T09:20:36.635Z</time></trkpt><trkpt lat="44.4374983" lon="7.9682417"><ele>421.5</ele><time>2026-04-25T09:20:37.636Z</time></trkpt><trkpt lat="44.4376083" lon="7.96818"><ele>422.25</ele><time>2026-04-25T09:20:38.635Z</time></trkpt><trkpt lat="44.4377283" lon="7.968125"><ele>423.0</ele><time>2026-04-25T09:20:39.636Z</time></trkpt><trkpt lat="44.4378467" lon="7.96807"><ele>423.0</ele><time>2026-04-25T09:20:40.635Z</time></trkpt><trkpt lat="44.4379517" lon="7.9680133"><ele>423.0</ele><time>2026-04-25T09:20:41.636Z</time></trkpt><trkpt lat="44.4380433" lon="7.967945"><ele>423.0</ele><time>2026-04-25T09:20:42.638Z</time></trkpt><trkpt lat="44.4381217" lon="7.9678717"><ele>423.0</ele><time>2026-04-25T09:20:43.638Z</time></trkpt><trkpt lat="44.4381817" lon="7.9677933"><ele>423.0</ele><time>2026-04-25T09:20:44.636Z</time></trkpt><trkpt lat="44.4382317" lon="7.967725"><ele>428.4</ele><time>2026-04-25T09:20:45.637Z</time></trkpt><trkpt lat="44.438325" lon="7.9676417"><ele>433.79999999999995</ele><time>2026-04-25T09:20:47.635Z</time></trkpt><trkpt lat="44.4384117" lon="7.9676817"><ele>439.2</ele><time>2026-04-25T09:20:49.635Z</time></trkpt><trkpt lat="44.4384083" lon="7.9678617"><ele>444.6</ele><time>2026-04-25T09:20:51.638Z</time></trkpt><trkpt lat="44.4383567" lon="7.967965"><ele>450.0</ele><time>2026-04-25T09:20:52.635Z</time></trkpt><trkpt lat="44.4382833" lon="7.9680633"><ele>450.0</ele><time>2026-04-25T09:20:53.635Z</time></trkpt><trkpt lat="44.43818" lon="7.9681667"><ele>450.0</ele><time>2026-04-25T09:20:54.635Z</time></trkpt><trkpt lat="44.4380783" lon="7.9682833"><ele>450.0</ele><time>2026-04-25T09:20:55.634Z</time></trkpt><trkpt lat="44.437985" lon="7.96839"><ele>450.0</ele><time>2026-04-25T09:20:56.635Z</time></trkpt><trkpt lat="44.4379" lon="7.9684867"><ele>445.0</ele><time>2026-04-25T09:20:57.635Z</time></trkpt><trkpt lat="44.4378367" lon="7.9685667"><ele>440.0</ele><time>2026-04-25T09:20:58.634Z</time></trkpt><trkpt lat="44.4377867" lon="7.9686617"><ele>435.0</ele><time>2026-04-25T09:20:59.638Z</time></trkpt><trkpt lat="44.43777" lon="7.968765"><ele>430.0</ele><time>2026-04-25T09:21:00.634Z</time></trkpt><trkpt lat="44.4377783" lon="7.9688767"><ele>425.0</ele><time>2026-04-25T09:21:01.635Z</time></trkpt><trkpt lat="44.4377967" lon="7.9689983"><ele>420.0</ele><time>2026-04-25T09:21:02.639Z</time></trkpt><trkpt lat="44.437835" lon="7.969135"><ele>417.25</ele><time>2026-04-25T09:21:03.635Z</time></trkpt><trkpt lat="44.4378917" lon="7.969265"><ele>414.5</ele><time>2026-04-25T09:21:04.635Z</time></trkpt><trkpt lat="44.437965" lon="7.969395"><ele>411.75</ele><time>2026-04-25T09:21:05.634Z</time></trkpt><trkpt lat="44.4380483" lon="7.9695233"><ele>409.0</ele><time>2026-04-25T09:21:06.635Z</time></trkpt><trkpt lat="44.4381317" lon="7.9696583"><ele>416.25</ele><time>2026-04-25T09:21:07.639Z</time></trkpt><trkpt lat="44.43823" lon="7.9698"><ele>423.5</ele><time>2026-04-25T09:21:08.635Z</time></trkpt><trkpt lat="44.43833" lon="7.9699467"><ele>430.75</ele><time>2026-04-25T09:21:09.634Z</time></trkpt><trkpt lat="44.4384383" lon="7.9701"><ele>438.0</ele><time>2026-04-25T09:21:10.634Z</time></trkpt><trkpt lat="44.4385483" lon="7.970275"><ele>438.0</ele><time>2026-04-25T09:21:11.635Z</time></trkpt><trkpt lat="44.4386583" lon="7.9704467"><ele>438.0</ele><time>2026-04-25T09:21:12.635Z</time></trkpt><trkpt lat="44.4387567" lon="7.9705983"><ele>438.0</ele><time>2026-04-25T09:21:13.636Z</time></trkpt><trkpt lat="44.4388383" lon="7.970725"><ele>438.0</ele><time>2026-04-25T09:21:14.636Z</time></trkpt><trkpt lat="44.4389033" lon="7.9708"><ele>439.4</ele><time>2026-04-25T09:21:15.634Z</time></trkpt><trkpt lat="44.4389833" lon="7.9708783"><ele>440.79999999999995</ele><time>2026-04-25T09:21:16.636Z</time></trkpt><trkpt lat="44.4390767" lon="7.9709233"><ele>442.2</ele><time>2026-04-25T09:21:17.637Z</time></trkpt><trkpt lat="44.4391833" lon="7.9709367"><ele>443.6</ele><time>2026-04-25T09:21:18.635Z</time></trkpt><trkpt lat="44.4392967" lon="7.9709233"><ele>445.0</ele><time>2026-04-25T09:21:19.639Z</time></trkpt><trkpt lat="44.4394067" lon="7.9708867"><ele>449.75</ele><time>2026-04-25T09:21:20.634Z</time></trkpt><trkpt lat="44.4395233" lon="7.97084"><ele>454.5</ele><time>2026-04-25T09:21:21.635Z</time></trkpt><trkpt lat="44.4396533" lon="7.9707967"><ele>459.25</ele><time>2026-04-25T09:21:22.635Z</time></trkpt><trkpt lat="44.4397917" lon="7.9707467"><ele>464.0</ele><time>2026-04-25T09:21:23.636Z</time></trkpt><trkpt lat="44.4399383" lon="7.9706917"><ele>466.75</ele><time>2026-04-25T09:21:24.639Z</time></trkpt><trkpt lat="44.4400817" lon="7.97064"><ele>469.5</ele><time>2026-04-25T09:21:25.635Z</time></trkpt><trkpt lat="44.4402117" lon="7.9705967"><ele>472.25</ele><time>2026-04-25T09:21:26.635Z</time></trkpt><trkpt lat="44.44032" lon="7.970565"><ele>475.0</ele><time>2026-04-25T09:21:27.636Z</time></trkpt><trkpt lat="44.4404133" lon="7.9705567"><ele>477.4</ele><time>2026-04-25T09:21:28.64Z</time></trkpt><trkpt lat="44.440505" lon="7.970565"><ele>479.8</ele><time>2026-04-25T09:21:29.634Z</time></trkpt><trkpt lat="44.4405883" lon="7.9706083"><ele>482.20000000000005</ele><time>2026-04-25T09:21:30.636Z</time></trkpt><trkpt lat="44.4406483" lon="7.9706833"><ele>484.6</ele><time>2026-04-25T09:21:31.634Z</time></trkpt><trkpt lat="44.4406767" lon="7.9708183"><ele>487.0</ele><time>2026-04-25T09:21:32.635Z</time></trkpt><trkpt lat="44.44067" lon="7.9709767"><ele>488.5</ele><time>2026-04-25T09:21:33.635Z</time></trkpt><trkpt lat="44.440645" lon="7.9711583"><ele>490.0</ele><time>2026-04-25T09:21:34.634Z</time></trkpt><trkpt lat="44.4406117" lon="7.971345"><ele>491.5</ele><time>2026-04-25T09:21:35.634Z</time></trkpt><trkpt lat="44.44057" lon="7.97153"><ele>493.0</ele><time>2026-04-25T09:21:36.635Z</time></trkpt><trkpt lat="44.44052" lon="7.97169"><ele>488.1666666666667</ele><time>2026-04-25T09:21:37.637Z</time></trkpt><trkpt lat="44.4404633" lon="7.9718233"><ele>483.33333333333337</ele><time>2026-04-25T09:21:38.636Z</time></trkpt><trkpt lat="44.4404083" lon="7.9719333"><ele>478.5</ele><time>2026-04-25T09:21:39.633Z</time></trkpt><trkpt lat="44.4403617" lon="7.9720283"><ele>473.66666666666663</ele><time>2026-04-25T09:21:40.634Z</time></trkpt><trkpt lat="44.440325" lon="7.9721117"><ele>468.8333333333333</ele><time>2026-04-25T09:21:41.635Z</time></trkpt><trkpt lat="44.4402933" lon="7.9722083"><ele>464.0</ele><time>2026-04-25T09:21:42.64Z</time></trkpt><trkpt lat="44.4402733" lon="7.9723283"><ele>464.0</ele><time>2026-04-25T09:21:43.633Z</time></trkpt><trkpt lat="44.4402767" lon="7.97246"><ele>464.0</ele><time>2026-04-25T09:21:44.634Z</time></trkpt><trkpt lat="44.440315" lon="7.9725983"><ele>464.0</ele><time>2026-04-25T09:21:45.635Z</time></trkpt><trkpt lat="44.4403817" lon="7.9727267"><ele>464.0</ele><time>2026-04-25T09:21:46.634Z</time></trkpt><trkpt lat="44.4404683" lon="7.9728483"><ele>464.0</ele><time>2026-04-25T09:21:47.632Z</time></trkpt><trkpt lat="44.440565" lon="7.97297"><ele>466.0</ele><time>2026-04-25T09:21:48.633Z</time></trkpt><trkpt lat="44.4406683" lon="7.9730933"><ele>468.0</ele><time>2026-04-25T09:21:49.635Z</time></trkpt><trkpt lat="44.4407783" lon="7.97322"><ele>470.0</ele><time>2026-04-25T09:21:50.633Z</time></trkpt><trkpt lat="44.4408917" lon="7.9733567"><ele>472.0</ele><time>2026-04-25T09:21:51.635Z</time></trkpt><trkpt lat="44.4410067" lon="7.9734967"><ele>472.0</ele><time>2026-04-25T09:21:52.634Z</time></trkpt><trkpt lat="44.4411133" lon="7.9736333"><ele>472.0</ele><time>2026-04-25T09:21:53.634Z</time></trkpt><trkpt lat="44.4412067" lon="7.9737583"><ele>472.0</ele><time>2026-04-25T09:21:54.636Z</time></trkpt><trkpt lat="44.4412817" lon="7.97387"><ele>472.0</ele><time>2026-04-25T09:21:55.636Z</time></trkpt><trkpt lat="44.441345" lon="7.9739733"><ele>474.20000000000005</ele><time>2026-04-25T09:21:56.634Z</time></trkpt><trkpt lat="44.4414017" lon="7.9740783"><ele>476.40000000000003</ele><time>2026-04-25T09:21:57.635Z</time></trkpt><trkpt lat="44.44146" lon="7.97419"><ele>478.59999999999997</ele><time>2026-04-25T09:21:58.633Z</time></trkpt><trkpt lat="44.4415183" lon="7.9743033"><ele>480.79999999999995</ele><time>2026-04-25T09:21:59.633Z</time></trkpt><trkpt lat="44.4415767" lon="7.9743817"><ele>483.0</ele><time>2026-04-25T09:22:00.633Z</time></trkpt><trkpt lat="44.441645" lon="7.97444"><ele>483.0</ele><time>2026-04-25T09:22:01.633Z</time></trkpt><trkpt lat="44.441725" lon="7.97446"><ele>482.99999999999994</ele><time>2026-04-25T09:22:02.637Z</time></trkpt><trkpt lat="44.44181" lon="7.9744467"><ele>482.99999999999994</ele><time>2026-04-25T09:22:03.634Z</time></trkpt><trkpt lat="44.4419" lon="7.9743483"><ele>483.0</ele><time>2026-04-25T09:22:04.632Z</time></trkpt><trkpt lat="44.4419833" lon="7.9742133"><ele>483.0</ele><time>2026-04-25T09:22:05.634Z</time></trkpt><trkpt lat="44.4420667" lon="7.9740733"><ele>487.66666666666663</ele><time>2026-04-25T09:22:06.634Z</time></trkpt><trkpt lat="44.4421683" lon="7.9739367"><ele>492.3333333333333</ele><time>2026-04-25T09:22:07.634Z</time></trkpt><trkpt lat="44.4422967" lon="7.9738117"><ele>497.0</ele><time>2026-04-25T09:22:08.635Z</time></trkpt><trkpt lat="44.4424317" lon="7.973695"><ele>497.0</ele><time>2026-04-25T09:22:09.639Z</time></trkpt><trkpt lat="44.442575" lon="7.9735733"><ele>497.0</ele><time>2026-04-25T09:22:10.635Z</time></trkpt><trkpt lat="44.4427217" lon="7.9734483"><ele>497.0</ele><time>2026-04-25T09:22:11.636Z</time></trkpt><trkpt lat="44.4428733" lon="7.973315"><ele>500.3333333333333</ele><time>2026-04-25T09:22:12.634Z</time></trkpt><trkpt lat="44.4430167" lon="7.97318"><ele>503.66666666666663</ele><time>2026-04-25T09:22:13.636Z</time></trkpt><trkpt lat="44.4431417" lon="7.97304"><ele>507.0</ele><time>2026-04-25T09:22:14.636Z</time></trkpt><trkpt lat="44.44325" lon="7.9728917"><ele>507.0</ele><time>2026-04-25T09:22:15.637Z</time></trkpt><trkpt lat="44.4433417" lon="7.972745"><ele>507.0</ele><time>2026-04-25T09:22:16.633Z</time></trkpt><trkpt lat="44.4434283" lon="7.9726217"><ele>507.0</ele><time>2026-04-25T09:22:17.633Z</time></trkpt><trkpt lat="44.4435183" lon="7.97254"><ele>507.0</ele><time>2026-04-25T09:22:18.635Z</time></trkpt><trkpt lat="44.4436033" lon="7.9725033"><ele>507.0</ele><time>2026-04-25T09:22:19.635Z</time></trkpt><trkpt lat="44.44368" lon="7.972505"><ele>507.0</ele><time>2026-04-25T09:22:20.636Z</time></trkpt><trkpt lat="44.4437533" lon="7.97253"><ele>507.0</ele><time>2026-04-25T09:22:21.634Z</time></trkpt><trkpt lat="44.44382" lon="7.9725817"><ele>507.0</ele><time>2026-04-25T09:22:22.634Z</time></trkpt><trkpt lat="44.4439017" lon="7.9726417"><ele>507.0</ele><time>2026-04-25T09:22:23.637Z</time></trkpt><trkpt lat="44.4439883" lon="7.9727117"><ele>507.0</ele><time>2026-04-25T09:22:24.637Z</time></trkpt><trkpt lat="44.4440883" lon="7.9727867"><ele>508.0</ele><time>2026-04-25T09:22:25.635Z</time></trkpt><trkpt lat="44.4441983" lon="7.9728633"><ele>509.0</ele><time>2026-04-25T09:22:26.636Z</time></trkpt><trkpt lat="44.444315" lon="7.97294"><ele>510.0</ele><time>2026-04-25T09:22:27.634Z</time></trkpt><trkpt lat="44.44445" lon="7.972995"><ele>511.0</ele><time>2026-04-25T09:22:28.637Z</time></trkpt><trkpt lat="44.444595" lon="7.973025"><ele>515.3333333333334</ele><time>2026-04-25T09:22:29.633Z</time></trkpt><trkpt lat="44.44475" lon="7.9730533"><ele>519.6666666666666</ele><time>2026-04-25T09:22:30.636Z</time></trkpt><trkpt lat="44.444915" lon="7.9730817"><ele>524.0</ele><time>2026-04-25T09:22:31.634Z</time></trkpt><trkpt lat="44.445085" lon="7.9731133"><ele>524.0</ele><time>2026-04-25T09:22:32.636Z</time></trkpt><trkpt lat="44.4452567" lon="7.9731467"><ele>524.0</ele><time>2026-04-25T09:22:33.633Z</time></trkpt><trkpt lat="44.4454217" lon="7.97317"><ele>524.0</ele><time>2026-04-25T09:22:34.634Z</time></trkpt><trkpt lat="44.4455717" lon="7.9731883"><ele>527.0</ele><time>2026-04-25T09:22:35.638Z</time></trkpt><trkpt lat="44.4457217" lon="7.9731783"><ele>530.0</ele><time>2026-04-25T09:22:36.635Z</time></trkpt><trkpt lat="44.4458767" lon="7.9731417"><ele>533.0</ele><time>2026-04-25T09:22:37.634Z</time></trkpt><trkpt lat="44.4460333" lon="7.97309"><ele>533.0</ele><time>2026-04-25T09:22:38.633Z</time></trkpt><trkpt lat="44.4461833" lon="7.973055"><ele>533.0</ele><time>2026-04-25T09:22:39.633Z</time></trkpt><trkpt lat="44.446325" lon="7.973045"><ele>533.0</ele><time>2026-04-25T09:22:40.633Z</time></trkpt><trkpt lat="44.4464717" lon="7.9730783"><ele>533.0</ele><time>2026-04-25T09:22:41.634Z</time></trkpt><trkpt lat="44.4466167" lon="7.9731517"><ele>531.0</ele><time>2026-04-25T09:22:42.634Z</time></trkpt><trkpt lat="44.4467617" lon="7.9732533"><ele>529.0</ele><time>2026-04-25T09:22:43.633Z</time></trkpt><trkpt lat="44.4469083" lon="7.9733533"><ele>527.0</ele><time>2026-04-25T09:22:44.641Z</time></trkpt><trkpt lat="44.4470467" lon="7.9734383"><ele>530.5</ele><time>2026-04-25T09:22:45.634Z</time></trkpt><trkpt lat="44.4471667" lon="7.97352"><ele>534.0</ele><time>2026-04-25T09:22:46.634Z</time></trkpt><trkpt lat="44.447275" lon="7.9735867"><ele>537.5</ele><time>2026-04-25T09:22:47.634Z</time></trkpt><trkpt lat="44.4473833" lon="7.973645"><ele>541.0</ele><time>2026-04-25T09:22:48.635Z</time></trkpt><trkpt lat="44.4475017" lon="7.9736983"><ele>541.0</ele><time>2026-04-25T09:22:49.635Z</time></trkpt><trkpt lat="44.4476383" lon="7.97373"><ele>541.0</ele><time>2026-04-25T09:22:50.634Z</time></trkpt><trkpt lat="44.4477817" lon="7.9737583"><ele>541.0</ele><time>2026-04-25T09:22:51.637Z</time></trkpt><trkpt lat="44.44793" lon="7.973785"><ele>541.0</ele><time>2026-04-25T09:22:52.637Z</time></trkpt><trkpt lat="44.4480867" lon="7.9738133"><ele>544.6666666666667</ele><time>2026-04-25T09:22:53.637Z</time></trkpt><trkpt lat="44.4482483" lon="7.9738367"><ele>548.3333333333334</ele><time>2026-04-25T09:22:54.633Z</time></trkpt><trkpt lat="44.448415" lon="7.9738667"><ele>552.0</ele><time>2026-04-25T09:22:55.633Z</time></trkpt><trkpt lat="44.4485767" lon="7.9739"><ele>552.0</ele><time>2026-04-25T09:22:56.634Z</time></trkpt><trkpt lat="44.4487167" lon="7.9739317"><ele>552.0</ele><time>2026-04-25T09:22:57.636Z</time></trkpt><trkpt lat="44.4488367" lon="7.9739783"><ele>552.0</ele><time>2026-04-25T09:22:58.634Z</time></trkpt><trkpt lat="44.4489367" lon="7.97405"><ele>552.0</ele><time>2026-04-25T09:22:59.634Z</time></trkpt><trkpt lat="44.4490167" lon="7.9741533"><ele>556.5</ele><time>2026-04-25T09:23:00.636Z</time></trkpt><trkpt lat="44.449075" lon="7.9742933"><ele>561.0</ele><time>2026-04-25T09:23:01.635Z</time></trkpt><trkpt lat="44.449105" lon="7.9744617"><ele>565.5</ele><time>2026-04-25T09:23:02.64Z</time></trkpt><trkpt lat="44.4491017" lon="7.9746333"><ele>570.0</ele><time>2026-04-25T09:23:03.636Z</time></trkpt><trkpt lat="44.4490683" lon="7.9747867"><ele>570.0</ele><time>2026-04-25T09:23:04.633Z</time></trkpt><trkpt lat="44.4490067" lon="7.9749233"><ele>570.0</ele><time>2026-04-25T09:23:05.634Z</time></trkpt><trkpt lat="44.4489217" lon="7.9750283"><ele>570.0</ele><time>2026-04-25T09:23:06.633Z</time></trkpt><trkpt lat="44.448815" lon="7.9751117"><ele>570.0</ele><time>2026-04-25T09:23:07.634Z</time></trkpt><trkpt lat="44.448705" lon="7.97519"><ele>569.6</ele><time>2026-04-25T09:23:08.634Z</time></trkpt><trkpt lat="44.4486017" lon="7.975265"><ele>569.2</ele><time>2026-04-25T09:23:09.637Z</time></trkpt><trkpt lat="44.4485033" lon="7.97534"><ele>568.8</ele><time>2026-04-25T09:23:10.634Z</time></trkpt><trkpt lat="44.4484033" lon="7.9754117"><ele>568.4</ele><time>2026-04-25T09:23:11.639Z</time></trkpt><trkpt lat="44.4483067" lon="7.9754817"><ele>568.0</ele><time>2026-04-25T09:23:12.634Z</time></trkpt><trkpt lat="44.4482167" lon="7.97555"><ele>568.0</ele><time>2026-04-25T09:23:13.633Z</time></trkpt><trkpt lat="44.44814" lon="7.9756233"><ele>568.0</ele><time>2026-04-25T09:23:14.632Z</time></trkpt><trkpt lat="44.4480833" lon="7.9757"><ele>568.0</ele><time>2026-04-25T09:23:15.636Z</time></trkpt><trkpt lat="44.4480433" lon="7.9757967"><ele>568.0</ele><time>2026-04-25T09:23:16.633Z</time></trkpt><trkpt lat="44.4480083" lon="7.9758983"><ele>568.0</ele><time>2026-04-25T09:23:17.634Z</time></trkpt><trkpt lat="44.447995" lon="7.9760117"><ele>568.0</ele><time>2026-04-25T09:23:18.634Z</time></trkpt><trkpt lat="44.4480317" lon="7.9761267"><ele>566.0</ele><time>2026-04-25T09:23:19.636Z</time></trkpt><trkpt lat="44.44809" lon="7.97622"><ele>564.0</ele><time>2026-04-25T09:23:20.634Z</time></trkpt><trkpt lat="44.4481833" lon="7.9762733"><ele>562.0</ele><time>2026-04-25T09:23:21.638Z</time></trkpt><trkpt lat="44.4482933" lon="7.976305"><ele>560.0</ele><time>2026-04-25T09:23:22.634Z</time></trkpt><trkpt lat="44.4484183" lon="7.9763217"><ele>558.0</ele><time>2026-04-25T09:23:23.634Z</time></trkpt><trkpt lat="44.448555" lon="7.9763333"><ele>558.0</ele><time>2026-04-25T09:23:24.634Z</time></trkpt><trkpt lat="44.4487017" lon="7.97635"><ele>558.0</ele><time>2026-04-25T09:23:25.633Z</time></trkpt><trkpt lat="44.4488533" lon="7.97637"><ele>558.0</ele><time>2026-04-25T09:23:26.634Z</time></trkpt><trkpt lat="44.449" lon="7.9763833"><ele>558.0</ele><time>2026-04-25T09:23:27.638Z</time></trkpt><trkpt lat="44.4491517" lon="7.9763833"><ele>559.6666666666666</ele><time>2026-04-25T09:23:28.633Z</time></trkpt><trkpt lat="44.4493133" lon="7.97637"><ele>561.3333333333333</ele><time>2026-04-25T09:23:29.634Z</time></trkpt><trkpt lat="44.4494783" lon="7.976335"><ele>563.0</ele><time>2026-04-25T09:23:30.634Z</time></trkpt><trkpt lat="44.44965" lon="7.9762867"><ele>563.3333333333333</ele><time>2026-04-25T09:23:31.633Z</time></trkpt><trkpt lat="44.4498283" lon="7.9762333"><ele>563.6666666666666</ele><time>2026-04-25T09:23:32.633Z</time></trkpt><trkpt lat="44.45001" lon="7.9761767"><ele>564.0</ele><time>2026-04-25T09:23:33.634Z</time></trkpt><trkpt lat="44.4501867" lon="7.976125"><ele>564.0</ele><time>2026-04-25T09:23:34.633Z</time></trkpt><trkpt lat="44.4503467" lon="7.97608"><ele>564.0</ele><time>2026-04-25T09:23:35.635Z</time></trkpt><trkpt lat="44.450495" lon="7.9760383"><ele>564.0</ele><time>2026-04-25T09:23:36.633Z</time></trkpt><trkpt lat="44.4506333" lon="7.976005"><ele>566.0</ele><time>2026-04-25T09:23:37.641Z</time></trkpt><trkpt lat="44.4507667" lon="7.975995"><ele>568.0</ele><time>2026-04-25T09:23:38.637Z</time></trkpt><trkpt lat="44.4508883" lon="7.97601"><ele>570.0</ele><time>2026-04-25T09:23:39.637Z</time></trkpt><trkpt lat="44.4510117" lon="7.9760383"><ele>572.0</ele><time>2026-04-25T09:23:40.634Z</time></trkpt><trkpt lat="44.4511367" lon="7.976085"><ele>572.0</ele><time>2026-04-25T09:23:41.637Z</time></trkpt><trkpt lat="44.45126" lon="7.97615"><ele>572.0</ele><time>2026-04-25T09:23:42.636Z</time></trkpt><trkpt lat="44.4513833" lon="7.9762367"><ele>572.0</ele><time>2026-04-25T09:23:43.634Z</time></trkpt><trkpt lat="44.4515033" lon="7.9763383"><ele>572.0</ele><time>2026-04-25T09:23:44.634Z</time></trkpt><trkpt lat="44.4516133" lon="7.9764533"><ele>574.75</ele><time>2026-04-25T09:23:45.634Z</time></trkpt><trkpt lat="44.45171" lon="7.976585"><ele>577.5</ele><time>2026-04-25T09:23:46.633Z</time></trkpt><trkpt lat="44.451795" lon="7.97671"><ele>580.25</ele><time>2026-04-25T09:23:47.635Z</time></trkpt><trkpt lat="44.45187" lon="7.9768283"><ele>583.0</ele><time>2026-04-25T09:23:48.635Z</time></trkpt><trkpt lat="44.451945" lon="7.9769483"><ele>583.1999999999999</ele><time>2026-04-25T09:23:49.634Z</time></trkpt><trkpt lat="44.4520217" lon="7.9770683"><ele>583.4</ele><time>2026-04-25T09:23:50.634Z</time></trkpt><trkpt lat="44.452095" lon="7.9771867"><ele>583.5999999999999</ele><time>2026-04-25T09:23:51.635Z</time></trkpt><trkpt lat="44.4521583" lon="7.97731"><ele>583.8</ele><time>2026-04-25T09:23:52.635Z</time></trkpt><trkpt lat="44.452205" lon="7.9774383"><ele>584.0</ele><time>2026-04-25T09:23:53.634Z</time></trkpt><trkpt lat="44.4522333" lon="7.97758"><ele>585.6</ele><time>2026-04-25T09:23:54.634Z</time></trkpt><trkpt lat="44.4522433" lon="7.9777167"><ele>587.2</ele><time>2026-04-25T09:23:55.634Z</time></trkpt><trkpt lat="44.4522383" lon="7.9778517"><ele>588.8000000000001</ele><time>2026-04-25T09:23:56.633Z</time></trkpt><trkpt lat="44.4522167" lon="7.9779833"><ele>590.4</ele><time>2026-04-25T09:23:57.634Z</time></trkpt><trkpt lat="44.4521833" lon="7.978115"><ele>592.0</ele><time>2026-04-25T09:23:58.633Z</time></trkpt><trkpt lat="44.4521533" lon="7.9782417"><ele>593.0</ele><time>2026-04-25T09:23:59.633Z</time></trkpt><trkpt lat="44.4521267" lon="7.978375"><ele>594.0</ele><time>2026-04-25T09:24:00.637Z</time></trkpt><trkpt lat="44.4521083" lon="7.978515"><ele>595.0</ele><time>2026-04-25T09:24:01.636Z</time></trkpt><trkpt lat="44.4521067" lon="7.97866"><ele>596.0</ele><time>2026-04-25T09:24:02.635Z</time></trkpt><trkpt lat="44.452125" lon="7.9788"><ele>597.0</ele><time>2026-04-25T09:24:03.634Z</time></trkpt><trkpt lat="44.452165" lon="7.978935"><ele>597.0</ele><time>2026-04-25T09:24:04.633Z</time></trkpt><trkpt lat="44.4522133" lon="7.9790583"><ele>597.0</ele><time>2026-04-25T09:24:05.635Z</time></trkpt><trkpt lat="44.4522583" lon="7.979165"><ele>597.0</ele><time>2026-04-25T09:24:06.634Z</time></trkpt><trkpt lat="44.4522983" lon="7.9792617"><ele>597.0</ele><time>2026-04-25T09:24:07.634Z</time></trkpt><trkpt lat="44.4523367" lon="7.9793583"><ele>597.0</ele><time>2026-04-25T09:24:08.637Z</time></trkpt><trkpt lat="44.4523767" lon="7.979455"><ele>597.0</ele><time>2026-04-25T09:24:09.633Z</time></trkpt><trkpt lat="44.4524183" lon="7.9795533"><ele>597.0</ele><time>2026-04-25T09:24:10.635Z</time></trkpt><trkpt lat="44.4524567" lon="7.97965"><ele>597.0</ele><time>2026-04-25T09:24:11.633Z</time></trkpt><trkpt lat="44.4524967" lon="7.9797517"><ele>597.0</ele><time>2026-04-25T09:24:12.635Z</time></trkpt><trkpt lat="44.452545" lon="7.97985"><ele>597.0</ele><time>2026-04-25T09:24:13.638Z</time></trkpt><trkpt lat="44.45259" lon="7.9799367"><ele>597.0</ele><time>2026-04-25T09:24:14.638Z</time></trkpt><trkpt lat="44.4526417" lon="7.9800183"><ele>597.0</ele><time>2026-04-25T09:24:15.634Z</time></trkpt><trkpt lat="44.4527033" lon="7.9800983"><ele>598.0</ele><time>2026-04-25T09:24:16.633Z</time></trkpt><trkpt lat="44.452775" lon="7.9801683"><ele>599.0</ele><time>2026-04-25T09:24:17.635Z</time></trkpt><trkpt lat="44.45285" lon="7.98024"><ele>600.0</ele><time>2026-04-25T09:24:18.635Z</time></trkpt><trkpt lat="44.4529267" lon="7.98032"><ele>601.0</ele><time>2026-04-25T09:24:19.638Z</time></trkpt><trkpt lat="44.4530167" lon="7.9804"><ele>602.0</ele><time>2026-04-25T09:24:20.64Z</time></trkpt><trkpt lat="44.4531133" lon="7.9804783"><ele>602.0</ele><time>2026-04-25T09:24:21.638Z</time></trkpt><trkpt lat="44.4532183" lon="7.98055"><ele>602.0</ele><time>2026-04-25T09:24:22.635Z</time></trkpt><trkpt lat="44.4533217" lon="7.98063"><ele>602.0</ele><time>2026-04-25T09:24:23.635Z</time></trkpt><trkpt lat="44.4534133" lon="7.98072"><ele>602.0</ele><time>2026-04-25T09:24:24.634Z</time></trkpt><trkpt lat="44.4535067" lon="7.9808167"><ele>601.8000000000001</ele><time>2026-04-25T09:24:25.636Z</time></trkpt><trkpt lat="44.45359" lon="7.98092"><ele>601.6</ele><time>2026-04-25T09:24:26.635Z</time></trkpt><trkpt lat="44.4536617" lon="7.9810267"><ele>601.4000000000001</ele><time>2026-04-25T09:24:27.635Z</time></trkpt><trkpt lat="44.4537167" lon="7.98114"><ele>601.2</ele><time>2026-04-25T09:24:28.633Z</time></trkpt><trkpt lat="44.453755" lon="7.9812567"><ele>601.0</ele><time>2026-04-25T09:24:29.639Z</time></trkpt><trkpt lat="44.45377" lon="7.9813783"><ele>601.0</ele><time>2026-04-25T09:24:30.632Z</time></trkpt><trkpt lat="44.4537583" lon="7.9815"><ele>601.0</ele><time>2026-04-25T09:24:31.633Z</time></trkpt><trkpt lat="44.453715" lon="7.98163"><ele>601.0</ele><time>2026-04-25T09:24:32.634Z</time></trkpt><trkpt lat="44.453645" lon="7.9817633"><ele>601.0</ele><time>2026-04-25T09:24:33.633Z</time></trkpt><trkpt lat="44.4535567" lon="7.98189"><ele>601.0</ele><time>2026-04-25T09:24:34.633Z</time></trkpt><trkpt lat="44.453465" lon="7.9820083"><ele>602.2</ele><time>2026-04-25T09:24:35.636Z</time></trkpt><trkpt lat="44.4533867" lon="7.9821183"><ele>603.4000000000001</ele><time>2026-04-25T09:24:36.634Z</time></trkpt><trkpt lat="44.453315" lon="7.982215"><ele>604.6</ele><time>2026-04-25T09:24:37.635Z</time></trkpt><trkpt lat="44.4532483" lon="7.9823017"><ele>605.8000000000001</ele><time>2026-04-25T09:24:38.636Z</time></trkpt><trkpt lat="44.45319" lon="7.982385"><ele>607.0</ele><time>2026-04-25T09:24:39.634Z</time></trkpt><trkpt lat="44.4531417" lon="7.9824633"><ele>605.5</ele><time>2026-04-25T09:24:40.634Z</time></trkpt><trkpt lat="44.45311" lon="7.98255"><ele>604.0</ele><time>2026-04-25T09:24:41.633Z</time></trkpt><trkpt lat="44.4531217" lon="7.982715"><ele>602.5</ele><time>2026-04-25T09:24:43.634Z</time></trkpt><trkpt lat="44.4531633" lon="7.9827833"><ele>601.0</ele><time>2026-04-25T09:24:44.635Z</time></trkpt><trkpt lat="44.4532183" lon="7.9828433"><ele>599.5</ele><time>2026-04-25T09:24:45.633Z</time></trkpt><trkpt lat="44.4532867" lon="7.982915"><ele>598.0</ele><time>2026-04-25T09:24:46.636Z</time></trkpt><trkpt lat="44.4533583" lon="7.983"><ele>598.0</ele><time>2026-04-25T09:24:47.634Z</time></trkpt><trkpt lat="44.453435" lon="7.98309"><ele>598.0</ele><time>2026-04-25T09:24:48.634Z</time></trkpt><trkpt lat="44.453515" lon="7.9831767"><ele>598.0</ele><time>2026-04-25T09:24:49.634Z</time></trkpt><trkpt lat="44.4535983" lon="7.98327"><ele>598.0</ele><time>2026-04-25T09:24:50.635Z</time></trkpt><trkpt lat="44.4536817" lon="7.983365"><ele>598.0</ele><time>2026-04-25T09:24:51.638Z</time></trkpt><trkpt lat="44.4537667" lon="7.9834617"><ele>596.1999999999999</ele><time>2026-04-25T09:24:52.635Z</time></trkpt><trkpt lat="44.4538533" lon="7.9835567"><ele>594.4</ele><time>2026-04-25T09:24:53.636Z</time></trkpt><trkpt lat="44.453935" lon="7.9836533"><ele>592.5999999999999</ele><time>2026-04-25T09:24:54.633Z</time></trkpt><trkpt lat="44.4540067" lon="7.98375"><ele>590.8</ele><time>2026-04-25T09:24:55.634Z</time></trkpt><trkpt lat="44.4540767" lon="7.9838583"><ele>589.0</ele><time>2026-04-25T09:24:56.637Z</time></trkpt><trkpt lat="44.4541383" lon="7.98398"><ele>589.0</ele><time>2026-04-25T09:24:57.637Z</time></trkpt><trkpt lat="44.4541867" lon="7.9841083"><ele>589.0</ele><time>2026-04-25T09:24:58.634Z</time></trkpt><trkpt lat="44.4542233" lon="7.9842433"><ele>589.0</ele><time>2026-04-25T09:24:59.634Z</time></trkpt><trkpt lat="44.4542533" lon="7.9843833"><ele>589.0</ele><time>2026-04-25T09:25:00.634Z</time></trkpt><trkpt lat="44.4542767" lon="7.9845317"><ele>589.0</ele><time>2026-04-25T09:25:01.637Z</time></trkpt><trkpt lat="44.4542933" lon="7.984675"><ele>588.2</ele><time>2026-04-25T09:25:02.647Z</time></trkpt><trkpt lat="44.45431" lon="7.984805"><ele>587.4</ele><time>2026-04-25T09:25:03.634Z</time></trkpt><trkpt lat="44.4543283" lon="7.984945"><ele>586.6</ele><time>2026-04-25T09:25:04.633Z</time></trkpt><trkpt lat="44.454345" lon="7.9850867"><ele>585.8</ele><time>2026-04-25T09:25:05.634Z</time></trkpt><trkpt lat="44.4543633" lon="7.9852333"><ele>585.0</ele><time>2026-04-25T09:25:06.637Z</time></trkpt><trkpt lat="44.4543783" lon="7.985395"><ele>587.0</ele><time>2026-04-25T09:25:07.635Z</time></trkpt><trkpt lat="44.4543967" lon="7.9855567"><ele>589.0</ele><time>2026-04-25T09:25:08.641Z</time></trkpt><trkpt lat="44.454415" lon="7.9857167"><ele>591.0</ele><time>2026-04-25T09:25:09.634Z</time></trkpt><trkpt lat="44.4544333" lon="7.9858683"><ele>593.0</ele><time>2026-04-25T09:25:10.635Z</time></trkpt><trkpt lat="44.45445" lon="7.9860083"><ele>595.0</ele><time>2026-04-25T09:25:11.635Z</time></trkpt><trkpt lat="44.4544683" lon="7.9861517"><ele>597.75</ele><time>2026-04-25T09:25:12.634Z</time></trkpt><trkpt lat="44.4544933" lon="7.9863083"><ele>600.5</ele><time>2026-04-25T09:25:13.633Z</time></trkpt><trkpt lat="44.4545183" lon="7.9864817"><ele>603.25</ele><time>2026-04-25T09:25:14.635Z</time></trkpt><trkpt lat="44.4545617" lon="7.98666"><ele>606.0</ele><time>2026-04-25T09:25:15.636Z</time></trkpt><trkpt lat="44.4546167" lon="7.9868383"><ele>603.25</ele><time>2026-04-25T09:25:16.633Z</time></trkpt><trkpt lat="44.45467" lon="7.987015"><ele>600.5</ele><time>2026-04-25T09:25:17.634Z</time></trkpt><trkpt lat="44.4547317" lon="7.987185"><ele>597.75</ele><time>2026-04-25T09:25:18.634Z</time></trkpt><trkpt lat="44.4548033" lon="7.9873517"><ele>595.0</ele><time>2026-04-25T09:25:19.634Z</time></trkpt><trkpt lat="44.4548833" lon="7.9875183"><ele>595.0</ele><time>2026-04-25T09:25:20.634Z</time></trkpt><trkpt lat="44.4549667" lon="7.9876833"><ele>595.0</ele><time>2026-04-25T09:25:21.634Z</time></trkpt><trkpt lat="44.4550567" lon="7.9878367"><ele>595.0</ele><time>2026-04-25T09:25:22.638Z</time></trkpt><trkpt lat="44.4551483" lon="7.98798"><ele>595.0</ele><time>2026-04-25T09:25:23.635Z</time></trkpt><trkpt lat="44.4552383" lon="7.9881217"><ele>595.0</ele><time>2026-04-25T09:25:24.639Z</time></trkpt><trkpt lat="44.4553317" lon="7.9882567"><ele>595.0</ele><time>2026-04-25T09:25:25.636Z</time></trkpt><trkpt lat="44.4554367" lon="7.9883833"><ele>595.0</ele><time>2026-04-25T09:25:26.634Z</time></trkpt><trkpt lat="44.4555533" lon="7.988515"><ele>595.0</ele><time>2026-04-25T09:25:27.634Z</time></trkpt><trkpt lat="44.4556717" lon="7.9886483"><ele>597.3333333333334</ele><time>2026-04-25T09:25:28.634Z</time></trkpt><trkpt lat="44.45579" lon="7.9887917"><ele>599.6666666666666</ele><time>2026-04-25T09:25:29.633Z</time></trkpt><trkpt lat="44.4559083" lon="7.988935"><ele>602.0</ele><time>2026-04-25T09:25:30.634Z</time></trkpt><trkpt lat="44.456025" lon="7.9890833"><ele>600.3333333333333</ele><time>2026-04-25T09:25:31.634Z</time></trkpt><trkpt lat="44.4561383" lon="7.9892417"><ele>598.6666666666666</ele><time>2026-04-25T09:25:32.637Z</time></trkpt><trkpt lat="44.4562467" lon="7.9894033"><ele>597.0</ele><time>2026-04-25T09:25:33.634Z</time></trkpt><trkpt lat="44.456345" lon="7.9895733"><ele>597.0</ele><time>2026-04-25T09:25:34.634Z</time></trkpt><trkpt lat="44.4564283" lon="7.9897433"><ele>597.0</ele><time>2026-04-25T09:25:35.639Z</time></trkpt><trkpt lat="44.4564967" lon="7.9899167"><ele>597.0</ele><time>2026-04-25T09:25:36.634Z</time></trkpt><trkpt lat="44.4565467" lon="7.9900967"><ele>597.0</ele><time>2026-04-25T09:25:37.634Z</time></trkpt><trkpt lat="44.4565833" lon="7.9902817"><ele>599.75</ele><time>2026-04-25T09:25:38.635Z</time></trkpt><trkpt lat="44.45661" lon="7.9904633"><ele>602.5</ele><time>2026-04-25T09:25:39.634Z</time></trkpt><trkpt lat="44.45663" lon="7.9906367"><ele>605.25</ele><time>2026-04-25T09:25:40.634Z</time></trkpt><trkpt lat="44.4566517" lon="7.9908067"><ele>608.0</ele><time>2026-04-25T09:25:41.634Z</time></trkpt><trkpt lat="44.4566717" lon="7.99098"><ele>608.25</ele><time>2026-04-25T09:25:42.634Z</time></trkpt><trkpt lat="44.456695" lon="7.9911683"><ele>608.5</ele><time>2026-04-25T09:25:43.635Z</time></trkpt><trkpt lat="44.4567133" lon="7.99136"><ele>608.75</ele><time>2026-04-25T09:25:44.637Z</time></trkpt><trkpt lat="44.4567217" lon="7.991555"><ele>609.0</ele><time>2026-04-25T09:25:45.633Z</time></trkpt><trkpt lat="44.456725" lon="7.9917567"><ele>610.0</ele><time>2026-04-25T09:25:46.636Z</time></trkpt><trkpt lat="44.456725" lon="7.9919617"><ele>611.0</ele><time>2026-04-25T09:25:47.638Z</time></trkpt><trkpt lat="44.456725" lon="7.9921667"><ele>612.0</ele><time>2026-04-25T09:25:48.637Z</time></trkpt><trkpt lat="44.4567183" lon="7.99237"><ele>613.0</ele><time>2026-04-25T09:25:49.632Z</time></trkpt><trkpt lat="44.45671" lon="7.9925633"><ele>613.25</ele><time>2026-04-25T09:25:50.638Z</time></trkpt><trkpt lat="44.4567033" lon="7.9927467"><ele>613.5</ele><time>2026-04-25T09:25:51.634Z</time></trkpt><trkpt lat="44.4567017" lon="7.992925"><ele>613.75</ele><time>2026-04-25T09:25:52.635Z</time></trkpt><trkpt lat="44.4567" lon="7.9931017"><ele>614.0</ele><time>2026-04-25T09:25:53.636Z</time></trkpt><trkpt lat="44.4566917" lon="7.9932817"><ele>613.0</ele><time>2026-04-25T09:25:54.635Z</time></trkpt><trkpt lat="44.4566733" lon="7.9934683"><ele>612.0</ele><time>2026-04-25T09:25:55.634Z</time></trkpt><trkpt lat="44.4566533" lon="7.9936517"><ele>611.0</ele><time>2026-04-25T09:25:56.635Z</time></trkpt><trkpt lat="44.45663" lon="7.9938217"><ele>610.0</ele><time>2026-04-25T09:25:57.638Z</time></trkpt><trkpt lat="44.4566083" lon="7.993975"><ele>610.0</ele><time>2026-04-25T09:25:58.634Z</time></trkpt><trkpt lat="44.456585" lon="7.9941133"><ele>610.0</ele><time>2026-04-25T09:25:59.637Z</time></trkpt><trkpt lat="44.456565" lon="7.9942433"><ele>610.0</ele><time>2026-04-25T09:26:00.634Z</time></trkpt><trkpt lat="44.4565483" lon="7.9943833"><ele>610.0</ele><time>2026-04-25T09:26:01.633Z</time></trkpt><trkpt lat="44.45653" lon="7.9945383"><ele>610.0</ele><time>2026-04-25T09:26:02.634Z</time></trkpt><trkpt lat="44.4565167" lon="7.994695"><ele>610.0</ele><time>2026-04-25T09:26:03.634Z</time></trkpt><trkpt lat="44.4565083" lon="7.994855"><ele>610.0</ele><time>2026-04-25T09:26:04.637Z</time></trkpt><trkpt lat="44.4564967" lon="7.9950217"><ele>610.0</ele><time>2026-04-25T09:26:05.632Z</time></trkpt><trkpt lat="44.4564783" lon="7.9951967"><ele>610.0</ele><time>2026-04-25T09:26:06.634Z</time></trkpt><trkpt lat="44.4564533" lon="7.9953817"><ele>610.0</ele><time>2026-04-25T09:26:07.634Z</time></trkpt><trkpt lat="44.4564183" lon="7.995575"><ele>610.0</ele><time>2026-04-25T09:26:08.635Z</time></trkpt><trkpt lat="44.456375" lon="7.9957733"><ele>610.0</ele><time>2026-04-25T09:26:09.637Z</time></trkpt><trkpt lat="44.45632" lon="7.9959767"><ele>610.0</ele><time>2026-04-25T09:26:10.633Z</time></trkpt><trkpt lat="44.4562583" lon="7.996185"><ele>610.0</ele><time>2026-04-25T09:26:11.633Z</time></trkpt><trkpt lat="44.4561967" lon="7.9963883"><ele>610.0</ele><time>2026-04-25T09:26:12.633Z</time></trkpt><trkpt lat="44.4561383" lon="7.9965767"><ele>610.0</ele><time>2026-04-25T09:26:13.634Z</time></trkpt><trkpt lat="44.4560983" lon="7.99676"><ele>610.0</ele><time>2026-04-25T09:26:14.633Z</time></trkpt><trkpt lat="44.45609" lon="7.99695"><ele>610.0</ele><time>2026-04-25T09:26:15.635Z</time></trkpt><trkpt lat="44.4561017" lon="7.9971433"><ele>610.0</ele><time>2026-04-25T09:26:16.634Z</time></trkpt><trkpt lat="44.4561217" lon="7.9973467"><ele>610.0</ele><time>2026-04-25T09:26:17.634Z</time></trkpt><trkpt lat="44.456155" lon="7.9975567"><ele>610.0</ele><time>2026-04-25T09:26:18.637Z</time></trkpt><trkpt lat="44.4561967" lon="7.9977767"><ele>609.0</ele><time>2026-04-25T09:26:19.634Z</time></trkpt><trkpt lat="44.4562533" lon="7.9979983"><ele>608.0</ele><time>2026-04-25T09:26:20.636Z</time></trkpt><trkpt lat="44.4563117" lon="7.9982067"><ele>607.0</ele><time>2026-04-25T09:26:21.633Z</time></trkpt><trkpt lat="44.4563717" lon="7.9983983"><ele>610.0</ele><time>2026-04-25T09:26:22.634Z</time></trkpt><trkpt lat="44.4564367" lon="7.9985867"><ele>613.0</ele><time>2026-04-25T09:26:23.634Z</time></trkpt><trkpt lat="44.456505" lon="7.9987817"><ele>616.0</ele><time>2026-04-25T09:26:24.633Z</time></trkpt><trkpt lat="44.45657" lon="7.99897"><ele>616.0</ele><time>2026-04-25T09:26:25.633Z</time></trkpt><trkpt lat="44.45663" lon="7.9991517"><ele>616.0</ele><time>2026-04-25T09:26:26.639Z</time></trkpt><trkpt lat="44.45669" lon="7.9993283"><ele>616.0</ele><time>2026-04-25T09:26:27.642Z</time></trkpt><trkpt lat="44.4567433" lon="7.99949"><ele>616.0</ele><time>2026-04-25T09:26:28.634Z</time></trkpt><trkpt lat="44.4567933" lon="7.9996433"><ele>615.25</ele><time>2026-04-25T09:26:29.634Z</time></trkpt><trkpt lat="44.4568433" lon="7.9997883"><ele>614.5</ele><time>2026-04-25T09:26:30.635Z</time></trkpt><trkpt lat="44.4569017" lon="7.999925"><ele>613.75</ele><time>2026-04-25T09:26:31.633Z</time></trkpt><trkpt lat="44.45697" lon="8.0000633"><ele>613.0</ele><time>2026-04-25T09:26:32.633Z</time></trkpt><trkpt lat="44.4570517" lon="8.0002083"><ele>614.25</ele><time>2026-04-25T09:26:33.634Z</time></trkpt><trkpt lat="44.4571433" lon="8.0003533"><ele>615.5</ele><time>2026-04-25T09:26:34.633Z</time></trkpt><trkpt lat="44.4572433" lon="8.0004917"><ele>616.75</ele><time>2026-04-25T09:26:35.633Z</time></trkpt><trkpt lat="44.4573333" lon="8.0006283"><ele>618.0</ele><time>2026-04-25T09:26:36.635Z</time></trkpt><trkpt lat="44.45741" lon="8.000765"><ele>618.75</ele><time>2026-04-25T09:26:37.634Z</time></trkpt><trkpt lat="44.4574733" lon="8.00091"><ele>619.5</ele><time>2026-04-25T09:26:38.635Z</time></trkpt><trkpt lat="44.457525" lon="8.0010683"><ele>620.25</ele><time>2026-04-25T09:26:39.635Z</time></trkpt><trkpt lat="44.4575733" lon="8.0012483"><ele>621.0</ele><time>2026-04-25T09:26:40.634Z</time></trkpt><trkpt lat="44.4576217" lon="8.00144"><ele>621.0</ele><time>2026-04-25T09:26:41.636Z</time></trkpt><trkpt lat="44.4576767" lon="8.0016433"><ele>621.0</ele><time>2026-04-25T09:26:42.635Z</time></trkpt><trkpt lat="44.4577333" lon="8.0018483"><ele>621.0</ele><time>2026-04-25T09:26:43.635Z</time></trkpt><trkpt lat="44.45779" lon="8.0020467"><ele>621.25</ele><time>2026-04-25T09:26:44.634Z</time></trkpt><trkpt lat="44.4578383" lon="8.00223"><ele>621.5</ele><time>2026-04-25T09:26:45.634Z</time></trkpt><trkpt lat="44.4578817" lon="8.0024067"><ele>621.75</ele><time>2026-04-25T09:26:46.633Z</time></trkpt><trkpt lat="44.45792" lon="8.0025717"><ele>622.0</ele><time>2026-04-25T09:26:47.636Z</time></trkpt><trkpt lat="44.457955" lon="8.002745"><ele>622.0</ele><time>2026-04-25T09:26:48.636Z</time></trkpt><trkpt lat="44.45798" lon="8.0029333"><ele>622.0</ele><time>2026-04-25T09:26:49.635Z</time></trkpt><trkpt lat="44.4579933" lon="8.003135"><ele>622.0</ele><time>2026-04-25T09:26:50.635Z</time></trkpt><trkpt lat="44.4579917" lon="8.00335"><ele>622.0</ele><time>2026-04-25T09:26:51.639Z</time></trkpt><trkpt lat="44.4579817" lon="8.003575"><ele>622.6666666666667</ele><time>2026-04-25T09:26:52.635Z</time></trkpt><trkpt lat="44.4579633" lon="8.0037917"><ele>623.3333333333334</ele><time>2026-04-25T09:26:53.633Z</time></trkpt><trkpt lat="44.4579317" lon="8.0039933"><ele>624.0</ele><time>2026-04-25T09:26:54.633Z</time></trkpt><trkpt lat="44.4578933" lon="8.0042"><ele>624.0</ele><time>2026-04-25T09:26:55.635Z</time></trkpt><trkpt lat="44.4578517" lon="8.0044017"><ele>624.0</ele><time>2026-04-25T09:26:56.637Z</time></trkpt><trkpt lat="44.4578133" lon="8.004585"><ele>624.0</ele><time>2026-04-25T09:26:57.637Z</time></trkpt><trkpt lat="44.4577683" lon="8.0047467"><ele>624.0</ele><time>2026-04-25T09:26:58.633Z</time></trkpt><trkpt lat="44.4577183" lon="8.00489"><ele>626.0</ele><time>2026-04-25T09:26:59.634Z</time></trkpt><trkpt lat="44.4576517" lon="8.0050183"><ele>628.0</ele><time>2026-04-25T09:27:00.635Z</time></trkpt><trkpt lat="44.4575717" lon="8.0051333"><ele>630.0</ele><time>2026-04-25T09:27:01.634Z</time></trkpt><trkpt lat="44.4574717" lon="8.005235"><ele>632.0</ele><time>2026-04-25T09:27:02.636Z</time></trkpt><trkpt lat="44.4573683" lon="8.0053217"><ele>632.0</ele><time>2026-04-25T09:27:03.635Z</time></trkpt><trkpt lat="44.4572617" lon="8.0053983"><ele>632.0</ele><time>2026-04-25T09:27:04.634Z</time></trkpt><trkpt lat="44.4571733" lon="8.005465"><ele>632.0</ele><time>2026-04-25T09:27:05.635Z</time></trkpt><trkpt lat="44.4571017" lon="8.00552"><ele>632.0</ele><time>2026-04-25T09:27:06.636Z</time></trkpt><trkpt lat="44.45703" lon="8.005565"><ele>632.0</ele><time>2026-04-25T09:27:07.634Z</time></trkpt><trkpt lat="44.45696" lon="8.005585"><ele>633.8333333333333</ele><time>2026-04-25T09:27:08.638Z</time></trkpt><trkpt lat="44.4568817" lon="8.00558"><ele>635.6666666666666</ele><time>2026-04-25T09:27:09.635Z</time></trkpt><trkpt lat="44.4567983" lon="8.0055417"><ele>637.5</ele><time>2026-04-25T09:27:10.634Z</time></trkpt><trkpt lat="44.4567267" lon="8.0054767"><ele>639.3333333333334</ele><time>2026-04-25T09:27:11.634Z</time></trkpt><trkpt lat="44.45668" lon="8.0053783"><ele>641.1666666666667</ele><time>2026-04-25T09:27:12.633Z</time></trkpt><trkpt lat="44.4566433" lon="8.00527"><ele>643.0</ele><time>2026-04-25T09:27:13.635Z</time></trkpt><trkpt lat="44.456595" lon="8.0051717"><ele>643.0</ele><time>2026-04-25T09:27:14.636Z</time></trkpt><trkpt lat="44.45652" lon="8.0051017"><ele>643.0</ele><time>2026-04-25T09:27:15.637Z</time></trkpt><trkpt lat="44.456435" lon="8.005065"><ele>643.0</ele><time>2026-04-25T09:27:16.634Z</time></trkpt><trkpt lat="44.456335" lon="8.00508"><ele>643.0</ele><time>2026-04-25T09:27:17.634Z</time></trkpt><trkpt lat="44.45623" lon="8.005115"><ele>643.0</ele><time>2026-04-25T09:27:18.636Z</time></trkpt><trkpt lat="44.45613" lon="8.0051383"><ele>642.8</ele><time>2026-04-25T09:27:19.634Z</time></trkpt><trkpt lat="44.4560367" lon="8.005135"><ele>642.5999999999999</ele><time>2026-04-25T09:27:20.638Z</time></trkpt><trkpt lat="44.4559417" lon="8.005095"><ele>642.4000000000001</ele><time>2026-04-25T09:27:21.636Z</time></trkpt><trkpt lat="44.4558517" lon="8.0050183"><ele>642.2</ele><time>2026-04-25T09:27:22.636Z</time></trkpt><trkpt lat="44.4557833" lon="8.0049183"><ele>642.0</ele><time>2026-04-25T09:27:23.634Z</time></trkpt><trkpt lat="44.45573" lon="8.0048267"><ele>642.0</ele><time>2026-04-25T09:27:24.634Z</time></trkpt><trkpt lat="44.4556833" lon="8.00475"><ele>642.0</ele><time>2026-04-25T09:27:25.635Z</time></trkpt><trkpt lat="44.4555733" lon="8.0046767"><ele>642.0</ele><time>2026-04-25T09:27:27.633Z</time></trkpt><trkpt lat="44.455465" lon="8.0047567"><ele>642.0</ele><time>2026-04-25T09:27:29.633Z</time></trkpt><trkpt lat="44.4554617" lon="8.0048617"><ele>642.0</ele><time>2026-04-25T09:27:30.633Z</time></trkpt><trkpt lat="44.45552" lon="8.0049933"><ele>645.25</ele><time>2026-04-25T09:27:31.634Z</time></trkpt><trkpt lat="44.45561" lon="8.005105"><ele>648.5</ele><time>2026-04-25T09:27:32.635Z</time></trkpt><trkpt lat="44.4557167" lon="8.0052033"><ele>651.75</ele><time>2026-04-25T09:27:33.637Z</time></trkpt><trkpt lat="44.4558133" lon="8.005295"><ele>655.0</ele><time>2026-04-25T09:27:34.634Z</time></trkpt><trkpt lat="44.4559067" lon="8.0053767"><ele>655.0</ele><time>2026-04-25T09:27:35.638Z</time></trkpt><trkpt lat="44.456005" lon="8.00547"><ele>655.0</ele><time>2026-04-25T09:27:36.633Z</time></trkpt><trkpt lat="44.4561067" lon="8.0055767"><ele>655.0</ele><time>2026-04-25T09:27:37.633Z</time></trkpt><trkpt lat="44.4561933" lon="8.005705"><ele>655.0</ele><time>2026-04-25T09:27:38.636Z</time></trkpt><trkpt lat="44.456245" lon="8.0058517"><ele>654.8</ele><time>2026-04-25T09:27:39.635Z</time></trkpt><trkpt lat="44.4562733" lon="8.0060083"><ele>654.6</ele><time>2026-04-25T09:27:40.636Z</time></trkpt><trkpt lat="44.4562867" lon="8.00616"><ele>654.4000000000001</ele><time>2026-04-25T09:27:41.634Z</time></trkpt><trkpt lat="44.456295" lon="8.00631"><ele>654.2</ele><time>2026-04-25T09:27:42.635Z</time></trkpt><trkpt lat="44.45632" lon="8.0064567"><ele>654.0</ele><time>2026-04-25T09:27:43.634Z</time></trkpt><trkpt lat="44.4563683" lon="8.0065967"><ele>656.25</ele><time>2026-04-25T09:27:44.633Z</time></trkpt><trkpt lat="44.4564433" lon="8.0067267"><ele>658.5</ele><time>2026-04-25T09:27:45.636Z</time></trkpt><trkpt lat="44.4565283" lon="8.0068583"><ele>660.75</ele><time>2026-04-25T09:27:46.635Z</time></trkpt><trkpt lat="44.45661" lon="8.0070083"><ele>663.0</ele><time>2026-04-25T09:27:47.634Z</time></trkpt><trkpt lat="44.4566767" lon="8.0071883"><ele>663.0</ele><time>2026-04-25T09:27:48.635Z</time></trkpt><trkpt lat="44.45673" lon="8.007385"><ele>663.0</ele><time>2026-04-25T09:27:49.634Z</time></trkpt><trkpt lat="44.4567767" lon="8.0075767"><ele>663.0</ele><time>2026-04-25T09:27:50.639Z</time></trkpt><trkpt lat="44.45684" lon="8.0077533"><ele>663.0</ele><time>2026-04-25T09:27:51.635Z</time></trkpt><trkpt lat="44.4569333" lon="8.0079083"><ele>662.0</ele><time>2026-04-25T09:27:52.635Z</time></trkpt><trkpt lat="44.4570417" lon="8.0080483"><ele>661.0</ele><time>2026-04-25T09:27:53.634Z</time></trkpt><trkpt lat="44.4571483" lon="8.00819"><ele>660.0</ele><time>2026-04-25T09:27:54.635Z</time></trkpt><trkpt lat="44.4572483" lon="8.008335"><ele>659.0</ele><time>2026-04-25T09:27:55.637Z</time></trkpt><trkpt lat="44.4573417" lon="8.00849"><ele>662.5</ele><time>2026-04-25T09:27:56.635Z</time></trkpt><trkpt lat="44.4574233" lon="8.008655"><ele>666.0</ele><time>2026-04-25T09:27:57.638Z</time></trkpt><trkpt lat="44.4574983" lon="8.0088283"><ele>669.5</ele><time>2026-04-25T09:27:58.635Z</time></trkpt><trkpt lat="44.4575733" lon="8.0090083"><ele>673.0</ele><time>2026-04-25T09:27:59.634Z</time></trkpt><trkpt lat="44.4576467" lon="8.0091883"><ele>675.0</ele><time>2026-04-25T09:28:00.635Z</time></trkpt><trkpt lat="44.45772" lon="8.0093783"><ele>677.0</ele><time>2026-04-25T09:28:01.634Z</time></trkpt><trkpt lat="44.45779" lon="8.00956"><ele>679.0</ele><time>2026-04-25T09:28:02.636Z</time></trkpt><trkpt lat="44.4578567" lon="8.00974"><ele>681.0</ele><time>2026-04-25T09:28:03.636Z</time></trkpt><trkpt lat="44.4579233" lon="8.0099167"><ele>680.75</ele><time>2026-04-25T09:28:04.634Z</time></trkpt><trkpt lat="44.45799" lon="8.0101"><ele>680.5</ele><time>2026-04-25T09:28:05.633Z</time></trkpt><trkpt lat="44.458055" lon="8.0102817"><ele>680.25</ele><time>2026-04-25T09:28:06.633Z</time></trkpt><trkpt lat="44.45812" lon="8.0104617"><ele>680.0</ele><time>2026-04-25T09:28:07.634Z</time></trkpt><trkpt lat="44.458185" lon="8.010635"><ele>680.0</ele><time>2026-04-25T09:28:08.635Z</time></trkpt><trkpt lat="44.4582517" lon="8.0108033"><ele>680.0</ele><time>2026-04-25T09:28:09.635Z</time></trkpt><trkpt lat="44.45832" lon="8.010965"><ele>680.0</ele><time>2026-04-25T09:28:10.64Z</time></trkpt><trkpt lat="44.4583883" lon="8.0111167"><ele>680.0</ele><time>2026-04-25T09:28:11.636Z</time></trkpt><trkpt lat="44.4584667" lon="8.011255"><ele>681.5</ele><time>2026-04-25T09:28:12.635Z</time></trkpt><trkpt lat="44.4585533" lon="8.0113817"><ele>683.0</ele><time>2026-04-25T09:28:13.635Z</time></trkpt><trkpt lat="44.45865" lon="8.0115033"><ele>684.5</ele><time>2026-04-25T09:28:14.634Z</time></trkpt><trkpt lat="44.4587533" lon="8.011625"><ele>686.0</ele><time>2026-04-25T09:28:15.636Z</time></trkpt><trkpt lat="44.4588567" lon="8.0117467"><ele>686.5</ele><time>2026-04-25T09:28:16.633Z</time></trkpt><trkpt lat="44.4589633" lon="8.01187"><ele>687.0</ele><time>2026-04-25T09:28:17.635Z</time></trkpt><trkpt lat="44.459065" lon="8.012005"><ele>687.5</ele><time>2026-04-25T09:28:18.633Z</time></trkpt><trkpt lat="44.4591633" lon="8.0121467"><ele>688.0</ele><time>2026-04-25T09:28:19.637Z</time></trkpt><trkpt lat="44.4592567" lon="8.0122933"><ele>688.0</ele><time>2026-04-25T09:28:20.634Z</time></trkpt><trkpt lat="44.459345" lon="8.0124433"><ele>688.0</ele><time>2026-04-25T09:28:21.634Z</time></trkpt><trkpt lat="44.4594267" lon="8.0125983"><ele>688.0</ele><time>2026-04-25T09:28:22.634Z</time></trkpt><trkpt lat="44.4595067" lon="8.0127583"><ele>688.0</ele><time>2026-04-25T09:28:23.633Z</time></trkpt><trkpt lat="44.4595867" lon="8.01292"><ele>689.0</ele><time>2026-04-25T09:28:24.641Z</time></trkpt><trkpt lat="44.4596683" lon="8.013085"><ele>690.0</ele><time>2026-04-25T09:28:25.634Z</time></trkpt><trkpt lat="44.459755" lon="8.0132367"><ele>691.0</ele><time>2026-04-25T09:28:26.634Z</time></trkpt><trkpt lat="44.459845" lon="8.013385"><ele>692.0</ele><time>2026-04-25T09:28:27.634Z</time></trkpt><trkpt lat="44.4599417" lon="8.013535"><ele>691.75</ele><time>2026-04-25T09:28:28.634Z</time></trkpt><trkpt lat="44.4600417" lon="8.0136733"><ele>691.5</ele><time>2026-04-25T09:28:29.634Z</time></trkpt><trkpt lat="44.4601317" lon="8.013825"><ele>691.25</ele><time>2026-04-25T09:28:30.634Z</time></trkpt><trkpt lat="44.4601983" lon="8.0139967"><ele>691.0</ele><time>2026-04-25T09:28:31.635Z</time></trkpt><trkpt lat="44.4602367" lon="8.01417"><ele>691.0</ele><time>2026-04-25T09:28:32.636Z</time></trkpt><trkpt lat="44.460265" lon="8.0143583"><ele>691.0</ele><time>2026-04-25T09:28:33.637Z</time></trkpt><trkpt lat="44.4602833" lon="8.014555"><ele>691.0</ele><time>2026-04-25T09:28:34.635Z</time></trkpt><trkpt lat="44.460305" lon="8.014755"><ele>691.0</ele><time>2026-04-25T09:28:35.635Z</time></trkpt><trkpt lat="44.46033" lon="8.01495"><ele>690.25</ele><time>2026-04-25T09:28:36.634Z</time></trkpt><trkpt lat="44.4603567" lon="8.0151533"><ele>689.5</ele><time>2026-04-25T09:28:37.634Z</time></trkpt><trkpt lat="44.4603833" lon="8.0153533"><ele>688.75</ele><time>2026-04-25T09:28:38.634Z</time></trkpt><trkpt lat="44.46041" lon="8.0155533"><ele>688.0</ele><time>2026-04-25T09:28:39.633Z</time></trkpt><trkpt lat="44.460435" lon="8.0157483"><ele>695.75</ele><time>2026-04-25T09:28:40.634Z</time></trkpt><trkpt lat="44.46046" lon="8.0159417"><ele>703.5</ele><time>2026-04-25T09:28:41.633Z</time></trkpt><trkpt lat="44.4604867" lon="8.01614"><ele>711.25</ele><time>2026-04-25T09:28:42.633Z</time></trkpt><trkpt lat="44.4605167" lon="8.0163383"><ele>719.0</ele><time>2026-04-25T09:28:43.635Z</time></trkpt><trkpt lat="44.4605417" lon="8.0165383"><ele>719.25</ele><time>2026-04-25T09:28:44.634Z</time></trkpt><trkpt lat="44.4605583" lon="8.0167217"><ele>719.5</ele><time>2026-04-25T09:28:45.635Z</time></trkpt><trkpt lat="44.46056" lon="8.0169017"><ele>719.75</ele><time>2026-04-25T09:28:46.633Z</time></trkpt><trkpt lat="44.46054" lon="8.0170867"><ele>720.0</ele><time>2026-04-25T09:28:47.636Z</time></trkpt><trkpt lat="44.4605167" lon="8.0172717"><ele>720.0</ele><time>2026-04-25T09:28:48.636Z</time></trkpt><trkpt lat="44.4604967" lon="8.0174583"><ele>720.0</ele><time>2026-04-25T09:28:49.635Z</time></trkpt><trkpt lat="44.460485" lon="8.01766"><ele>720.0</ele><time>2026-04-25T09:28:50.635Z</time></trkpt><trkpt lat="44.4604867" lon="8.0178417"><ele>720.0</ele><time>2026-04-25T09:28:51.635Z</time></trkpt><trkpt lat="44.4605083" lon="8.0180167"><ele>720.25</ele><time>2026-04-25T09:28:52.634Z</time></trkpt><trkpt lat="44.46056" lon="8.018185"><ele>720.5</ele><time>2026-04-25T09:28:53.634Z</time></trkpt><trkpt lat="44.460625" lon="8.0183383"><ele>720.75</ele><time>2026-04-25T09:28:54.637Z</time></trkpt><trkpt lat="44.4606867" lon="8.01849"><ele>721.0</ele><time>2026-04-25T09:28:55.635Z</time></trkpt><trkpt lat="44.460745" lon="8.0186483"><ele>720.5</ele><time>2026-04-25T09:28:56.634Z</time></trkpt><trkpt lat="44.4607883" lon="8.018815"><ele>720.0</ele><time>2026-04-25T09:28:57.633Z</time></trkpt><trkpt lat="44.46083" lon="8.0189917"><ele>719.5</ele><time>2026-04-25T09:28:58.632Z</time></trkpt><trkpt lat="44.4608467" lon="8.0191683"><ele>719.0</ele><time>2026-04-25T09:28:59.633Z</time></trkpt><trkpt lat="44.4608667" lon="8.01935"><ele>718.5</ele><time>2026-04-25T09:29:00.634Z</time></trkpt><trkpt lat="44.4608867" lon="8.0195267"><ele>718.0</ele><time>2026-04-25T09:29:01.637Z</time></trkpt><trkpt lat="44.46091" lon="8.0197033"><ele>717.5</ele><time>2026-04-25T09:29:02.636Z</time></trkpt><trkpt lat="44.4609317" lon="8.0198767"><ele>717.0</ele><time>2026-04-25T09:29:03.636Z</time></trkpt><trkpt lat="44.460955" lon="8.0200483"><ele>717.0</ele><time>2026-04-25T09:29:04.632Z</time></trkpt><trkpt lat="44.4609817" lon="8.02022"><ele>717.0</ele><time>2026-04-25T09:29:05.634Z</time></trkpt><trkpt lat="44.4610133" lon="8.0203917"><ele>717.0</ele><time>2026-04-25T09:29:06.634Z</time></trkpt><trkpt lat="44.46105" lon="8.0205683"><ele>717.0</ele><time>2026-04-25T09:29:07.634Z</time></trkpt><trkpt lat="44.461085" lon="8.020745"><ele>719.0</ele><time>2026-04-25T09:29:08.636Z</time></trkpt><trkpt lat="44.4611217" lon="8.020925"><ele>721.0</ele><time>2026-04-25T09:29:09.635Z</time></trkpt><trkpt lat="44.4611583" lon="8.0211"><ele>723.0</ele><time>2026-04-25T09:29:10.635Z</time></trkpt><trkpt lat="44.4611967" lon="8.021275"><ele>725.0</ele><time>2026-04-25T09:29:11.634Z</time></trkpt><trkpt lat="44.4612317" lon="8.02145"><ele>725.0</ele><time>2026-04-25T09:29:12.634Z</time></trkpt><trkpt lat="44.4612633" lon="8.021615"><ele>725.0</ele><time>2026-04-25T09:29:13.636Z</time></trkpt><trkpt lat="44.461285" lon="8.0217733"><ele>725.0</ele><time>2026-04-25T09:29:14.634Z</time></trkpt><trkpt lat="44.4612917" lon="8.0219167"><ele>725.0</ele><time>2026-04-25T09:29:15.633Z</time></trkpt><trkpt lat="44.4612667" lon="8.02205"><ele>725.0</ele><time>2026-04-25T09:29:16.632Z</time></trkpt><trkpt lat="44.4612067" lon="8.02216"><ele>724.25</ele><time>2026-04-25T09:29:17.634Z</time></trkpt><trkpt lat="44.4611233" lon="8.02226"><ele>723.5</ele><time>2026-04-25T09:29:18.639Z</time></trkpt><trkpt lat="44.4610283" lon="8.02235"><ele>722.75</ele><time>2026-04-25T09:29:19.634Z</time></trkpt><trkpt lat="44.4609217" lon="8.02243"><ele>722.0</ele><time>2026-04-25T09:29:20.635Z</time></trkpt><trkpt lat="44.4608067" lon="8.02251"><ele>722.0</ele><time>2026-04-25T09:29:21.634Z</time></trkpt><trkpt lat="44.4606867" lon="8.02259"><ele>722.0</ele><time>2026-04-25T09:29:22.634Z</time></trkpt><trkpt lat="44.4605633" lon="8.02267"><ele>722.0</ele><time>2026-04-25T09:29:23.634Z</time></trkpt><trkpt lat="44.4604417" lon="8.0227517"><ele>722.0</ele><time>2026-04-25T09:29:24.635Z</time></trkpt><trkpt lat="44.460315" lon="8.022835"><ele>724.25</ele><time>2026-04-25T09:29:25.635Z</time></trkpt><trkpt lat="44.460185" lon="8.0229217"><ele>726.5</ele><time>2026-04-25T09:29:26.634Z</time></trkpt><trkpt lat="44.4600517" lon="8.0230117"><ele>728.75</ele><time>2026-04-25T09:29:27.638Z</time></trkpt><trkpt lat="44.459915" lon="8.0231"><ele>731.0</ele><time>2026-04-25T09:29:28.633Z</time></trkpt><trkpt lat="44.4597767" lon="8.0231883"><ele>731.0</ele><time>2026-04-25T09:29:29.642Z</time></trkpt><trkpt lat="44.45964" lon="8.0232783"><ele>731.0</ele><time>2026-04-25T09:29:30.634Z</time></trkpt><trkpt lat="44.4595" lon="8.0233667"><ele>731.0</ele><time>2026-04-25T09:29:31.635Z</time></trkpt><trkpt lat="44.459355" lon="8.0234633"><ele>729.3333333333333</ele><time>2026-04-25T09:29:32.634Z</time></trkpt><trkpt lat="44.4592117" lon="8.02356"><ele>727.6666666666666</ele><time>2026-04-25T09:29:33.634Z</time></trkpt><trkpt lat="44.4590683" lon="8.0236667"><ele>726.0</ele><time>2026-04-25T09:29:34.634Z</time></trkpt><trkpt lat="44.45893" lon="8.0237833"><ele>726.0</ele><time>2026-04-25T09:29:35.634Z</time></trkpt><trkpt lat="44.4588083" lon="8.023915"><ele>726.0</ele><time>2026-04-25T09:29:36.636Z</time></trkpt><trkpt lat="44.4586933" lon="8.0240717"><ele>726.0</ele><time>2026-04-25T09:29:37.636Z</time></trkpt><trkpt lat="44.4585867" lon="8.0242467"><ele>723.6666666666666</ele><time>2026-04-25T09:29:38.637Z</time></trkpt><trkpt lat="44.458495" lon="8.0244367"><ele>721.3333333333333</ele><time>2026-04-25T09:29:39.636Z</time></trkpt><trkpt lat="44.458425" lon="8.0246383"><ele>719.0</ele><time>2026-04-25T09:29:40.634Z</time></trkpt><trkpt lat="44.4583683" lon="8.024855"><ele>720.3333333333333</ele><time>2026-04-25T09:29:41.634Z</time></trkpt><trkpt lat="44.4583333" lon="8.025075"><ele>721.6666666666666</ele><time>2026-04-25T09:29:42.635Z</time></trkpt><trkpt lat="44.45831" lon="8.0252933"><ele>723.0</ele><time>2026-04-25T09:29:43.632Z</time></trkpt><trkpt lat="44.4582867" lon="8.025515"><ele>723.0</ele><time>2026-04-25T09:29:44.638Z</time></trkpt><trkpt lat="44.458265" lon="8.0257383"><ele>723.0</ele><time>2026-04-25T09:29:45.633Z</time></trkpt><trkpt lat="44.4582417" lon="8.0259617"><ele>723.0</ele><time>2026-04-25T09:29:46.633Z</time></trkpt><trkpt lat="44.45822" lon="8.0261867"><ele>723.3333333333334</ele><time>2026-04-25T09:29:47.635Z</time></trkpt><trkpt lat="44.4582017" lon="8.0264083"><ele>723.6666666666667</ele><time>2026-04-25T09:29:48.636Z</time></trkpt><trkpt lat="44.4581817" lon="8.026625"><ele>724.0</ele><time>2026-04-25T09:29:49.638Z</time></trkpt><trkpt lat="44.4581767" lon="8.0268417"><ele>725.6666666666667</ele><time>2026-04-25T09:29:50.635Z</time></trkpt><trkpt lat="44.4581917" lon="8.0270533"><ele>727.3333333333334</ele><time>2026-04-25T09:29:51.636Z</time></trkpt><trkpt lat="44.45822" lon="8.02726"><ele>729.0</ele><time>2026-04-25T09:29:52.637Z</time></trkpt><trkpt lat="44.458255" lon="8.0274633"><ele>730.0</ele><time>2026-04-25T09:29:53.636Z</time></trkpt><trkpt lat="44.458285" lon="8.0276667"><ele>731.0</ele><time>2026-04-25T09:29:54.636Z</time></trkpt><trkpt lat="44.4583183" lon="8.0278667"><ele>732.0</ele><time>2026-04-25T09:29:55.634Z</time></trkpt><trkpt lat="44.458355" lon="8.028065"><ele>733.0</ele><time>2026-04-25T09:29:56.642Z</time></trkpt><trkpt lat="44.4583917" lon="8.0282617"><ele>732.75</ele><time>2026-04-25T09:29:57.636Z</time></trkpt><trkpt lat="44.4584317" lon="8.028455"><ele>732.5</ele><time>2026-04-25T09:29:58.634Z</time></trkpt><trkpt lat="44.4584783" lon="8.028645"><ele>732.25</ele><time>2026-04-25T09:29:59.633Z</time></trkpt><trkpt lat="44.4585417" lon="8.02882"><ele>732.0</ele><time>2026-04-25T09:30:00.635Z</time></trkpt><trkpt lat="44.4586117" lon="8.0289883"><ele>731.5</ele><time>2026-04-25T09:30:01.636Z</time></trkpt><trkpt lat="44.4586817" lon="8.0291567"><ele>731.0</ele><time>2026-04-25T09:30:02.636Z</time></trkpt><trkpt lat="44.458755" lon="8.029325"><ele>730.5</ele><time>2026-04-25T09:30:03.636Z</time></trkpt><trkpt lat="44.4588283" lon="8.0294967"><ele>730.0</ele><time>2026-04-25T09:30:04.636Z</time></trkpt><trkpt lat="44.4589033" lon="8.02967"><ele>732.25</ele><time>2026-04-25T09:30:05.636Z</time></trkpt><trkpt lat="44.4589767" lon="8.0298433"><ele>734.5</ele><time>2026-04-25T09:30:06.637Z</time></trkpt><trkpt lat="44.45905" lon="8.0300133"><ele>736.75</ele><time>2026-04-25T09:30:07.637Z</time></trkpt><trkpt lat="44.459125" lon="8.0301933"><ele>739.0</ele><time>2026-04-25T09:30:08.635Z</time></trkpt><trkpt lat="44.4592" lon="8.0303733"><ele>740.0</ele><time>2026-04-25T09:30:09.639Z</time></trkpt><trkpt lat="44.4592733" lon="8.0305533"><ele>741.0</ele><time>2026-04-25T09:30:10.641Z</time></trkpt><trkpt lat="44.45935" lon="8.030735"><ele>742.0</ele><time>2026-04-25T09:30:11.634Z</time></trkpt><trkpt lat="44.4594267" lon="8.0309167"><ele>743.0</ele><time>2026-04-25T09:30:12.634Z</time></trkpt><trkpt lat="44.4595033" lon="8.0310983"><ele>743.0</ele><time>2026-04-25T09:30:13.635Z</time></trkpt><trkpt lat="44.4595783" lon="8.03128"><ele>743.0</ele><time>2026-04-25T09:30:14.633Z</time></trkpt><trkpt lat="44.4596517" lon="8.031465"><ele>743.0</ele><time>2026-04-25T09:30:15.634Z</time></trkpt><trkpt lat="44.4597233" lon="8.0316533"><ele>745.75</ele><time>2026-04-25T09:30:16.635Z</time></trkpt><trkpt lat="44.4597917" lon="8.0318367"><ele>748.5</ele><time>2026-04-25T09:30:17.636Z</time></trkpt><trkpt lat="44.4598517" lon="8.03202"><ele>751.25</ele><time>2026-04-25T09:30:18.634Z</time></trkpt><trkpt lat="44.459905" lon="8.0322017"><ele>754.0</ele><time>2026-04-25T09:30:19.638Z</time></trkpt><trkpt lat="44.459955" lon="8.032385"><ele>755.5</ele><time>2026-04-25T09:30:20.642Z</time></trkpt><trkpt lat="44.4599983" lon="8.0325617"><ele>757.0</ele><time>2026-04-25T09:30:21.635Z</time></trkpt><trkpt lat="44.4600417" lon="8.03273"><ele>758.5</ele><time>2026-04-25T09:30:22.633Z</time></trkpt><trkpt lat="44.46008" lon="8.0328933"><ele>760.0</ele><time>2026-04-25T09:30:23.635Z</time></trkpt><trkpt lat="44.4601183" lon="8.03306"><ele>760.0</ele><time>2026-04-25T09:30:24.635Z</time></trkpt><trkpt lat="44.4601617" lon="8.0332267"><ele>760.0</ele><time>2026-04-25T09:30:25.638Z</time></trkpt><trkpt lat="44.4602067" lon="8.0333917"><ele>760.0</ele><time>2026-04-25T09:30:26.634Z</time></trkpt><trkpt lat="44.46025" lon="8.03356"><ele>760.0</ele><time>2026-04-25T09:30:27.633Z</time></trkpt><trkpt lat="44.4602917" lon="8.0337267"><ele>760.25</ele><time>2026-04-25T09:30:28.633Z</time></trkpt><trkpt lat="44.4603333" lon="8.0338933"><ele>760.5</ele><time>2026-04-25T09:30:29.633Z</time></trkpt><trkpt lat="44.4603767" lon="8.0340567"><ele>760.75</ele><time>2026-04-25T09:30:30.637Z</time></trkpt><trkpt lat="44.4604183" lon="8.0342233"><ele>761.0</ele><time>2026-04-25T09:30:31.634Z</time></trkpt><trkpt lat="44.4604683" lon="8.0343883"><ele>761.0</ele><time>2026-04-25T09:30:32.634Z</time></trkpt><trkpt lat="44.4605167" lon="8.0345617"><ele>761.0</ele><time>2026-04-25T09:30:33.634Z</time></trkpt><trkpt lat="44.4605583" lon="8.0347317"><ele>761.0</ele><time>2026-04-25T09:30:34.637Z</time></trkpt><trkpt lat="44.4606067" lon="8.0349"><ele>761.0</ele><time>2026-04-25T09:30:35.634Z</time></trkpt><trkpt lat="44.4606667" lon="8.035065"><ele>763.5</ele><time>2026-04-25T09:30:36.635Z</time></trkpt><trkpt lat="44.4607383" lon="8.0352267"><ele>766.0</ele><time>2026-04-25T09:30:37.639Z</time></trkpt><trkpt lat="44.46083" lon="8.0353767"><ele>768.5</ele><time>2026-04-25T09:30:38.638Z</time></trkpt><trkpt lat="44.460925" lon="8.0355233"><ele>771.0</ele><time>2026-04-25T09:30:39.636Z</time></trkpt><trkpt lat="44.461035" lon="8.035655"><ele>771.0</ele><time>2026-04-25T09:30:40.634Z</time></trkpt><trkpt lat="44.4611533" lon="8.035765"><ele>771.0</ele><time>2026-04-25T09:30:41.636Z</time></trkpt><trkpt lat="44.4612833" lon="8.035855"><ele>771.0</ele><time>2026-04-25T09:30:42.633Z</time></trkpt><trkpt lat="44.461425" lon="8.0359183"><ele>771.0</ele><time>2026-04-25T09:30:43.632Z</time></trkpt><trkpt lat="44.4615683" lon="8.0359533"><ele>773.75</ele><time>2026-04-25T09:30:44.639Z</time></trkpt><trkpt lat="44.4617167" lon="8.0359683"><ele>776.5</ele><time>2026-04-25T09:30:45.632Z</time></trkpt><trkpt lat="44.4618583" lon="8.0359617"><ele>779.25</ele><time>2026-04-25T09:30:46.635Z</time></trkpt><trkpt lat="44.4619867" lon="8.0359333"><ele>782.0</ele><time>2026-04-25T09:30:47.634Z</time></trkpt><trkpt lat="44.4621017" lon="8.035895"><ele>782.3333333333334</ele><time>2026-04-25T09:30:48.638Z</time></trkpt><trkpt lat="44.4621967" lon="8.0358567"><ele>782.6666666666667</ele><time>2026-04-25T09:30:49.636Z</time></trkpt><trkpt lat="44.46228" lon="8.0358317"><ele>783.0</ele><time>2026-04-25T09:30:50.641Z</time></trkpt><trkpt lat="44.4623467" lon="8.0358267"><ele>783.3333333333333</ele><time>2026-04-25T09:30:51.633Z</time></trkpt><trkpt lat="44.4624217" lon="8.035845"><ele>783.6666666666666</ele><time>2026-04-25T09:30:53.633Z</time></trkpt><trkpt lat="44.4625033" lon="8.0358683"><ele>784.0</ele><time>2026-04-25T09:32:13.634Z</time></trkpt><trkpt lat="44.4626117" lon="8.0358767"><ele>783.9999999999999</ele><time>2026-04-25T09:32:15.633Z</time></trkpt><trkpt lat="44.4626783" lon="8.0358733"><ele>784.0</ele><time>2026-04-25T09:32:16.634Z</time></trkpt><trkpt lat="44.462745" lon="8.0358683"><ele>784.0</ele><time>2026-04-25T09:32:17.638Z</time></trkpt><trkpt lat="44.4628133" lon="8.03585"><ele>784.0</ele><time>2026-04-25T09:32:18.634Z</time></trkpt><trkpt lat="44.4628917" lon="8.0358317"><ele>783.9999999999999</ele><time>2026-04-25T09:32:19.634Z</time></trkpt><trkpt lat="44.4629867" lon="8.0358217"><ele>784.0</ele><time>2026-04-25T09:32:20.634Z</time></trkpt><trkpt lat="44.46308" lon="8.0358117"><ele>779.6</ele><time>2026-04-25T09:32:21.632Z</time></trkpt><trkpt lat="44.4631783" lon="8.0357967"><ele>775.2</ele><time>2026-04-25T09:32:22.636Z</time></trkpt><trkpt lat="44.4632717" lon="8.035785"><ele>770.8000000000001</ele><time>2026-04-25T09:32:23.636Z</time></trkpt><trkpt lat="44.463365" lon="8.0357583"><ele>766.4000000000001</ele><time>2026-04-25T09:32:24.634Z</time></trkpt><trkpt lat="44.4634583" lon="8.0357183"><ele>762.0</ele><time>2026-04-25T09:32:25.641Z</time></trkpt><trkpt lat="44.4635483" lon="8.0356617"><ele>762.0</ele><time>2026-04-25T09:32:26.637Z</time></trkpt><trkpt lat="44.4636317" lon="8.035595"><ele>762.0</ele><time>2026-04-25T09:32:27.634Z</time></trkpt><trkpt lat="44.4637117" lon="8.0355233"><ele>762.0</ele><time>2026-04-25T09:32:28.634Z</time></trkpt><trkpt lat="44.4637933" lon="8.0354433"><ele>762.0</ele><time>2026-04-25T09:32:29.635Z</time></trkpt><trkpt lat="44.4638767" lon="8.0353583"><ele>762.0</ele><time>2026-04-25T09:32:30.633Z</time></trkpt><trkpt lat="44.4639633" lon="8.0352717"><ele>763.75</ele><time>2026-04-25T09:32:31.633Z</time></trkpt><trkpt lat="44.4640583" lon="8.0351783"><ele>765.5</ele><time>2026-04-25T09:32:32.634Z</time></trkpt><trkpt lat="44.4641583" lon="8.035085"><ele>767.25</ele><time>2026-04-25T09:32:33.634Z</time></trkpt><trkpt lat="44.4642583" lon="8.0349983"><ele>769.0</ele><time>2026-04-25T09:32:34.633Z</time></trkpt><trkpt lat="44.46436" lon="8.03491"><ele>767.25</ele><time>2026-04-25T09:32:35.633Z</time></trkpt><trkpt lat="44.4644617" lon="8.0348183"><ele>765.5</ele><time>2026-04-25T09:32:36.634Z</time></trkpt><trkpt lat="44.4645667" lon="8.03472"><ele>763.75</ele><time>2026-04-25T09:32:37.633Z</time></trkpt><trkpt lat="44.464675" lon="8.0346233"><ele>762.0</ele><time>2026-04-25T09:32:38.64Z</time></trkpt><trkpt lat="44.464785" lon="8.03452"><ele>762.0</ele><time>2026-04-25T09:32:39.634Z</time></trkpt><trkpt lat="44.464895" lon="8.0344067"><ele>762.0</ele><time>2026-04-25T09:32:40.635Z</time></trkpt><trkpt lat="44.4650117" lon="8.034285"><ele>762.0</ele><time>2026-04-25T09:32:41.634Z</time></trkpt><trkpt lat="44.4651317" lon="8.03415"><ele>762.0</ele><time>2026-04-25T09:32:42.635Z</time></trkpt><trkpt lat="44.4652533" lon="8.0339967"><ele>762.3333333333334</ele><time>2026-04-25T09:32:43.634Z</time></trkpt><trkpt lat="44.465375" lon="8.0338233"><ele>762.6666666666667</ele><time>2026-04-25T09:32:44.638Z</time></trkpt><trkpt lat="44.465495" lon="8.03363"><ele>763.0</ele><time>2026-04-25T09:32:45.633Z</time></trkpt><trkpt lat="44.4656017" lon="8.0334217"><ele>759.0</ele><time>2026-04-25T09:32:46.634Z</time></trkpt><trkpt lat="44.4657017" lon="8.0332183"><ele>755.0</ele><time>2026-04-25T09:32:47.636Z</time></trkpt><trkpt lat="44.4657967" lon="8.0330483"><ele>751.0</ele><time>2026-04-25T09:32:48.635Z</time></trkpt><trkpt lat="44.4658967" lon="8.03291"><ele>751.0</ele><time>2026-04-25T09:32:49.633Z</time></trkpt><trkpt lat="44.4659983" lon="8.0327917"><ele>751.0</ele><time>2026-04-25T09:32:50.639Z</time></trkpt><trkpt lat="44.4661" lon="8.0327017"><ele>751.0</ele><time>2026-04-25T09:32:51.638Z</time></trkpt><trkpt lat="44.4662033" lon="8.03263"><ele>751.0</ele><time>2026-04-25T09:32:52.635Z</time></trkpt><trkpt lat="44.4662983" lon="8.0325383"><ele>754.0</ele><time>2026-04-25T09:32:53.635Z</time></trkpt><trkpt lat="44.4663717" lon="8.0324133"><ele>757.0</ele><time>2026-04-25T09:32:54.634Z</time></trkpt><trkpt lat="44.4664233" lon="8.0322583"><ele>760.0</ele><time>2026-04-25T09:32:55.634Z</time></trkpt><trkpt lat="44.4664483" lon="8.0320833"><ele>763.0</ele><time>2026-04-25T09:32:56.635Z</time></trkpt><trkpt lat="44.4664467" lon="8.0318983"><ele>763.0</ele><time>2026-04-25T09:32:57.634Z</time></trkpt><trkpt lat="44.4664167" lon="8.031715"><ele>763.0</ele><time>2026-04-25T09:32:58.633Z</time></trkpt><trkpt lat="44.4663717" lon="8.0315283"><ele>763.0</ele><time>2026-04-25T09:32:59.635Z</time></trkpt><trkpt lat="44.4663217" lon="8.0313367"><ele>763.0</ele><time>2026-04-25T09:33:00.634Z</time></trkpt><trkpt lat="44.466275" lon="8.03115"><ele>755.75</ele><time>2026-04-25T09:33:01.635Z</time></trkpt><trkpt lat="44.46623" lon="8.0309667"><ele>748.5</ele><time>2026-04-25T09:33:02.635Z</time></trkpt><trkpt lat="44.4661817" lon="8.0307817"><ele>741.25</ele><time>2026-04-25T09:33:03.634Z</time></trkpt><trkpt lat="44.466145" lon="8.0306"><ele>734.0</ele><time>2026-04-25T09:33:04.639Z</time></trkpt><trkpt lat="44.4661167" lon="8.03042"><ele>734.0</ele><time>2026-04-25T09:33:05.633Z</time></trkpt><trkpt lat="44.4661367" lon="8.0302517"><ele>734.0</ele><time>2026-04-25T09:33:06.633Z</time></trkpt><trkpt lat="44.4661867" lon="8.0301117"><ele>734.0</ele><time>2026-04-25T09:33:07.637Z</time></trkpt><trkpt lat="44.4662583" lon="8.0300017"><ele>734.0</ele><time>2026-04-25T09:33:08.636Z</time></trkpt><trkpt lat="44.4663517" lon="8.029915"><ele>733.25</ele><time>2026-04-25T09:33:09.638Z</time></trkpt><trkpt lat="44.4664583" lon="8.02986"><ele>732.5</ele><time>2026-04-25T09:33:10.635Z</time></trkpt><trkpt lat="44.4665733" lon="8.0298217"><ele>731.75</ele><time>2026-04-25T09:33:11.634Z</time></trkpt><trkpt lat="44.466705" lon="8.0297967"><ele>731.0</ele><time>2026-04-25T09:33:12.637Z</time></trkpt><trkpt lat="44.4668517" lon="8.0297883"><ele>731.0</ele><time>2026-04-25T09:33:13.633Z</time></trkpt><trkpt lat="44.4670017" lon="8.0297833"><ele>731.0</ele><time>2026-04-25T09:33:14.633Z</time></trkpt><trkpt lat="44.4671483" lon="8.0297783"><ele>731.0</ele><time>2026-04-25T09:33:15.638Z</time></trkpt><trkpt lat="44.4672933" lon="8.0297717"><ele>731.0</ele><time>2026-04-25T09:33:16.636Z</time></trkpt><trkpt lat="44.4674267" lon="8.02974"><ele>730.1999999999999</ele><time>2026-04-25T09:33:17.634Z</time></trkpt><trkpt lat="44.467545" lon="8.0296717"><ele>729.4</ele><time>2026-04-25T09:33:18.633Z</time></trkpt><trkpt lat="44.46764" lon="8.02958"><ele>728.6</ele><time>2026-04-25T09:33:19.636Z</time></trkpt><trkpt lat="44.4677117" lon="8.029475"><ele>727.8</ele><time>2026-04-25T09:33:20.634Z</time></trkpt><trkpt lat="44.4677683" lon="8.0293583"><ele>727.0</ele><time>2026-04-25T09:33:21.633Z</time></trkpt><trkpt lat="44.4678217" lon="8.0292433"><ele>725.2</ele><time>2026-04-25T09:33:22.636Z</time></trkpt><trkpt lat="44.467885" lon="8.0291367"><ele>723.4000000000001</ele><time>2026-04-25T09:33:23.634Z</time></trkpt><trkpt lat="44.4679583" lon="8.0290383"><ele>721.5999999999999</ele><time>2026-04-25T09:33:24.634Z</time></trkpt><trkpt lat="44.4680417" lon="8.0289467"><ele>719.8</ele><time>2026-04-25T09:33:25.634Z</time></trkpt><trkpt lat="44.4681367" lon="8.0288717"><ele>718.0</ele><time>2026-04-25T09:33:26.635Z</time></trkpt><trkpt lat="44.4682417" lon="8.0288117"><ele>718.0</ele><time>2026-04-25T09:33:27.635Z</time></trkpt><trkpt lat="44.46835" lon="8.028775"><ele>718.0</ele><time>2026-04-25T09:33:28.638Z</time></trkpt><trkpt lat="44.4684583" lon="8.0287533"><ele>718.0</ele><time>2026-04-25T09:33:29.634Z</time></trkpt><trkpt lat="44.468565" lon="8.0287617"><ele>718.0</ele><time>2026-04-25T09:33:30.638Z</time></trkpt><trkpt lat="44.4686667" lon="8.0287867"><ele>718.0</ele><time>2026-04-25T09:33:31.633Z</time></trkpt><trkpt lat="44.46876" lon="8.0288133"><ele>718.8</ele><time>2026-04-25T09:33:32.635Z</time></trkpt><trkpt lat="44.4688483" lon="8.02883"><ele>719.5999999999999</ele><time>2026-04-25T09:33:33.633Z</time></trkpt><trkpt lat="44.468935" lon="8.0288133"><ele>720.4000000000001</ele><time>2026-04-25T09:33:34.633Z</time></trkpt><trkpt lat="44.4690133" lon="8.028765"><ele>721.2</ele><time>2026-04-25T09:33:35.634Z</time></trkpt><trkpt lat="44.469085" lon="8.028685"><ele>722.0</ele><time>2026-04-25T09:33:36.634Z</time></trkpt><trkpt lat="44.4691317" lon="8.0285367"><ele>722.0</ele><time>2026-04-25T09:33:37.634Z</time></trkpt><trkpt lat="44.4691617" lon="8.02836"><ele>722.0</ele><time>2026-04-25T09:33:38.639Z</time></trkpt><trkpt lat="44.469175" lon="8.028175"><ele>722.0</ele><time>2026-04-25T09:33:39.641Z</time></trkpt><trkpt lat="44.469185" lon="8.027975"><ele>722.0</ele><time>2026-04-25T09:33:40.635Z</time></trkpt><trkpt lat="44.4692033" lon="8.0277717"><ele>720.25</ele><time>2026-04-25T09:33:41.634Z</time></trkpt><trkpt lat="44.4692333" lon="8.0275733"><ele>718.5</ele><time>2026-04-25T09:33:42.635Z</time></trkpt><trkpt lat="44.4692767" lon="8.0273867"><ele>716.75</ele><time>2026-04-25T09:33:43.634Z</time></trkpt><trkpt lat="44.4693317" lon="8.0272033"><ele>715.0</ele><time>2026-04-25T09:33:44.637Z</time></trkpt><trkpt lat="44.4693967" lon="8.0270283"><ele>712.25</ele><time>2026-04-25T09:33:45.638Z</time></trkpt><trkpt lat="44.4694833" lon="8.0268633"><ele>709.5</ele><time>2026-04-25T09:33:46.634Z</time></trkpt><trkpt lat="44.4695833" lon="8.0267133"><ele>706.75</ele><time>2026-04-25T09:33:47.638Z</time></trkpt><trkpt lat="44.46969" lon="8.02657"><ele>704.0</ele><time>2026-04-25T09:33:48.639Z</time></trkpt><trkpt lat="44.4697867" lon="8.0264517"><ele>703.4000000000001</ele><time>2026-04-25T09:33:49.634Z</time></trkpt><trkpt lat="44.4698733" lon="8.0263583"><ele>702.8</ele><time>2026-04-25T09:33:50.634Z</time></trkpt><trkpt lat="44.4699583" lon="8.026275"><ele>702.2</ele><time>2026-04-25T09:33:51.634Z</time></trkpt><trkpt lat="44.4700333" lon="8.0261867"><ele>701.5999999999999</ele><time>2026-04-25T09:33:52.634Z</time></trkpt><trkpt lat="44.4701" lon="8.02607"><ele>701.0</ele><time>2026-04-25T09:33:53.634Z</time></trkpt><trkpt lat="44.4701583" lon="8.02592"><ele>697.0</ele><time>2026-04-25T09:33:54.635Z</time></trkpt><trkpt lat="44.47021" lon="8.0257467"><ele>693.0</ele><time>2026-04-25T09:33:55.635Z</time></trkpt><trkpt lat="44.470265" lon="8.0255667"><ele>689.0</ele><time>2026-04-25T09:33:56.636Z</time></trkpt><trkpt lat="44.4703183" lon="8.0253717"><ele>685.0</ele><time>2026-04-25T09:33:57.636Z</time></trkpt><trkpt lat="44.47037" lon="8.0251583"><ele>681.0</ele><time>2026-04-25T09:33:58.641Z</time></trkpt><trkpt lat="44.4704233" lon="8.0249467"><ele>677.0</ele><time>2026-04-25T09:33:59.638Z</time></trkpt><trkpt lat="44.4704767" lon="8.024735"><ele>673.0</ele><time>2026-04-25T09:34:00.636Z</time></trkpt><trkpt lat="44.4705233" lon="8.0245233"><ele>681.6666666666667</ele><time>2026-04-25T09:34:01.638Z</time></trkpt><trkpt lat="44.4705717" lon="8.0243133"><ele>690.3333333333334</ele><time>2026-04-25T09:34:02.637Z</time></trkpt><trkpt lat="44.4706283" lon="8.0241133"><ele>699.0</ele><time>2026-04-25T09:34:03.637Z</time></trkpt><trkpt lat="44.4706983" lon="8.0239133"><ele>699.0</ele><time>2026-04-25T09:34:04.634Z</time></trkpt><trkpt lat="44.47079" lon="8.0237167"><ele>699.0</ele><time>2026-04-25T09:34:05.731Z</time></trkpt><trkpt lat="44.4709017" lon="8.0235233"><ele>699.0</ele><time>2026-04-25T09:34:06.638Z</time></trkpt><trkpt lat="44.4710233" lon="8.02334"><ele>700.3333333333334</ele><time>2026-04-25T09:34:07.634Z</time></trkpt><trkpt lat="44.4711483" lon="8.0231617"><ele>701.6666666666667</ele><time>2026-04-25T09:34:08.635Z</time></trkpt><trkpt lat="44.4712667" lon="8.0229817"><ele>703.0</ele><time>2026-04-25T09:34:09.633Z</time></trkpt><trkpt lat="44.47139" lon="8.0227967"><ele>703.0</ele><time>2026-04-25T09:34:10.633Z</time></trkpt><trkpt lat="44.471515" lon="8.0226133"><ele>703.0</ele><time>2026-04-25T09:34:11.634Z</time></trkpt><trkpt lat="44.471635" lon="8.022435"><ele>703.0</ele><time>2026-04-25T09:34:12.636Z</time></trkpt><trkpt lat="44.471755" lon="8.0222583"><ele>700.0</ele><time>2026-04-25T09:34:13.635Z</time></trkpt><trkpt lat="44.4718717" lon="8.0220783"><ele>697.0</ele><time>2026-04-25T09:34:14.635Z</time></trkpt><trkpt lat="44.4719883" lon="8.0218967"><ele>694.0</ele><time>2026-04-25T09:34:15.635Z</time></trkpt><trkpt lat="44.472105" lon="8.0217167"><ele>698.3333333333334</ele><time>2026-04-25T09:34:16.635Z</time></trkpt><trkpt lat="44.4722233" lon="8.0215367"><ele>702.6666666666666</ele><time>2026-04-25T09:34:17.635Z</time></trkpt><trkpt lat="44.4723467" lon="8.0213567"><ele>707.0</ele><time>2026-04-25T09:34:18.634Z</time></trkpt><trkpt lat="44.472465" lon="8.021185"><ele>707.0</ele><time>2026-04-25T09:34:19.634Z</time></trkpt><trkpt lat="44.47257" lon="8.0210217"><ele>707.0</ele><time>2026-04-25T09:34:20.635Z</time></trkpt><trkpt lat="44.4726617" lon="8.0208733"><ele>707.0</ele><time>2026-04-25T09:34:21.634Z</time></trkpt><trkpt lat="44.472735" lon="8.0207383"><ele>707.0</ele><time>2026-04-25T09:34:22.639Z</time></trkpt><trkpt lat="44.4727883" lon="8.0206083"><ele>707.2</ele><time>2026-04-25T09:34:23.634Z</time></trkpt><trkpt lat="44.4728117" lon="8.020475"><ele>707.4000000000001</ele><time>2026-04-25T09:34:24.635Z</time></trkpt><trkpt lat="44.472815" lon="8.0203283"><ele>707.5999999999999</ele><time>2026-04-25T09:34:25.633Z</time></trkpt><trkpt lat="44.4727917" lon="8.0201783"><ele>707.8</ele><time>2026-04-25T09:34:26.634Z</time></trkpt><trkpt lat="44.4727433" lon="8.0200333"><ele>708.0</ele><time>2026-04-25T09:34:27.634Z</time></trkpt><trkpt lat="44.4726767" lon="8.019905"><ele>709.0</ele><time>2026-04-25T09:34:28.634Z</time></trkpt><trkpt lat="44.4726017" lon="8.019795"><ele>710.0</ele><time>2026-04-25T09:34:29.633Z</time></trkpt><trkpt lat="44.4725317" lon="8.0197"><ele>711.0</ele><time>2026-04-25T09:34:30.636Z</time></trkpt><trkpt lat="44.472465" lon="8.0196117"><ele>712.0</ele><time>2026-04-25T09:34:31.635Z</time></trkpt><trkpt lat="44.4724067" lon="8.0195117"><ele>713.0</ele><time>2026-04-25T09:34:32.64Z</time></trkpt><trkpt lat="44.472355" lon="8.0193983"><ele>713.0</ele><time>2026-04-25T09:34:33.634Z</time></trkpt><trkpt lat="44.4723267" lon="8.019265"><ele>713.0</ele><time>2026-04-25T09:34:34.635Z</time></trkpt><trkpt lat="44.4723317" lon="8.01912"><ele>713.0</ele><time>2026-04-25T09:34:35.634Z</time></trkpt><trkpt lat="44.4723683" lon="8.0189767"><ele>713.0</ele><time>2026-04-25T09:34:36.634Z</time></trkpt><trkpt lat="44.4724283" lon="8.0188517"><ele>713.0</ele><time>2026-04-25T09:34:37.635Z</time></trkpt><trkpt lat="44.47251" lon="8.0187317"><ele>709.75</ele><time>2026-04-25T09:34:38.633Z</time></trkpt><trkpt lat="44.4726017" lon="8.0186083"><ele>706.5</ele><time>2026-04-25T09:34:39.634Z</time></trkpt><trkpt lat="44.4726967" lon="8.0184733"><ele>703.25</ele><time>2026-04-25T09:34:40.634Z</time></trkpt><trkpt lat="44.47279" lon="8.018325"><ele>700.0</ele><time>2026-04-25T09:34:41.635Z</time></trkpt><trkpt lat="44.4728733" lon="8.0181633"><ele>702.5</ele><time>2026-04-25T09:34:42.634Z</time></trkpt><trkpt lat="44.4729383" lon="8.0179833"><ele>705.0</ele><time>2026-04-25T09:34:43.633Z</time></trkpt><trkpt lat="44.4729867" lon="8.0177983"><ele>707.5</ele><time>2026-04-25T09:34:44.635Z</time></trkpt><trkpt lat="44.4730233" lon="8.01761"><ele>710.0</ele><time>2026-04-25T09:34:45.636Z</time></trkpt><trkpt lat="44.4730533" lon="8.017425"><ele>710.0</ele><time>2026-04-25T09:34:46.634Z</time></trkpt><trkpt lat="44.4730783" lon="8.0172367"><ele>710.0</ele><time>2026-04-25T09:34:47.635Z</time></trkpt><trkpt lat="44.4731033" lon="8.017045"><ele>710.0</ele><time>2026-04-25T09:34:48.636Z</time></trkpt><trkpt lat="44.4731283" lon="8.0168583"><ele>710.0</ele><time>2026-04-25T09:34:49.635Z</time></trkpt><trkpt lat="44.47315" lon="8.0166733"><ele>710.0</ele><time>2026-04-25T09:34:50.637Z</time></trkpt><trkpt lat="44.4731717" lon="8.01649"><ele>710.0</ele><time>2026-04-25T09:34:51.634Z</time></trkpt><trkpt lat="44.4731967" lon="8.016305"><ele>710.0</ele><time>2026-04-25T09:34:52.634Z</time></trkpt><trkpt lat="44.4732217" lon="8.01612"><ele>710.0</ele><time>2026-04-25T09:34:53.636Z</time></trkpt><trkpt lat="44.473245" lon="8.0159317"><ele>709.75</ele><time>2026-04-25T09:34:54.635Z</time></trkpt><trkpt lat="44.4732733" lon="8.0157417"><ele>709.5</ele><time>2026-04-25T09:34:55.634Z</time></trkpt><trkpt lat="44.4733083" lon="8.0155533"><ele>709.25</ele><time>2026-04-25T09:34:56.636Z</time></trkpt><trkpt lat="44.4733583" lon="8.015375"><ele>709.0</ele><time>2026-04-25T09:34:57.635Z</time></trkpt><trkpt lat="44.4734183" lon="8.0152033"><ele>709.0</ele><time>2026-04-25T09:34:58.637Z</time></trkpt><trkpt lat="44.4734833" lon="8.0150517"><ele>709.0</ele><time>2026-04-25T09:34:59.635Z</time></trkpt><trkpt lat="44.4735467" lon="8.0149167"><ele>709.0</ele><time>2026-04-25T09:35:00.634Z</time></trkpt><trkpt lat="44.4735933" lon="8.0148133"><ele>709.0</ele><time>2026-04-25T09:35:01.635Z</time></trkpt><trkpt lat="44.473635" lon="8.0147267"><ele>709.0</ele><time>2026-04-25T09:35:02.635Z</time></trkpt><trkpt lat="44.4736683" lon="8.0146517"><ele>709.6</ele><time>2026-04-25T09:35:03.636Z</time></trkpt><trkpt lat="44.473735" lon="8.014525"><ele>710.2</ele><time>2026-04-25T09:35:05.634Z</time></trkpt><trkpt lat="44.47383" lon="8.0144333"><ele>710.8000000000001</ele><time>2026-04-25T09:35:07.635Z</time></trkpt><trkpt lat="44.4739133" lon="8.0143283"><ele>711.4000000000001</ele><time>2026-04-25T09:35:09.634Z</time></trkpt><trkpt lat="44.4739683" lon="8.0142033"><ele>712.0</ele><time>2026-04-25T09:35:11.641Z</time></trkpt><trkpt lat="44.4739733" lon="8.0140933"><ele>712.0</ele><time>2026-04-25T09:37:06.636Z</time></trkpt><trkpt lat="44.4739883" lon="8.014005"><ele>712.0</ele><time>2026-04-25T09:37:07.638Z</time></trkpt><trkpt lat="44.47402" lon="8.0138817"><ele>712.0</ele><time>2026-04-25T09:37:08.635Z</time></trkpt><trkpt lat="44.47406" lon="8.0137417"><ele>712.0</ele><time>2026-04-25T09:37:09.635Z</time></trkpt><trkpt lat="44.4741133" lon="8.0135717"><ele>712.0</ele><time>2026-04-25T09:37:10.634Z</time></trkpt><trkpt lat="44.47417" lon="8.0134"><ele>711.5</ele><time>2026-04-25T09:37:11.635Z</time></trkpt><trkpt lat="44.4742317" lon="8.013225"><ele>711.0</ele><time>2026-04-25T09:37:12.637Z</time></trkpt><trkpt lat="44.4742933" lon="8.0130683"><ele>710.5</ele><time>2026-04-25T09:37:13.633Z</time></trkpt><trkpt lat="44.474355" lon="8.01291"><ele>710.0</ele><time>2026-04-25T09:37:14.635Z</time></trkpt><trkpt lat="44.4744183" lon="8.0127467"><ele>710.0</ele><time>2026-04-25T09:37:15.635Z</time></trkpt><trkpt lat="44.4744783" lon="8.0125883"><ele>710.0</ele><time>2026-04-25T09:37:16.637Z</time></trkpt><trkpt lat="44.47454" lon="8.0124233"><ele>710.0</ele><time>2026-04-25T09:37:17.636Z</time></trkpt><trkpt lat="44.4746117" lon="8.0122383"><ele>710.0</ele><time>2026-04-25T09:37:18.635Z</time></trkpt><trkpt lat="44.4746883" lon="8.0120367"><ele>709.3333333333333</ele><time>2026-04-25T09:37:19.636Z</time></trkpt><trkpt lat="44.474765" lon="8.0118183"><ele>708.6666666666666</ele><time>2026-04-25T09:37:20.636Z</time></trkpt><trkpt lat="44.4748417" lon="8.0115883"><ele>708.0</ele><time>2026-04-25T09:37:21.638Z</time></trkpt><trkpt lat="44.4749183" lon="8.0113433"><ele>708.0</ele><time>2026-04-25T09:37:22.635Z</time></trkpt><trkpt lat="44.4749933" lon="8.0110817"><ele>708.0</ele><time>2026-04-25T09:37:23.636Z</time></trkpt><trkpt lat="44.47506" lon="8.010805"><ele>708.0</ele><time>2026-04-25T09:37:24.635Z</time></trkpt><trkpt lat="44.475125" lon="8.01052"><ele>707.6666666666666</ele><time>2026-04-25T09:37:25.633Z</time></trkpt><trkpt lat="44.475175" lon="8.010215"><ele>707.3333333333333</ele><time>2026-04-25T09:37:26.635Z</time></trkpt><trkpt lat="44.4752433" lon="8.0099133"><ele>707.0</ele><time>2026-04-25T09:37:27.635Z</time></trkpt><trkpt lat="44.47531" lon="8.009615"><ele>706.0</ele><time>2026-04-25T09:37:28.634Z</time></trkpt><trkpt lat="44.4753883" lon="8.0093083"><ele>705.0</ele><time>2026-04-25T09:37:29.639Z</time></trkpt><trkpt lat="44.4754617" lon="8.00904"><ele>704.0</ele><time>2026-04-25T09:37:30.636Z</time></trkpt><trkpt lat="44.475535" lon="8.0088217"><ele>704.0</ele><time>2026-04-25T09:37:31.634Z</time></trkpt><trkpt lat="44.4756167" lon="8.00862"><ele>704.0</ele><time>2026-04-25T09:37:32.635Z</time></trkpt><trkpt lat="44.4756733" lon="8.008395"><ele>704.0</ele><time>2026-04-25T09:37:33.636Z</time></trkpt><trkpt lat="44.47571" lon="8.0081467"><ele>704.6666666666666</ele><time>2026-04-25T09:37:34.636Z</time></trkpt><trkpt lat="44.475735" lon="8.0078783"><ele>705.3333333333334</ele><time>2026-04-25T09:37:35.636Z</time></trkpt><trkpt lat="44.475765" lon="8.007605"><ele>706.0</ele><time>2026-04-25T09:37:36.635Z</time></trkpt><trkpt lat="44.4758183" lon="8.0073283"><ele>703.6666666666667</ele><time>2026-04-25T09:37:37.644Z</time></trkpt><trkpt lat="44.4758767" lon="8.0070467"><ele>701.3333333333334</ele><time>2026-04-25T09:37:38.635Z</time></trkpt><trkpt lat="44.4759383" lon="8.0067483"><ele>699.0</ele><time>2026-04-25T09:37:39.633Z</time></trkpt><trkpt lat="44.4759967" lon="8.0064417"><ele>696.0</ele><time>2026-04-25T09:37:40.635Z</time></trkpt><trkpt lat="44.4760633" lon="8.0061283"><ele>693.0</ele><time>2026-04-25T09:37:41.636Z</time></trkpt><trkpt lat="44.4761283" lon="8.0058333"><ele>693.6666666666666</ele><time>2026-04-25T09:37:42.634Z</time></trkpt><trkpt lat="44.47619" lon="8.00556"><ele>694.3333333333333</ele><time>2026-04-25T09:37:43.636Z</time></trkpt><trkpt lat="44.476245" lon="8.0052983"><ele>695.0</ele><time>2026-04-25T09:37:44.639Z</time></trkpt><trkpt lat="44.47629" lon="8.0050567"><ele>695.6666666666666</ele><time>2026-04-25T09:37:45.636Z</time></trkpt><trkpt lat="44.4763317" lon="8.00482"><ele>696.3333333333334</ele><time>2026-04-25T09:37:46.634Z</time></trkpt><trkpt lat="44.4763683" lon="8.0045933"><ele>697.0</ele><time>2026-04-25T09:37:47.635Z</time></trkpt><trkpt lat="44.4764017" lon="8.00437"><ele>698.6666666666667</ele><time>2026-04-25T09:37:48.638Z</time></trkpt><trkpt lat="44.47643" lon="8.0041517"><ele>700.3333333333334</ele><time>2026-04-25T09:37:49.635Z</time></trkpt><trkpt lat="44.476455" lon="8.0039383"><ele>702.0</ele><time>2026-04-25T09:37:50.637Z</time></trkpt><trkpt lat="44.476475" lon="8.0037333"><ele>702.0</ele><time>2026-04-25T09:37:51.636Z</time></trkpt><trkpt lat="44.4764933" lon="8.00354"><ele>702.0</ele><time>2026-04-25T09:37:52.634Z</time></trkpt><trkpt lat="44.476515" lon="8.0033433"><ele>702.0</ele><time>2026-04-25T09:37:53.636Z</time></trkpt><trkpt lat="44.4765383" lon="8.00313"><ele>702.0</ele><time>2026-04-25T09:37:54.633Z</time></trkpt><trkpt lat="44.4765733" lon="8.0029117"><ele>704.3333333333334</ele><time>2026-04-25T09:37:55.634Z</time></trkpt><trkpt lat="44.476615" lon="8.0026917"><ele>706.6666666666667</ele><time>2026-04-25T09:37:56.635Z</time></trkpt><trkpt lat="44.476685" lon="8.00247"><ele>709.0</ele><time>2026-04-25T09:37:57.634Z</time></trkpt><trkpt lat="44.476775" lon="8.002255"><ele>708.6666666666667</ele><time>2026-04-25T09:37:58.635Z</time></trkpt><trkpt lat="44.4768767" lon="8.002045"><ele>708.3333333333334</ele><time>2026-04-25T09:37:59.636Z</time></trkpt><trkpt lat="44.4769867" lon="8.0018283"><ele>708.0</ele><time>2026-04-25T09:38:00.64Z</time></trkpt><trkpt lat="44.4770917" lon="8.0016183"><ele>709.3333333333334</ele><time>2026-04-25T09:38:01.635Z</time></trkpt><trkpt lat="44.4771867" lon="8.0014283"><ele>710.6666666666667</ele><time>2026-04-25T09:38:02.635Z</time></trkpt><trkpt lat="44.477275" lon="8.001245"><ele>712.0</ele><time>2026-04-25T09:38:03.635Z</time></trkpt><trkpt lat="44.477365" lon="8.001055"><ele>712.0</ele><time>2026-04-25T09:38:04.635Z</time></trkpt><trkpt lat="44.477455" lon="8.0008617"><ele>712.0</ele><time>2026-04-25T09:38:05.633Z</time></trkpt><trkpt lat="44.477555" lon="8.00066"><ele>712.0</ele><time>2026-04-25T09:38:06.634Z</time></trkpt><trkpt lat="44.4776533" lon="8.0004717"><ele>713.75</ele><time>2026-04-25T09:38:07.636Z</time></trkpt><trkpt lat="44.47774" lon="8.000305"><ele>715.5</ele><time>2026-04-25T09:38:08.634Z</time></trkpt><trkpt lat="44.4778133" lon="8.00016"><ele>717.25</ele><time>2026-04-25T09:38:09.641Z</time></trkpt><trkpt lat="44.4778717" lon="8.00003"><ele>719.0</ele><time>2026-04-25T09:38:10.635Z</time></trkpt><trkpt lat="44.47791" lon="7.99989"><ele>719.0</ele><time>2026-04-25T09:38:11.634Z</time></trkpt><trkpt lat="44.4779267" lon="7.999745"><ele>719.0</ele><time>2026-04-25T09:38:12.635Z</time></trkpt><trkpt lat="44.4778867" lon="7.9996067"><ele>719.0</ele><time>2026-04-25T09:38:13.635Z</time></trkpt><trkpt lat="44.4778217" lon="7.9994917"><ele>719.0</ele><time>2026-04-25T09:38:14.634Z</time></trkpt><trkpt lat="44.47773" lon="7.9993967"><ele>719.0</ele><time>2026-04-25T09:38:15.633Z</time></trkpt><trkpt lat="44.4776167" lon="7.9993183"><ele>719.0</ele><time>2026-04-25T09:38:16.635Z</time></trkpt><trkpt lat="44.4775017" lon="7.999235"><ele>719.0</ele><time>2026-04-25T09:38:17.634Z</time></trkpt><trkpt lat="44.4774017" lon="7.999155"><ele>719.0</ele><time>2026-04-25T09:38:18.635Z</time></trkpt><trkpt lat="44.4773267" lon="7.999065"><ele>719.0</ele><time>2026-04-25T09:38:19.635Z</time></trkpt><trkpt lat="44.4772817" lon="7.998965"><ele>719.0</ele><time>2026-04-25T09:38:20.639Z</time></trkpt><trkpt lat="44.477275" lon="7.99887"><ele>717.0</ele><time>2026-04-25T09:38:21.633Z</time></trkpt><trkpt lat="44.4773133" lon="7.9987883"><ele>715.0</ele><time>2026-04-25T09:38:22.634Z</time></trkpt><trkpt lat="44.4773983" lon="7.99873"><ele>713.0</ele><time>2026-04-25T09:38:23.635Z</time></trkpt><trkpt lat="44.4775167" lon="7.9987017"><ele>711.0</ele><time>2026-04-25T09:38:24.634Z</time></trkpt><trkpt lat="44.477655" lon="7.9986867"><ele>709.0</ele><time>2026-04-25T09:38:25.634Z</time></trkpt><trkpt lat="44.477825" lon="7.9986867"><ele>707.3333333333334</ele><time>2026-04-25T09:38:26.634Z</time></trkpt><trkpt lat="44.4779917" lon="7.9986583"><ele>705.6666666666666</ele><time>2026-04-25T09:38:27.64Z</time></trkpt><trkpt lat="44.4781633" lon="7.998615"><ele>704.0</ele><time>2026-04-25T09:38:28.634Z</time></trkpt><trkpt lat="44.4783483" lon="7.9985633"><ele>704.0</ele><time>2026-04-25T09:38:29.635Z</time></trkpt><trkpt lat="44.478535" lon="7.9984967"><ele>704.0</ele><time>2026-04-25T09:38:30.635Z</time></trkpt><trkpt lat="44.4787333" lon="7.998425"><ele>704.0</ele><time>2026-04-25T09:38:31.633Z</time></trkpt><trkpt lat="44.4789333" lon="7.9983633"><ele>700.3333333333333</ele><time>2026-04-25T09:38:32.636Z</time></trkpt><trkpt lat="44.4791233" lon="7.998315"><ele>696.6666666666666</ele><time>2026-04-25T09:38:33.636Z</time></trkpt><trkpt lat="44.4792967" lon="7.99826"><ele>693.0</ele><time>2026-04-25T09:38:34.64Z</time></trkpt><trkpt lat="44.479455" lon="7.9981867"><ele>692.0</ele><time>2026-04-25T09:38:35.635Z</time></trkpt><trkpt lat="44.4796017" lon="7.9980867"><ele>691.0</ele><time>2026-04-25T09:38:36.635Z</time></trkpt><trkpt lat="44.47974" lon="7.997955"><ele>690.0</ele><time>2026-04-25T09:38:37.635Z</time></trkpt><trkpt lat="44.4798767" lon="7.9978133"><ele>690.0</ele><time>2026-04-25T09:38:38.636Z</time></trkpt><trkpt lat="44.4800167" lon="7.99766"><ele>690.0</ele><time>2026-04-25T09:38:39.637Z</time></trkpt><trkpt lat="44.48017" lon="7.9975017"><ele>690.0</ele><time>2026-04-25T09:38:40.639Z</time></trkpt><trkpt lat="44.480335" lon="7.9973383"><ele>686.3333333333334</ele><time>2026-04-25T09:38:41.636Z</time></trkpt><trkpt lat="44.4805133" lon="7.9971733"><ele>682.6666666666667</ele><time>2026-04-25T09:38:42.636Z</time></trkpt><trkpt lat="44.4806983" lon="7.9970017"><ele>679.0</ele><time>2026-04-25T09:38:43.633Z</time></trkpt><trkpt lat="44.4808833" lon="7.99682"><ele>677.0</ele><time>2026-04-25T09:38:44.635Z</time></trkpt><trkpt lat="44.48107" lon="7.996625"><ele>675.0</ele><time>2026-04-25T09:38:45.635Z</time></trkpt><trkpt lat="44.4812533" lon="7.996435"><ele>673.6666666666666</ele><time>2026-04-25T09:38:46.635Z</time></trkpt><trkpt lat="44.4814217" lon="7.99627"><ele>672.3333333333333</ele><time>2026-04-25T09:38:47.635Z</time></trkpt><trkpt lat="44.4815617" lon="7.9961417"><ele>671.0</ele><time>2026-04-25T09:38:48.635Z</time></trkpt><trkpt lat="44.48168" lon="7.9960317"><ele>671.0</ele><time>2026-04-25T09:38:49.636Z</time></trkpt><trkpt lat="44.48179" lon="7.9959167"><ele>671.0</ele><time>2026-04-25T09:38:50.636Z</time></trkpt><trkpt lat="44.4818967" lon="7.9957867"><ele>671.0</ele><time>2026-04-25T09:38:51.635Z</time></trkpt><trkpt lat="44.482" lon="7.99563"><ele>671.0</ele><time>2026-04-25T09:38:52.634Z</time></trkpt><trkpt lat="44.4821067" lon="7.9954567"><ele>673.0</ele><time>2026-04-25T09:38:53.634Z</time></trkpt><trkpt lat="44.48221" lon="7.99528"><ele>675.0</ele><time>2026-04-25T09:38:54.633Z</time></trkpt><trkpt lat="44.4823" lon="7.9951067"><ele>677.0</ele><time>2026-04-25T09:38:55.637Z</time></trkpt><trkpt lat="44.4824" lon="7.9949167"><ele>678.6666666666666</ele><time>2026-04-25T09:38:56.637Z</time></trkpt><trkpt lat="44.48251" lon="7.9946933"><ele>680.3333333333334</ele><time>2026-04-25T09:38:57.636Z</time></trkpt><trkpt lat="44.4826083" lon="7.9944717"><ele>682.0</ele><time>2026-04-25T09:38:58.635Z</time></trkpt><trkpt lat="44.4826883" lon="7.9942233"><ele>680.0</ele><time>2026-04-25T09:38:59.635Z</time></trkpt><trkpt lat="44.48274" lon="7.9939667"><ele>678.0</ele><time>2026-04-25T09:39:00.635Z</time></trkpt><trkpt lat="44.4827633" lon="7.99369"><ele>676.0</ele><time>2026-04-25T09:39:01.638Z</time></trkpt><trkpt lat="44.4827783" lon="7.993405"><ele>674.0</ele><time>2026-04-25T09:39:02.634Z</time></trkpt><trkpt lat="44.48279" lon="7.9931133"><ele>672.0</ele><time>2026-04-25T09:39:03.633Z</time></trkpt><trkpt lat="44.482805" lon="7.9928183"><ele>670.0</ele><time>2026-04-25T09:39:04.635Z</time></trkpt><trkpt lat="44.48282" lon="7.992545"><ele>669.6666666666667</ele><time>2026-04-25T09:39:05.633Z</time></trkpt><trkpt lat="44.4828383" lon="7.9922967"><ele>669.3333333333334</ele><time>2026-04-25T09:39:06.634Z</time></trkpt><trkpt lat="44.482855" lon="7.9920767"><ele>669.0</ele><time>2026-04-25T09:39:07.634Z</time></trkpt><trkpt lat="44.4828683" lon="7.99187"><ele>668.6666666666666</ele><time>2026-04-25T09:39:08.634Z</time></trkpt><trkpt lat="44.482875" lon="7.9916533"><ele>668.3333333333333</ele><time>2026-04-25T09:39:09.639Z</time></trkpt><trkpt lat="44.482905" lon="7.991445"><ele>668.0</ele><time>2026-04-25T09:39:10.635Z</time></trkpt><trkpt lat="44.4829533" lon="7.9912367"><ele>672.0</ele><time>2026-04-25T09:39:11.635Z</time></trkpt><trkpt lat="44.4830133" lon="7.9910383"><ele>676.0</ele><time>2026-04-25T09:39:12.634Z</time></trkpt><trkpt lat="44.4830767" lon="7.9908533"><ele>680.0</ele><time>2026-04-25T09:39:13.633Z</time></trkpt><trkpt lat="44.483145" lon="7.99068"><ele>684.0</ele><time>2026-04-25T09:39:14.634Z</time></trkpt><trkpt lat="44.4832117" lon="7.9905133"><ele>684.0</ele><time>2026-04-25T09:39:15.634Z</time></trkpt><trkpt lat="44.4832667" lon="7.990335"><ele>684.0</ele><time>2026-04-25T09:39:16.635Z</time></trkpt><trkpt lat="44.4833183" lon="7.9901317"><ele>684.0</ele><time>2026-04-25T09:39:17.635Z</time></trkpt><trkpt lat="44.48337" lon="7.9899067"><ele>683.0</ele><time>2026-04-25T09:39:18.636Z</time></trkpt><trkpt lat="44.4834217" lon="7.9896583"><ele>682.0</ele><time>2026-04-25T09:39:19.636Z</time></trkpt><trkpt lat="44.4834767" lon="7.9893933"><ele>681.0</ele><time>2026-04-25T09:39:20.635Z</time></trkpt><trkpt lat="44.4835217" lon="7.989105"><ele>679.0</ele><time>2026-04-25T09:39:21.634Z</time></trkpt><trkpt lat="44.4835767" lon="7.988805"><ele>677.0</ele><time>2026-04-25T09:39:22.635Z</time></trkpt><trkpt lat="44.4836333" lon="7.9884967"><ele>675.0</ele><time>2026-04-25T09:39:23.637Z</time></trkpt><trkpt lat="44.4836883" lon="7.9881767"><ele>671.5</ele><time>2026-04-25T09:39:24.634Z</time></trkpt><trkpt lat="44.483745" lon="7.98784"><ele>668.0</ele><time>2026-04-25T09:39:25.635Z</time></trkpt><trkpt lat="44.4837983" lon="7.98749"><ele>659.5</ele><time>2026-04-25T09:39:26.635Z</time></trkpt><trkpt lat="44.4838567" lon="7.98715"><ele>651.0</ele><time>2026-04-25T09:39:27.635Z</time></trkpt><trkpt lat="44.4839083" lon="7.9868167"><ele>653.0</ele><time>2026-04-25T09:39:28.634Z</time></trkpt><trkpt lat="44.4839483" lon="7.9864883"><ele>655.0</ele><time>2026-04-25T09:39:29.639Z</time></trkpt><trkpt lat="44.4839967" lon="7.98615"><ele>658.5</ele><time>2026-04-25T09:39:30.636Z</time></trkpt><trkpt lat="44.4840367" lon="7.985815"><ele>662.0</ele><time>2026-04-25T09:39:31.638Z</time></trkpt><trkpt lat="44.48406" lon="7.9854817"><ele>662.0</ele><time>2026-04-25T09:39:32.636Z</time></trkpt><trkpt lat="44.4840733" lon="7.985175"><ele>662.0</ele><time>2026-04-25T09:39:33.639Z</time></trkpt><trkpt lat="44.4840983" lon="7.9849167"><ele>662.0</ele><time>2026-04-25T09:39:34.637Z</time></trkpt><trkpt lat="44.4841467" lon="7.9847017"><ele>662.6666666666666</ele><time>2026-04-25T09:39:35.637Z</time></trkpt><trkpt lat="44.4842267" lon="7.9845067"><ele>663.3333333333334</ele><time>2026-04-25T09:39:36.638Z</time></trkpt><trkpt lat="44.4843267" lon="7.984325"><ele>664.0</ele><time>2026-04-25T09:39:37.635Z</time></trkpt><trkpt lat="44.4844433" lon="7.984125"><ele>661.3333333333334</ele><time>2026-04-25T09:39:38.639Z</time></trkpt><trkpt lat="44.4845667" lon="7.9839117"><ele>658.6666666666666</ele><time>2026-04-25T09:39:39.633Z</time></trkpt><trkpt lat="44.4846933" lon="7.98369"><ele>656.0</ele><time>2026-04-25T09:39:40.635Z</time></trkpt><trkpt lat="44.4848317" lon="7.98347"><ele>655.6666666666666</ele><time>2026-04-25T09:39:41.634Z</time></trkpt><trkpt lat="44.4849733" lon="7.9832533"><ele>655.3333333333334</ele><time>2026-04-25T09:39:42.637Z</time></trkpt><trkpt lat="44.4851183" lon="7.98304"><ele>655.0</ele><time>2026-04-25T09:39:43.634Z</time></trkpt><trkpt lat="44.485275" lon="7.9828317"><ele>652.6666666666667</ele><time>2026-04-25T09:39:44.635Z</time></trkpt><trkpt lat="44.4854383" lon="7.982625"><ele>650.3333333333334</ele><time>2026-04-25T09:39:45.634Z</time></trkpt><trkpt lat="44.4856" lon="7.9824"><ele>648.0</ele><time>2026-04-25T09:39:46.634Z</time></trkpt><trkpt lat="44.48574" lon="7.98214"><ele>648.0</ele><time>2026-04-25T09:39:47.634Z</time></trkpt><trkpt lat="44.4858583" lon="7.9818483"><ele>648.0</ele><time>2026-04-25T09:39:48.635Z</time></trkpt><trkpt lat="44.4859633" lon="7.9815383"><ele>649.5</ele><time>2026-04-25T09:39:49.636Z</time></trkpt><trkpt lat="44.4860617" lon="7.9812217"><ele>651.0</ele><time>2026-04-25T09:39:50.636Z</time></trkpt><trkpt lat="44.4861567" lon="7.9809083"><ele>646.5</ele><time>2026-04-25T09:39:51.636Z</time></trkpt><trkpt lat="44.4862517" lon="7.9806067"><ele>642.0</ele><time>2026-04-25T09:39:52.636Z</time></trkpt><trkpt lat="44.4863433" lon="7.9803067"><ele>642.0</ele><time>2026-04-25T09:39:53.636Z</time></trkpt><trkpt lat="44.4864267" lon="7.98"><ele>642.0</ele><time>2026-04-25T09:39:54.635Z</time></trkpt><trkpt lat="44.4865067" lon="7.9796833"><ele>642.0</ele><time>2026-04-25T09:39:55.634Z</time></trkpt><trkpt lat="44.486585" lon="7.9793767"><ele>642.0</ele><time>2026-04-25T09:39:56.634Z</time></trkpt><trkpt lat="44.486655" lon="7.979105"><ele>642.0</ele><time>2026-04-25T09:39:57.635Z</time></trkpt><trkpt lat="44.48671" lon="7.9788767"><ele>641.0</ele><time>2026-04-25T09:39:58.639Z</time></trkpt><trkpt lat="44.4867517" lon="7.9787"><ele>640.0</ele><time>2026-04-25T09:39:59.635Z</time></trkpt><trkpt lat="44.4867933" lon="7.97855"><ele>639.0</ele><time>2026-04-25T09:40:00.634Z</time></trkpt><trkpt lat="44.4868333" lon="7.9784133"><ele>638.0</ele><time>2026-04-25T09:40:01.633Z</time></trkpt><trkpt lat="44.486865" lon="7.978295"><ele>637.0</ele><time>2026-04-25T09:40:02.635Z</time></trkpt><trkpt lat="44.4868933" lon="7.978185"><ele>636.5</ele><time>2026-04-25T09:40:03.636Z</time></trkpt><trkpt lat="44.4869217" lon="7.9780833"><ele>636.0</ele><time>2026-04-25T09:40:04.638Z</time></trkpt><trkpt lat="44.4869483" lon="7.9779767"><ele>635.5</ele><time>2026-04-25T09:40:05.634Z</time></trkpt><trkpt lat="44.4869767" lon="7.9778683"><ele>635.0</ele><time>2026-04-25T09:40:06.639Z</time></trkpt><trkpt lat="44.4870033" lon="7.977765"><ele>634.5</ele><time>2026-04-25T09:40:07.634Z</time></trkpt><trkpt lat="44.4870283" lon="7.97766"><ele>634.0</ele><time>2026-04-25T09:40:08.635Z</time></trkpt><trkpt lat="44.487055" lon="7.9775567"><ele>634.0</ele><time>2026-04-25T09:40:09.635Z</time></trkpt><trkpt lat="44.4870833" lon="7.97745"><ele>634.0</ele><time>2026-04-25T09:40:10.634Z</time></trkpt><trkpt lat="44.48711" lon="7.97734"><ele>634.0</ele><time>2026-04-25T09:40:11.638Z</time></trkpt><trkpt lat="44.48714" lon="7.9772333"><ele>634.0</ele><time>2026-04-25T09:40:12.635Z</time></trkpt><trkpt lat="44.4871733" lon="7.97712"><ele>634.0</ele><time>2026-04-25T09:40:13.634Z</time></trkpt><trkpt lat="44.4872083" lon="7.9769883"><ele>634.0</ele><time>2026-04-25T09:40:14.633Z</time></trkpt><trkpt lat="44.4872533" lon="7.9768667"><ele>635.0</ele><time>2026-04-25T09:40:15.635Z</time></trkpt><trkpt lat="44.4872983" lon="7.97678"><ele>636.0</ele><time>2026-04-25T09:40:16.636Z</time></trkpt><trkpt lat="44.4873567" lon="7.9766967"><ele>637.0</ele><time>2026-04-25T09:40:17.634Z</time></trkpt><trkpt lat="44.4874367" lon="7.9766167"><ele>638.0</ele><time>2026-04-25T09:40:18.635Z</time></trkpt><trkpt lat="44.4875317" lon="7.97655"><ele>639.0</ele><time>2026-04-25T09:40:19.638Z</time></trkpt><trkpt lat="44.4876533" lon="7.9764817"><ele>639.0</ele><time>2026-04-25T09:40:20.635Z</time></trkpt><trkpt lat="44.4877933" lon="7.9764133"><ele>639.0</ele><time>2026-04-25T09:40:21.636Z</time></trkpt><trkpt lat="44.4879533" lon="7.9763383"><ele>639.0</ele><time>2026-04-25T09:40:22.635Z</time></trkpt><trkpt lat="44.48813" lon="7.97626"><ele>637.6666666666666</ele><time>2026-04-25T09:40:23.638Z</time></trkpt><trkpt lat="44.4883183" lon="7.9761783"><ele>636.3333333333333</ele><time>2026-04-25T09:40:24.634Z</time></trkpt><trkpt lat="44.4885167" lon="7.9760967"><ele>635.0</ele><time>2026-04-25T09:40:25.635Z</time></trkpt><trkpt lat="44.488715" lon="7.9760167"><ele>635.6666666666666</ele><time>2026-04-25T09:40:26.634Z</time></trkpt><trkpt lat="44.4889117" lon="7.975935"><ele>636.3333333333334</ele><time>2026-04-25T09:40:27.638Z</time></trkpt><trkpt lat="44.48911" lon="7.975845"><ele>637.0</ele><time>2026-04-25T09:40:28.635Z</time></trkpt><trkpt lat="44.4893133" lon="7.9757517"><ele>635.3333333333334</ele><time>2026-04-25T09:40:29.634Z</time></trkpt><trkpt lat="44.48952" lon="7.975665"><ele>633.6666666666666</ele><time>2026-04-25T09:40:30.639Z</time></trkpt><trkpt lat="44.48972" lon="7.9755783"><ele>632.0</ele><time>2026-04-25T09:40:31.635Z</time></trkpt><trkpt lat="44.4899167" lon="7.975495"><ele>632.0</ele><time>2026-04-25T09:40:32.636Z</time></trkpt><trkpt lat="44.49011" lon="7.9754133"><ele>632.0</ele><time>2026-04-25T09:40:33.636Z</time></trkpt><trkpt lat="44.490295" lon="7.9753367"><ele>632.0</ele><time>2026-04-25T09:40:34.634Z</time></trkpt><trkpt lat="44.4904633" lon="7.97527"><ele>632.25</ele><time>2026-04-25T09:40:35.64Z</time></trkpt><trkpt lat="44.4906167" lon="7.9752083"><ele>632.5</ele><time>2026-04-25T09:40:36.634Z</time></trkpt><trkpt lat="44.4907533" lon="7.9751467"><ele>632.75</ele><time>2026-04-25T09:40:37.635Z</time></trkpt><trkpt lat="44.49088" lon="7.9750917"><ele>633.0</ele><time>2026-04-25T09:40:38.636Z</time></trkpt><trkpt lat="44.490985" lon="7.9750483"><ele>632.5</ele><time>2026-04-25T09:40:39.636Z</time></trkpt><trkpt lat="44.4910767" lon="7.9750183"><ele>632.0</ele><time>2026-04-25T09:40:40.636Z</time></trkpt><trkpt lat="44.4911583" lon="7.9749883"><ele>631.5</ele><time>2026-04-25T09:40:41.637Z</time></trkpt><trkpt lat="44.49124" lon="7.9749517"><ele>631.0</ele><time>2026-04-25T09:40:42.64Z</time></trkpt><trkpt lat="44.4913217" lon="7.9749033"><ele>630.5</ele><time>2026-04-25T09:40:43.635Z</time></trkpt><trkpt lat="44.4913933" lon="7.9748217"><ele>630.0</ele><time>2026-04-25T09:40:44.635Z</time></trkpt><trkpt lat="44.4914583" lon="7.974705"><ele>630.0</ele><time>2026-04-25T09:40:45.636Z</time></trkpt><trkpt lat="44.49152" lon="7.974565"><ele>630.0</ele><time>2026-04-25T09:40:46.634Z</time></trkpt><trkpt lat="44.4915833" lon="7.97441"><ele>630.0</ele><time>2026-04-25T09:40:47.64Z</time></trkpt><trkpt lat="44.4916517" lon="7.9742283"><ele>630.0</ele><time>2026-04-25T09:40:48.636Z</time></trkpt><trkpt lat="44.4917183" lon="7.97403"><ele>628.6666666666666</ele><time>2026-04-25T09:40:49.635Z</time></trkpt><trkpt lat="44.4917817" lon="7.973825"><ele>627.3333333333333</ele><time>2026-04-25T09:40:50.636Z</time></trkpt><trkpt lat="44.4918383" lon="7.9736233"><ele>626.0</ele><time>2026-04-25T09:40:51.636Z</time></trkpt><trkpt lat="44.4918883" lon="7.973425"><ele>624.0</ele><time>2026-04-25T09:40:52.636Z</time></trkpt><trkpt lat="44.4919267" lon="7.9732267"><ele>622.0</ele><time>2026-04-25T09:40:53.636Z</time></trkpt><trkpt lat="44.491955" lon="7.9730333"><ele>620.0</ele><time>2026-04-25T09:40:54.635Z</time></trkpt><trkpt lat="44.491985" lon="7.97286"><ele>618.0</ele><time>2026-04-25T09:40:55.634Z</time></trkpt><trkpt lat="44.4920233" lon="7.972705"><ele>618.0</ele><time>2026-04-25T09:40:56.637Z</time></trkpt><trkpt lat="44.49208" lon="7.972575"><ele>618.0</ele><time>2026-04-25T09:40:57.636Z</time></trkpt><trkpt lat="44.4921617" lon="7.9724717"><ele>618.0</ele><time>2026-04-25T09:40:58.637Z</time></trkpt><trkpt lat="44.4922717" lon="7.9723933"><ele>618.0</ele><time>2026-04-25T09:40:59.634Z</time></trkpt><trkpt lat="44.4924067" lon="7.9723433"><ele>618.0</ele><time>2026-04-25T09:41:00.636Z</time></trkpt><trkpt lat="44.4925633" lon="7.9723283"><ele>618.0</ele><time>2026-04-25T09:41:01.638Z</time></trkpt><trkpt lat="44.492725" lon="7.9723433"><ele>618.0</ele><time>2026-04-25T09:41:02.635Z</time></trkpt><trkpt lat="44.49287" lon="7.9723817"><ele>617.75</ele><time>2026-04-25T09:41:03.634Z</time></trkpt><trkpt lat="44.4929933" lon="7.97243"><ele>617.5</ele><time>2026-04-25T09:41:04.636Z</time></trkpt><trkpt lat="44.4931" lon="7.9724683"><ele>617.25</ele><time>2026-04-25T09:41:05.634Z</time></trkpt><trkpt lat="44.49321" lon="7.9724633"><ele>617.0</ele><time>2026-04-25T09:41:06.635Z</time></trkpt><trkpt lat="44.4933167" lon="7.9724083"><ele>617.0</ele><time>2026-04-25T09:41:07.634Z</time></trkpt><trkpt lat="44.4934283" lon="7.9723067"><ele>617.0</ele><time>2026-04-25T09:41:08.642Z</time></trkpt><trkpt lat="44.4935483" lon="7.9721717"><ele>617.0</ele><time>2026-04-25T09:41:09.636Z</time></trkpt><trkpt lat="44.4936883" lon="7.9720333"><ele>619.3333333333333</ele><time>2026-04-25T09:41:10.635Z</time></trkpt><trkpt lat="44.4938417" lon="7.9719033"><ele>621.6666666666666</ele><time>2026-04-25T09:41:11.636Z</time></trkpt><trkpt lat="44.494" lon="7.9717717"><ele>624.0</ele><time>2026-04-25T09:41:12.635Z</time></trkpt><trkpt lat="44.4941533" lon="7.97165"><ele>619.0</ele><time>2026-04-25T09:41:13.635Z</time></trkpt><trkpt lat="44.494295" lon="7.9715433"><ele>614.0</ele><time>2026-04-25T09:41:14.635Z</time></trkpt><trkpt lat="44.4944217" lon="7.9714367"><ele>609.0</ele><time>2026-04-25T09:41:15.634Z</time></trkpt><trkpt lat="44.4945367" lon="7.9713167"><ele>608.6</ele><time>2026-04-25T09:41:16.634Z</time></trkpt><trkpt lat="44.494635" lon="7.9712"><ele>608.2</ele><time>2026-04-25T09:41:17.637Z</time></trkpt><trkpt lat="44.4947183" lon="7.9710917"><ele>607.8000000000001</ele><time>2026-04-25T09:41:18.635Z</time></trkpt><trkpt lat="44.4947883" lon="7.97099"><ele>607.4</ele><time>2026-04-25T09:41:19.636Z</time></trkpt><trkpt lat="44.4948467" lon="7.9708983"><ele>607.0</ele><time>2026-04-25T09:41:20.636Z</time></trkpt><trkpt lat="44.4948983" lon="7.97081"><ele>606.1666666666667</ele><time>2026-04-25T09:41:21.635Z</time></trkpt><trkpt lat="44.4949517" lon="7.9707267"><ele>605.3333333333334</ele><time>2026-04-25T09:41:22.635Z</time></trkpt><trkpt lat="44.4950067" lon="7.97065"><ele>604.5</ele><time>2026-04-25T09:41:23.637Z</time></trkpt><trkpt lat="44.4950667" lon="7.9705733"><ele>603.6666666666666</ele><time>2026-04-25T09:41:24.634Z</time></trkpt><trkpt lat="44.4951133" lon="7.9704983"><ele>602.8333333333333</ele><time>2026-04-25T09:41:25.635Z</time></trkpt><trkpt lat="44.4951617" lon="7.9704233"><ele>602.0</ele><time>2026-04-25T09:41:26.634Z</time></trkpt><trkpt lat="44.4952183" lon="7.9703217"><ele>602.0</ele><time>2026-04-25T09:41:27.634Z</time></trkpt><trkpt lat="44.49527" lon="7.970225"><ele>602.0</ele><time>2026-04-25T09:41:28.635Z</time></trkpt><trkpt lat="44.4953267" lon="7.9701217"><ele>602.0</ele><time>2026-04-25T09:41:29.641Z</time></trkpt><trkpt lat="44.4953983" lon="7.9700233"><ele>602.0</ele><time>2026-04-25T09:41:30.634Z</time></trkpt><trkpt lat="44.4954883" lon="7.9699217"><ele>602.0</ele><time>2026-04-25T09:41:31.634Z</time></trkpt><trkpt lat="44.4956" lon="7.969815"><ele>599.3333333333333</ele><time>2026-04-25T09:41:32.636Z</time></trkpt><trkpt lat="44.4957317" lon="7.969705"><ele>596.6666666666666</ele><time>2026-04-25T09:41:33.636Z</time></trkpt><trkpt lat="44.4958717" lon="7.9695867"><ele>594.0</ele><time>2026-04-25T09:41:34.636Z</time></trkpt><trkpt lat="44.4960167" lon="7.969455"><ele>594.0</ele><time>2026-04-25T09:41:35.635Z</time></trkpt><trkpt lat="44.4961733" lon="7.9693217"><ele>594.0</ele><time>2026-04-25T09:41:36.635Z</time></trkpt><trkpt lat="44.4963367" lon="7.96918"><ele>594.0</ele><time>2026-04-25T09:41:37.637Z</time></trkpt><trkpt lat="44.4965033" lon="7.9690383"><ele>593.0</ele><time>2026-04-25T09:41:38.636Z</time></trkpt><trkpt lat="44.4966633" lon="7.9689"><ele>592.0</ele><time>2026-04-25T09:41:39.634Z</time></trkpt><trkpt lat="44.4968183" lon="7.9687633"><ele>591.0</ele><time>2026-04-25T09:41:40.64Z</time></trkpt><trkpt lat="44.4969767" lon="7.9686333"><ele>591.0</ele><time>2026-04-25T09:41:41.634Z</time></trkpt><trkpt lat="44.4971283" lon="7.9685083"><ele>591.0</ele><time>2026-04-25T09:41:42.635Z</time></trkpt><trkpt lat="44.4972733" lon="7.9683833"><ele>591.0</ele><time>2026-04-25T09:41:43.634Z</time></trkpt><trkpt lat="44.4974017" lon="7.968255"><ele>591.3333333333334</ele><time>2026-04-25T09:41:44.635Z</time></trkpt><trkpt lat="44.4975183" lon="7.96812"><ele>591.6666666666667</ele><time>2026-04-25T09:41:45.635Z</time></trkpt><trkpt lat="44.4976333" lon="7.9679683"><ele>592.0</ele><time>2026-04-25T09:41:46.637Z</time></trkpt><trkpt lat="44.4977583" lon="7.9678033"><ele>592.0</ele><time>2026-04-25T09:41:47.639Z</time></trkpt><trkpt lat="44.4978967" lon="7.9676383"><ele>592.0</ele><time>2026-04-25T09:41:48.636Z</time></trkpt><trkpt lat="44.4980417" lon="7.9674717"><ele>592.0</ele><time>2026-04-25T09:41:49.636Z</time></trkpt><trkpt lat="44.4981783" lon="7.96731"><ele>592.0</ele><time>2026-04-25T09:41:50.636Z</time></trkpt><trkpt lat="44.4983033" lon="7.96716"><ele>592.0</ele><time>2026-04-25T09:41:51.641Z</time></trkpt><trkpt lat="44.498425" lon="7.9670183"><ele>592.0</ele><time>2026-04-25T09:41:52.635Z</time></trkpt><trkpt lat="44.498555" lon="7.9668767"><ele>592.0</ele><time>2026-04-25T09:41:53.636Z</time></trkpt><trkpt lat="44.4986883" lon="7.9667433"><ele>592.0</ele><time>2026-04-25T09:41:54.641Z</time></trkpt><trkpt lat="44.4988083" lon="7.9666283"><ele>592.0</ele><time>2026-04-25T09:41:55.634Z</time></trkpt><trkpt lat="44.4989067" lon="7.96651"><ele>592.0</ele><time>2026-04-25T09:41:56.634Z</time></trkpt><trkpt lat="44.499" lon="7.96639"><ele>592.0</ele><time>2026-04-25T09:41:57.634Z</time></trkpt><trkpt lat="44.4990917" lon="7.96627"><ele>592.0</ele><time>2026-04-25T09:41:58.634Z</time></trkpt><trkpt lat="44.4991833" lon="7.9661367"><ele>592.0</ele><time>2026-04-25T09:41:59.635Z</time></trkpt><trkpt lat="44.4992783" lon="7.9659983"><ele>592.0</ele><time>2026-04-25T09:42:00.637Z</time></trkpt><trkpt lat="44.499365" lon="7.965875"><ele>593.0</ele><time>2026-04-25T09:42:01.637Z</time></trkpt><trkpt lat="44.4994417" lon="7.96577"><ele>594.0</ele><time>2026-04-25T09:42:02.635Z</time></trkpt><trkpt lat="44.4995017" lon="7.96568"><ele>595.0</ele><time>2026-04-25T09:42:03.636Z</time></trkpt><trkpt lat="44.4995583" lon="7.9655867"><ele>596.0</ele><time>2026-04-25T09:42:04.636Z</time></trkpt><trkpt lat="44.4995917" lon="7.96548"><ele>597.0</ele><time>2026-04-25T09:42:05.638Z</time></trkpt><trkpt lat="44.4995983" lon="7.965355"><ele>592.5</ele><time>2026-04-25T09:42:06.636Z</time></trkpt><trkpt lat="44.4995767" lon="7.9652167"><ele>588.0</ele><time>2026-04-25T09:42:07.635Z</time></trkpt><trkpt lat="44.4995383" lon="7.96507"><ele>583.5</ele><time>2026-04-25T09:42:08.636Z</time></trkpt><trkpt lat="44.4994933" lon="7.9649017"><ele>579.0</ele><time>2026-04-25T09:42:09.637Z</time></trkpt><trkpt lat="44.4994467" lon="7.96472"><ele>578.3333333333334</ele><time>2026-04-25T09:42:10.636Z</time></trkpt><trkpt lat="44.4993983" lon="7.9645217"><ele>577.6666666666667</ele><time>2026-04-25T09:42:11.634Z</time></trkpt><trkpt lat="44.4993583" lon="7.9643067"><ele>577.0</ele><time>2026-04-25T09:42:12.637Z</time></trkpt><trkpt lat="44.4993267" lon="7.96409"><ele>577.0</ele><time>2026-04-25T09:42:13.636Z</time></trkpt><trkpt lat="44.49931" lon="7.9639"><ele>577.0</ele><time>2026-04-25T09:42:14.633Z</time></trkpt><trkpt lat="44.4992933" lon="7.9637217"><ele>577.0</ele><time>2026-04-25T09:42:15.636Z</time></trkpt><trkpt lat="44.499265" lon="7.9635633"><ele>577.0</ele><time>2026-04-25T09:42:16.634Z</time></trkpt><trkpt lat="44.4992383" lon="7.9634417"><ele>577.0</ele><time>2026-04-25T09:42:17.636Z</time></trkpt><trkpt lat="44.49923" lon="7.9633283"><ele>577.0</ele><time>2026-04-25T09:42:18.634Z</time></trkpt><trkpt lat="44.4992683" lon="7.9632033"><ele>577.0</ele><time>2026-04-25T09:42:20.635Z</time></trkpt><trkpt lat="44.4993433" lon="7.9631967"><ele>577.0</ele><time>2026-04-25T09:42:21.635Z</time></trkpt><trkpt lat="44.499445" lon="7.9632583"><ele>577.0</ele><time>2026-04-25T09:42:22.634Z</time></trkpt><trkpt lat="44.499575" lon="7.9633667"><ele>577.3333333333334</ele><time>2026-04-25T09:42:23.635Z</time></trkpt><trkpt lat="44.4997067" lon="7.96347"><ele>577.6666666666666</ele><time>2026-04-25T09:42:24.634Z</time></trkpt><trkpt lat="44.49986" lon="7.9635783"><ele>578.0</ele><time>2026-04-25T09:42:25.634Z</time></trkpt><trkpt lat="44.50003" lon="7.9636617"><ele>578.0</ele><time>2026-04-25T09:42:26.634Z</time></trkpt><trkpt lat="44.50021" lon="7.9637017"><ele>578.0</ele><time>2026-04-25T09:42:27.634Z</time></trkpt><trkpt lat="44.5004067" lon="7.9637"><ele>578.0</ele><time>2026-04-25T09:42:28.638Z</time></trkpt><trkpt lat="44.5006133" lon="7.9636633"><ele>576.3333333333333</ele><time>2026-04-25T09:42:29.637Z</time></trkpt><trkpt lat="44.5008233" lon="7.9636067"><ele>574.6666666666666</ele><time>2026-04-25T09:42:30.641Z</time></trkpt><trkpt lat="44.5010483" lon="7.9635383"><ele>573.0</ele><time>2026-04-25T09:42:31.639Z</time></trkpt><trkpt lat="44.501265" lon="7.9634783"><ele>568.0</ele><time>2026-04-25T09:42:32.635Z</time></trkpt><trkpt lat="44.501465" lon="7.9634183"><ele>563.0</ele><time>2026-04-25T09:42:33.636Z</time></trkpt><trkpt lat="44.5016533" lon="7.9633467"><ele>558.0</ele><time>2026-04-25T09:42:34.635Z</time></trkpt><trkpt lat="44.501845" lon="7.9632483"><ele>558.0</ele><time>2026-04-25T09:42:35.634Z</time></trkpt><trkpt lat="44.5020483" lon="7.96313"><ele>558.0</ele><time>2026-04-25T09:42:36.639Z</time></trkpt><trkpt lat="44.5022583" lon="7.9629933"><ele>550.5</ele><time>2026-04-25T09:42:37.635Z</time></trkpt><trkpt lat="44.5024833" lon="7.9628417"><ele>543.0</ele><time>2026-04-25T09:42:38.635Z</time></trkpt><trkpt lat="44.502705" lon="7.9626917"><ele>543.5</ele><time>2026-04-25T09:42:39.635Z</time></trkpt><trkpt lat="44.5029283" lon="7.96256"><ele>544.0</ele><time>2026-04-25T09:42:40.634Z</time></trkpt><trkpt lat="44.503155" lon="7.9624483"><ele>544.0</ele><time>2026-04-25T09:42:41.636Z</time></trkpt><trkpt lat="44.5033917" lon="7.9623683"><ele>544.0</ele><time>2026-04-25T09:42:42.635Z</time></trkpt><trkpt lat="44.5036283" lon="7.96231"><ele>540.6666666666667</ele><time>2026-04-25T09:42:43.636Z</time></trkpt><trkpt lat="44.503855" lon="7.9622633"><ele>537.3333333333334</ele><time>2026-04-25T09:42:44.634Z</time></trkpt><trkpt lat="44.504055" lon="7.9622267"><ele>534.0</ele><time>2026-04-25T09:42:45.639Z</time></trkpt><trkpt lat="44.504225" lon="7.9621967"><ele>534.0</ele><time>2026-04-25T09:42:46.633Z</time></trkpt><trkpt lat="44.5043783" lon="7.9621717"><ele>534.0</ele><time>2026-04-25T09:42:47.635Z</time></trkpt><trkpt lat="44.5045283" lon="7.962155"><ele>534.0</ele><time>2026-04-25T09:42:48.636Z</time></trkpt><trkpt lat="44.5046783" lon="7.9621533"><ele>534.5</ele><time>2026-04-25T09:42:49.636Z</time></trkpt><trkpt lat="44.5048283" lon="7.9621717"><ele>535.0</ele><time>2026-04-25T09:42:50.639Z</time></trkpt><trkpt lat="44.50497" lon="7.9622033"><ele>535.5</ele><time>2026-04-25T09:42:51.639Z</time></trkpt><trkpt lat="44.5051033" lon="7.962235"><ele>536.0</ele><time>2026-04-25T09:42:52.635Z</time></trkpt><trkpt lat="44.5052383" lon="7.9622483"><ele>536.0</ele><time>2026-04-25T09:42:53.636Z</time></trkpt><trkpt lat="44.5053783" lon="7.96224"><ele>536.0</ele><time>2026-04-25T09:42:54.634Z</time></trkpt><trkpt lat="44.50553" lon="7.9622033"><ele>536.0</ele><time>2026-04-25T09:42:55.634Z</time></trkpt><trkpt lat="44.5056917" lon="7.962155"><ele>535.0</ele><time>2026-04-25T09:42:56.637Z</time></trkpt><trkpt lat="44.5058683" lon="7.9621033"><ele>534.0</ele><time>2026-04-25T09:42:57.635Z</time></trkpt><trkpt lat="44.50606" lon="7.9620567"><ele>533.0</ele><time>2026-04-25T09:42:58.637Z</time></trkpt><trkpt lat="44.5062567" lon="7.9620133"><ele>530.3333333333333</ele><time>2026-04-25T09:42:59.635Z</time></trkpt><trkpt lat="44.50646" lon="7.9619633"><ele>527.6666666666666</ele><time>2026-04-25T09:43:00.636Z</time></trkpt><trkpt lat="44.5066683" lon="7.9619067"><ele>525.0</ele><time>2026-04-25T09:43:01.636Z</time></trkpt><trkpt lat="44.5068833" lon="7.96185"><ele>522.0</ele><time>2026-04-25T09:43:02.636Z</time></trkpt><trkpt lat="44.507105" lon="7.96179"><ele>519.0</ele><time>2026-04-25T09:43:03.635Z</time></trkpt><trkpt lat="44.5073267" lon="7.9617333"><ele>526.0</ele><time>2026-04-25T09:43:04.635Z</time></trkpt><trkpt lat="44.5075517" lon="7.9616783"><ele>533.0</ele><time>2026-04-25T09:43:05.636Z</time></trkpt><trkpt lat="44.50778" lon="7.9616233"><ele>535.5</ele><time>2026-04-25T09:43:06.636Z</time></trkpt><trkpt lat="44.5080117" lon="7.961565"><ele>538.0</ele><time>2026-04-25T09:43:07.638Z</time></trkpt><trkpt lat="44.5082467" lon="7.9615167"><ele>538.0</ele><time>2026-04-25T09:43:08.636Z</time></trkpt><trkpt lat="44.50848" lon="7.9614783"><ele>538.0</ele><time>2026-04-25T09:43:09.636Z</time></trkpt><trkpt lat="44.5087083" lon="7.961435"><ele>539.5</ele><time>2026-04-25T09:43:10.634Z</time></trkpt><trkpt lat="44.5089417" lon="7.961405"><ele>541.0</ele><time>2026-04-25T09:43:11.635Z</time></trkpt><trkpt lat="44.5091767" lon="7.9613683"><ele>541.0</ele><time>2026-04-25T09:43:12.635Z</time></trkpt><trkpt lat="44.5094067" lon="7.9613317"><ele>541.0</ele><time>2026-04-25T09:43:13.636Z</time></trkpt><trkpt lat="44.5096233" lon="7.9613067"><ele>541.0</ele><time>2026-04-25T09:43:14.635Z</time></trkpt><trkpt lat="44.50981" lon="7.961285"><ele>541.25</ele><time>2026-04-25T09:43:15.638Z</time></trkpt><trkpt lat="44.5099683" lon="7.9612633"><ele>541.5</ele><time>2026-04-25T09:43:16.635Z</time></trkpt><trkpt lat="44.510115" lon="7.961235"><ele>541.75</ele><time>2026-04-25T09:43:17.635Z</time></trkpt><trkpt lat="44.510255" lon="7.9612033"><ele>542.0</ele><time>2026-04-25T09:43:18.636Z</time></trkpt><trkpt lat="44.510395" lon="7.961175"><ele>538.75</ele><time>2026-04-25T09:43:19.636Z</time></trkpt><trkpt lat="44.5105333" lon="7.9611433"><ele>535.5</ele><time>2026-04-25T09:43:20.639Z</time></trkpt><trkpt lat="44.51067" lon="7.9611083"><ele>532.25</ele><time>2026-04-25T09:43:21.636Z</time></trkpt><trkpt lat="44.5107933" lon="7.96107"><ele>529.0</ele><time>2026-04-25T09:43:22.636Z</time></trkpt><trkpt lat="44.5109167" lon="7.9610283"><ele>529.0</ele><time>2026-04-25T09:43:23.635Z</time></trkpt><trkpt lat="44.5110433" lon="7.9609883"><ele>529.0</ele><time>2026-04-25T09:43:24.636Z</time></trkpt><trkpt lat="44.511175" lon="7.96095"><ele>529.0</ele><time>2026-04-25T09:43:25.636Z</time></trkpt><trkpt lat="44.5113133" lon="7.9608983"><ele>529.0</ele><time>2026-04-25T09:43:26.635Z</time></trkpt><trkpt lat="44.51146" lon="7.9608383"><ele>530.6666666666667</ele><time>2026-04-25T09:43:27.637Z</time></trkpt><trkpt lat="44.5116217" lon="7.9607767"><ele>532.3333333333334</ele><time>2026-04-25T09:43:28.635Z</time></trkpt><trkpt lat="44.51179" lon="7.9607183"><ele>534.0</ele><time>2026-04-25T09:43:29.634Z</time></trkpt><trkpt lat="44.51194" lon="7.9606667"><ele>534.0</ele><time>2026-04-25T09:43:30.636Z</time></trkpt><trkpt lat="44.5120633" lon="7.9606267"><ele>534.0</ele><time>2026-04-25T09:43:31.638Z</time></trkpt><trkpt lat="44.5121667" lon="7.9605933"><ele>534.0</ele><time>2026-04-25T09:43:32.636Z</time></trkpt><trkpt lat="44.51226" lon="7.9605617"><ele>534.0</ele><time>2026-04-25T09:43:33.635Z</time></trkpt><trkpt lat="44.5123533" lon="7.9605283"><ele>534.0</ele><time>2026-04-25T09:43:34.634Z</time></trkpt><trkpt lat="44.5124433" lon="7.9604967"><ele>534.2</ele><time>2026-04-25T09:43:35.634Z</time></trkpt><trkpt lat="44.5125333" lon="7.9604683"><ele>534.4</ele><time>2026-04-25T09:43:36.634Z</time></trkpt><trkpt lat="44.5126317" lon="7.9604367"><ele>534.6</ele><time>2026-04-25T09:43:37.636Z</time></trkpt><trkpt lat="44.51274" lon="7.9604083"><ele>534.8</ele><time>2026-04-25T09:43:38.634Z</time></trkpt><trkpt lat="44.5128567" lon="7.9603733"><ele>535.0</ele><time>2026-04-25T09:43:39.64Z</time></trkpt><trkpt lat="44.5129833" lon="7.9603283"><ele>535.75</ele><time>2026-04-25T09:43:40.634Z</time></trkpt><trkpt lat="44.5131183" lon="7.9602767"><ele>536.5</ele><time>2026-04-25T09:43:41.633Z</time></trkpt><trkpt lat="44.513265" lon="7.960225"><ele>537.25</ele><time>2026-04-25T09:43:42.634Z</time></trkpt><trkpt lat="44.5134117" lon="7.9601683"><ele>538.0</ele><time>2026-04-25T09:43:43.633Z</time></trkpt><trkpt lat="44.5135583" lon="7.9601183"><ele>538.0</ele><time>2026-04-25T09:43:44.633Z</time></trkpt><trkpt lat="44.5136933" lon="7.9600817"><ele>538.0</ele><time>2026-04-25T09:43:45.634Z</time></trkpt><trkpt lat="44.51381" lon="7.9600667"><ele>538.0</ele><time>2026-04-25T09:43:46.633Z</time></trkpt><trkpt lat="44.5139233" lon="7.96008"><ele>538.0</ele><time>2026-04-25T09:43:47.635Z</time></trkpt><trkpt lat="44.5140317" lon="7.9601267"><ele>536.0</ele><time>2026-04-25T09:43:48.635Z</time></trkpt><trkpt lat="44.5141317" lon="7.96022"><ele>534.0</ele><time>2026-04-25T09:43:49.634Z</time></trkpt><trkpt lat="44.5142183" lon="7.9603417"><ele>532.0</ele><time>2026-04-25T09:43:50.635Z</time></trkpt><trkpt lat="44.5143" lon="7.9604867"><ele>530.0</ele><time>2026-04-25T09:43:51.638Z</time></trkpt><trkpt lat="44.5143933" lon="7.9606383"><ele>530.0</ele><time>2026-04-25T09:43:52.633Z</time></trkpt><trkpt lat="44.5144967" lon="7.9607917"><ele>530.0</ele><time>2026-04-25T09:43:53.636Z</time></trkpt><trkpt lat="44.5146017" lon="7.96095"><ele>530.0</ele><time>2026-04-25T09:43:54.634Z</time></trkpt><trkpt lat="44.5147133" lon="7.9611067"><ele>527.75</ele><time>2026-04-25T09:43:55.632Z</time></trkpt><trkpt lat="44.5148233" lon="7.961255"><ele>525.5</ele><time>2026-04-25T09:43:56.641Z</time></trkpt><trkpt lat="44.5149233" lon="7.9613967"><ele>523.25</ele><time>2026-04-25T09:43:57.635Z</time></trkpt><trkpt lat="44.51502" lon="7.9615217"><ele>521.0</ele><time>2026-04-25T09:43:58.634Z</time></trkpt><trkpt lat="44.5151183" lon="7.961615"><ele>521.0</ele><time>2026-04-25T09:43:59.634Z</time></trkpt><trkpt lat="44.5152233" lon="7.9616717"><ele>521.0</ele><time>2026-04-25T09:44:00.634Z</time></trkpt><trkpt lat="44.5153267" lon="7.961685"><ele>521.0</ele><time>2026-04-25T09:44:01.633Z</time></trkpt><trkpt lat="44.5154267" lon="7.9616817"><ele>521.0</ele><time>2026-04-25T09:44:02.634Z</time></trkpt><trkpt lat="44.5155183" lon="7.9616583"><ele>521.0</ele><time>2026-04-25T09:44:03.636Z</time></trkpt><trkpt lat="44.5156" lon="7.9616267"><ele>519.8333333333333</ele><time>2026-04-25T09:44:04.634Z</time></trkpt><trkpt lat="44.51567" lon="7.9615867"><ele>518.6666666666666</ele><time>2026-04-25T09:44:05.633Z</time></trkpt><trkpt lat="44.5157383" lon="7.9615367"><ele>517.5</ele><time>2026-04-25T09:44:06.633Z</time></trkpt><trkpt lat="44.5158033" lon="7.9614717"><ele>516.3333333333334</ele><time>2026-04-25T09:44:07.633Z</time></trkpt><trkpt lat="44.515865" lon="7.9613983"><ele>515.1666666666667</ele><time>2026-04-25T09:44:08.633Z</time></trkpt><trkpt lat="44.51593" lon="7.9613333"><ele>514.0</ele><time>2026-04-25T09:44:09.638Z</time></trkpt><trkpt lat="44.5159917" lon="7.9612717"><ele>514.0</ele><time>2026-04-25T09:44:10.633Z</time></trkpt><trkpt lat="44.5160733" lon="7.9612517"><ele>514.0</ele><time>2026-04-25T09:44:11.633Z</time></trkpt><trkpt lat="44.5161683" lon="7.9612517"><ele>514.0</ele><time>2026-04-25T09:44:12.634Z</time></trkpt><trkpt lat="44.51628" lon="7.961275"><ele>514.0</ele><time>2026-04-25T09:44:13.632Z</time></trkpt><trkpt lat="44.516385" lon="7.961285"><ele>514.0</ele><time>2026-04-25T09:44:14.636Z</time></trkpt><trkpt lat="44.5164917" lon="7.9612767"><ele>512.6</ele><time>2026-04-25T09:44:15.636Z</time></trkpt><trkpt lat="44.5166" lon="7.9612617"><ele>511.2</ele><time>2026-04-25T09:44:16.635Z</time></trkpt><trkpt lat="44.5167033" lon="7.96124"><ele>509.80000000000007</ele><time>2026-04-25T09:44:17.637Z</time></trkpt><trkpt lat="44.5168067" lon="7.9612117"><ele>508.40000000000003</ele><time>2026-04-25T09:44:18.636Z</time></trkpt><trkpt lat="44.516905" lon="7.9611783"><ele>507.0</ele><time>2026-04-25T09:44:19.634Z</time></trkpt><trkpt lat="44.517" lon="7.9611333"><ele>506.0</ele><time>2026-04-25T09:44:20.638Z</time></trkpt><trkpt lat="44.5170867" lon="7.961075"><ele>505.00000000000006</ele><time>2026-04-25T09:44:21.634Z</time></trkpt><trkpt lat="44.5171617" lon="7.9609983"><ele>504.00000000000006</ele><time>2026-04-25T09:44:22.632Z</time></trkpt><trkpt lat="44.51723" lon="7.9609033"><ele>503.0</ele><time>2026-04-25T09:44:23.637Z</time></trkpt><trkpt lat="44.5172933" lon="7.9607833"><ele>502.0</ele><time>2026-04-25T09:44:24.637Z</time></trkpt><trkpt lat="44.5173467" lon="7.9606267"><ele>501.6666666666667</ele><time>2026-04-25T09:44:25.635Z</time></trkpt><trkpt lat="44.5173933" lon="7.96044"><ele>501.33333333333337</ele><time>2026-04-25T09:44:26.636Z</time></trkpt><trkpt lat="44.5174367" lon="7.9602267"><ele>501.0</ele><time>2026-04-25T09:44:27.633Z</time></trkpt><trkpt lat="44.51748" lon="7.9600083"><ele>497.33333333333337</ele><time>2026-04-25T09:44:28.633Z</time></trkpt><trkpt lat="44.5175367" lon="7.9597983"><ele>493.6666666666667</ele><time>2026-04-25T09:44:29.637Z</time></trkpt><trkpt lat="44.5176083" lon="7.9595917"><ele>490.0</ele><time>2026-04-25T09:44:30.636Z</time></trkpt><trkpt lat="44.5176833" lon="7.959385"><ele>487.5</ele><time>2026-04-25T09:44:31.637Z</time></trkpt><trkpt lat="44.517745" lon="7.9591867"><ele>485.0</ele><time>2026-04-25T09:44:32.635Z</time></trkpt><trkpt lat="44.5177917" lon="7.959"><ele>482.5</ele><time>2026-04-25T09:44:33.636Z</time></trkpt><trkpt lat="44.517825" lon="7.9588283"><ele>480.0</ele><time>2026-04-25T09:44:34.635Z</time></trkpt><trkpt lat="44.517855" lon="7.9586683"><ele>480.0</ele><time>2026-04-25T09:44:35.637Z</time></trkpt><trkpt lat="44.51789" lon="7.958515"><ele>480.0</ele><time>2026-04-25T09:44:36.635Z</time></trkpt><trkpt lat="44.5179233" lon="7.9583717"><ele>480.0</ele><time>2026-04-25T09:44:37.635Z</time></trkpt><trkpt lat="44.5179583" lon="7.958235"><ele>480.0</ele><time>2026-04-25T09:44:38.635Z</time></trkpt><trkpt lat="44.51799" lon="7.958105"><ele>480.0</ele><time>2026-04-25T09:44:39.638Z</time></trkpt><trkpt lat="44.51802" lon="7.9579733"><ele>479.25</ele><time>2026-04-25T09:44:40.633Z</time></trkpt><trkpt lat="44.5180483" lon="7.957825"><ele>478.5</ele><time>2026-04-25T09:44:41.636Z</time></trkpt><trkpt lat="44.5180783" lon="7.9576567"><ele>477.75</ele><time>2026-04-25T09:44:42.636Z</time></trkpt><trkpt lat="44.5181083" lon="7.95748"><ele>477.0</ele><time>2026-04-25T09:44:43.635Z</time></trkpt><trkpt lat="44.5181367" lon="7.9573067"><ele>477.0</ele><time>2026-04-25T09:44:44.635Z</time></trkpt><trkpt lat="44.518165" lon="7.9571333"><ele>477.0</ele><time>2026-04-25T09:44:45.633Z</time></trkpt><trkpt lat="44.5182017" lon="7.956975"><ele>477.0</ele><time>2026-04-25T09:44:46.64Z</time></trkpt><trkpt lat="44.5182533" lon="7.9568467"><ele>477.0</ele><time>2026-04-25T09:44:47.633Z</time></trkpt><trkpt lat="44.5183333" lon="7.9567417"><ele>475.40000000000003</ele><time>2026-04-25T09:44:48.633Z</time></trkpt><trkpt lat="44.518425" lon="7.956675"><ele>473.80000000000007</ele><time>2026-04-25T09:44:49.633Z</time></trkpt><trkpt lat="44.5185083" lon="7.95662"><ele>472.2</ele><time>2026-04-25T09:44:50.633Z</time></trkpt><trkpt lat="44.5185867" lon="7.9565467"><ele>470.6</ele><time>2026-04-25T09:44:51.633Z</time></trkpt><trkpt lat="44.51865" lon="7.9564383"><ele>469.0</ele><time>2026-04-25T09:44:52.633Z</time></trkpt><trkpt lat="44.5186883" lon="7.9562617"><ele>469.0</ele><time>2026-04-25T09:44:53.639Z</time></trkpt><trkpt lat="44.518725" lon="7.956055"><ele>469.0</ele><time>2026-04-25T09:44:54.633Z</time></trkpt><trkpt lat="44.5187617" lon="7.9558183"><ele>469.0</ele><time>2026-04-25T09:44:55.633Z</time></trkpt><trkpt lat="44.5188017" lon="7.955575"><ele>463.6666666666667</ele><time>2026-04-25T09:44:56.634Z</time></trkpt><trkpt lat="44.5188467" lon="7.955345"><ele>458.33333333333337</ele><time>2026-04-25T09:44:57.633Z</time></trkpt><trkpt lat="44.5188867" lon="7.955125"><ele>453.0</ele><time>2026-04-25T09:44:58.636Z</time></trkpt><trkpt lat="44.518925" lon="7.95491"><ele>453.0</ele><time>2026-04-25T09:44:59.634Z</time></trkpt><trkpt lat="44.518965" lon="7.9546967"><ele>453.0</ele><time>2026-04-25T09:45:00.633Z</time></trkpt><trkpt lat="44.5190067" lon="7.9544867"><ele>453.0</ele><time>2026-04-25T09:45:01.634Z</time></trkpt><trkpt lat="44.519045" lon="7.9542833"><ele>452.75</ele><time>2026-04-25T09:45:02.635Z</time></trkpt><trkpt lat="44.519085" lon="7.9540933"><ele>452.5</ele><time>2026-04-25T09:45:03.634Z</time></trkpt><trkpt lat="44.5191183" lon="7.9539067"><ele>452.25</ele><time>2026-04-25T09:45:04.634Z</time></trkpt><trkpt lat="44.51916" lon="7.9537217"><ele>452.0</ele><time>2026-04-25T09:45:05.636Z</time></trkpt><trkpt lat="44.5192233" lon="7.9535333"><ele>452.3333333333333</ele><time>2026-04-25T09:45:06.633Z</time></trkpt><trkpt lat="44.5193117" lon="7.9533467"><ele>452.66666666666663</ele><time>2026-04-25T09:45:07.636Z</time></trkpt><trkpt lat="44.5194217" lon="7.9531617"><ele>453.0</ele><time>2026-04-25T09:45:08.635Z</time></trkpt><trkpt lat="44.519535" lon="7.9529733"><ele>449.66666666666663</ele><time>2026-04-25T09:45:09.635Z</time></trkpt><trkpt lat="44.51964" lon="7.9527867"><ele>446.3333333333333</ele><time>2026-04-25T09:45:10.634Z</time></trkpt><trkpt lat="44.5197367" lon="7.9526117"><ele>443.0</ele><time>2026-04-25T09:45:11.634Z</time></trkpt><trkpt lat="44.5198317" lon="7.952445"><ele>443.0</ele><time>2026-04-25T09:45:12.638Z</time></trkpt><trkpt lat="44.5199367" lon="7.9522983"><ele>443.0</ele><time>2026-04-25T09:45:13.64Z</time></trkpt><trkpt lat="44.5200617" lon="7.9521583"><ele>443.0</ele><time>2026-04-25T09:45:14.634Z</time></trkpt><trkpt lat="44.520205" lon="7.9520283"><ele>443.0</ele><time>2026-04-25T09:45:15.641Z</time></trkpt><trkpt lat="44.5203583" lon="7.95191"><ele>443.0</ele><time>2026-04-25T09:45:16.635Z</time></trkpt><trkpt lat="44.5205333" lon="7.9517767"><ele>443.0</ele><time>2026-04-25T09:45:17.634Z</time></trkpt><trkpt lat="44.520695" lon="7.9516583"><ele>441.25</ele><time>2026-04-25T09:45:18.634Z</time></trkpt><trkpt lat="44.52084" lon="7.9515567"><ele>439.5</ele><time>2026-04-25T09:45:19.633Z</time></trkpt><trkpt lat="44.520955" lon="7.9514683"><ele>437.75</ele><time>2026-04-25T09:45:20.634Z</time></trkpt><trkpt lat="44.521055" lon="7.9514"><ele>436.0</ele><time>2026-04-25T09:45:21.638Z</time></trkpt><trkpt lat="44.5211483" lon="7.9513433"><ele>436.00000000000006</ele><time>2026-04-25T09:45:22.633Z</time></trkpt><trkpt lat="44.52123" lon="7.9512867"><ele>436.0</ele><time>2026-04-25T09:45:23.636Z</time></trkpt><trkpt lat="44.521295" lon="7.95121"><ele>436.0</ele><time>2026-04-25T09:45:24.635Z</time></trkpt><trkpt lat="44.5213483" lon="7.9511167"><ele>436.0</ele><time>2026-04-25T09:45:25.635Z</time></trkpt><trkpt lat="44.5213767" lon="7.9510083"><ele>436.00000000000006</ele><time>2026-04-25T09:45:26.633Z</time></trkpt><trkpt lat="44.52138" lon="7.950885"><ele>436.0</ele><time>2026-04-25T09:45:27.635Z</time></trkpt><trkpt lat="44.521355" lon="7.9507483"><ele>432.4</ele><time>2026-04-25T09:45:28.634Z</time></trkpt><trkpt lat="44.5213333" lon="7.95059"><ele>428.8</ele><time>2026-04-25T09:45:29.633Z</time></trkpt><trkpt lat="44.5213283" lon="7.950435"><ele>425.2</ele><time>2026-04-25T09:45:30.634Z</time></trkpt><trkpt lat="44.5213333" lon="7.9503067"><ele>421.59999999999997</ele><time>2026-04-25T09:45:31.636Z</time></trkpt><trkpt lat="44.5213467" lon="7.9501967"><ele>418.0</ele><time>2026-04-25T09:45:32.637Z</time></trkpt><trkpt lat="44.521365" lon="7.9500917"><ele>417.33333333333337</ele><time>2026-04-25T09:45:33.634Z</time></trkpt><trkpt lat="44.5213783" lon="7.95"><ele>416.6666666666667</ele><time>2026-04-25T09:45:34.633Z</time></trkpt><trkpt lat="44.5213917" lon="7.94991"><ele>416.0</ele><time>2026-04-25T09:45:35.635Z</time></trkpt><trkpt lat="44.5214167" lon="7.9497533"><ele>415.33333333333337</ele><time>2026-04-25T09:45:37.633Z</time></trkpt><trkpt lat="44.5214367" lon="7.94962"><ele>414.6666666666667</ele><time>2026-04-25T09:45:39.634Z</time></trkpt><trkpt lat="44.5214567" lon="7.9495183"><ele>414.0</ele><time>2026-04-25T09:45:41.635Z</time></trkpt><trkpt lat="44.521475" lon="7.949415"><ele>414.0</ele><time>2026-04-25T09:45:44.634Z</time></trkpt><trkpt lat="44.5214783" lon="7.949285"><ele>414.0</ele><time>2026-04-25T09:45:47.635Z</time></trkpt><trkpt lat="44.5214833" lon="7.9491583"><ele>414.0</ele><time>2026-04-25T09:45:50.636Z</time></trkpt><trkpt lat="44.5214867" lon="7.9490433"><ele>414.0</ele><time>2026-04-25T09:45:53.634Z</time></trkpt><trkpt lat="44.5214967" lon="7.9489483"><ele>414.0</ele><time>2026-04-25T09:45:55.634Z</time></trkpt><trkpt lat="44.521505" lon="7.9488517"><ele>414.0</ele><time>2026-04-25T09:45:58.634Z</time></trkpt><trkpt lat="44.5215267" lon="7.9487133"><ele>413.7142857142857</ele><time>2026-04-25T09:46:12.634Z</time></trkpt><trkpt lat="44.5215383" lon="7.948605"><ele>413.42857142857144</ele><time>2026-04-25T09:46:15.636Z</time></trkpt><trkpt lat="44.5215617" lon="7.9484983"><ele>413.1428571428571</ele><time>2026-04-25T09:46:19.633Z</time></trkpt><trkpt lat="44.521575" lon="7.948395"><ele>412.8571428571429</ele><time>2026-04-25T09:46:23.634Z</time></trkpt><trkpt lat="44.5215183" lon="7.9483483"><ele>412.57142857142856</ele><time>2026-04-25T09:46:29.638Z</time></trkpt><trkpt lat="44.5214517" lon="7.9483983"><ele>412.2857142857143</ele><time>2026-04-25T09:46:32.634Z</time></trkpt><trkpt lat="44.5213967" lon="7.9484433"><ele>412.0</ele><time>2026-04-25T09:46:35.635Z</time></trkpt><trkpt lat="44.52134" lon="7.9484983"><ele>412.0</ele><time>2026-04-25T09:46:38.635Z</time></trkpt><trkpt lat="44.5212683" lon="7.9484833"><ele>412.0</ele><time>2026-04-25T09:46:44.634Z</time></trkpt></trkseg></trk></gpx>